<?xml version='1.0' encoding='UTF-8'?><gpx version="1.1" creator="JPX - https://github.com/jenetics/jpx" xmlns="http://www.topografix.com/GPX/1/1"><trk><trkseg><trkpt lat="45.5767252" lon="10.7545911"><ele>207.99999999999997</ele><time>2026-03-28T12:01:41.646Z</time></trkpt><trkpt lat="45.5768161" lon="10.7545181"><ele>208.0</ele><time>2026-03-28T12:01:43.642Z</time></trkpt><trkpt lat="45.5769007" lon="10.7544253"><ele>208.0</ele><time>2026-03-28T12:01:45.637Z</time></trkpt><trkpt lat="45.5769507" lon="10.7543479"><ele>208.0</ele><time>2026-03-28T12:01:47.636Z</time></trkpt><trkpt lat="45.5769569" lon="10.7542317"><ele>207.99999999999997</ele><time>2026-03-28T12:01:52.642Z</time></trkpt><trkpt lat="45.5770246" lon="10.7542469"><ele>208.0</ele><time>2026-03-28T12:01:55.645Z</time></trkpt><trkpt lat="45.577059" lon="10.7543462"><ele>207.83333333333331</ele><time>2026-03-28T12:01:57.648Z</time></trkpt><trkpt lat="45.5770821" lon="10.7544326"><ele>207.66666666666666</ele><time>2026-03-28T12:01:58.632Z</time></trkpt><trkpt lat="45.5771003" lon="10.7545404"><ele>207.5</ele><time>2026-03-28T12:01:59.647Z</time></trkpt><trkpt lat="45.5771273" lon="10.7546561"><ele>207.33333333333331</ele><time>2026-03-28T12:02:00.639Z</time></trkpt><trkpt lat="45.5771481" lon="10.7547897"><ele>207.16666666666666</ele><time>2026-03-28T12:02:01.651Z</time></trkpt><trkpt lat="45.5771636" lon="10.7549162"><ele>207.0</ele><time>2026-03-28T12:02:02.646Z</time></trkpt><trkpt lat="45.5771845" lon="10.755054"><ele>207.0</ele><time>2026-03-28T12:02:03.649Z</time></trkpt><trkpt lat="45.5772017" lon="10.7551844"><ele>207.0</ele><time>2026-03-28T12:02:05.718Z</time></trkpt><trkpt lat="45.5772227" lon="10.7553225"><ele>207.0</ele><time>2026-03-28T12:02:06.727Z</time></trkpt><trkpt lat="45.5772402" lon="10.755468"><ele>207.0</ele><time>2026-03-28T12:02:07.718Z</time></trkpt><trkpt lat="45.5772537" lon="10.7556005"><ele>207.0</ele><time>2026-03-28T12:02:08.716Z</time></trkpt><trkpt lat="45.5772583" lon="10.75572"><ele>206.83333333333334</ele><time>2026-03-28T12:02:09.719Z</time></trkpt><trkpt lat="45.5772639" lon="10.7559024"><ele>206.66666666666669</ele><time>2026-03-28T12:02:11.726Z</time></trkpt><trkpt lat="45.5772274" lon="10.7560668"><ele>206.5</ele><time>2026-03-28T12:02:13.718Z</time></trkpt><trkpt lat="45.5772021" lon="10.7561537"><ele>206.33333333333334</ele><time>2026-03-28T12:02:14.724Z</time></trkpt><trkpt lat="45.5771792" lon="10.7562429"><ele>206.16666666666669</ele><time>2026-03-28T12:02:15.723Z</time></trkpt><trkpt lat="45.577146" lon="10.7563283"><ele>206.0</ele><time>2026-03-28T12:02:16.73Z</time></trkpt><trkpt lat="45.5770776" lon="10.7564805"><ele>206.0</ele><time>2026-03-28T12:02:18.725Z</time></trkpt><trkpt lat="45.5770102" lon="10.7565985"><ele>206.0</ele><time>2026-03-28T12:02:20.709Z</time></trkpt><trkpt lat="45.5769827" lon="10.7566939"><ele>206.0</ele><time>2026-03-28T12:02:22.722Z</time></trkpt><trkpt lat="45.5770536" lon="10.7567552"><ele>206.0</ele><time>2026-03-28T12:02:26.721Z</time></trkpt><trkpt lat="45.577159" lon="10.7567568"><ele>206.0</ele><time>2026-03-28T12:02:28.702Z</time></trkpt><trkpt lat="45.5772417" lon="10.7567227"><ele>206.0</ele><time>2026-03-28T12:02:29.696Z</time></trkpt><trkpt lat="45.5773333" lon="10.7566906"><ele>206.0</ele><time>2026-03-28T12:02:30.698Z</time></trkpt><trkpt lat="45.5774447" lon="10.7566561"><ele>206.0</ele><time>2026-03-28T12:02:31.702Z</time></trkpt><trkpt lat="45.5775677" lon="10.7566199"><ele>206.0</ele><time>2026-03-28T12:02:32.724Z</time></trkpt><trkpt lat="45.5776844" lon="10.7565834"><ele>206.0</ele><time>2026-03-28T12:02:33.734Z</time></trkpt><trkpt lat="45.5778131" lon="10.7565354"><ele>206.0</ele><time>2026-03-28T12:02:34.721Z</time></trkpt><trkpt lat="45.5779449" lon="10.7564886"><ele>206.0</ele><time>2026-03-28T12:02:35.726Z</time></trkpt><trkpt lat="45.5780838" lon="10.7564417"><ele>206.0</ele><time>2026-03-28T12:02:36.719Z</time></trkpt><trkpt lat="45.5782257" lon="10.7563925"><ele>205.66666666666669</ele><time>2026-03-28T12:02:37.721Z</time></trkpt><trkpt lat="45.5783729" lon="10.7563429"><ele>205.33333333333331</ele><time>2026-03-28T12:02:38.718Z</time></trkpt><trkpt lat="45.5785173" lon="10.7562896"><ele>205.0</ele><time>2026-03-28T12:02:39.726Z</time></trkpt><trkpt lat="45.5786644" lon="10.7562293"><ele>205.33333333333331</ele><time>2026-03-28T12:02:40.713Z</time></trkpt><trkpt lat="45.5788073" lon="10.7561627"><ele>205.66666666666669</ele><time>2026-03-28T12:02:41.769Z</time></trkpt><trkpt lat="45.5789546" lon="10.7560736"><ele>206.0</ele><time>2026-03-28T12:02:42.725Z</time></trkpt><trkpt lat="45.579101" lon="10.7559809"><ele>206.33333333333334</ele><time>2026-03-28T12:02:43.725Z</time></trkpt><trkpt lat="45.5792462" lon="10.7558803"><ele>206.66666666666669</ele><time>2026-03-28T12:02:44.72Z</time></trkpt><trkpt lat="45.5793884" lon="10.755765"><ele>207.0</ele><time>2026-03-28T12:02:45.728Z</time></trkpt><trkpt lat="45.5795317" lon="10.7556441"><ele>207.0</ele><time>2026-03-28T12:02:46.727Z</time></trkpt><trkpt lat="45.5796702" lon="10.7555201"><ele>207.0</ele><time>2026-03-28T12:02:47.726Z</time></trkpt><trkpt lat="45.5798033" lon="10.7553942"><ele>207.0</ele><time>2026-03-28T12:02:48.725Z</time></trkpt><trkpt lat="45.5799358" lon="10.7552677"><ele>207.33333333333331</ele><time>2026-03-28T12:02:49.727Z</time></trkpt><trkpt lat="45.5800693" lon="10.7551447"><ele>207.66666666666666</ele><time>2026-03-28T12:02:50.72Z</time></trkpt><trkpt lat="45.5802025" lon="10.7550203"><ele>208.0</ele><time>2026-03-28T12:02:51.719Z</time></trkpt><trkpt lat="45.5803335" lon="10.7548925"><ele>208.33333333333331</ele><time>2026-03-28T12:02:52.728Z</time></trkpt><trkpt lat="45.5804643" lon="10.7547628"><ele>208.66666666666669</ele><time>2026-03-28T12:02:53.718Z</time></trkpt><trkpt lat="45.5805971" lon="10.7546347"><ele>209.0</ele><time>2026-03-28T12:02:54.725Z</time></trkpt><trkpt lat="45.5807338" lon="10.7545053"><ele>209.0</ele><time>2026-03-28T12:02:55.721Z</time></trkpt><trkpt lat="45.5808616" lon="10.7543816"><ele>209.0</ele><time>2026-03-28T12:02:56.722Z</time></trkpt><trkpt lat="45.5809797" lon="10.7542627"><ele>209.0</ele><time>2026-03-28T12:02:57.723Z</time></trkpt><trkpt lat="45.5810941" lon="10.7541476"><ele>209.0</ele><time>2026-03-28T12:02:58.72Z</time></trkpt><trkpt lat="45.5812097" lon="10.7540389"><ele>209.0</ele><time>2026-03-28T12:02:59.728Z</time></trkpt><trkpt lat="45.5813282" lon="10.7539284"><ele>209.0</ele><time>2026-03-28T12:03:00.723Z</time></trkpt><trkpt lat="45.58145" lon="10.7538188"><ele>209.0</ele><time>2026-03-28T12:03:01.724Z</time></trkpt><trkpt lat="45.5815676" lon="10.7537133"><ele>209.0</ele><time>2026-03-28T12:03:02.72Z</time></trkpt><trkpt lat="45.5816878" lon="10.7536141"><ele>209.0</ele><time>2026-03-28T12:03:03.724Z</time></trkpt><trkpt lat="45.5818004" lon="10.7535206"><ele>209.0</ele><time>2026-03-28T12:03:04.722Z</time></trkpt><trkpt lat="45.5819141" lon="10.7534247"><ele>209.0</ele><time>2026-03-28T12:03:05.731Z</time></trkpt><trkpt lat="45.5820211" lon="10.7533302"><ele>209.0</ele><time>2026-03-28T12:03:06.726Z</time></trkpt><trkpt lat="45.5821147" lon="10.7532469"><ele>209.39999999999998</ele><time>2026-03-28T12:03:07.721Z</time></trkpt><trkpt lat="45.5821994" lon="10.7531737"><ele>209.8</ele><time>2026-03-28T12:03:08.718Z</time></trkpt><trkpt lat="45.5822733" lon="10.7531028"><ele>210.2</ele><time>2026-03-28T12:03:09.718Z</time></trkpt><trkpt lat="45.5823341" lon="10.7530424"><ele>210.60000000000002</ele><time>2026-03-28T12:03:10.718Z</time></trkpt><trkpt lat="45.5824368" lon="10.7529773"><ele>211.0</ele><time>2026-03-28T12:03:12.711Z</time></trkpt><trkpt lat="45.5825383" lon="10.7530404"><ele>211.0</ele><time>2026-03-28T12:03:14.703Z</time></trkpt><trkpt lat="45.5825783" lon="10.7531157"><ele>211.0</ele><time>2026-03-28T12:03:15.692Z</time></trkpt><trkpt lat="45.582619" lon="10.753202"><ele>211.0</ele><time>2026-03-28T12:03:16.715Z</time></trkpt><trkpt lat="45.5826725" lon="10.7533017"><ele>211.0</ele><time>2026-03-28T12:03:17.728Z</time></trkpt><trkpt lat="45.582736" lon="10.7534141"><ele>211.0</ele><time>2026-03-28T12:03:18.716Z</time></trkpt><trkpt lat="45.5828154" lon="10.7535496"><ele>210.25</ele><time>2026-03-28T12:03:19.711Z</time></trkpt><trkpt lat="45.5828987" lon="10.7536961"><ele>209.5</ele><time>2026-03-28T12:03:20.738Z</time></trkpt><trkpt lat="45.5829881" lon="10.7538665"><ele>208.75</ele><time>2026-03-28T12:03:21.727Z</time></trkpt><trkpt lat="45.5830814" lon="10.7540425"><ele>208.0</ele><time>2026-03-28T12:03:22.738Z</time></trkpt><trkpt lat="45.5831454" lon="10.7541571"><ele>208.0</ele><time>2026-03-28T12:03:23.735Z</time></trkpt><trkpt lat="45.5832095" lon="10.7542807"><ele>208.0</ele><time>2026-03-28T12:03:24.738Z</time></trkpt><trkpt lat="45.583278" lon="10.7544184"><ele>208.0</ele><time>2026-03-28T12:03:25.73Z</time></trkpt><trkpt lat="45.5833519" lon="10.7545513"><ele>208.0</ele><time>2026-03-28T12:03:26.726Z</time></trkpt><trkpt lat="45.5834172" lon="10.7546833"><ele>208.33333333333331</ele><time>2026-03-28T12:03:27.735Z</time></trkpt><trkpt lat="45.5834611" lon="10.754771"><ele>208.66666666666666</ele><time>2026-03-28T12:03:28.739Z</time></trkpt><trkpt lat="45.583519" lon="10.7548771"><ele>209.0</ele><time>2026-03-28T12:03:29.723Z</time></trkpt><trkpt lat="45.5835753" lon="10.754982"><ele>209.33333333333331</ele><time>2026-03-28T12:03:30.748Z</time></trkpt><trkpt lat="45.5836229" lon="10.7550654"><ele>209.66666666666666</ele><time>2026-03-28T12:03:31.747Z</time></trkpt><trkpt lat="45.5836844" lon="10.7551542"><ele>210.0</ele><time>2026-03-28T12:03:33.744Z</time></trkpt><trkpt lat="45.583738" lon="10.755269"><ele>210.2</ele><time>2026-03-28T12:04:07.65Z</time></trkpt><trkpt lat="45.5837726" lon="10.7553582"><ele>210.4</ele><time>2026-03-28T12:04:08.625Z</time></trkpt><trkpt lat="45.5838235" lon="10.7554729"><ele>210.60000000000002</ele><time>2026-03-28T12:04:09.64Z</time></trkpt><trkpt lat="45.5838884" lon="10.7556201"><ele>210.8</ele><time>2026-03-28T12:04:10.651Z</time></trkpt><trkpt lat="45.5839495" lon="10.7557645"><ele>211.0</ele><time>2026-03-28T12:04:11.632Z</time></trkpt><trkpt lat="45.5840241" lon="10.7559042"><ele>211.0</ele><time>2026-03-28T12:04:12.635Z</time></trkpt><trkpt lat="45.5841064" lon="10.7560283"><ele>211.0</ele><time>2026-03-28T12:04:13.652Z</time></trkpt><trkpt lat="45.5841959" lon="10.7561688"><ele>211.0</ele><time>2026-03-28T12:04:14.632Z</time></trkpt><trkpt lat="45.5842841" lon="10.7563275"><ele>211.0</ele><time>2026-03-28T12:04:15.632Z</time></trkpt><trkpt lat="45.5843751" lon="10.7564764"><ele>210.75</ele><time>2026-03-28T12:04:16.633Z</time></trkpt><trkpt lat="45.5844609" lon="10.7566177"><ele>210.5</ele><time>2026-03-28T12:04:17.634Z</time></trkpt><trkpt lat="45.5845236" lon="10.7567318"><ele>210.25</ele><time>2026-03-28T12:04:18.634Z</time></trkpt><trkpt lat="45.5846009" lon="10.7568447"><ele>210.0</ele><time>2026-03-28T12:04:19.641Z</time></trkpt><trkpt lat="45.584677" lon="10.7569673"><ele>209.8</ele><time>2026-03-28T12:04:20.632Z</time></trkpt><trkpt lat="45.5847526" lon="10.7570735"><ele>209.6</ele><time>2026-03-28T12:04:21.619Z</time></trkpt><trkpt lat="45.5848309" lon="10.7571698"><ele>209.39999999999998</ele><time>2026-03-28T12:04:22.619Z</time></trkpt><trkpt lat="45.5849047" lon="10.7572588"><ele>209.2</ele><time>2026-03-28T12:04:23.635Z</time></trkpt><trkpt lat="45.5849832" lon="10.7573286"><ele>209.0</ele><time>2026-03-28T12:04:24.636Z</time></trkpt><trkpt lat="45.5850665" lon="10.7573908"><ele>209.0</ele><time>2026-03-28T12:04:25.638Z</time></trkpt><trkpt lat="45.5851394" lon="10.7574581"><ele>209.0</ele><time>2026-03-28T12:04:26.633Z</time></trkpt><trkpt lat="45.5852223" lon="10.7574925"><ele>209.0</ele><time>2026-03-28T12:04:27.614Z</time></trkpt><trkpt lat="45.5853115" lon="10.7575246"><ele>209.0</ele><time>2026-03-28T12:04:28.628Z</time></trkpt><trkpt lat="45.5854082" lon="10.7575536"><ele>209.0</ele><time>2026-03-28T12:04:29.62Z</time></trkpt><trkpt lat="45.5855076" lon="10.7576011"><ele>209.25</ele><time>2026-03-28T12:04:30.639Z</time></trkpt><trkpt lat="45.5856067" lon="10.7576859"><ele>209.5</ele><time>2026-03-28T12:04:31.626Z</time></trkpt><trkpt lat="45.5857113" lon="10.7577878"><ele>209.75</ele><time>2026-03-28T12:04:32.627Z</time></trkpt><trkpt lat="45.5858062" lon="10.7578744"><ele>210.0</ele><time>2026-03-28T12:04:33.63Z</time></trkpt><trkpt lat="45.5858987" lon="10.7579325"><ele>210.0</ele><time>2026-03-28T12:04:34.627Z</time></trkpt><trkpt lat="45.5859932" lon="10.7579866"><ele>210.0</ele><time>2026-03-28T12:04:35.617Z</time></trkpt><trkpt lat="45.5860904" lon="10.7580277"><ele>210.0</ele><time>2026-03-28T12:04:36.625Z</time></trkpt><trkpt lat="45.5862132" lon="10.7580712"><ele>210.0</ele><time>2026-03-28T12:04:37.638Z</time></trkpt><trkpt lat="45.5863554" lon="10.7581065"><ele>210.0</ele><time>2026-03-28T12:04:38.634Z</time></trkpt><trkpt lat="45.5864999" lon="10.7581393"><ele>210.0</ele><time>2026-03-28T12:04:39.638Z</time></trkpt><trkpt lat="45.586638" lon="10.7581691"><ele>210.0</ele><time>2026-03-28T12:04:40.633Z</time></trkpt><trkpt lat="45.5867883" lon="10.7581928"><ele>210.0</ele><time>2026-03-28T12:04:41.623Z</time></trkpt><trkpt lat="45.5869325" lon="10.7582245"><ele>210.2</ele><time>2026-03-28T12:04:42.638Z</time></trkpt><trkpt lat="45.587063" lon="10.7582619"><ele>210.4</ele><time>2026-03-28T12:04:43.628Z</time></trkpt><trkpt lat="45.5871761" lon="10.7582914"><ele>210.60000000000002</ele><time>2026-03-28T12:04:44.64Z</time></trkpt><trkpt lat="45.5872834" lon="10.7583213"><ele>210.8</ele><time>2026-03-28T12:04:45.614Z</time></trkpt><trkpt lat="45.5873672" lon="10.7583477"><ele>211.0</ele><time>2026-03-28T12:04:46.617Z</time></trkpt><trkpt lat="45.5874482" lon="10.7583728"><ele>210.99999999999997</ele><time>2026-03-28T12:04:47.619Z</time></trkpt><trkpt lat="45.5875041" lon="10.7584143"><ele>211.0</ele><time>2026-03-28T12:04:48.622Z</time></trkpt><trkpt lat="45.5875614" lon="10.7584662"><ele>211.0</ele><time>2026-03-28T12:04:49.617Z</time></trkpt><trkpt lat="45.5876141" lon="10.7585922"><ele>211.0</ele><time>2026-03-28T12:04:51.631Z</time></trkpt><trkpt lat="45.5876271" lon="10.7587619"><ele>210.99999999999997</ele><time>2026-03-28T12:04:53.641Z</time></trkpt><trkpt lat="45.5876202" lon="10.7588614"><ele>211.0</ele><time>2026-03-28T12:04:54.63Z</time></trkpt><trkpt lat="45.5876018" lon="10.7589794"><ele>210.8</ele><time>2026-03-28T12:04:55.634Z</time></trkpt><trkpt lat="45.5875807" lon="10.7591001"><ele>210.60000000000002</ele><time>2026-03-28T12:04:56.624Z</time></trkpt><trkpt lat="45.587573" lon="10.7592362"><ele>210.4</ele><time>2026-03-28T12:04:57.631Z</time></trkpt><trkpt lat="45.5875709" lon="10.7593732"><ele>210.2</ele><time>2026-03-28T12:04:58.633Z</time></trkpt><trkpt lat="45.5875662" lon="10.7595269"><ele>210.0</ele><time>2026-03-28T12:04:59.64Z</time></trkpt><trkpt lat="45.5875624" lon="10.7596933"><ele>210.0</ele><time>2026-03-28T12:05:00.632Z</time></trkpt><trkpt lat="45.5875673" lon="10.7598854"><ele>210.0</ele><time>2026-03-28T12:05:01.642Z</time></trkpt><trkpt lat="45.5875754" lon="10.7600795"><ele>210.0</ele><time>2026-03-28T12:05:02.619Z</time></trkpt><trkpt lat="45.5875748" lon="10.7602936"><ele>210.0</ele><time>2026-03-28T12:05:03.624Z</time></trkpt><trkpt lat="45.5875713" lon="10.7605187"><ele>210.0</ele><time>2026-03-28T12:05:04.632Z</time></trkpt><trkpt lat="45.587569" lon="10.7607348"><ele>210.0</ele><time>2026-03-28T12:05:05.626Z</time></trkpt><trkpt lat="45.5875646" lon="10.7609614"><ele>210.0</ele><time>2026-03-28T12:05:06.64Z</time></trkpt><trkpt lat="45.5875529" lon="10.7611605"><ele>210.25</ele><time>2026-03-28T12:05:07.621Z</time></trkpt><trkpt lat="45.5875473" lon="10.7613392"><ele>210.5</ele><time>2026-03-28T12:05:08.627Z</time></trkpt><trkpt lat="45.5875484" lon="10.7615302"><ele>210.75</ele><time>2026-03-28T12:05:09.627Z</time></trkpt><trkpt lat="45.5875368" lon="10.7617265"><ele>211.0</ele><time>2026-03-28T12:05:10.629Z</time></trkpt><trkpt lat="45.5875043" lon="10.7619079"><ele>211.25</ele><time>2026-03-28T12:05:11.632Z</time></trkpt><trkpt lat="45.5874503" lon="10.7620835"><ele>211.5</ele><time>2026-03-28T12:05:12.627Z</time></trkpt><trkpt lat="45.5873967" lon="10.7622509"><ele>211.75</ele><time>2026-03-28T12:05:13.643Z</time></trkpt><trkpt lat="45.5873162" lon="10.762445"><ele>212.0</ele><time>2026-03-28T12:05:14.628Z</time></trkpt><trkpt lat="45.5872308" lon="10.7625948"><ele>212.0</ele><time>2026-03-28T12:05:15.657Z</time></trkpt><trkpt lat="45.587149" lon="10.7627297"><ele>212.0</ele><time>2026-03-28T12:05:16.638Z</time></trkpt><trkpt lat="45.5870777" lon="10.7628424"><ele>212.0</ele><time>2026-03-28T12:05:17.63Z</time></trkpt><trkpt lat="45.5870202" lon="10.7629241"><ele>212.0</ele><time>2026-03-28T12:05:18.624Z</time></trkpt><trkpt lat="45.5869317" lon="10.7630617"><ele>212.0</ele><time>2026-03-28T12:05:20.629Z</time></trkpt><trkpt lat="45.5868706" lon="10.7631429"><ele>211.75</ele><time>2026-03-28T12:05:21.626Z</time></trkpt><trkpt lat="45.5867876" lon="10.7632203"><ele>211.5</ele><time>2026-03-28T12:05:22.631Z</time></trkpt><trkpt lat="45.5866755" lon="10.7633134"><ele>211.25</ele><time>2026-03-28T12:05:23.618Z</time></trkpt><trkpt lat="45.5865628" lon="10.7634108"><ele>211.0</ele><time>2026-03-28T12:05:24.639Z</time></trkpt><trkpt lat="45.5864496" lon="10.7635274"><ele>211.25</ele><time>2026-03-28T12:05:25.624Z</time></trkpt><trkpt lat="45.5863335" lon="10.7636498"><ele>211.5</ele><time>2026-03-28T12:05:26.63Z</time></trkpt><trkpt lat="45.5862167" lon="10.7637784"><ele>211.75</ele><time>2026-03-28T12:05:27.626Z</time></trkpt><trkpt lat="45.5861241" lon="10.7639325"><ele>212.0</ele><time>2026-03-28T12:05:28.631Z</time></trkpt><trkpt lat="45.5860259" lon="10.7640917"><ele>212.0</ele><time>2026-03-28T12:05:29.636Z</time></trkpt><trkpt lat="45.585929" lon="10.7642512"><ele>212.0</ele><time>2026-03-28T12:05:30.637Z</time></trkpt><trkpt lat="45.5858268" lon="10.7644217"><ele>212.0</ele><time>2026-03-28T12:05:31.638Z</time></trkpt><trkpt lat="45.5857365" lon="10.7646068"><ele>212.25</ele><time>2026-03-28T12:05:32.636Z</time></trkpt><trkpt lat="45.5856672" lon="10.7647852"><ele>212.5</ele><time>2026-03-28T12:05:33.64Z</time></trkpt><trkpt lat="45.5855898" lon="10.7649582"><ele>212.75</ele><time>2026-03-28T12:05:34.634Z</time></trkpt><trkpt lat="45.5855064" lon="10.7651312"><ele>213.0</ele><time>2026-03-28T12:05:35.633Z</time></trkpt><trkpt lat="45.5854127" lon="10.7653001"><ele>213.0</ele><time>2026-03-28T12:05:36.633Z</time></trkpt><trkpt lat="45.5853175" lon="10.7654704"><ele>213.0</ele><time>2026-03-28T12:05:37.631Z</time></trkpt><trkpt lat="45.5852189" lon="10.7656525"><ele>213.0</ele><time>2026-03-28T12:05:38.628Z</time></trkpt><trkpt lat="45.5851222" lon="10.7658312"><ele>213.0</ele><time>2026-03-28T12:05:39.645Z</time></trkpt><trkpt lat="45.5850207" lon="10.7660103"><ele>213.0</ele><time>2026-03-28T12:05:40.63Z</time></trkpt><trkpt lat="45.5849195" lon="10.7661741"><ele>213.0</ele><time>2026-03-28T12:05:41.632Z</time></trkpt><trkpt lat="45.584828" lon="10.7663277"><ele>213.25</ele><time>2026-03-28T12:05:42.625Z</time></trkpt><trkpt lat="45.5847413" lon="10.7664755"><ele>213.5</ele><time>2026-03-28T12:05:43.636Z</time></trkpt><trkpt lat="45.5846638" lon="10.7665984"><ele>213.75</ele><time>2026-03-28T12:05:44.629Z</time></trkpt><trkpt lat="45.584583" lon="10.7667433"><ele>214.0</ele><time>2026-03-28T12:05:45.635Z</time></trkpt><trkpt lat="45.584496" lon="10.7668769"><ele>214.0</ele><time>2026-03-28T12:05:46.64Z</time></trkpt><trkpt lat="45.584408" lon="10.7669954"><ele>213.99999999999997</ele><time>2026-03-28T12:05:47.62Z</time></trkpt><trkpt lat="45.5843223" lon="10.7670893"><ele>213.99999999999997</ele><time>2026-03-28T12:05:48.611Z</time></trkpt><trkpt lat="45.5842335" lon="10.7671675"><ele>214.0</ele><time>2026-03-28T12:05:49.632Z</time></trkpt><trkpt lat="45.58415" lon="10.7672607"><ele>214.0</ele><time>2026-03-28T12:05:50.615Z</time></trkpt><trkpt lat="45.5840856" lon="10.767362"><ele>214.0</ele><time>2026-03-28T12:05:51.608Z</time></trkpt><trkpt lat="45.584046" lon="10.7674925"><ele>213.99999999999997</ele><time>2026-03-28T12:05:52.62Z</time></trkpt><trkpt lat="45.584009" lon="10.7676428"><ele>213.99999999999997</ele><time>2026-03-28T12:05:53.613Z</time></trkpt><trkpt lat="45.583995" lon="10.7677822"><ele>214.0</ele><time>2026-03-28T12:05:54.62Z</time></trkpt><trkpt lat="45.5839743" lon="10.7678972"><ele>214.0</ele><time>2026-03-28T12:05:55.636Z</time></trkpt><trkpt lat="45.583961" lon="10.7680149"><ele>213.79999999999998</ele><time>2026-03-28T12:05:56.629Z</time></trkpt><trkpt lat="45.5839352" lon="10.7681521"><ele>213.59999999999997</ele><time>2026-03-28T12:05:57.623Z</time></trkpt><trkpt lat="45.5839153" lon="10.7683015"><ele>213.4</ele><time>2026-03-28T12:05:58.64Z</time></trkpt><trkpt lat="45.5839022" lon="10.7684488"><ele>213.2</ele><time>2026-03-28T12:05:59.623Z</time></trkpt><trkpt lat="45.5838917" lon="10.7685988"><ele>213.0</ele><time>2026-03-28T12:06:00.635Z</time></trkpt><trkpt lat="45.5838767" lon="10.7687667"><ele>213.75</ele><time>2026-03-28T12:06:01.631Z</time></trkpt><trkpt lat="45.5838721" lon="10.7689435"><ele>214.5</ele><time>2026-03-28T12:06:02.619Z</time></trkpt><trkpt lat="45.5838538" lon="10.7691402"><ele>215.25</ele><time>2026-03-28T12:06:03.617Z</time></trkpt><trkpt lat="45.5838397" lon="10.7693496"><ele>216.0</ele><time>2026-03-28T12:06:04.622Z</time></trkpt><trkpt lat="45.5838168" lon="10.769572"><ele>217.0</ele><time>2026-03-28T12:06:05.611Z</time></trkpt><trkpt lat="45.5837802" lon="10.7698105"><ele>218.0</ele><time>2026-03-28T12:06:06.609Z</time></trkpt><trkpt lat="45.583756" lon="10.7700364"><ele>219.0</ele><time>2026-03-28T12:06:07.621Z</time></trkpt><trkpt lat="45.5837121" lon="10.7702624"><ele>219.0</ele><time>2026-03-28T12:06:08.621Z</time></trkpt><trkpt lat="45.583693" lon="10.7704925"><ele>219.0</ele><time>2026-03-28T12:06:09.625Z</time></trkpt><trkpt lat="45.5836723" lon="10.770727"><ele>219.0</ele><time>2026-03-28T12:06:10.623Z</time></trkpt><trkpt lat="45.5836559" lon="10.770956"><ele>219.25</ele><time>2026-03-28T12:06:11.624Z</time></trkpt><trkpt lat="45.5836438" lon="10.7711657"><ele>219.5</ele><time>2026-03-28T12:06:12.627Z</time></trkpt><trkpt lat="45.5836338" lon="10.7713633"><ele>219.75</ele><time>2026-03-28T12:06:13.627Z</time></trkpt><trkpt lat="45.5836425" lon="10.771556"><ele>220.0</ele><time>2026-03-28T12:06:14.626Z</time></trkpt><trkpt lat="45.5836307" lon="10.7717589"><ele>220.75</ele><time>2026-03-28T12:06:15.628Z</time></trkpt><trkpt lat="45.5836164" lon="10.7719648"><ele>221.5</ele><time>2026-03-28T12:06:16.638Z</time></trkpt><trkpt lat="45.583589" lon="10.7721605"><ele>222.25</ele><time>2026-03-28T12:06:17.648Z</time></trkpt><trkpt lat="45.5835509" lon="10.7723505"><ele>223.0</ele><time>2026-03-28T12:06:18.621Z</time></trkpt><trkpt lat="45.5835101" lon="10.772524"><ele>223.0</ele><time>2026-03-28T12:06:19.632Z</time></trkpt><trkpt lat="45.5834443" lon="10.7726752"><ele>223.0</ele><time>2026-03-28T12:06:20.627Z</time></trkpt><trkpt lat="45.5833586" lon="10.7728317"><ele>223.0</ele><time>2026-03-28T12:06:21.627Z</time></trkpt><trkpt lat="45.583268" lon="10.7729784"><ele>223.0</ele><time>2026-03-28T12:06:22.628Z</time></trkpt><trkpt lat="45.5831651" lon="10.77313"><ele>223.5</ele><time>2026-03-28T12:06:23.622Z</time></trkpt><trkpt lat="45.5830639" lon="10.7732601"><ele>224.0</ele><time>2026-03-28T12:06:24.622Z</time></trkpt><trkpt lat="45.5829627" lon="10.7733922"><ele>224.5</ele><time>2026-03-28T12:06:25.631Z</time></trkpt><trkpt lat="45.5828538" lon="10.7735299"><ele>225.0</ele><time>2026-03-28T12:06:26.622Z</time></trkpt><trkpt lat="45.5827671" lon="10.7736588"><ele>225.5</ele><time>2026-03-28T12:06:27.62Z</time></trkpt><trkpt lat="45.5826746" lon="10.7738142"><ele>226.0</ele><time>2026-03-28T12:06:28.613Z</time></trkpt><trkpt lat="45.5826011" lon="10.7739888"><ele>226.5</ele><time>2026-03-28T12:06:29.629Z</time></trkpt><trkpt lat="45.5825478" lon="10.7741658"><ele>227.0</ele><time>2026-03-28T12:06:30.609Z</time></trkpt><trkpt lat="45.5825164" lon="10.7743607"><ele>227.25</ele><time>2026-03-28T12:06:31.622Z</time></trkpt><trkpt lat="45.5824952" lon="10.7745587"><ele>227.5</ele><time>2026-03-28T12:06:32.633Z</time></trkpt><trkpt lat="45.5824809" lon="10.7747394"><ele>227.75</ele><time>2026-03-28T12:06:33.622Z</time></trkpt><trkpt lat="45.5824739" lon="10.7749005"><ele>228.0</ele><time>2026-03-28T12:06:34.626Z</time></trkpt><trkpt lat="45.5824575" lon="10.7750548"><ele>228.33333333333334</ele><time>2026-03-28T12:06:35.623Z</time></trkpt><trkpt lat="45.5824401" lon="10.7752081"><ele>228.66666666666669</ele><time>2026-03-28T12:06:36.625Z</time></trkpt><trkpt lat="45.582433" lon="10.7753366"><ele>229.0</ele><time>2026-03-28T12:06:37.618Z</time></trkpt><trkpt lat="45.5824243" lon="10.7754487"><ele>229.33333333333334</ele><time>2026-03-28T12:06:38.626Z</time></trkpt><trkpt lat="45.5824155" lon="10.7755469"><ele>229.66666666666669</ele><time>2026-03-28T12:06:39.63Z</time></trkpt><trkpt lat="45.5823972" lon="10.7756425"><ele>230.0</ele><time>2026-03-28T12:06:40.62Z</time></trkpt><trkpt lat="45.5823732" lon="10.7757315"><ele>230.00000000000003</ele><time>2026-03-28T12:06:41.613Z</time></trkpt><trkpt lat="45.5823386" lon="10.7758527"><ele>230.0</ele><time>2026-03-28T12:06:43.61Z</time></trkpt><trkpt lat="45.5823705" lon="10.7759741"><ele>230.0</ele><time>2026-03-28T12:06:52.635Z</time></trkpt><trkpt lat="45.5824052" lon="10.7760531"><ele>230.0</ele><time>2026-03-28T12:06:53.628Z</time></trkpt><trkpt lat="45.582457" lon="10.7761366"><ele>230.00000000000003</ele><time>2026-03-28T12:06:54.625Z</time></trkpt><trkpt lat="45.5825354" lon="10.7762525"><ele>230.0</ele><time>2026-03-28T12:06:55.614Z</time></trkpt><trkpt lat="45.5826213" lon="10.7763924"><ele>230.0</ele><time>2026-03-28T12:06:56.624Z</time></trkpt><trkpt lat="45.5827031" lon="10.7765317"><ele>230.0</ele><time>2026-03-28T12:06:57.623Z</time></trkpt><trkpt lat="45.5827789" lon="10.7766774"><ele>230.0</ele><time>2026-03-28T12:06:58.622Z</time></trkpt><trkpt lat="45.5828543" lon="10.7768357"><ele>230.0</ele><time>2026-03-28T12:06:59.623Z</time></trkpt><trkpt lat="45.5829332" lon="10.7770126"><ele>231.66666666666669</ele><time>2026-03-28T12:07:00.627Z</time></trkpt><trkpt lat="45.583021" lon="10.7771979"><ele>233.33333333333331</ele><time>2026-03-28T12:07:01.63Z</time></trkpt><trkpt lat="45.5831042" lon="10.7773694"><ele>235.0</ele><time>2026-03-28T12:07:02.62Z</time></trkpt><trkpt lat="45.5831962" lon="10.7775524"><ele>234.66666666666666</ele><time>2026-03-28T12:07:03.623Z</time></trkpt><trkpt lat="45.5832757" lon="10.7777416"><ele>234.33333333333331</ele><time>2026-03-28T12:07:04.629Z</time></trkpt><trkpt lat="45.5833657" lon="10.7779282"><ele>234.0</ele><time>2026-03-28T12:07:05.619Z</time></trkpt><trkpt lat="45.5834516" lon="10.7781025"><ele>234.0</ele><time>2026-03-28T12:07:06.618Z</time></trkpt><trkpt lat="45.5835359" lon="10.7782763"><ele>234.0</ele><time>2026-03-28T12:07:07.614Z</time></trkpt><trkpt lat="45.5836515" lon="10.7784357"><ele>234.0</ele><time>2026-03-28T12:07:08.612Z</time></trkpt><trkpt lat="45.5837741" lon="10.7785833"><ele>237.0</ele><time>2026-03-28T12:07:09.621Z</time></trkpt><trkpt lat="45.5839036" lon="10.7787234"><ele>240.0</ele><time>2026-03-28T12:07:10.626Z</time></trkpt><trkpt lat="45.584047" lon="10.7788636"><ele>243.0</ele><time>2026-03-28T12:07:11.616Z</time></trkpt><trkpt lat="45.5841955" lon="10.7789974"><ele>243.0</ele><time>2026-03-28T12:07:12.626Z</time></trkpt><trkpt lat="45.5843641" lon="10.7791211"><ele>243.0</ele><time>2026-03-28T12:07:13.626Z</time></trkpt><trkpt lat="45.5845388" lon="10.7792245"><ele>243.0</ele><time>2026-03-28T12:07:14.623Z</time></trkpt><trkpt lat="45.5847048" lon="10.7793292"><ele>244.0</ele><time>2026-03-28T12:07:15.62Z</time></trkpt><trkpt lat="45.5848707" lon="10.7794329"><ele>245.0</ele><time>2026-03-28T12:07:16.624Z</time></trkpt><trkpt lat="45.5850393" lon="10.7795512"><ele>246.0</ele><time>2026-03-28T12:07:17.622Z</time></trkpt><trkpt lat="45.5852098" lon="10.7796607"><ele>245.66666666666669</ele><time>2026-03-28T12:07:18.64Z</time></trkpt><trkpt lat="45.5853707" lon="10.7797683"><ele>245.33333333333334</ele><time>2026-03-28T12:07:20.716Z</time></trkpt><trkpt lat="45.5855297" lon="10.7798744"><ele>245.0</ele><time>2026-03-28T12:07:21.708Z</time></trkpt><trkpt lat="45.5856858" lon="10.779978"><ele>245.0</ele><time>2026-03-28T12:07:22.716Z</time></trkpt><trkpt lat="45.5858418" lon="10.7800859"><ele>245.0</ele><time>2026-03-28T12:07:23.709Z</time></trkpt><trkpt lat="45.5859969" lon="10.7801961"><ele>245.0</ele><time>2026-03-28T12:07:24.708Z</time></trkpt><trkpt lat="45.5861551" lon="10.7803094"><ele>246.0</ele><time>2026-03-28T12:07:25.714Z</time></trkpt><trkpt lat="45.5863104" lon="10.7804196"><ele>247.0</ele><time>2026-03-28T12:07:26.703Z</time></trkpt><trkpt lat="45.5864666" lon="10.7805301"><ele>248.0</ele><time>2026-03-28T12:07:27.705Z</time></trkpt><trkpt lat="45.5866224" lon="10.7806388"><ele>248.0</ele><time>2026-03-28T12:07:28.705Z</time></trkpt><trkpt lat="45.5867784" lon="10.7807475"><ele>248.0</ele><time>2026-03-28T12:07:29.703Z</time></trkpt><trkpt lat="45.5869374" lon="10.7808598"><ele>248.0</ele><time>2026-03-28T12:07:30.693Z</time></trkpt><trkpt lat="45.5870923" lon="10.7809874"><ele>249.33333333333334</ele><time>2026-03-28T12:07:31.696Z</time></trkpt><trkpt lat="45.5872477" lon="10.7811043"><ele>250.66666666666669</ele><time>2026-03-28T12:07:32.698Z</time></trkpt><trkpt lat="45.587406" lon="10.7812243"><ele>252.0</ele><time>2026-03-28T12:07:33.694Z</time></trkpt><trkpt lat="45.5875636" lon="10.7813423"><ele>252.0</ele><time>2026-03-28T12:07:34.696Z</time></trkpt><trkpt lat="45.5877248" lon="10.7814654"><ele>252.0</ele><time>2026-03-28T12:07:35.693Z</time></trkpt><trkpt lat="45.5878863" lon="10.7815891"><ele>252.0</ele><time>2026-03-28T12:07:36.707Z</time></trkpt><trkpt lat="45.5880347" lon="10.7817026"><ele>253.33333333333331</ele><time>2026-03-28T12:07:37.692Z</time></trkpt><trkpt lat="45.5881782" lon="10.7818114"><ele>254.66666666666666</ele><time>2026-03-28T12:07:38.695Z</time></trkpt><trkpt lat="45.588311" lon="10.7819119"><ele>256.0</ele><time>2026-03-28T12:07:39.693Z</time></trkpt><trkpt lat="45.5884429" lon="10.782012"><ele>256.0</ele><time>2026-03-28T12:07:40.69Z</time></trkpt><trkpt lat="45.5885704" lon="10.7821061"><ele>256.0</ele><time>2026-03-28T12:07:41.687Z</time></trkpt><trkpt lat="45.5886814" lon="10.7821896"><ele>256.0</ele><time>2026-03-28T12:07:42.686Z</time></trkpt><trkpt lat="45.5887786" lon="10.7822633"><ele>256.0</ele><time>2026-03-28T12:07:43.699Z</time></trkpt><trkpt lat="45.588865" lon="10.782328"><ele>249.0</ele><time>2026-03-28T12:07:44.692Z</time></trkpt><trkpt lat="45.5889346" lon="10.782377"><ele>249.0</ele><time>2026-03-28T12:07:45.696Z</time></trkpt><trkpt lat="45.5889933" lon="10.7824226"><ele>249.0</ele><time>2026-03-28T12:07:46.703Z</time></trkpt><trkpt lat="45.5890758" lon="10.7824865"><ele>249.0</ele><time>2026-03-28T12:07:48.699Z</time></trkpt><trkpt lat="45.5891298" lon="10.7825361"><ele>249.0</ele><time>2026-03-28T12:07:53.715Z</time></trkpt></trkseg><trkseg><trkpt lat="45.600593" lon="10.7839839"><ele>237.0</ele><time>2026-03-28T12:14:15.648Z</time></trkpt><trkpt lat="45.6006983" lon="10.7839942"><ele>237.0</ele><time>2026-03-28T12:16:29.553Z</time></trkpt><trkpt lat="45.6007618" lon="10.7840099"><ele>237.0</ele><time>2026-03-28T12:17:05.64Z</time></trkpt><trkpt lat="45.6008081" lon="10.7840784"><ele>237.0</ele><time>2026-03-28T12:17:06.607Z</time></trkpt><trkpt lat="45.600865" lon="10.7841556"><ele>237.0</ele><time>2026-03-28T12:17:07.614Z</time></trkpt><trkpt lat="45.6009227" lon="10.7842542"><ele>237.0</ele><time>2026-03-28T12:17:08.622Z</time></trkpt><trkpt lat="45.6009923" lon="10.7843888"><ele>237.0</ele><time>2026-03-28T12:17:09.616Z</time></trkpt><trkpt lat="45.6010613" lon="10.7845548"><ele>237.0</ele><time>2026-03-28T12:17:10.62Z</time></trkpt><trkpt lat="45.6011338" lon="10.7847513"><ele>237.0</ele><time>2026-03-28T12:17:11.618Z</time></trkpt><trkpt lat="45.6012098" lon="10.7849828"><ele>238.0</ele><time>2026-03-28T12:17:12.611Z</time></trkpt><trkpt lat="45.6012729" lon="10.785202"><ele>239.0</ele><time>2026-03-28T12:17:13.62Z</time></trkpt><trkpt lat="45.6013527" lon="10.7854088"><ele>240.0</ele><time>2026-03-28T12:17:14.619Z</time></trkpt><trkpt lat="45.6014456" lon="10.7856344"><ele>240.0</ele><time>2026-03-28T12:17:15.617Z</time></trkpt><trkpt lat="45.601547" lon="10.7858628"><ele>240.0</ele><time>2026-03-28T12:17:16.617Z</time></trkpt><trkpt lat="45.601642" lon="10.7860821"><ele>240.0</ele><time>2026-03-28T12:17:17.606Z</time></trkpt><trkpt lat="45.6017416" lon="10.7862815"><ele>239.75</ele><time>2026-03-28T12:17:18.608Z</time></trkpt><trkpt lat="45.6018125" lon="10.7864712"><ele>239.5</ele><time>2026-03-28T12:17:19.621Z</time></trkpt><trkpt lat="45.6018702" lon="10.7866364"><ele>239.25</ele><time>2026-03-28T12:17:20.611Z</time></trkpt><trkpt lat="45.6019376" lon="10.7868114"><ele>239.0</ele><time>2026-03-28T12:17:21.609Z</time></trkpt><trkpt lat="45.6020083" lon="10.7870027"><ele>240.0</ele><time>2026-03-28T12:17:22.616Z</time></trkpt><trkpt lat="45.6020594" lon="10.7871943"><ele>241.0</ele><time>2026-03-28T12:17:23.616Z</time></trkpt><trkpt lat="45.6021016" lon="10.7874022"><ele>242.0</ele><time>2026-03-28T12:17:24.624Z</time></trkpt><trkpt lat="45.6021255" lon="10.7876225"><ele>241.66666666666669</ele><time>2026-03-28T12:17:25.619Z</time></trkpt><trkpt lat="45.6021319" lon="10.7878391"><ele>241.33333333333331</ele><time>2026-03-28T12:17:26.623Z</time></trkpt><trkpt lat="45.6021124" lon="10.7880618"><ele>241.0</ele><time>2026-03-28T12:17:27.619Z</time></trkpt><trkpt lat="45.6020774" lon="10.7882817"><ele>241.0</ele><time>2026-03-28T12:17:28.612Z</time></trkpt><trkpt lat="45.6020146" lon="10.7884837"><ele>241.0</ele><time>2026-03-28T12:17:29.626Z</time></trkpt><trkpt lat="45.6019238" lon="10.7886913"><ele>241.0</ele><time>2026-03-28T12:17:30.62Z</time></trkpt><trkpt lat="45.6018105" lon="10.7889061"><ele>240.66666666666666</ele><time>2026-03-28T12:17:31.627Z</time></trkpt><trkpt lat="45.6016812" lon="10.7890919"><ele>240.33333333333331</ele><time>2026-03-28T12:17:32.622Z</time></trkpt><trkpt lat="45.601534" lon="10.7892937"><ele>240.0</ele><time>2026-03-28T12:17:33.618Z</time></trkpt><trkpt lat="45.6014059" lon="10.7894911"><ele>240.66666666666669</ele><time>2026-03-28T12:17:34.618Z</time></trkpt><trkpt lat="45.6012789" lon="10.789698"><ele>241.33333333333334</ele><time>2026-03-28T12:17:35.62Z</time></trkpt><trkpt lat="45.6011594" lon="10.7899019"><ele>242.0</ele><time>2026-03-28T12:17:36.637Z</time></trkpt><trkpt lat="45.6010413" lon="10.7901156"><ele>242.33333333333334</ele><time>2026-03-28T12:17:37.62Z</time></trkpt><trkpt lat="45.6009216" lon="10.7903175"><ele>242.66666666666669</ele><time>2026-03-28T12:17:38.617Z</time></trkpt><trkpt lat="45.6008058" lon="10.7905132"><ele>243.0</ele><time>2026-03-28T12:17:39.619Z</time></trkpt><trkpt lat="45.6006848" lon="10.7907111"><ele>243.0</ele><time>2026-03-28T12:17:40.622Z</time></trkpt><trkpt lat="45.6005689" lon="10.7909104"><ele>243.0</ele><time>2026-03-28T12:17:41.623Z</time></trkpt><trkpt lat="45.6004678" lon="10.7910982"><ele>243.0</ele><time>2026-03-28T12:17:42.626Z</time></trkpt><trkpt lat="45.6003797" lon="10.7912858"><ele>243.25</ele><time>2026-03-28T12:17:43.621Z</time></trkpt><trkpt lat="45.6002907" lon="10.791489"><ele>243.5</ele><time>2026-03-28T12:17:44.626Z</time></trkpt><trkpt lat="45.6002158" lon="10.7916729"><ele>243.75</ele><time>2026-03-28T12:17:45.626Z</time></trkpt><trkpt lat="45.6001743" lon="10.791827"><ele>244.0</ele><time>2026-03-28T12:17:46.613Z</time></trkpt><trkpt lat="45.6001193" lon="10.7919861"><ele>244.2</ele><time>2026-03-28T12:17:47.62Z</time></trkpt><trkpt lat="45.600081" lon="10.7921075"><ele>244.39999999999998</ele><time>2026-03-28T12:17:48.618Z</time></trkpt><trkpt lat="45.6000569" lon="10.7922088"><ele>244.6</ele><time>2026-03-28T12:17:49.621Z</time></trkpt><trkpt lat="45.6000199" lon="10.7923889"><ele>244.8</ele><time>2026-03-28T12:17:51.617Z</time></trkpt><trkpt lat="45.5999739" lon="10.7924787"><ele>245.0</ele><time>2026-03-28T12:17:52.616Z</time></trkpt><trkpt lat="45.5999025" lon="10.7925791"><ele>245.0</ele><time>2026-03-28T12:17:53.628Z</time></trkpt><trkpt lat="45.5998079" lon="10.7926514"><ele>245.0</ele><time>2026-03-28T12:17:54.623Z</time></trkpt><trkpt lat="45.5996942" lon="10.7927074"><ele>245.0</ele><time>2026-03-28T12:17:55.625Z</time></trkpt><trkpt lat="45.5995785" lon="10.7927209"><ele>245.0</ele><time>2026-03-28T12:17:56.617Z</time></trkpt><trkpt lat="45.5994482" lon="10.7926801"><ele>246.0</ele><time>2026-03-28T12:17:57.606Z</time></trkpt><trkpt lat="45.5993149" lon="10.7926043"><ele>247.0</ele><time>2026-03-28T12:17:58.613Z</time></trkpt><trkpt lat="45.5991727" lon="10.7925352"><ele>248.0</ele><time>2026-03-28T12:17:59.619Z</time></trkpt><trkpt lat="45.5990136" lon="10.7924426"><ele>248.0</ele><time>2026-03-28T12:18:00.617Z</time></trkpt><trkpt lat="45.5988533" lon="10.7923738"><ele>248.0</ele><time>2026-03-28T12:18:01.629Z</time></trkpt><trkpt lat="45.5987084" lon="10.7923048"><ele>248.0</ele><time>2026-03-28T12:18:02.622Z</time></trkpt><trkpt lat="45.5985638" lon="10.7922568"><ele>248.75</ele><time>2026-03-28T12:18:03.617Z</time></trkpt><trkpt lat="45.5984311" lon="10.7922116"><ele>249.5</ele><time>2026-03-28T12:18:04.62Z</time></trkpt><trkpt lat="45.5983155" lon="10.7921534"><ele>250.25</ele><time>2026-03-28T12:18:05.614Z</time></trkpt><trkpt lat="45.5982039" lon="10.792089"><ele>251.0</ele><time>2026-03-28T12:18:06.613Z</time></trkpt><trkpt lat="45.59811" lon="10.7920064"><ele>251.0</ele><time>2026-03-28T12:18:07.633Z</time></trkpt><trkpt lat="45.5979951" lon="10.7919006"><ele>251.0</ele><time>2026-03-28T12:18:08.609Z</time></trkpt><trkpt lat="45.5978756" lon="10.7917667"><ele>251.0</ele><time>2026-03-28T12:18:09.613Z</time></trkpt><trkpt lat="45.597738" lon="10.7916261"><ele>251.33333333333334</ele><time>2026-03-28T12:18:10.605Z</time></trkpt><trkpt lat="45.5975973" lon="10.7914703"><ele>251.66666666666669</ele><time>2026-03-28T12:18:11.62Z</time></trkpt><trkpt lat="45.5974408" lon="10.7913106"><ele>252.0</ele><time>2026-03-28T12:18:12.614Z</time></trkpt><trkpt lat="45.597295" lon="10.7911486"><ele>252.0</ele><time>2026-03-28T12:18:13.619Z</time></trkpt><trkpt lat="45.5971665" lon="10.7909577"><ele>252.0</ele><time>2026-03-28T12:18:14.615Z</time></trkpt><trkpt lat="45.5970403" lon="10.7907632"><ele>252.0</ele><time>2026-03-28T12:18:15.622Z</time></trkpt><trkpt lat="45.5969175" lon="10.7905426"><ele>253.0</ele><time>2026-03-28T12:18:16.618Z</time></trkpt><trkpt lat="45.5968083" lon="10.7903249"><ele>254.0</ele><time>2026-03-28T12:18:17.612Z</time></trkpt><trkpt lat="45.5967139" lon="10.7901124"><ele>255.0</ele><time>2026-03-28T12:18:18.616Z</time></trkpt><trkpt lat="45.5966419" lon="10.7899327"><ele>255.0</ele><time>2026-03-28T12:18:19.627Z</time></trkpt><trkpt lat="45.5965697" lon="10.7897785"><ele>255.0</ele><time>2026-03-28T12:18:20.616Z</time></trkpt><trkpt lat="45.5965" lon="10.789625"><ele>255.0</ele><time>2026-03-28T12:18:21.61Z</time></trkpt><trkpt lat="45.5964119" lon="10.7894624"><ele>255.0</ele><time>2026-03-28T12:18:22.613Z</time></trkpt><trkpt lat="45.5963104" lon="10.7892785"><ele>255.33333333333331</ele><time>2026-03-28T12:18:23.615Z</time></trkpt><trkpt lat="45.596184" lon="10.7890813"><ele>255.66666666666666</ele><time>2026-03-28T12:18:24.617Z</time></trkpt><trkpt lat="45.5960575" lon="10.7888808"><ele>256.0</ele><time>2026-03-28T12:18:25.649Z</time></trkpt><trkpt lat="45.5959348" lon="10.7886984"><ele>255.33333333333331</ele><time>2026-03-28T12:18:26.635Z</time></trkpt><trkpt lat="45.5958054" lon="10.7884938"><ele>254.66666666666669</ele><time>2026-03-28T12:18:27.634Z</time></trkpt><trkpt lat="45.5956759" lon="10.7882973"><ele>254.0</ele><time>2026-03-28T12:18:28.639Z</time></trkpt><trkpt lat="45.5955417" lon="10.7880997"><ele>254.0</ele><time>2026-03-28T12:18:30.711Z</time></trkpt><trkpt lat="45.5954164" lon="10.7879101"><ele>254.0</ele><time>2026-03-28T12:18:31.72Z</time></trkpt><trkpt lat="45.5953016" lon="10.7877336"><ele>254.0</ele><time>2026-03-28T12:18:32.715Z</time></trkpt><trkpt lat="45.595185" lon="10.7875615"><ele>253.66666666666669</ele><time>2026-03-28T12:18:33.71Z</time></trkpt><trkpt lat="45.5950629" lon="10.7873952"><ele>253.33333333333331</ele><time>2026-03-28T12:18:34.713Z</time></trkpt><trkpt lat="45.594938" lon="10.7872455"><ele>253.0</ele><time>2026-03-28T12:18:35.721Z</time></trkpt><trkpt lat="45.5948141" lon="10.7871159"><ele>253.0</ele><time>2026-03-28T12:18:36.705Z</time></trkpt><trkpt lat="45.5946962" lon="10.7870031"><ele>253.0</ele><time>2026-03-28T12:18:37.705Z</time></trkpt><trkpt lat="45.5945806" lon="10.7868784"><ele>253.0</ele><time>2026-03-28T12:18:38.718Z</time></trkpt><trkpt lat="45.5944651" lon="10.7867455"><ele>253.0</ele><time>2026-03-28T12:18:39.705Z</time></trkpt><trkpt lat="45.5943432" lon="10.7865963"><ele>254.0</ele><time>2026-03-28T12:18:40.706Z</time></trkpt><trkpt lat="45.5942141" lon="10.7864551"><ele>255.0</ele><time>2026-03-28T12:18:41.71Z</time></trkpt><trkpt lat="45.5941077" lon="10.786323"><ele>256.0</ele><time>2026-03-28T12:18:42.706Z</time></trkpt><trkpt lat="45.5939984" lon="10.7861922"><ele>257.0</ele><time>2026-03-28T12:18:43.707Z</time></trkpt><trkpt lat="45.5938801" lon="10.786071"><ele>257.25</ele><time>2026-03-28T12:18:44.706Z</time></trkpt><trkpt lat="45.5937541" lon="10.7859776"><ele>257.5</ele><time>2026-03-28T12:18:45.678Z</time></trkpt><trkpt lat="45.593617" lon="10.7859026"><ele>257.75</ele><time>2026-03-28T12:18:46.686Z</time></trkpt><trkpt lat="45.5934767" lon="10.7858365"><ele>258.0</ele><time>2026-03-28T12:18:47.686Z</time></trkpt><trkpt lat="45.5933399" lon="10.7857534"><ele>257.5</ele><time>2026-03-28T12:18:48.679Z</time></trkpt><trkpt lat="45.5932167" lon="10.7856801"><ele>257.0</ele><time>2026-03-28T12:18:49.707Z</time></trkpt><trkpt lat="45.5930923" lon="10.7855722"><ele>256.5</ele><time>2026-03-28T12:18:50.7Z</time></trkpt><trkpt lat="45.5929666" lon="10.78545"><ele>256.0</ele><time>2026-03-28T12:18:51.68Z</time></trkpt><trkpt lat="45.5928453" lon="10.7853134"><ele>255.0</ele><time>2026-03-28T12:18:52.689Z</time></trkpt><trkpt lat="45.5927262" lon="10.7851667"><ele>254.0</ele><time>2026-03-28T12:18:53.688Z</time></trkpt><trkpt lat="45.5926082" lon="10.7850121"><ele>253.0</ele><time>2026-03-28T12:18:54.687Z</time></trkpt><trkpt lat="45.5924935" lon="10.7848549"><ele>253.0</ele><time>2026-03-28T12:18:55.704Z</time></trkpt><trkpt lat="45.5923857" lon="10.7847113"><ele>253.0</ele><time>2026-03-28T12:18:56.707Z</time></trkpt><trkpt lat="45.5922845" lon="10.7845779"><ele>253.0</ele><time>2026-03-28T12:18:57.703Z</time></trkpt><trkpt lat="45.5921826" lon="10.7844442"><ele>253.0</ele><time>2026-03-28T12:18:58.708Z</time></trkpt><trkpt lat="45.5920774" lon="10.7843086"><ele>252.75</ele><time>2026-03-28T12:18:59.714Z</time></trkpt><trkpt lat="45.591966" lon="10.7841758"><ele>252.5</ele><time>2026-03-28T12:19:00.7Z</time></trkpt><trkpt lat="45.5918572" lon="10.7840643"><ele>252.25</ele><time>2026-03-28T12:19:01.706Z</time></trkpt><trkpt lat="45.5917455" lon="10.7839717"><ele>252.0</ele><time>2026-03-28T12:19:02.701Z</time></trkpt><trkpt lat="45.5916246" lon="10.7839004"><ele>252.0</ele><time>2026-03-28T12:19:03.68Z</time></trkpt><trkpt lat="45.5914989" lon="10.7838367"><ele>252.0</ele><time>2026-03-28T12:19:04.684Z</time></trkpt><trkpt lat="45.5913707" lon="10.783778"><ele>252.0</ele><time>2026-03-28T12:19:05.69Z</time></trkpt><trkpt lat="45.5912284" lon="10.7837146"><ele>252.0</ele><time>2026-03-28T12:19:06.684Z</time></trkpt><trkpt lat="45.5910957" lon="10.7836463"><ele>251.5</ele><time>2026-03-28T12:19:07.702Z</time></trkpt><trkpt lat="45.5909582" lon="10.7835898"><ele>251.0</ele><time>2026-03-28T12:19:08.702Z</time></trkpt><trkpt lat="45.5908218" lon="10.7835334"><ele>250.5</ele><time>2026-03-28T12:19:09.717Z</time></trkpt><trkpt lat="45.5906997" lon="10.7834798"><ele>250.0</ele><time>2026-03-28T12:19:10.696Z</time></trkpt><trkpt lat="45.5905892" lon="10.7834314"><ele>250.0</ele><time>2026-03-28T12:19:11.693Z</time></trkpt><trkpt lat="45.5904814" lon="10.7833783"><ele>250.0</ele><time>2026-03-28T12:19:12.703Z</time></trkpt><trkpt lat="45.5903716" lon="10.7833172"><ele>250.0</ele><time>2026-03-28T12:19:13.699Z</time></trkpt><trkpt lat="45.5902635" lon="10.7832466"><ele>250.0</ele><time>2026-03-28T12:19:14.706Z</time></trkpt><trkpt lat="45.5901534" lon="10.7831716"><ele>251.0</ele><time>2026-03-28T12:19:15.705Z</time></trkpt><trkpt lat="45.5900339" lon="10.783092"><ele>252.0</ele><time>2026-03-28T12:19:16.704Z</time></trkpt><trkpt lat="45.5899191" lon="10.7830174"><ele>253.0</ele><time>2026-03-28T12:19:17.696Z</time></trkpt><trkpt lat="45.5898207" lon="10.7829513"><ele>254.0</ele><time>2026-03-28T12:19:18.701Z</time></trkpt><trkpt lat="45.5897301" lon="10.7828916"><ele>254.00000000000003</ele><time>2026-03-28T12:19:19.704Z</time></trkpt><trkpt lat="45.589652" lon="10.7828345"><ele>254.0</ele><time>2026-03-28T12:19:20.704Z</time></trkpt><trkpt lat="45.58958" lon="10.7827874"><ele>254.0</ele><time>2026-03-28T12:19:21.699Z</time></trkpt><trkpt lat="45.5895086" lon="10.7827561"><ele>254.0</ele><time>2026-03-28T12:19:22.706Z</time></trkpt><trkpt lat="45.5894413" lon="10.7827523"><ele>254.00000000000003</ele><time>2026-03-28T12:19:23.687Z</time></trkpt><trkpt lat="45.589332" lon="10.7828488"><ele>254.0</ele><time>2026-03-28T12:19:25.684Z</time></trkpt><trkpt lat="45.5892786" lon="10.7829456"><ele>254.5</ele><time>2026-03-28T12:19:26.68Z</time></trkpt><trkpt lat="45.5892224" lon="10.783063"><ele>255.0</ele><time>2026-03-28T12:19:27.702Z</time></trkpt><trkpt lat="45.5891599" lon="10.7831914"><ele>255.5</ele><time>2026-03-28T12:19:28.697Z</time></trkpt><trkpt lat="45.5890982" lon="10.7833323"><ele>256.0</ele><time>2026-03-28T12:19:29.693Z</time></trkpt><trkpt lat="45.5890267" lon="10.7834824"><ele>256.75</ele><time>2026-03-28T12:19:30.706Z</time></trkpt><trkpt lat="45.5889468" lon="10.7836439"><ele>257.5</ele><time>2026-03-28T12:19:31.697Z</time></trkpt><trkpt lat="45.5888608" lon="10.7838066"><ele>258.25</ele><time>2026-03-28T12:19:32.695Z</time></trkpt><trkpt lat="45.5887806" lon="10.7839504"><ele>259.0</ele><time>2026-03-28T12:19:33.681Z</time></trkpt><trkpt lat="45.5887091" lon="10.7840718"><ele>258.8333333333333</ele><time>2026-03-28T12:19:34.694Z</time></trkpt><trkpt lat="45.5886468" lon="10.7841707"><ele>258.66666666666663</ele><time>2026-03-28T12:19:35.696Z</time></trkpt><trkpt lat="45.5885993" lon="10.7842503"><ele>258.5</ele><time>2026-03-28T12:19:36.695Z</time></trkpt><trkpt lat="45.5885554" lon="10.7843252"><ele>258.3333333333333</ele><time>2026-03-28T12:19:37.7Z</time></trkpt><trkpt lat="45.5885394" lon="10.7844465"><ele>258.1666666666667</ele><time>2026-03-28T12:19:39.706Z</time></trkpt><trkpt lat="45.5885905" lon="10.7845602"><ele>258.0</ele><time>2026-03-28T12:19:41.686Z</time></trkpt><trkpt lat="45.5886521" lon="10.7846043"><ele>258.75</ele><time>2026-03-28T12:19:42.68Z</time></trkpt><trkpt lat="45.5887422" lon="10.7846645"><ele>259.5</ele><time>2026-03-28T12:19:43.68Z</time></trkpt><trkpt lat="45.5888438" lon="10.7847405"><ele>260.25</ele><time>2026-03-28T12:19:44.698Z</time></trkpt><trkpt lat="45.5889646" lon="10.7848249"><ele>261.0</ele><time>2026-03-28T12:19:45.695Z</time></trkpt><trkpt lat="45.5890846" lon="10.7849357"><ele>261.0</ele><time>2026-03-28T12:19:46.685Z</time></trkpt><trkpt lat="45.5892025" lon="10.785082"><ele>261.0</ele><time>2026-03-28T12:19:47.685Z</time></trkpt><trkpt lat="45.5893244" lon="10.7852386"><ele>261.0</ele><time>2026-03-28T12:19:48.691Z</time></trkpt><trkpt lat="45.5894502" lon="10.7853949"><ele>262.0</ele><time>2026-03-28T12:19:49.687Z</time></trkpt><trkpt lat="45.5895888" lon="10.7855891"><ele>263.0</ele><time>2026-03-28T12:19:50.693Z</time></trkpt><trkpt lat="45.5896514" lon="10.7856725"><ele>264.0</ele><time>2026-03-28T12:19:51.707Z</time></trkpt><trkpt lat="45.5897434" lon="10.785787"><ele>265.0</ele><time>2026-03-28T12:19:52.699Z</time></trkpt><trkpt lat="45.5898418" lon="10.7858969"><ele>265.0</ele><time>2026-03-28T12:19:53.705Z</time></trkpt><trkpt lat="45.5899523" lon="10.7860016"><ele>265.0</ele><time>2026-03-28T12:19:54.707Z</time></trkpt><trkpt lat="45.5900661" lon="10.7861117"><ele>265.0</ele><time>2026-03-28T12:19:55.708Z</time></trkpt><trkpt lat="45.5902859" lon="10.7862994"><ele>265.5</ele><time>2026-03-28T12:19:56.613Z</time></trkpt><trkpt lat="45.5903886" lon="10.7863992"><ele>266.0</ele><time>2026-03-28T12:19:57.621Z</time></trkpt><trkpt lat="45.5904858" lon="10.7865222"><ele>266.5</ele><time>2026-03-28T12:19:58.615Z</time></trkpt><trkpt lat="45.590593" lon="10.7866537"><ele>267.0</ele><time>2026-03-28T12:19:59.623Z</time></trkpt><trkpt lat="45.5906918" lon="10.7867883"><ele>268.5</ele><time>2026-03-28T12:20:00.611Z</time></trkpt><trkpt lat="45.5907947" lon="10.7869294"><ele>270.0</ele><time>2026-03-28T12:20:01.618Z</time></trkpt><trkpt lat="45.5908966" lon="10.7870612"><ele>271.5</ele><time>2026-03-28T12:20:02.616Z</time></trkpt><trkpt lat="45.590998" lon="10.7871888"><ele>273.0</ele><time>2026-03-28T12:20:03.619Z</time></trkpt><trkpt lat="45.5910968" lon="10.787317"><ele>272.6666666666667</ele><time>2026-03-28T12:20:04.615Z</time></trkpt><trkpt lat="45.5912041" lon="10.7874616"><ele>272.33333333333337</ele><time>2026-03-28T12:20:05.615Z</time></trkpt><trkpt lat="45.5913293" lon="10.7876012"><ele>272.0</ele><time>2026-03-28T12:20:06.62Z</time></trkpt><trkpt lat="45.5914624" lon="10.7877507"><ele>272.0</ele><time>2026-03-28T12:20:07.616Z</time></trkpt><trkpt lat="45.591577" lon="10.7878815"><ele>272.0</ele><time>2026-03-28T12:20:08.62Z</time></trkpt><trkpt lat="45.5916918" lon="10.7880088"><ele>272.0</ele><time>2026-03-28T12:20:09.617Z</time></trkpt><trkpt lat="45.5917992" lon="10.7881161"><ele>272.0</ele><time>2026-03-28T12:20:10.613Z</time></trkpt><trkpt lat="45.5919081" lon="10.7882111"><ele>272.25</ele><time>2026-03-28T12:20:11.637Z</time></trkpt><trkpt lat="45.5920084" lon="10.7883307"><ele>272.5</ele><time>2026-03-28T12:20:12.617Z</time></trkpt><trkpt lat="45.5920951" lon="10.7884561"><ele>272.75</ele><time>2026-03-28T12:20:13.616Z</time></trkpt><trkpt lat="45.5922103" lon="10.7885775"><ele>273.0</ele><time>2026-03-28T12:20:14.618Z</time></trkpt><trkpt lat="45.5922868" lon="10.7886965"><ele>273.0</ele><time>2026-03-28T12:20:15.616Z</time></trkpt><trkpt lat="45.5923467" lon="10.7887906"><ele>273.0</ele><time>2026-03-28T12:20:16.611Z</time></trkpt><trkpt lat="45.5924093" lon="10.7888661"><ele>273.0</ele><time>2026-03-28T12:20:17.618Z</time></trkpt><trkpt lat="45.592498" lon="10.7889197"><ele>273.0</ele><time>2026-03-28T12:20:18.619Z</time></trkpt><trkpt lat="45.5925949" lon="10.7889741"><ele>273.0</ele><time>2026-03-28T12:20:19.616Z</time></trkpt><trkpt lat="45.5926749" lon="10.7890528"><ele>273.0</ele><time>2026-03-28T12:20:20.624Z</time></trkpt><trkpt lat="45.5927536" lon="10.7891563"><ele>273.0</ele><time>2026-03-28T12:20:21.613Z</time></trkpt><trkpt lat="45.5928416" lon="10.7892733"><ele>273.0</ele><time>2026-03-28T12:20:22.619Z</time></trkpt><trkpt lat="45.5929349" lon="10.7893956"><ele>273.0</ele><time>2026-03-28T12:20:23.619Z</time></trkpt><trkpt lat="45.5930331" lon="10.7895169"><ele>273.6666666666667</ele><time>2026-03-28T12:20:24.621Z</time></trkpt><trkpt lat="45.5931095" lon="10.7896099"><ele>274.3333333333333</ele><time>2026-03-28T12:20:25.618Z</time></trkpt><trkpt lat="45.5931643" lon="10.789673"><ele>275.0</ele><time>2026-03-28T12:20:26.622Z</time></trkpt><trkpt lat="45.5931584" lon="10.7897714"><ele>275.66666666666663</ele><time>2026-03-28T12:20:28.609Z</time></trkpt><trkpt lat="45.5930731" lon="10.7898717"><ele>276.3333333333333</ele><time>2026-03-28T12:20:30.612Z</time></trkpt><trkpt lat="45.5930845" lon="10.7899982"><ele>277.0</ele><time>2026-03-28T12:20:32.614Z</time></trkpt><trkpt lat="45.5931367" lon="10.7900682"><ele>277.0</ele><time>2026-03-28T12:20:33.609Z</time></trkpt><trkpt lat="45.59319" lon="10.790129"><ele>277.0</ele><time>2026-03-28T12:20:34.604Z</time></trkpt><trkpt lat="45.5932756" lon="10.79023"><ele>277.0</ele><time>2026-03-28T12:20:36.614Z</time></trkpt><trkpt lat="45.5933569" lon="10.7903355"><ele>277.0</ele><time>2026-03-28T12:20:38.617Z</time></trkpt><trkpt lat="45.5934381" lon="10.7904283"><ele>277.0</ele><time>2026-03-28T12:20:40.599Z</time></trkpt><trkpt lat="45.5934885" lon="10.7905024"><ele>277.3333333333333</ele><time>2026-03-28T12:20:42.638Z</time></trkpt><trkpt lat="45.593466" lon="10.79063"><ele>277.66666666666663</ele><time>2026-03-28T12:20:44.623Z</time></trkpt><trkpt lat="45.593413" lon="10.7906803"><ele>278.0</ele><time>2026-03-28T12:20:45.623Z</time></trkpt><trkpt lat="45.5933639" lon="10.790745"><ele>278.3333333333333</ele><time>2026-03-28T12:20:47.624Z</time></trkpt><trkpt lat="45.5933654" lon="10.7908494"><ele>278.6666666666667</ele><time>2026-03-28T12:20:49.631Z</time></trkpt><trkpt lat="45.5934285" lon="10.7909512"><ele>279.0</ele><time>2026-03-28T12:20:51.623Z</time></trkpt><trkpt lat="45.5934981" lon="10.7910791"><ele>279.5</ele><time>2026-03-28T12:20:53.621Z</time></trkpt><trkpt lat="45.5935469" lon="10.7911502"><ele>280.0</ele><time>2026-03-28T12:20:54.61Z</time></trkpt><trkpt lat="45.5936004" lon="10.7912158"><ele>280.5</ele><time>2026-03-28T12:20:55.615Z</time></trkpt><trkpt lat="45.5936493" lon="10.7912766"><ele>281.0</ele><time>2026-03-28T12:20:56.615Z</time></trkpt><trkpt lat="45.5937159" lon="10.7913513"><ele>281.5</ele><time>2026-03-28T12:20:57.62Z</time></trkpt><trkpt lat="45.5937885" lon="10.7914435"><ele>282.0</ele><time>2026-03-28T12:20:58.617Z</time></trkpt><trkpt lat="45.5938562" lon="10.7915458"><ele>282.0</ele><time>2026-03-28T12:20:59.622Z</time></trkpt><trkpt lat="45.5939114" lon="10.7916482"><ele>282.0</ele><time>2026-03-28T12:21:00.613Z</time></trkpt><trkpt lat="45.5939588" lon="10.791755"><ele>282.0</ele><time>2026-03-28T12:21:01.627Z</time></trkpt><trkpt lat="45.5940006" lon="10.7918924"><ele>282.0</ele><time>2026-03-28T12:21:02.615Z</time></trkpt><trkpt lat="45.5940378" lon="10.7920246"><ele>282.0</ele><time>2026-03-28T12:21:03.618Z</time></trkpt><trkpt lat="45.5940756" lon="10.7921386"><ele>282.8</ele><time>2026-03-28T12:21:04.622Z</time></trkpt><trkpt lat="45.5941485" lon="10.7922542"><ele>283.6</ele><time>2026-03-28T12:21:05.608Z</time></trkpt><trkpt lat="45.5942312" lon="10.7923515"><ele>284.40000000000003</ele><time>2026-03-28T12:21:06.608Z</time></trkpt><trkpt lat="45.5943056" lon="10.7924223"><ele>285.2</ele><time>2026-03-28T12:21:07.608Z</time></trkpt><trkpt lat="45.5943766" lon="10.7924921"><ele>286.0</ele><time>2026-03-28T12:21:08.602Z</time></trkpt><trkpt lat="45.5944444" lon="10.7925816"><ele>285.75</ele><time>2026-03-28T12:21:09.6Z</time></trkpt><trkpt lat="45.5945144" lon="10.7926939"><ele>285.5</ele><time>2026-03-28T12:21:10.611Z</time></trkpt><trkpt lat="45.5945987" lon="10.7928212"><ele>285.25</ele><time>2026-03-28T12:21:11.618Z</time></trkpt><trkpt lat="45.5946828" lon="10.7929795"><ele>285.0</ele><time>2026-03-28T12:21:12.609Z</time></trkpt><trkpt lat="45.5947637" lon="10.7931229"><ele>285.0</ele><time>2026-03-28T12:21:13.63Z</time></trkpt><trkpt lat="45.5948487" lon="10.7932733"><ele>285.0</ele><time>2026-03-28T12:21:14.614Z</time></trkpt><trkpt lat="45.5949296" lon="10.7934294"><ele>285.0</ele><time>2026-03-28T12:21:15.616Z</time></trkpt><trkpt lat="45.5950062" lon="10.7935577"><ele>285.0</ele><time>2026-03-28T12:21:16.616Z</time></trkpt><trkpt lat="45.5950898" lon="10.7936737"><ele>284.25</ele><time>2026-03-28T12:21:17.617Z</time></trkpt><trkpt lat="45.5951822" lon="10.793776"><ele>283.5</ele><time>2026-03-28T12:21:18.615Z</time></trkpt><trkpt lat="45.5952753" lon="10.7938926"><ele>282.75</ele><time>2026-03-28T12:21:19.618Z</time></trkpt><trkpt lat="45.5953696" lon="10.7940098"><ele>282.0</ele><time>2026-03-28T12:21:20.615Z</time></trkpt><trkpt lat="45.5954497" lon="10.7941204"><ele>282.0</ele><time>2026-03-28T12:21:21.621Z</time></trkpt><trkpt lat="45.5955137" lon="10.7942067"><ele>282.0</ele><time>2026-03-28T12:21:22.609Z</time></trkpt><trkpt lat="45.5955693" lon="10.794285"><ele>282.0</ele><time>2026-03-28T12:21:23.615Z</time></trkpt><trkpt lat="45.5956525" lon="10.7944097"><ele>282.0</ele><time>2026-03-28T12:21:25.615Z</time></trkpt><trkpt lat="45.595704" lon="10.7945012"><ele>282.0</ele><time>2026-03-28T12:21:27.628Z</time></trkpt><trkpt lat="45.5957658" lon="10.7945579"><ele>282.0</ele><time>2026-03-28T12:21:32.621Z</time></trkpt><trkpt lat="45.5959168" lon="10.7945023"><ele>282.4</ele><time>2026-03-28T12:21:34.622Z</time></trkpt><trkpt lat="45.5960082" lon="10.7944738"><ele>282.79999999999995</ele><time>2026-03-28T12:21:35.619Z</time></trkpt><trkpt lat="45.5960949" lon="10.7944577"><ele>283.2</ele><time>2026-03-28T12:21:36.623Z</time></trkpt><trkpt lat="45.5961836" lon="10.7944331"><ele>283.59999999999997</ele><time>2026-03-28T12:21:37.62Z</time></trkpt><trkpt lat="45.5962805" lon="10.7944116"><ele>284.0</ele><time>2026-03-28T12:21:38.628Z</time></trkpt><trkpt lat="45.5963805" lon="10.7943848"><ele>282.59999999999997</ele><time>2026-03-28T12:21:39.616Z</time></trkpt><trkpt lat="45.596486" lon="10.794363"><ele>281.2</ele><time>2026-03-28T12:21:40.615Z</time></trkpt><trkpt lat="45.5965838" lon="10.7943341"><ele>279.79999999999995</ele><time>2026-03-28T12:21:41.608Z</time></trkpt><trkpt lat="45.5966728" lon="10.7943122"><ele>278.4</ele><time>2026-03-28T12:21:42.625Z</time></trkpt><trkpt lat="45.5967629" lon="10.7942975"><ele>277.0</ele><time>2026-03-28T12:21:43.613Z</time></trkpt><trkpt lat="45.5968576" lon="10.7942793"><ele>276.4</ele><time>2026-03-28T12:21:44.632Z</time></trkpt><trkpt lat="45.5969665" lon="10.7942748"><ele>275.79999999999995</ele><time>2026-03-28T12:21:45.617Z</time></trkpt><trkpt lat="45.5970704" lon="10.7942747"><ele>275.2</ele><time>2026-03-28T12:21:46.621Z</time></trkpt><trkpt lat="45.5971616" lon="10.7942761"><ele>274.59999999999997</ele><time>2026-03-28T12:21:47.614Z</time></trkpt><trkpt lat="45.597243" lon="10.7942813"><ele>274.0</ele><time>2026-03-28T12:21:48.611Z</time></trkpt><trkpt lat="45.5973115" lon="10.7943082"><ele>272.4</ele><time>2026-03-28T12:21:49.614Z</time></trkpt><trkpt lat="45.5973836" lon="10.7943654"><ele>270.79999999999995</ele><time>2026-03-28T12:21:50.606Z</time></trkpt><trkpt lat="45.5974602" lon="10.7944388"><ele>269.20000000000005</ele><time>2026-03-28T12:21:51.61Z</time></trkpt><trkpt lat="45.5975598" lon="10.7945311"><ele>267.6</ele><time>2026-03-28T12:21:52.615Z</time></trkpt><trkpt lat="45.5976603" lon="10.7945908"><ele>266.0</ele><time>2026-03-28T12:21:53.62Z</time></trkpt><trkpt lat="45.5977604" lon="10.7946563"><ele>264.1666666666667</ele><time>2026-03-28T12:21:54.617Z</time></trkpt><trkpt lat="45.5978505" lon="10.7947136"><ele>262.33333333333337</ele><time>2026-03-28T12:21:55.619Z</time></trkpt><trkpt lat="45.5979418" lon="10.7947668"><ele>260.5</ele><time>2026-03-28T12:21:56.621Z</time></trkpt><trkpt lat="45.5980044" lon="10.7948068"><ele>258.6666666666667</ele><time>2026-03-28T12:21:57.618Z</time></trkpt><trkpt lat="45.5980848" lon="10.7948603"><ele>256.8333333333333</ele><time>2026-03-28T12:21:59.616Z</time></trkpt><trkpt lat="45.5981511" lon="10.7949524"><ele>255.0</ele><time>2026-03-28T12:22:01.622Z</time></trkpt><trkpt lat="45.5982154" lon="10.7950571"><ele>255.0</ele><time>2026-03-28T12:22:03.615Z</time></trkpt><trkpt lat="45.5982675" lon="10.795135"><ele>255.0</ele><time>2026-03-28T12:22:05.621Z</time></trkpt><trkpt lat="45.598276" lon="10.7952338"><ele>255.0</ele><time>2026-03-28T12:22:07.627Z</time></trkpt><trkpt lat="45.598196" lon="10.7953396"><ele>255.0</ele><time>2026-03-28T12:22:09.608Z</time></trkpt><trkpt lat="45.5981352" lon="10.7953953"><ele>255.0</ele><time>2026-03-28T12:22:10.618Z</time></trkpt><trkpt lat="45.5980466" lon="10.7954351"><ele>255.0</ele><time>2026-03-28T12:22:11.618Z</time></trkpt><trkpt lat="45.5979408" lon="10.795439"><ele>255.8</ele><time>2026-03-28T12:22:12.609Z</time></trkpt><trkpt lat="45.5978359" lon="10.7954173"><ele>256.6</ele><time>2026-03-28T12:22:13.618Z</time></trkpt><trkpt lat="45.5977293" lon="10.7954087"><ele>257.4</ele><time>2026-03-28T12:22:14.613Z</time></trkpt><trkpt lat="45.5976186" lon="10.7954293"><ele>258.2</ele><time>2026-03-28T12:22:15.633Z</time></trkpt><trkpt lat="45.5975193" lon="10.7954644"><ele>259.0</ele><time>2026-03-28T12:22:16.611Z</time></trkpt><trkpt lat="45.5974229" lon="10.7955015"><ele>261.5</ele><time>2026-03-28T12:22:17.617Z</time></trkpt><trkpt lat="45.5973515" lon="10.7955588"><ele>264.0</ele><time>2026-03-28T12:22:18.602Z</time></trkpt><trkpt lat="45.5973015" lon="10.7956201"><ele>266.5</ele><time>2026-03-28T12:22:19.6Z</time></trkpt><trkpt lat="45.5972442" lon="10.7956825"><ele>269.0</ele><time>2026-03-28T12:22:20.59Z</time></trkpt><trkpt lat="45.5971884" lon="10.7957807"><ele>271.5</ele><time>2026-03-28T12:22:21.592Z</time></trkpt><trkpt lat="45.5971258" lon="10.7959176"><ele>274.0</ele><time>2026-03-28T12:22:22.588Z</time></trkpt><trkpt lat="45.5970605" lon="10.7960662"><ele>275.0</ele><time>2026-03-28T12:22:23.601Z</time></trkpt><trkpt lat="45.5970068" lon="10.7962126"><ele>276.0</ele><time>2026-03-28T12:22:24.608Z</time></trkpt><trkpt lat="45.5969627" lon="10.7963399"><ele>277.0</ele><time>2026-03-28T12:22:25.615Z</time></trkpt><trkpt lat="45.5969183" lon="10.7964649"><ele>278.0</ele><time>2026-03-28T12:22:26.61Z</time></trkpt><trkpt lat="45.5968777" lon="10.796581"><ele>279.0</ele><time>2026-03-28T12:22:27.612Z</time></trkpt><trkpt lat="45.5968463" lon="10.7966901"><ele>279.0</ele><time>2026-03-28T12:22:28.611Z</time></trkpt><trkpt lat="45.5968162" lon="10.7967866"><ele>279.0</ele><time>2026-03-28T12:22:29.613Z</time></trkpt><trkpt lat="45.596803" lon="10.7968976"><ele>279.0</ele><time>2026-03-28T12:22:30.619Z</time></trkpt><trkpt lat="45.5967917" lon="10.7970098"><ele>279.0</ele><time>2026-03-28T12:22:31.616Z</time></trkpt><trkpt lat="45.5967887" lon="10.7971132"><ele>279.0</ele><time>2026-03-28T12:22:32.61Z</time></trkpt><trkpt lat="45.5967911" lon="10.7972331"><ele>279.0</ele><time>2026-03-28T12:22:33.607Z</time></trkpt><trkpt lat="45.5968038" lon="10.7973681"><ele>280.59999999999997</ele><time>2026-03-28T12:22:34.605Z</time></trkpt><trkpt lat="45.5968267" lon="10.7975131"><ele>282.2</ele><time>2026-03-28T12:22:35.602Z</time></trkpt><trkpt lat="45.5968485" lon="10.7976606"><ele>283.79999999999995</ele><time>2026-03-28T12:22:36.598Z</time></trkpt><trkpt lat="45.5968658" lon="10.7977855"><ele>285.4</ele><time>2026-03-28T12:22:37.599Z</time></trkpt><trkpt lat="45.5968854" lon="10.7978963"><ele>287.0</ele><time>2026-03-28T12:22:38.599Z</time></trkpt><trkpt lat="45.5968959" lon="10.7980076"><ele>287.33333333333337</ele><time>2026-03-28T12:22:39.595Z</time></trkpt><trkpt lat="45.5968936" lon="10.7981222"><ele>287.6666666666667</ele><time>2026-03-28T12:22:40.608Z</time></trkpt><trkpt lat="45.5968723" lon="10.7982557"><ele>288.0</ele><time>2026-03-28T12:22:41.598Z</time></trkpt><trkpt lat="45.5968465" lon="10.7983713"><ele>288.3333333333333</ele><time>2026-03-28T12:22:42.607Z</time></trkpt><trkpt lat="45.5968219" lon="10.7984702"><ele>288.66666666666663</ele><time>2026-03-28T12:22:43.599Z</time></trkpt><trkpt lat="45.5967863" lon="10.798559"><ele>289.0</ele><time>2026-03-28T12:22:44.603Z</time></trkpt><trkpt lat="45.5967527" lon="10.7986588"><ele>289.42857142857144</ele><time>2026-03-28T12:22:45.607Z</time></trkpt><trkpt lat="45.596715" lon="10.7987526"><ele>289.85714285714283</ele><time>2026-03-28T12:22:46.628Z</time></trkpt><trkpt lat="45.5966758" lon="10.7988479"><ele>290.2857142857143</ele><time>2026-03-28T12:22:47.61Z</time></trkpt><trkpt lat="45.5966403" lon="10.7989381"><ele>290.7142857142857</ele><time>2026-03-28T12:22:48.613Z</time></trkpt><trkpt lat="45.5966195" lon="10.7990404"><ele>291.14285714285717</ele><time>2026-03-28T12:22:49.62Z</time></trkpt><trkpt lat="45.5965917" lon="10.7991284"><ele>291.57142857142856</ele><time>2026-03-28T12:22:50.611Z</time></trkpt><trkpt lat="45.5965574" lon="10.7992268"><ele>292.0</ele><time>2026-03-28T12:22:52.62Z</time></trkpt><trkpt lat="45.5965066" lon="10.7993236"><ele>292.8333333333333</ele><time>2026-03-28T12:22:54.612Z</time></trkpt><trkpt lat="45.5964654" lon="10.7994103"><ele>293.66666666666663</ele><time>2026-03-28T12:22:55.612Z</time></trkpt><trkpt lat="45.5964191" lon="10.7995079"><ele>294.5</ele><time>2026-03-28T12:22:56.615Z</time></trkpt><trkpt lat="45.5963695" lon="10.7996157"><ele>295.3333333333333</ele><time>2026-03-28T12:22:57.622Z</time></trkpt><trkpt lat="45.5963166" lon="10.7997215"><ele>296.1666666666667</ele><time>2026-03-28T12:22:58.613Z</time></trkpt><trkpt lat="45.5962431" lon="10.7998205"><ele>297.0</ele><time>2026-03-28T12:22:59.604Z</time></trkpt><trkpt lat="45.5961571" lon="10.799904"><ele>298.8</ele><time>2026-03-28T12:23:00.607Z</time></trkpt><trkpt lat="45.5960686" lon="10.7999723"><ele>300.6</ele><time>2026-03-28T12:23:01.617Z</time></trkpt><trkpt lat="45.595963" lon="10.8000188"><ele>302.40000000000003</ele><time>2026-03-28T12:23:02.614Z</time></trkpt><trkpt lat="45.5958556" lon="10.8000739"><ele>304.2</ele><time>2026-03-28T12:23:03.62Z</time></trkpt><trkpt lat="45.5957432" lon="10.8001327"><ele>306.0</ele><time>2026-03-28T12:23:04.619Z</time></trkpt><trkpt lat="45.5956419" lon="10.8001782"><ele>306.40000000000003</ele><time>2026-03-28T12:23:05.619Z</time></trkpt><trkpt lat="45.5955638" lon="10.8002186"><ele>306.8</ele><time>2026-03-28T12:23:06.615Z</time></trkpt><trkpt lat="45.5954391" lon="10.8002987"><ele>307.20000000000005</ele><time>2026-03-28T12:23:08.614Z</time></trkpt><trkpt lat="45.5953706" lon="10.8003622"><ele>307.6</ele><time>2026-03-28T12:23:09.622Z</time></trkpt><trkpt lat="45.595313" lon="10.8004382"><ele>308.0</ele><time>2026-03-28T12:23:10.615Z</time></trkpt><trkpt lat="45.5952666" lon="10.800522"><ele>307.2</ele><time>2026-03-28T12:23:11.625Z</time></trkpt><trkpt lat="45.5952404" lon="10.800644"><ele>306.4</ele><time>2026-03-28T12:23:12.627Z</time></trkpt><trkpt lat="45.5952388" lon="10.8007746"><ele>305.59999999999997</ele><time>2026-03-28T12:23:13.631Z</time></trkpt><trkpt lat="45.5952622" lon="10.80092"><ele>304.8</ele><time>2026-03-28T12:23:14.61Z</time></trkpt><trkpt lat="45.5953047" lon="10.8010794"><ele>304.0</ele><time>2026-03-28T12:23:15.624Z</time></trkpt><trkpt lat="45.5953509" lon="10.8012346"><ele>304.0</ele><time>2026-03-28T12:23:16.617Z</time></trkpt><trkpt lat="45.5953772" lon="10.8013683"><ele>304.0</ele><time>2026-03-28T12:23:17.633Z</time></trkpt><trkpt lat="45.5953983" lon="10.801473"><ele>304.0</ele><time>2026-03-28T12:23:18.62Z</time></trkpt><trkpt lat="45.5954129" lon="10.8015783"><ele>304.0</ele><time>2026-03-28T12:23:19.618Z</time></trkpt><trkpt lat="45.5954022" lon="10.8016896"><ele>304.0</ele><time>2026-03-28T12:23:20.63Z</time></trkpt><trkpt lat="45.5953594" lon="10.8018131"><ele>304.0</ele><time>2026-03-28T12:23:21.622Z</time></trkpt><trkpt lat="45.5953278" lon="10.8019383"><ele>304.59999999999997</ele><time>2026-03-28T12:23:22.621Z</time></trkpt><trkpt lat="45.5953144" lon="10.8020452"><ele>305.2</ele><time>2026-03-28T12:23:23.614Z</time></trkpt><trkpt lat="45.5953396" lon="10.8021793"><ele>305.79999999999995</ele><time>2026-03-28T12:23:25.626Z</time></trkpt><trkpt lat="45.595422" lon="10.8022532"><ele>306.4</ele><time>2026-03-28T12:23:27.624Z</time></trkpt><trkpt lat="45.595551" lon="10.8022327"><ele>307.0</ele><time>2026-03-28T12:23:29.627Z</time></trkpt><trkpt lat="45.5956422" lon="10.8021911"><ele>307.0</ele><time>2026-03-28T12:23:30.617Z</time></trkpt><trkpt lat="45.5957457" lon="10.8021465"><ele>307.0</ele><time>2026-03-28T12:23:31.613Z</time></trkpt><trkpt lat="45.5958445" lon="10.802103"><ele>307.0</ele><time>2026-03-28T12:23:32.623Z</time></trkpt><trkpt lat="45.5959355" lon="10.8020958"><ele>307.0</ele><time>2026-03-28T12:23:33.611Z</time></trkpt><trkpt lat="45.5960207" lon="10.8021211"><ele>307.0</ele><time>2026-03-28T12:23:34.608Z</time></trkpt><trkpt lat="45.5961053" lon="10.8021896"><ele>306.4</ele><time>2026-03-28T12:23:35.609Z</time></trkpt><trkpt lat="45.5961704" lon="10.8022981"><ele>305.79999999999995</ele><time>2026-03-28T12:23:36.606Z</time></trkpt><trkpt lat="45.5962249" lon="10.8024181"><ele>305.2</ele><time>2026-03-28T12:23:37.609Z</time></trkpt><trkpt lat="45.5962793" lon="10.802549"><ele>304.59999999999997</ele><time>2026-03-28T12:23:38.606Z</time></trkpt><trkpt lat="45.596337" lon="10.8026988"><ele>304.0</ele><time>2026-03-28T12:23:39.613Z</time></trkpt><trkpt lat="45.5963851" lon="10.8028572"><ele>303.5</ele><time>2026-03-28T12:23:40.612Z</time></trkpt><trkpt lat="45.5964191" lon="10.803015"><ele>303.0</ele><time>2026-03-28T12:23:41.615Z</time></trkpt><trkpt lat="45.5964524" lon="10.8031708"><ele>302.5</ele><time>2026-03-28T12:23:42.609Z</time></trkpt><trkpt lat="45.5964871" lon="10.8033232"><ele>302.0</ele><time>2026-03-28T12:23:43.61Z</time></trkpt><trkpt lat="45.5965207" lon="10.8034703"><ele>301.8</ele><time>2026-03-28T12:23:44.614Z</time></trkpt><trkpt lat="45.5965517" lon="10.803617"><ele>301.6</ele><time>2026-03-28T12:23:45.606Z</time></trkpt><trkpt lat="45.5965615" lon="10.803747"><ele>301.40000000000003</ele><time>2026-03-28T12:23:46.605Z</time></trkpt><trkpt lat="45.5965811" lon="10.8038536"><ele>301.2</ele><time>2026-03-28T12:23:47.612Z</time></trkpt><trkpt lat="45.596595" lon="10.803992"><ele>301.0</ele><time>2026-03-28T12:23:48.628Z</time></trkpt><trkpt lat="45.5966168" lon="10.8041115"><ele>301.0</ele><time>2026-03-28T12:23:49.609Z</time></trkpt><trkpt lat="45.5966454" lon="10.8042092"><ele>301.0</ele><time>2026-03-28T12:23:50.61Z</time></trkpt><trkpt lat="45.5966819" lon="10.8043068"><ele>301.0</ele><time>2026-03-28T12:23:51.61Z</time></trkpt><trkpt lat="45.5966994" lon="10.8043959"><ele>301.0</ele><time>2026-03-28T12:23:52.611Z</time></trkpt><trkpt lat="45.596719" lon="10.8044978"><ele>301.0</ele><time>2026-03-28T12:23:53.606Z</time></trkpt><trkpt lat="45.596734" lon="10.8046076"><ele>301.0</ele><time>2026-03-28T12:23:54.612Z</time></trkpt><trkpt lat="45.5967381" lon="10.8047112"><ele>301.0</ele><time>2026-03-28T12:23:55.611Z</time></trkpt><trkpt lat="45.5967362" lon="10.8048022"><ele>300.0</ele><time>2026-03-28T12:23:56.609Z</time></trkpt><trkpt lat="45.5967465" lon="10.804915"><ele>299.0</ele><time>2026-03-28T12:23:58.604Z</time></trkpt><trkpt lat="45.5968203" lon="10.8049772"><ele>298.0</ele><time>2026-03-28T12:24:01.622Z</time></trkpt><trkpt lat="45.5969289" lon="10.8049805"><ele>297.0</ele><time>2026-03-28T12:24:03.603Z</time></trkpt><trkpt lat="45.5970112" lon="10.8049441"><ele>296.0</ele><time>2026-03-28T12:24:04.617Z</time></trkpt><trkpt lat="45.5970963" lon="10.8049061"><ele>295.0</ele><time>2026-03-28T12:24:05.603Z</time></trkpt><trkpt lat="45.5971751" lon="10.8048617"><ele>293.4</ele><time>2026-03-28T12:24:06.611Z</time></trkpt><trkpt lat="45.5972449" lon="10.8048132"><ele>291.8</ele><time>2026-03-28T12:24:07.61Z</time></trkpt><trkpt lat="45.5973049" lon="10.8047311"><ele>290.2</ele><time>2026-03-28T12:24:08.616Z</time></trkpt><trkpt lat="45.5973679" lon="10.8046211"><ele>288.6</ele><time>2026-03-28T12:24:09.612Z</time></trkpt><trkpt lat="45.5974215" lon="10.8044601"><ele>287.0</ele><time>2026-03-28T12:24:10.602Z</time></trkpt><trkpt lat="45.5974715" lon="10.8042957"><ele>287.0</ele><time>2026-03-28T12:24:11.61Z</time></trkpt><trkpt lat="45.597522" lon="10.804133"><ele>287.0</ele><time>2026-03-28T12:24:12.606Z</time></trkpt><trkpt lat="45.5975734" lon="10.8039726"><ele>287.0</ele><time>2026-03-28T12:24:13.606Z</time></trkpt><trkpt lat="45.5976249" lon="10.8038551"><ele>287.0</ele><time>2026-03-28T12:24:14.611Z</time></trkpt><trkpt lat="45.5976711" lon="10.8037719"><ele>287.0</ele><time>2026-03-28T12:24:15.613Z</time></trkpt><trkpt lat="45.5977252" lon="10.8036875"><ele>287.0</ele><time>2026-03-28T12:24:16.617Z</time></trkpt><trkpt lat="45.5977902" lon="10.8035927"><ele>287.0</ele><time>2026-03-28T12:24:17.626Z</time></trkpt><trkpt lat="45.5978613" lon="10.8035235"><ele>287.0</ele><time>2026-03-28T12:24:18.616Z</time></trkpt><trkpt lat="45.5979495" lon="10.8034757"><ele>287.0</ele><time>2026-03-28T12:24:19.627Z</time></trkpt><trkpt lat="45.5980552" lon="10.803445"><ele>287.0</ele><time>2026-03-28T12:24:20.615Z</time></trkpt><trkpt lat="45.5981908" lon="10.803455"><ele>285.25</ele><time>2026-03-28T12:24:21.61Z</time></trkpt><trkpt lat="45.5983168" lon="10.8034799"><ele>283.5</ele><time>2026-03-28T12:24:22.619Z</time></trkpt><trkpt lat="45.5984341" lon="10.803524"><ele>281.75</ele><time>2026-03-28T12:24:23.615Z</time></trkpt><trkpt lat="45.598541" lon="10.8035628"><ele>280.0</ele><time>2026-03-28T12:24:24.622Z</time></trkpt><trkpt lat="45.5986393" lon="10.8035829"><ele>278.4</ele><time>2026-03-28T12:24:25.616Z</time></trkpt><trkpt lat="45.5987321" lon="10.8035754"><ele>276.8</ele><time>2026-03-28T12:24:26.613Z</time></trkpt><trkpt lat="45.5988352" lon="10.803565"><ele>275.2</ele><time>2026-03-28T12:24:27.621Z</time></trkpt><trkpt lat="45.5989404" lon="10.8035497"><ele>273.6</ele><time>2026-03-28T12:24:28.616Z</time></trkpt><trkpt lat="45.5990383" lon="10.8035348"><ele>272.0</ele><time>2026-03-28T12:24:29.62Z</time></trkpt><trkpt lat="45.5991258" lon="10.803515"><ele>272.0</ele><time>2026-03-28T12:24:30.611Z</time></trkpt><trkpt lat="45.599193" lon="10.8035025"><ele>272.0</ele><time>2026-03-28T12:24:31.62Z</time></trkpt><trkpt lat="45.5992744" lon="10.8034003"><ele>272.0</ele><time>2026-03-28T12:24:33.609Z</time></trkpt><trkpt lat="45.5993189" lon="10.8033232"><ele>272.0</ele><time>2026-03-28T12:24:34.62Z</time></trkpt><trkpt lat="45.5993692" lon="10.8032368"><ele>272.0</ele><time>2026-03-28T12:24:35.612Z</time></trkpt><trkpt lat="45.5994431" lon="10.8031861"><ele>272.0</ele><time>2026-03-28T12:24:36.607Z</time></trkpt><trkpt lat="45.5995425" lon="10.8031438"><ele>270.6666666666667</ele><time>2026-03-28T12:24:37.601Z</time></trkpt><trkpt lat="45.5996404" lon="10.8031072"><ele>269.33333333333337</ele><time>2026-03-28T12:24:38.594Z</time></trkpt><trkpt lat="45.5997246" lon="10.8030819"><ele>268.0</ele><time>2026-03-28T12:24:39.599Z</time></trkpt><trkpt lat="45.5998034" lon="10.8030553"><ele>266.6666666666667</ele><time>2026-03-28T12:24:40.61Z</time></trkpt><trkpt lat="45.5998913" lon="10.8030209"><ele>265.3333333333333</ele><time>2026-03-28T12:24:41.616Z</time></trkpt><trkpt lat="45.5999769" lon="10.8030173"><ele>264.0</ele><time>2026-03-28T12:24:42.611Z</time></trkpt><trkpt lat="45.6000678" lon="10.8030305"><ele>264.0</ele><time>2026-03-28T12:24:43.613Z</time></trkpt><trkpt lat="45.6001695" lon="10.803073"><ele>264.0</ele><time>2026-03-28T12:24:44.612Z</time></trkpt><trkpt lat="45.6002673" lon="10.8031245"><ele>264.0</ele><time>2026-03-28T12:24:45.621Z</time></trkpt><trkpt lat="45.600362" lon="10.8031551"><ele>264.0</ele><time>2026-03-28T12:24:46.616Z</time></trkpt><trkpt lat="45.6004596" lon="10.8031826"><ele>264.0</ele><time>2026-03-28T12:24:47.619Z</time></trkpt><trkpt lat="45.6005532" lon="10.8031969"><ele>263.0</ele><time>2026-03-28T12:24:48.621Z</time></trkpt><trkpt lat="45.6006267" lon="10.8032065"><ele>262.0</ele><time>2026-03-28T12:24:49.614Z</time></trkpt><trkpt lat="45.6006922" lon="10.8032083"><ele>261.0</ele><time>2026-03-28T12:24:50.633Z</time></trkpt><trkpt lat="45.6007787" lon="10.8031835"><ele>260.0</ele><time>2026-03-28T12:24:52.623Z</time></trkpt><trkpt lat="45.6008455" lon="10.8031534"><ele>259.0</ele><time>2026-03-28T12:24:55.633Z</time></trkpt><trkpt lat="45.6008558" lon="10.8029981"><ele>258.0</ele><time>2026-03-28T12:24:58.619Z</time></trkpt><trkpt lat="45.6008293" lon="10.802898"><ele>258.0</ele><time>2026-03-28T12:24:59.616Z</time></trkpt><trkpt lat="45.6008048" lon="10.8027903"><ele>258.0</ele><time>2026-03-28T12:25:00.629Z</time></trkpt><trkpt lat="45.6007689" lon="10.802665"><ele>258.0</ele><time>2026-03-28T12:25:01.628Z</time></trkpt><trkpt lat="45.6007181" lon="10.8025065"><ele>258.0</ele><time>2026-03-28T12:25:02.627Z</time></trkpt><trkpt lat="45.6006709" lon="10.8023286"><ele>258.0</ele><time>2026-03-28T12:25:03.63Z</time></trkpt><trkpt lat="45.6006277" lon="10.8021441"><ele>257.25</ele><time>2026-03-28T12:25:04.624Z</time></trkpt><trkpt lat="45.6005873" lon="10.8019587"><ele>256.5</ele><time>2026-03-28T12:25:05.626Z</time></trkpt><trkpt lat="45.6005417" lon="10.8017631"><ele>255.75</ele><time>2026-03-28T12:25:06.626Z</time></trkpt><trkpt lat="45.6004861" lon="10.8015651"><ele>255.0</ele><time>2026-03-28T12:25:07.623Z</time></trkpt><trkpt lat="45.6004299" lon="10.8013654"><ele>254.66666666666669</ele><time>2026-03-28T12:25:08.62Z</time></trkpt><trkpt lat="45.6003765" lon="10.8011649"><ele>254.33333333333334</ele><time>2026-03-28T12:25:09.623Z</time></trkpt><trkpt lat="45.6003275" lon="10.8009524"><ele>254.0</ele><time>2026-03-28T12:25:10.62Z</time></trkpt><trkpt lat="45.6002713" lon="10.8007323"><ele>255.33333333333334</ele><time>2026-03-28T12:25:11.621Z</time></trkpt><trkpt lat="45.600215" lon="10.8005132"><ele>256.6666666666667</ele><time>2026-03-28T12:25:12.622Z</time></trkpt><trkpt lat="45.6001587" lon="10.8002971"><ele>258.0</ele><time>2026-03-28T12:25:13.625Z</time></trkpt><trkpt lat="45.6001063" lon="10.8000567"><ele>258.0</ele><time>2026-03-28T12:25:14.623Z</time></trkpt><trkpt lat="45.6000575" lon="10.7998298"><ele>258.0</ele><time>2026-03-28T12:25:15.623Z</time></trkpt><trkpt lat="45.6000153" lon="10.799618"><ele>258.0</ele><time>2026-03-28T12:25:16.623Z</time></trkpt><trkpt lat="45.5999935" lon="10.7994246"><ele>257.0</ele><time>2026-03-28T12:25:17.624Z</time></trkpt><trkpt lat="45.5999625" lon="10.7992085"><ele>256.0</ele><time>2026-03-28T12:25:18.626Z</time></trkpt><trkpt lat="45.5999356" lon="10.7989827"><ele>255.0</ele><time>2026-03-28T12:25:19.621Z</time></trkpt><trkpt lat="45.599913" lon="10.7987487"><ele>255.0</ele><time>2026-03-28T12:25:20.628Z</time></trkpt><trkpt lat="45.5998895" lon="10.7985212"><ele>255.0</ele><time>2026-03-28T12:25:21.642Z</time></trkpt><trkpt lat="45.5998588" lon="10.7982943"><ele>255.0</ele><time>2026-03-28T12:25:22.626Z</time></trkpt><trkpt lat="45.5998416" lon="10.7980638"><ele>254.0</ele><time>2026-03-28T12:25:23.625Z</time></trkpt><trkpt lat="45.5998108" lon="10.7978299"><ele>253.0</ele><time>2026-03-28T12:25:24.624Z</time></trkpt><trkpt lat="45.5997833" lon="10.7975735"><ele>252.0</ele><time>2026-03-28T12:25:25.623Z</time></trkpt><trkpt lat="45.5997681" lon="10.7973333"><ele>252.0</ele><time>2026-03-28T12:25:26.623Z</time></trkpt><trkpt lat="45.5997619" lon="10.7970961"><ele>252.0</ele><time>2026-03-28T12:25:27.622Z</time></trkpt><trkpt lat="45.5997772" lon="10.7968661"><ele>252.0</ele><time>2026-03-28T12:25:28.626Z</time></trkpt><trkpt lat="45.599782" lon="10.796625"><ele>251.66666666666669</ele><time>2026-03-28T12:25:29.626Z</time></trkpt><trkpt lat="45.5997865" lon="10.7963731"><ele>251.33333333333334</ele><time>2026-03-28T12:25:30.619Z</time></trkpt><trkpt lat="45.5997965" lon="10.7961284"><ele>251.0</ele><time>2026-03-28T12:25:31.625Z</time></trkpt><trkpt lat="45.5998067" lon="10.7958999"><ele>250.66666666666669</ele><time>2026-03-28T12:25:32.62Z</time></trkpt><trkpt lat="45.5998227" lon="10.7956746"><ele>250.33333333333331</ele><time>2026-03-28T12:25:33.624Z</time></trkpt><trkpt lat="45.5998347" lon="10.7954489"><ele>250.0</ele><time>2026-03-28T12:25:34.621Z</time></trkpt><trkpt lat="45.5998297" lon="10.7952522"><ele>249.8</ele><time>2026-03-28T12:25:35.622Z</time></trkpt><trkpt lat="45.5998216" lon="10.7950612"><ele>249.6</ele><time>2026-03-28T12:25:36.618Z</time></trkpt><trkpt lat="45.5998252" lon="10.7949238"><ele>249.39999999999998</ele><time>2026-03-28T12:25:37.614Z</time></trkpt><trkpt lat="45.5998324" lon="10.7948135"><ele>249.2</ele><time>2026-03-28T12:25:38.617Z</time></trkpt><trkpt lat="45.5998314" lon="10.7947187"><ele>249.0</ele><time>2026-03-28T12:25:39.607Z</time></trkpt><trkpt lat="45.5999364" lon="10.7946117"><ele>249.0</ele><time>2026-03-28T12:25:41.623Z</time></trkpt><trkpt lat="45.6000243" lon="10.7945825"><ele>249.0</ele><time>2026-03-28T12:25:42.624Z</time></trkpt><trkpt lat="45.6001378" lon="10.7945746"><ele>249.0</ele><time>2026-03-28T12:25:43.613Z</time></trkpt><trkpt lat="45.600262" lon="10.7945677"><ele>249.0</ele><time>2026-03-28T12:25:44.612Z</time></trkpt><trkpt lat="45.6003973" lon="10.7945538"><ele>249.0</ele><time>2026-03-28T12:25:45.623Z</time></trkpt><trkpt lat="45.6005146" lon="10.7945316"><ele>248.99999999999997</ele><time>2026-03-28T12:25:46.614Z</time></trkpt><trkpt lat="45.6006005" lon="10.794518"><ele>248.99999999999997</ele><time>2026-03-28T12:25:47.617Z</time></trkpt><trkpt lat="45.6007066" lon="10.7944969"><ele>249.0</ele><time>2026-03-28T12:25:49.609Z</time></trkpt><trkpt lat="45.6007788" lon="10.7944821"><ele>249.0</ele><time>2026-03-28T12:25:51.604Z</time></trkpt><trkpt lat="45.6008565" lon="10.7945174"><ele>249.0</ele><time>2026-03-28T12:25:54.624Z</time></trkpt><trkpt lat="45.600912" lon="10.7945849"><ele>248.99999999999997</ele><time>2026-03-28T12:25:55.611Z</time></trkpt><trkpt lat="45.6009834" lon="10.794706"><ele>248.99999999999997</ele><time>2026-03-28T12:25:56.616Z</time></trkpt><trkpt lat="45.6010695" lon="10.7948358"><ele>249.0</ele><time>2026-03-28T12:25:57.605Z</time></trkpt><trkpt lat="45.6011707" lon="10.7949422"><ele>249.0</ele><time>2026-03-28T12:25:58.614Z</time></trkpt><trkpt lat="45.6012736" lon="10.7950273"><ele>248.79999999999998</ele><time>2026-03-28T12:25:59.612Z</time></trkpt><trkpt lat="45.6013778" lon="10.7950997"><ele>248.59999999999997</ele><time>2026-03-28T12:26:00.617Z</time></trkpt><trkpt lat="45.6014848" lon="10.7951588"><ele>248.4</ele><time>2026-03-28T12:26:01.618Z</time></trkpt><trkpt lat="45.6015906" lon="10.7952004"><ele>248.2</ele><time>2026-03-28T12:26:03.698Z</time></trkpt><trkpt lat="45.6016837" lon="10.795221"><ele>248.0</ele><time>2026-03-28T12:26:04.705Z</time></trkpt><trkpt lat="45.6017705" lon="10.795238"><ele>248.33333333333334</ele><time>2026-03-28T12:26:05.699Z</time></trkpt><trkpt lat="45.6018634" lon="10.795251"><ele>248.66666666666669</ele><time>2026-03-28T12:26:06.702Z</time></trkpt><trkpt lat="45.6019574" lon="10.7952598"><ele>249.0</ele><time>2026-03-28T12:26:07.697Z</time></trkpt><trkpt lat="45.6020408" lon="10.7952652"><ele>249.33333333333331</ele><time>2026-03-28T12:26:08.698Z</time></trkpt><trkpt lat="45.602119" lon="10.795269"><ele>249.66666666666666</ele><time>2026-03-28T12:26:09.708Z</time></trkpt><trkpt lat="45.6021998" lon="10.7952766"><ele>250.0</ele><time>2026-03-28T12:26:10.702Z</time></trkpt><trkpt lat="45.6022708" lon="10.7952858"><ele>250.25</ele><time>2026-03-28T12:26:11.708Z</time></trkpt><trkpt lat="45.6023913" lon="10.7952942"><ele>250.5</ele><time>2026-03-28T12:26:13.708Z</time></trkpt><trkpt lat="45.6025084" lon="10.7953568"><ele>250.75</ele><time>2026-03-28T12:26:15.707Z</time></trkpt><trkpt lat="45.6026084" lon="10.7954909"><ele>251.0</ele><time>2026-03-28T12:26:17.683Z</time></trkpt><trkpt lat="45.6026424" lon="10.7955894"><ele>251.0</ele><time>2026-03-28T12:26:18.682Z</time></trkpt><trkpt lat="45.6027478" lon="10.7955638"><ele>251.0</ele><time>2026-03-28T12:26:19.677Z</time></trkpt><trkpt lat="45.6027657" lon="10.7957216"><ele>251.0</ele><time>2026-03-28T12:26:20.703Z</time></trkpt><trkpt lat="45.6027622" lon="10.7958873"><ele>251.0</ele><time>2026-03-28T12:26:21.706Z</time></trkpt><trkpt lat="45.6027567" lon="10.7960623"><ele>251.0</ele><time>2026-03-28T12:26:22.699Z</time></trkpt><trkpt lat="45.6027582" lon="10.7962449"><ele>251.0</ele><time>2026-03-28T12:26:23.724Z</time></trkpt><trkpt lat="45.6027632" lon="10.7964275"><ele>251.0</ele><time>2026-03-28T12:26:24.7Z</time></trkpt><trkpt lat="45.6027712" lon="10.7966045"><ele>251.0</ele><time>2026-03-28T12:26:25.703Z</time></trkpt><trkpt lat="45.6027796" lon="10.7967673"><ele>251.00000000000003</ele><time>2026-03-28T12:26:26.702Z</time></trkpt><trkpt lat="45.6027888" lon="10.7969168"><ele>251.0</ele><time>2026-03-28T12:26:27.7Z</time></trkpt><trkpt lat="45.6028065" lon="10.7970434"><ele>251.0</ele><time>2026-03-28T12:26:28.691Z</time></trkpt><trkpt lat="45.60284" lon="10.7971493"><ele>251.0</ele><time>2026-03-28T12:26:29.685Z</time></trkpt><trkpt lat="45.6028972" lon="10.7972283"><ele>251.00000000000003</ele><time>2026-03-28T12:26:30.675Z</time></trkpt><trkpt lat="45.6029666" lon="10.7972886"><ele>251.0</ele><time>2026-03-28T12:26:31.681Z</time></trkpt><trkpt lat="45.603137" lon="10.7973806"><ele>251.00000000000003</ele><time>2026-03-28T12:26:32.593Z</time></trkpt><trkpt lat="45.603202" lon="10.7974451"><ele>251.0</ele><time>2026-03-28T12:26:33.61Z</time></trkpt><trkpt lat="45.6032537" lon="10.7975261"><ele>251.0</ele><time>2026-03-28T12:26:34.603Z</time></trkpt><trkpt lat="45.6032847" lon="10.7976259"><ele>251.0</ele><time>2026-03-28T12:26:35.603Z</time></trkpt><trkpt lat="45.6032936" lon="10.7977592"><ele>251.00000000000003</ele><time>2026-03-28T12:26:36.608Z</time></trkpt><trkpt lat="45.6032805" lon="10.7979007"><ele>251.0</ele><time>2026-03-28T12:26:37.607Z</time></trkpt><trkpt lat="45.6032787" lon="10.7980163"><ele>251.0</ele><time>2026-03-28T12:26:38.608Z</time></trkpt><trkpt lat="45.6032925" lon="10.7981282"><ele>251.00000000000003</ele><time>2026-03-28T12:26:39.601Z</time></trkpt><trkpt lat="45.6033329" lon="10.7982181"><ele>251.00000000000003</ele><time>2026-03-28T12:26:40.599Z</time></trkpt><trkpt lat="45.6033961" lon="10.798273"><ele>251.0</ele><time>2026-03-28T12:26:41.618Z</time></trkpt><trkpt lat="45.6035038" lon="10.7983083"><ele>251.0</ele><time>2026-03-28T12:26:42.616Z</time></trkpt><trkpt lat="45.6036236" lon="10.7983459"><ele>251.25</ele><time>2026-03-28T12:26:43.616Z</time></trkpt><trkpt lat="45.6037437" lon="10.7983858"><ele>251.5</ele><time>2026-03-28T12:26:44.617Z</time></trkpt><trkpt lat="45.6038654" lon="10.7984362"><ele>251.75</ele><time>2026-03-28T12:26:45.618Z</time></trkpt><trkpt lat="45.6039936" lon="10.7985008"><ele>252.0</ele><time>2026-03-28T12:26:46.618Z</time></trkpt><trkpt lat="45.6041124" lon="10.7985613"><ele>252.0</ele><time>2026-03-28T12:26:47.61Z</time></trkpt><trkpt lat="45.6042214" lon="10.7986138"><ele>252.0</ele><time>2026-03-28T12:26:48.607Z</time></trkpt><trkpt lat="45.6043141" lon="10.7986778"><ele>252.0</ele><time>2026-03-28T12:26:49.606Z</time></trkpt><trkpt lat="45.6044193" lon="10.7987435"><ele>252.0</ele><time>2026-03-28T12:26:50.605Z</time></trkpt><trkpt lat="45.6045294" lon="10.7988128"><ele>252.0</ele><time>2026-03-28T12:26:51.612Z</time></trkpt><trkpt lat="45.6046447" lon="10.7988824"><ele>252.0</ele><time>2026-03-28T12:26:52.608Z</time></trkpt><trkpt lat="45.6047513" lon="10.7989458"><ele>252.0</ele><time>2026-03-28T12:26:53.607Z</time></trkpt><trkpt lat="45.6048529" lon="10.7990059"><ele>252.0</ele><time>2026-03-28T12:26:54.629Z</time></trkpt><trkpt lat="45.6049554" lon="10.7990574"><ele>252.0</ele><time>2026-03-28T12:26:55.612Z</time></trkpt><trkpt lat="45.6050604" lon="10.799122"><ele>252.0</ele><time>2026-03-28T12:26:56.608Z</time></trkpt><trkpt lat="45.6051381" lon="10.7991738"><ele>252.0</ele><time>2026-03-28T12:26:57.606Z</time></trkpt><trkpt lat="45.6052106" lon="10.7992188"><ele>252.0</ele><time>2026-03-28T12:26:58.604Z</time></trkpt><trkpt lat="45.6052726" lon="10.799261"><ele>252.0</ele><time>2026-03-28T12:26:59.613Z</time></trkpt><trkpt lat="45.6053837" lon="10.7993163"><ele>254.25</ele><time>2026-03-28T12:27:01.614Z</time></trkpt><trkpt lat="45.6054761" lon="10.7993993"><ele>256.5</ele><time>2026-03-28T12:27:03.606Z</time></trkpt><trkpt lat="45.6055426" lon="10.7995894"><ele>258.75</ele><time>2026-03-28T12:27:05.603Z</time></trkpt><trkpt lat="45.6055678" lon="10.7997155"><ele>261.0</ele><time>2026-03-28T12:27:06.593Z</time></trkpt><trkpt lat="45.6055702" lon="10.7998632"><ele>261.0</ele><time>2026-03-28T12:27:07.6Z</time></trkpt><trkpt lat="45.6055615" lon="10.8000293"><ele>261.0</ele><time>2026-03-28T12:27:08.598Z</time></trkpt><trkpt lat="45.6055538" lon="10.8002193"><ele>261.0</ele><time>2026-03-28T12:27:09.597Z</time></trkpt><trkpt lat="45.6055253" lon="10.800434"><ele>261.0</ele><time>2026-03-28T12:27:10.595Z</time></trkpt><trkpt lat="45.6054897" lon="10.8006745"><ele>261.6666666666667</ele><time>2026-03-28T12:27:11.591Z</time></trkpt><trkpt lat="45.6054576" lon="10.8009365"><ele>262.33333333333337</ele><time>2026-03-28T12:27:12.6Z</time></trkpt><trkpt lat="45.605432" lon="10.8011879"><ele>263.0</ele><time>2026-03-28T12:27:13.606Z</time></trkpt><trkpt lat="45.6053955" lon="10.8014405"><ele>264.25</ele><time>2026-03-28T12:27:14.608Z</time></trkpt><trkpt lat="45.6053693" lon="10.8016579"><ele>265.5</ele><time>2026-03-28T12:27:15.605Z</time></trkpt><trkpt lat="45.6053506" lon="10.801872"><ele>266.75</ele><time>2026-03-28T12:27:16.613Z</time></trkpt><trkpt lat="45.6053316" lon="10.8020732"><ele>268.0</ele><time>2026-03-28T12:27:17.608Z</time></trkpt><trkpt lat="45.6053089" lon="10.8022576"><ele>265.8</ele><time>2026-03-28T12:27:18.604Z</time></trkpt><trkpt lat="45.6052804" lon="10.8024399"><ele>263.6</ele><time>2026-03-28T12:27:19.603Z</time></trkpt><trkpt lat="45.6052375" lon="10.8026026"><ele>261.4</ele><time>2026-03-28T12:27:20.605Z</time></trkpt><trkpt lat="45.6052005" lon="10.8027307"><ele>259.2</ele><time>2026-03-28T12:27:21.595Z</time></trkpt><trkpt lat="45.6051805" lon="10.8028313"><ele>257.0</ele><time>2026-03-28T12:27:22.603Z</time></trkpt><trkpt lat="45.6051783" lon="10.8029302"><ele>257.0</ele><time>2026-03-28T12:27:23.601Z</time></trkpt><trkpt lat="45.6051912" lon="10.8030289"><ele>257.0</ele><time>2026-03-28T12:27:24.596Z</time></trkpt><trkpt lat="45.6052185" lon="10.8031553"><ele>257.0</ele><time>2026-03-28T12:27:25.622Z</time></trkpt><trkpt lat="45.6052394" lon="10.8032943"><ele>257.0</ele><time>2026-03-28T12:27:26.601Z</time></trkpt><trkpt lat="45.6052482" lon="10.8034496"><ele>257.0</ele><time>2026-03-28T12:27:27.596Z</time></trkpt><trkpt lat="45.6052427" lon="10.8036353"><ele>258.0</ele><time>2026-03-28T12:27:28.597Z</time></trkpt><trkpt lat="45.6052326" lon="10.8038458"><ele>259.0</ele><time>2026-03-28T12:27:29.604Z</time></trkpt><trkpt lat="45.605216" lon="10.804065"><ele>260.0</ele><time>2026-03-28T12:27:30.604Z</time></trkpt><trkpt lat="45.6051934" lon="10.8042891"><ele>260.4</ele><time>2026-03-28T12:27:31.615Z</time></trkpt><trkpt lat="45.6051608" lon="10.8044816"><ele>260.8</ele><time>2026-03-28T12:27:32.614Z</time></trkpt><trkpt lat="45.6051585" lon="10.8046282"><ele>261.2</ele><time>2026-03-28T12:27:33.606Z</time></trkpt><trkpt lat="45.6051261" lon="10.8047777"><ele>261.6</ele><time>2026-03-28T12:27:34.605Z</time></trkpt><trkpt lat="45.605114" lon="10.8048978"><ele>262.0</ele><time>2026-03-28T12:27:35.604Z</time></trkpt><trkpt lat="45.6051347" lon="10.8050498"><ele>261.8</ele><time>2026-03-28T12:27:37.627Z</time></trkpt><trkpt lat="45.6051541" lon="10.8052284"><ele>261.6</ele><time>2026-03-28T12:27:39.62Z</time></trkpt><trkpt lat="45.6051878" lon="10.805322"><ele>261.40000000000003</ele><time>2026-03-28T12:27:40.614Z</time></trkpt><trkpt lat="45.6052423" lon="10.8054025"><ele>261.2</ele><time>2026-03-28T12:27:41.606Z</time></trkpt><trkpt lat="45.6053262" lon="10.8054768"><ele>261.0</ele><time>2026-03-28T12:27:42.609Z</time></trkpt><trkpt lat="45.6054261" lon="10.8055617"><ele>262.0</ele><time>2026-03-28T12:27:43.615Z</time></trkpt><trkpt lat="45.6055161" lon="10.8056904"><ele>263.0</ele><time>2026-03-28T12:27:44.616Z</time></trkpt><trkpt lat="45.6056021" lon="10.8058416"><ele>264.0</ele><time>2026-03-28T12:27:45.608Z</time></trkpt><trkpt lat="45.6056716" lon="10.8060269"><ele>265.0</ele><time>2026-03-28T12:27:46.609Z</time></trkpt><trkpt lat="45.6057276" lon="10.8062404"><ele>265.0</ele><time>2026-03-28T12:27:47.62Z</time></trkpt><trkpt lat="45.6057914" lon="10.8065002"><ele>265.0</ele><time>2026-03-28T12:27:48.615Z</time></trkpt><trkpt lat="45.6058539" lon="10.8067434"><ele>265.0</ele><time>2026-03-28T12:27:49.62Z</time></trkpt><trkpt lat="45.6059211" lon="10.8069781"><ele>264.66666666666663</ele><time>2026-03-28T12:27:50.615Z</time></trkpt><trkpt lat="45.6059761" lon="10.8072155"><ele>264.3333333333333</ele><time>2026-03-28T12:27:51.619Z</time></trkpt><trkpt lat="45.6060476" lon="10.807412"><ele>264.0</ele><time>2026-03-28T12:27:52.609Z</time></trkpt><trkpt lat="45.6061071" lon="10.8076001"><ele>264.0</ele><time>2026-03-28T12:27:53.607Z</time></trkpt><trkpt lat="45.6061517" lon="10.8077694"><ele>264.0</ele><time>2026-03-28T12:27:54.616Z</time></trkpt><trkpt lat="45.6061957" lon="10.8079356"><ele>264.0</ele><time>2026-03-28T12:27:55.635Z</time></trkpt><trkpt lat="45.6062249" lon="10.808074"><ele>264.0</ele><time>2026-03-28T12:27:57.703Z</time></trkpt><trkpt lat="45.6062315" lon="10.8082122"><ele>264.0</ele><time>2026-03-28T12:27:58.703Z</time></trkpt><trkpt lat="45.6062577" lon="10.8083652"><ele>264.59999999999997</ele><time>2026-03-28T12:27:59.709Z</time></trkpt><trkpt lat="45.6062747" lon="10.8085081"><ele>265.2</ele><time>2026-03-28T12:28:00.694Z</time></trkpt><trkpt lat="45.6063207" lon="10.8086328"><ele>265.79999999999995</ele><time>2026-03-28T12:28:01.714Z</time></trkpt><trkpt lat="45.6063748" lon="10.8087359"><ele>266.4</ele><time>2026-03-28T12:28:02.686Z</time></trkpt><trkpt lat="45.6064469" lon="10.8088425"><ele>267.0</ele><time>2026-03-28T12:28:03.684Z</time></trkpt><trkpt lat="45.6065421" lon="10.808969"><ele>267.0</ele><time>2026-03-28T12:28:04.68Z</time></trkpt><trkpt lat="45.6066517" lon="10.8091061"><ele>267.0</ele><time>2026-03-28T12:28:05.681Z</time></trkpt><trkpt lat="45.6067479" lon="10.8092227"><ele>267.0</ele><time>2026-03-28T12:28:06.696Z</time></trkpt><trkpt lat="45.6068491" lon="10.8093472"><ele>267.0</ele><time>2026-03-28T12:28:07.697Z</time></trkpt><trkpt lat="45.6069366" lon="10.8094634"><ele>267.0</ele><time>2026-03-28T12:28:08.691Z</time></trkpt><trkpt lat="45.6069971" lon="10.8095585"><ele>267.0</ele><time>2026-03-28T12:28:09.692Z</time></trkpt><trkpt lat="45.6070487" lon="10.8096464"><ele>267.0</ele><time>2026-03-28T12:28:10.684Z</time></trkpt><trkpt lat="45.6070986" lon="10.8097469"><ele>267.0</ele><time>2026-03-28T12:28:13.679Z</time></trkpt><trkpt lat="45.6070509" lon="10.8098303"><ele>267.0</ele><time>2026-03-28T12:28:15.704Z</time></trkpt><trkpt lat="45.6069406" lon="10.8099093"><ele>267.0</ele><time>2026-03-28T12:28:17.683Z</time></trkpt><trkpt lat="45.6068598" lon="10.8099722"><ele>267.0</ele><time>2026-03-28T12:28:18.682Z</time></trkpt><trkpt lat="45.606762" lon="10.810022"><ele>267.0</ele><time>2026-03-28T12:28:19.675Z</time></trkpt><trkpt lat="45.6066925" lon="10.8100713"><ele>267.0</ele><time>2026-03-28T12:28:20.67Z</time></trkpt><trkpt lat="45.606638" lon="10.8101404"><ele>267.0</ele><time>2026-03-28T12:28:21.696Z</time></trkpt><trkpt lat="45.6065926" lon="10.8102251"><ele>267.0</ele><time>2026-03-28T12:28:22.691Z</time></trkpt><trkpt lat="45.606398" lon="10.8106225"><ele>267.25</ele><time>2026-03-28T12:28:24.584Z</time></trkpt><trkpt lat="45.6063188" lon="10.8107235"><ele>267.5</ele><time>2026-03-28T12:28:25.586Z</time></trkpt><trkpt lat="45.6062336" lon="10.8108628"><ele>267.75</ele><time>2026-03-28T12:28:26.583Z</time></trkpt><trkpt lat="45.6061509" lon="10.8110022"><ele>268.0</ele><time>2026-03-28T12:28:27.627Z</time></trkpt><trkpt lat="45.606065" lon="10.811149"><ele>268.25</ele><time>2026-03-28T12:28:28.611Z</time></trkpt><trkpt lat="45.6059759" lon="10.8112817"><ele>268.5</ele><time>2026-03-28T12:28:29.619Z</time></trkpt><trkpt lat="45.605884" lon="10.811421"><ele>268.75</ele><time>2026-03-28T12:28:30.616Z</time></trkpt><trkpt lat="45.605795" lon="10.811569"><ele>269.0</ele><time>2026-03-28T12:28:31.621Z</time></trkpt><trkpt lat="45.6057376" lon="10.8117099"><ele>269.2</ele><time>2026-03-28T12:28:32.614Z</time></trkpt><trkpt lat="45.605687" lon="10.811834"><ele>269.4</ele><time>2026-03-28T12:28:33.615Z</time></trkpt><trkpt lat="45.6056562" lon="10.8119721"><ele>269.6</ele><time>2026-03-28T12:28:34.609Z</time></trkpt><trkpt lat="45.6056295" lon="10.8121219"><ele>269.8</ele><time>2026-03-28T12:28:35.615Z</time></trkpt><trkpt lat="45.6056042" lon="10.8122595"><ele>270.0</ele><time>2026-03-28T12:28:36.611Z</time></trkpt><trkpt lat="45.6055845" lon="10.8123624"><ele>270.0</ele><time>2026-03-28T12:28:37.621Z</time></trkpt><trkpt lat="45.6055662" lon="10.8124491"><ele>270.0</ele><time>2026-03-28T12:28:38.608Z</time></trkpt><trkpt lat="45.6055292" lon="10.8125682"><ele>270.0</ele><time>2026-03-28T12:28:40.609Z</time></trkpt><trkpt lat="45.6054712" lon="10.8126613"><ele>270.0</ele><time>2026-03-28T12:28:42.612Z</time></trkpt><trkpt lat="45.6053801" lon="10.8127582"><ele>270.0</ele><time>2026-03-28T12:28:44.608Z</time></trkpt><trkpt lat="45.6053308" lon="10.8128629"><ele>270.0</ele><time>2026-03-28T12:28:45.615Z</time></trkpt><trkpt lat="45.6052795" lon="10.8130079"><ele>269.5</ele><time>2026-03-28T12:28:46.604Z</time></trkpt><trkpt lat="45.6052265" lon="10.8131733"><ele>269.0</ele><time>2026-03-28T12:28:47.599Z</time></trkpt><trkpt lat="45.6051701" lon="10.8133543"><ele>268.5</ele><time>2026-03-28T12:28:48.591Z</time></trkpt><trkpt lat="45.6051121" lon="10.81355"><ele>268.0</ele><time>2026-03-28T12:28:49.596Z</time></trkpt><trkpt lat="45.6050578" lon="10.813731"><ele>268.0</ele><time>2026-03-28T12:28:50.602Z</time></trkpt><trkpt lat="45.6050038" lon="10.8139112"><ele>268.0</ele><time>2026-03-28T12:28:51.605Z</time></trkpt><trkpt lat="45.6049439" lon="10.8140866"><ele>268.0</ele><time>2026-03-28T12:28:52.609Z</time></trkpt><trkpt lat="45.6048978" lon="10.8142805"><ele>268.0</ele><time>2026-03-28T12:28:53.612Z</time></trkpt><trkpt lat="45.604852" lon="10.8144571"><ele>268.25</ele><time>2026-03-28T12:28:54.613Z</time></trkpt><trkpt lat="45.604816" lon="10.814638"><ele>268.5</ele><time>2026-03-28T12:28:55.614Z</time></trkpt><trkpt lat="45.6047851" lon="10.8148049"><ele>268.75</ele><time>2026-03-28T12:28:56.612Z</time></trkpt><trkpt lat="45.6047493" lon="10.8149915"><ele>269.0</ele><time>2026-03-28T12:28:57.613Z</time></trkpt><trkpt lat="45.6047071" lon="10.8151601"><ele>269.1666666666667</ele><time>2026-03-28T12:28:58.634Z</time></trkpt><trkpt lat="45.6046842" lon="10.815315"><ele>269.33333333333337</ele><time>2026-03-28T12:28:59.615Z</time></trkpt><trkpt lat="45.6046709" lon="10.815462"><ele>269.5</ele><time>2026-03-28T12:29:00.621Z</time></trkpt><trkpt lat="45.6046583" lon="10.8155785"><ele>269.6666666666667</ele><time>2026-03-28T12:29:01.626Z</time></trkpt><trkpt lat="45.6046566" lon="10.8156742"><ele>269.8333333333333</ele><time>2026-03-28T12:29:02.611Z</time></trkpt><trkpt lat="45.6046597" lon="10.8157799"><ele>270.0</ele><time>2026-03-28T12:29:03.616Z</time></trkpt><trkpt lat="45.6046597" lon="10.8158814"><ele>270.0</ele><time>2026-03-28T12:29:05.619Z</time></trkpt><trkpt lat="45.6046746" lon="10.8159725"><ele>270.0</ele><time>2026-03-28T12:29:07.616Z</time></trkpt><trkpt lat="45.604709" lon="10.8161478"><ele>270.0</ele><time>2026-03-28T12:29:09.61Z</time></trkpt><trkpt lat="45.604706" lon="10.8162814"><ele>270.0</ele><time>2026-03-28T12:29:10.615Z</time></trkpt><trkpt lat="45.6047021" lon="10.8164448"><ele>270.0</ele><time>2026-03-28T12:29:11.615Z</time></trkpt><trkpt lat="45.6046968" lon="10.8166084"><ele>269.75</ele><time>2026-03-28T12:29:12.619Z</time></trkpt><trkpt lat="45.6047009" lon="10.8167831"><ele>269.5</ele><time>2026-03-28T12:29:13.601Z</time></trkpt><trkpt lat="45.604715" lon="10.8169601"><ele>269.25</ele><time>2026-03-28T12:29:14.608Z</time></trkpt><trkpt lat="45.6047444" lon="10.8171486"><ele>269.0</ele><time>2026-03-28T12:29:15.615Z</time></trkpt><trkpt lat="45.6047756" lon="10.8173192"><ele>269.8</ele><time>2026-03-28T12:29:16.614Z</time></trkpt><trkpt lat="45.6048099" lon="10.8174773"><ele>270.59999999999997</ele><time>2026-03-28T12:29:17.613Z</time></trkpt><trkpt lat="45.6048348" lon="10.817616"><ele>271.4</ele><time>2026-03-28T12:29:18.605Z</time></trkpt><trkpt lat="45.6048424" lon="10.8177366"><ele>272.2</ele><time>2026-03-28T12:29:19.61Z</time></trkpt><trkpt lat="45.6048249" lon="10.8178568"><ele>273.0</ele><time>2026-03-28T12:29:20.605Z</time></trkpt><trkpt lat="45.6047869" lon="10.817969"><ele>273.2</ele><time>2026-03-28T12:29:21.604Z</time></trkpt><trkpt lat="45.6047425" lon="10.8180945"><ele>273.4</ele><time>2026-03-28T12:29:22.611Z</time></trkpt><trkpt lat="45.6046845" lon="10.8182222"><ele>273.59999999999997</ele><time>2026-03-28T12:29:23.611Z</time></trkpt><trkpt lat="45.6046261" lon="10.8183481"><ele>273.8</ele><time>2026-03-28T12:29:24.614Z</time></trkpt><trkpt lat="45.6045819" lon="10.8184609"><ele>274.0</ele><time>2026-03-28T12:29:25.611Z</time></trkpt><trkpt lat="45.6045406" lon="10.818555"><ele>274.59999999999997</ele><time>2026-03-28T12:29:26.611Z</time></trkpt><trkpt lat="45.6044986" lon="10.8186575"><ele>275.2</ele><time>2026-03-28T12:29:27.616Z</time></trkpt><trkpt lat="45.6044547" lon="10.8187726"><ele>275.79999999999995</ele><time>2026-03-28T12:29:28.611Z</time></trkpt><trkpt lat="45.6044173" lon="10.8188816"><ele>276.4</ele><time>2026-03-28T12:29:29.624Z</time></trkpt><trkpt lat="45.6043702" lon="10.8190068"><ele>277.0</ele><time>2026-03-28T12:29:30.606Z</time></trkpt><trkpt lat="45.6043173" lon="10.8191288"><ele>276.0</ele><time>2026-03-28T12:29:31.603Z</time></trkpt><trkpt lat="45.6042718" lon="10.8192069"><ele>275.0</ele><time>2026-03-28T12:29:32.603Z</time></trkpt><trkpt lat="45.6042176" lon="10.8192608"><ele>274.0</ele><time>2026-03-28T12:29:33.602Z</time></trkpt><trkpt lat="45.6040878" lon="10.8192619"><ele>273.0</ele><time>2026-03-28T12:29:35.603Z</time></trkpt><trkpt lat="45.6040191" lon="10.8192091"><ele>272.0</ele><time>2026-03-28T12:29:36.618Z</time></trkpt><trkpt lat="45.603956" lon="10.819151"><ele>271.0</ele><time>2026-03-28T12:29:37.606Z</time></trkpt><trkpt lat="45.603839" lon="10.8191412"><ele>271.0</ele><time>2026-03-28T12:29:39.615Z</time></trkpt><trkpt lat="45.6037751" lon="10.8192069"><ele>271.0</ele><time>2026-03-28T12:29:40.613Z</time></trkpt><trkpt lat="45.6037027" lon="10.819325"><ele>271.0</ele><time>2026-03-28T12:29:41.615Z</time></trkpt><trkpt lat="45.6036116" lon="10.819456"><ele>271.0</ele><time>2026-03-28T12:29:42.612Z</time></trkpt><trkpt lat="45.6035095" lon="10.8196006"><ele>270.66666666666663</ele><time>2026-03-28T12:29:43.609Z</time></trkpt><trkpt lat="45.6033929" lon="10.8197613"><ele>270.3333333333333</ele><time>2026-03-28T12:29:44.615Z</time></trkpt><trkpt lat="45.6032685" lon="10.8199253"><ele>270.0</ele><time>2026-03-28T12:29:45.617Z</time></trkpt><trkpt lat="45.6031314" lon="10.8200913"><ele>270.0</ele><time>2026-03-28T12:29:46.615Z</time></trkpt><trkpt lat="45.6029982" lon="10.8202444"><ele>270.0</ele><time>2026-03-28T12:29:47.616Z</time></trkpt><trkpt lat="45.60286" lon="10.8203805"><ele>270.0</ele><time>2026-03-28T12:29:48.615Z</time></trkpt><trkpt lat="45.6027328" lon="10.8205262"><ele>270.0</ele><time>2026-03-28T12:29:49.616Z</time></trkpt><trkpt lat="45.6026215" lon="10.8206796"><ele>270.0</ele><time>2026-03-28T12:29:50.612Z</time></trkpt><trkpt lat="45.6025149" lon="10.820805"><ele>270.0</ele><time>2026-03-28T12:29:51.612Z</time></trkpt><trkpt lat="45.6023949" lon="10.8209289"><ele>270.0</ele><time>2026-03-28T12:29:52.616Z</time></trkpt><trkpt lat="45.602275" lon="10.8210745"><ele>269.75</ele><time>2026-03-28T12:29:53.618Z</time></trkpt><trkpt lat="45.6021541" lon="10.8212171"><ele>269.5</ele><time>2026-03-28T12:29:54.616Z</time></trkpt><trkpt lat="45.6020438" lon="10.8213456"><ele>269.25</ele><time>2026-03-28T12:29:55.616Z</time></trkpt><trkpt lat="45.6019442" lon="10.8214598"><ele>269.0</ele><time>2026-03-28T12:29:56.619Z</time></trkpt><trkpt lat="45.6018539" lon="10.8215759"><ele>269.0</ele><time>2026-03-28T12:29:57.618Z</time></trkpt><trkpt lat="45.6017616" lon="10.8216885"><ele>269.0</ele><time>2026-03-28T12:29:58.618Z</time></trkpt><trkpt lat="45.6016836" lon="10.8217872"><ele>269.0</ele><time>2026-03-28T12:29:59.617Z</time></trkpt><trkpt lat="45.6016285" lon="10.82186"><ele>269.0</ele><time>2026-03-28T12:30:00.635Z</time></trkpt><trkpt lat="45.6015745" lon="10.8219223"><ele>269.0</ele><time>2026-03-28T12:30:01.628Z</time></trkpt><trkpt lat="45.6015091" lon="10.8220268"><ele>270.0</ele><time>2026-03-28T12:30:03.622Z</time></trkpt><trkpt lat="45.6015007" lon="10.8221398"><ele>271.0</ele><time>2026-03-28T12:30:05.621Z</time></trkpt><trkpt lat="45.6015462" lon="10.8222219"><ele>272.0</ele><time>2026-03-28T12:30:06.606Z</time></trkpt><trkpt lat="45.6016248" lon="10.8223361"><ele>273.0</ele><time>2026-03-28T12:30:07.626Z</time></trkpt><trkpt lat="45.601717" lon="10.8224628"><ele>274.0</ele><time>2026-03-28T12:30:08.613Z</time></trkpt><trkpt lat="45.6017978" lon="10.8225928"><ele>275.2</ele><time>2026-03-28T12:30:09.617Z</time></trkpt><trkpt lat="45.6018617" lon="10.8227034"><ele>276.4</ele><time>2026-03-28T12:30:10.619Z</time></trkpt><trkpt lat="45.6019123" lon="10.8228112"><ele>277.6</ele><time>2026-03-28T12:30:11.619Z</time></trkpt><trkpt lat="45.6019615" lon="10.8229008"><ele>278.8</ele><time>2026-03-28T12:30:12.606Z</time></trkpt><trkpt lat="45.6020461" lon="10.8229922"><ele>280.0</ele><time>2026-03-28T12:30:14.608Z</time></trkpt><trkpt lat="45.6021184" lon="10.8230212"><ele>280.16666666666663</ele><time>2026-03-28T12:30:16.617Z</time></trkpt><trkpt lat="45.6022171" lon="10.822951"><ele>280.3333333333333</ele><time>2026-03-28T12:30:18.607Z</time></trkpt><trkpt lat="45.6022806" lon="10.8228996"><ele>280.5</ele><time>2026-03-28T12:30:19.611Z</time></trkpt><trkpt lat="45.6023471" lon="10.822842"><ele>280.6666666666667</ele><time>2026-03-28T12:30:20.61Z</time></trkpt><trkpt lat="45.6024191" lon="10.8227837"><ele>280.83333333333337</ele><time>2026-03-28T12:30:21.61Z</time></trkpt><trkpt lat="45.6024892" lon="10.8227283"><ele>281.0</ele><time>2026-03-28T12:30:22.613Z</time></trkpt><trkpt lat="45.6025575" lon="10.8226644"><ele>280.40000000000003</ele><time>2026-03-28T12:30:23.615Z</time></trkpt><trkpt lat="45.6026319" lon="10.8226129"><ele>279.8</ele><time>2026-03-28T12:30:24.614Z</time></trkpt><trkpt lat="45.6027091" lon="10.8225524"><ele>279.20000000000005</ele><time>2026-03-28T12:30:25.619Z</time></trkpt><trkpt lat="45.6027886" lon="10.8225103"><ele>278.6</ele><time>2026-03-28T12:30:26.619Z</time></trkpt><trkpt lat="45.6028878" lon="10.8224623"><ele>278.0</ele><time>2026-03-28T12:30:27.616Z</time></trkpt><trkpt lat="45.602994" lon="10.8224092"><ele>278.0</ele><time>2026-03-28T12:30:28.614Z</time></trkpt><trkpt lat="45.6030965" lon="10.8223636"><ele>278.0</ele><time>2026-03-28T12:30:29.617Z</time></trkpt><trkpt lat="45.6031846" lon="10.8223165"><ele>278.0</ele><time>2026-03-28T12:30:30.617Z</time></trkpt><trkpt lat="45.6032699" lon="10.8222773"><ele>278.0</ele><time>2026-03-28T12:30:31.637Z</time></trkpt><trkpt lat="45.6033613" lon="10.8222363"><ele>278.0</ele><time>2026-03-28T12:30:32.62Z</time></trkpt><trkpt lat="45.6034491" lon="10.8222023"><ele>278.0</ele><time>2026-03-28T12:30:33.621Z</time></trkpt><trkpt lat="45.6035474" lon="10.8221698"><ele>278.0</ele><time>2026-03-28T12:30:34.624Z</time></trkpt><trkpt lat="45.6036355" lon="10.8221465"><ele>278.0</ele><time>2026-03-28T12:30:35.616Z</time></trkpt><trkpt lat="45.603717" lon="10.8221308"><ele>278.0</ele><time>2026-03-28T12:30:36.615Z</time></trkpt><trkpt lat="45.6037904" lon="10.8221222"><ele>278.0</ele><time>2026-03-28T12:30:37.614Z</time></trkpt><trkpt lat="45.6038611" lon="10.8221026"><ele>278.0</ele><time>2026-03-28T12:30:38.612Z</time></trkpt><trkpt lat="45.6039281" lon="10.8220972"><ele>279.0</ele><time>2026-03-28T12:30:39.615Z</time></trkpt><trkpt lat="45.6040036" lon="10.8221083"><ele>280.0</ele><time>2026-03-28T12:30:40.616Z</time></trkpt><trkpt lat="45.6040957" lon="10.822099"><ele>281.0</ele><time>2026-03-28T12:30:41.612Z</time></trkpt><trkpt lat="45.604191" lon="10.8220941"><ele>282.0</ele><time>2026-03-28T12:30:42.613Z</time></trkpt><trkpt lat="45.6042719" lon="10.8220955"><ele>283.0</ele><time>2026-03-28T12:30:43.618Z</time></trkpt><trkpt lat="45.604349" lon="10.8220771"><ele>284.0</ele><time>2026-03-28T12:30:44.617Z</time></trkpt><trkpt lat="45.6044153" lon="10.8220472"><ele>284.0</ele><time>2026-03-28T12:30:45.605Z</time></trkpt><trkpt lat="45.6044769" lon="10.8219563"><ele>284.0</ele><time>2026-03-28T12:30:47.623Z</time></trkpt><trkpt lat="45.604545" lon="10.8218769"><ele>284.0</ele><time>2026-03-28T12:30:49.609Z</time></trkpt><trkpt lat="45.6046545" lon="10.8218034"><ele>284.0</ele><time>2026-03-28T12:30:51.613Z</time></trkpt><trkpt lat="45.6047211" lon="10.821768"><ele>284.0</ele><time>2026-03-28T12:30:52.612Z</time></trkpt><trkpt lat="45.6047924" lon="10.8217388"><ele>284.0</ele><time>2026-03-28T12:30:53.606Z</time></trkpt><trkpt lat="45.6048617" lon="10.8217222"><ele>285.7142857142857</ele><time>2026-03-28T12:30:54.604Z</time></trkpt><trkpt lat="45.6049314" lon="10.8217125"><ele>287.4285714285714</ele><time>2026-03-28T12:30:55.608Z</time></trkpt><trkpt lat="45.6049995" lon="10.8217179"><ele>289.1428571428571</ele><time>2026-03-28T12:30:56.604Z</time></trkpt><trkpt lat="45.6050743" lon="10.821732"><ele>290.85714285714283</ele><time>2026-03-28T12:30:57.606Z</time></trkpt><trkpt lat="45.6051469" lon="10.8217605"><ele>292.57142857142856</ele><time>2026-03-28T12:30:58.608Z</time></trkpt><trkpt lat="45.6052196" lon="10.8217564"><ele>294.2857142857143</ele><time>2026-03-28T12:30:59.608Z</time></trkpt><trkpt lat="45.6052783" lon="10.8216886"><ele>296.0</ele><time>2026-03-28T12:31:00.607Z</time></trkpt><trkpt lat="45.6053302" lon="10.821543"><ele>296.0</ele><time>2026-03-28T12:31:02.644Z</time></trkpt><trkpt lat="45.6053533" lon="10.8216651"><ele>296.0</ele><time>2026-03-28T12:31:09.611Z</time></trkpt><trkpt lat="45.605332" lon="10.8217838"><ele>296.0</ele><time>2026-03-28T12:31:10.601Z</time></trkpt><trkpt lat="45.605319" lon="10.8219471"><ele>296.0</ele><time>2026-03-28T12:31:11.607Z</time></trkpt><trkpt lat="45.6053121" lon="10.8221516"><ele>296.0</ele><time>2026-03-28T12:31:12.611Z</time></trkpt><trkpt lat="45.6053262" lon="10.8223702"><ele>300.33333333333337</ele><time>2026-03-28T12:31:13.604Z</time></trkpt><trkpt lat="45.6053565" lon="10.8226394"><ele>304.6666666666667</ele><time>2026-03-28T12:31:14.608Z</time></trkpt><trkpt lat="45.6053681" lon="10.8229081"><ele>309.0</ele><time>2026-03-28T12:31:15.614Z</time></trkpt><trkpt lat="45.6053876" lon="10.8231195"><ele>309.25</ele><time>2026-03-28T12:31:16.611Z</time></trkpt><trkpt lat="45.6054031" lon="10.8233379"><ele>309.5</ele><time>2026-03-28T12:31:17.619Z</time></trkpt><trkpt lat="45.6054208" lon="10.8235485"><ele>309.75</ele><time>2026-03-28T12:31:18.61Z</time></trkpt><trkpt lat="45.6054335" lon="10.8237475"><ele>310.0</ele><time>2026-03-28T12:31:19.607Z</time></trkpt><trkpt lat="45.6054427" lon="10.8239437"><ele>309.6</ele><time>2026-03-28T12:31:20.593Z</time></trkpt><trkpt lat="45.6054392" lon="10.8241106"><ele>309.2</ele><time>2026-03-28T12:31:21.599Z</time></trkpt><trkpt lat="45.6054245" lon="10.824275"><ele>308.8</ele><time>2026-03-28T12:31:22.596Z</time></trkpt><trkpt lat="45.6054009" lon="10.8244065"><ele>308.4</ele><time>2026-03-28T12:31:23.604Z</time></trkpt><trkpt lat="45.6053658" lon="10.8245162"><ele>308.0</ele><time>2026-03-28T12:31:24.604Z</time></trkpt><trkpt lat="45.6053047" lon="10.8246269"><ele>306.0</ele><time>2026-03-28T12:31:25.604Z</time></trkpt><trkpt lat="45.6052163" lon="10.8247327"><ele>304.0</ele><time>2026-03-28T12:31:26.604Z</time></trkpt><trkpt lat="45.6051061" lon="10.8248278"><ele>302.0</ele><time>2026-03-28T12:31:27.602Z</time></trkpt><trkpt lat="45.6049839" lon="10.8249062"><ele>300.0</ele><time>2026-03-28T12:31:28.607Z</time></trkpt><trkpt lat="45.6048731" lon="10.8249473"><ele>300.0</ele><time>2026-03-28T12:31:29.609Z</time></trkpt><trkpt lat="45.6047751" lon="10.8249593"><ele>300.0</ele><time>2026-03-28T12:31:30.618Z</time></trkpt><trkpt lat="45.6046821" lon="10.8249954"><ele>300.0</ele><time>2026-03-28T12:31:31.613Z</time></trkpt><trkpt lat="45.604596" lon="10.8250779"><ele>300.0</ele><time>2026-03-28T12:31:32.645Z</time></trkpt><trkpt lat="45.6045354" lon="10.8252125"><ele>300.0</ele><time>2026-03-28T12:31:33.6Z</time></trkpt><trkpt lat="45.6044923" lon="10.8253688"><ele>300.0</ele><time>2026-03-28T12:31:34.612Z</time></trkpt><trkpt lat="45.6044568" lon="10.8255459"><ele>300.0</ele><time>2026-03-28T12:31:35.604Z</time></trkpt><trkpt lat="45.6044096" lon="10.8257206"><ele>300.0</ele><time>2026-03-28T12:31:36.608Z</time></trkpt><trkpt lat="45.6043458" lon="10.8258883"><ele>300.0</ele><time>2026-03-28T12:31:37.602Z</time></trkpt><trkpt lat="45.6042505" lon="10.8260186"><ele>301.3333333333333</ele><time>2026-03-28T12:31:38.61Z</time></trkpt><trkpt lat="45.6041175" lon="10.8261188"><ele>302.66666666666663</ele><time>2026-03-28T12:31:39.594Z</time></trkpt><trkpt lat="45.6039705" lon="10.8262228"><ele>304.0</ele><time>2026-03-28T12:31:40.601Z</time></trkpt><trkpt lat="45.6038389" lon="10.8263064"><ele>304.0</ele><time>2026-03-28T12:31:41.608Z</time></trkpt><trkpt lat="45.6037166" lon="10.8263585"><ele>304.0</ele><time>2026-03-28T12:31:42.608Z</time></trkpt><trkpt lat="45.6036082" lon="10.826426"><ele>304.0</ele><time>2026-03-28T12:31:43.607Z</time></trkpt><trkpt lat="45.6034999" lon="10.8264809"><ele>304.0</ele><time>2026-03-28T12:31:44.609Z</time></trkpt><trkpt lat="45.603401" lon="10.8265364"><ele>303.8333333333333</ele><time>2026-03-28T12:31:45.612Z</time></trkpt><trkpt lat="45.6033022" lon="10.8265845"><ele>303.66666666666663</ele><time>2026-03-28T12:31:46.611Z</time></trkpt><trkpt lat="45.6032114" lon="10.8266098"><ele>303.5</ele><time>2026-03-28T12:31:47.614Z</time></trkpt><trkpt lat="45.6031423" lon="10.8266299"><ele>303.3333333333333</ele><time>2026-03-28T12:31:48.608Z</time></trkpt><trkpt lat="45.6030612" lon="10.826659"><ele>303.1666666666667</ele><time>2026-03-28T12:31:50.61Z</time></trkpt><trkpt lat="45.6030302" lon="10.8267549"><ele>303.0</ele><time>2026-03-28T12:31:52.613Z</time></trkpt><trkpt lat="45.6030904" lon="10.8269047"><ele>306.25</ele><time>2026-03-28T12:31:54.616Z</time></trkpt><trkpt lat="45.6031544" lon="10.8269747"><ele>309.5</ele><time>2026-03-28T12:31:55.605Z</time></trkpt><trkpt lat="45.6032502" lon="10.827036"><ele>312.75</ele><time>2026-03-28T12:31:56.594Z</time></trkpt><trkpt lat="45.603381" lon="10.8270989"><ele>316.0</ele><time>2026-03-28T12:31:57.587Z</time></trkpt><trkpt lat="45.6035238" lon="10.8271614"><ele>315.75</ele><time>2026-03-28T12:31:58.587Z</time></trkpt><trkpt lat="45.6036643" lon="10.8272247"><ele>315.5</ele><time>2026-03-28T12:31:59.597Z</time></trkpt><trkpt lat="45.6037917" lon="10.827272"><ele>315.25</ele><time>2026-03-28T12:32:00.586Z</time></trkpt><trkpt lat="45.603919" lon="10.8273161"><ele>315.0</ele><time>2026-03-28T12:32:01.59Z</time></trkpt><trkpt lat="45.604034" lon="10.8273277"><ele>315.0</ele><time>2026-03-28T12:32:02.588Z</time></trkpt><trkpt lat="45.6041325" lon="10.8273043"><ele>315.0</ele><time>2026-03-28T12:32:03.608Z</time></trkpt><trkpt lat="45.6042228" lon="10.82729"><ele>315.0</ele><time>2026-03-28T12:32:04.585Z</time></trkpt><trkpt lat="45.604307" lon="10.8272609"><ele>315.0</ele><time>2026-03-28T12:32:05.583Z</time></trkpt><trkpt lat="45.6043904" lon="10.8271909"><ele>315.0</ele><time>2026-03-28T12:32:06.587Z</time></trkpt><trkpt lat="45.6044728" lon="10.8270877"><ele>314.5</ele><time>2026-03-28T12:32:07.585Z</time></trkpt><trkpt lat="45.604549" lon="10.8269887"><ele>314.0</ele><time>2026-03-28T12:32:08.602Z</time></trkpt><trkpt lat="45.6046144" lon="10.8268801"><ele>313.5</ele><time>2026-03-28T12:32:09.598Z</time></trkpt><trkpt lat="45.6046707" lon="10.826786"><ele>313.0</ele><time>2026-03-28T12:32:10.599Z</time></trkpt><trkpt lat="45.6047078" lon="10.8266945"><ele>312.5</ele><time>2026-03-28T12:32:11.601Z</time></trkpt><trkpt lat="45.6047508" lon="10.8266151"><ele>312.0</ele><time>2026-03-28T12:32:12.592Z</time></trkpt><trkpt lat="45.6048098" lon="10.8265471"><ele>312.0</ele><time>2026-03-28T12:32:13.594Z</time></trkpt><trkpt lat="45.6048806" lon="10.8265028"><ele>312.0</ele><time>2026-03-28T12:32:14.6Z</time></trkpt><trkpt lat="45.604968" lon="10.8264816"><ele>312.0</ele><time>2026-03-28T12:32:15.594Z</time></trkpt><trkpt lat="45.6050487" lon="10.8264788"><ele>312.0</ele><time>2026-03-28T12:32:16.604Z</time></trkpt><trkpt lat="45.6051148" lon="10.8264843"><ele>312.0</ele><time>2026-03-28T12:32:17.603Z</time></trkpt><trkpt lat="45.6051715" lon="10.8264329"><ele>312.0</ele><time>2026-03-28T12:32:18.605Z</time></trkpt><trkpt lat="45.6052159" lon="10.8263545"><ele>312.0</ele><time>2026-03-28T12:32:19.613Z</time></trkpt><trkpt lat="45.605272" lon="10.8262438"><ele>312.0</ele><time>2026-03-28T12:32:20.606Z</time></trkpt><trkpt lat="45.6053403" lon="10.8261382"><ele>312.0</ele><time>2026-03-28T12:32:21.603Z</time></trkpt><trkpt lat="45.6054227" lon="10.8260764"><ele>312.0</ele><time>2026-03-28T12:32:22.605Z</time></trkpt><trkpt lat="45.6055127" lon="10.8260315"><ele>312.0</ele><time>2026-03-28T12:32:23.603Z</time></trkpt><trkpt lat="45.6056095" lon="10.8259924"><ele>312.4</ele><time>2026-03-28T12:32:24.617Z</time></trkpt><trkpt lat="45.6056901" lon="10.8259761"><ele>312.79999999999995</ele><time>2026-03-28T12:32:25.613Z</time></trkpt><trkpt lat="45.605765" lon="10.8260045"><ele>313.2</ele><time>2026-03-28T12:32:26.617Z</time></trkpt><trkpt lat="45.6058403" lon="10.826079"><ele>313.59999999999997</ele><time>2026-03-28T12:32:27.615Z</time></trkpt><trkpt lat="45.6059373" lon="10.8261907"><ele>314.0</ele><time>2026-03-28T12:32:28.612Z</time></trkpt><trkpt lat="45.6060611" lon="10.8262714"><ele>317.6666666666667</ele><time>2026-03-28T12:32:29.604Z</time></trkpt><trkpt lat="45.6062063" lon="10.8263467"><ele>321.3333333333333</ele><time>2026-03-28T12:32:30.61Z</time></trkpt><trkpt lat="45.6063688" lon="10.8264212"><ele>325.0</ele><time>2026-03-28T12:32:31.609Z</time></trkpt><trkpt lat="45.6065445" lon="10.8264892"><ele>325.0</ele><time>2026-03-28T12:32:32.61Z</time></trkpt><trkpt lat="45.6066881" lon="10.8265688"><ele>325.0</ele><time>2026-03-28T12:32:33.605Z</time></trkpt><trkpt lat="45.6068383" lon="10.8266627"><ele>325.0</ele><time>2026-03-28T12:32:34.615Z</time></trkpt><trkpt lat="45.6069982" lon="10.8267398"><ele>328.0</ele><time>2026-03-28T12:32:35.592Z</time></trkpt><trkpt lat="45.6071165" lon="10.8268163"><ele>331.0</ele><time>2026-03-28T12:32:36.59Z</time></trkpt><trkpt lat="45.6072555" lon="10.8268733"><ele>334.0</ele><time>2026-03-28T12:32:37.588Z</time></trkpt><trkpt lat="45.6073823" lon="10.826941"><ele>337.0</ele><time>2026-03-28T12:32:38.582Z</time></trkpt><trkpt lat="45.6075166" lon="10.8269997"><ele>337.0</ele><time>2026-03-28T12:32:39.584Z</time></trkpt><trkpt lat="45.6076559" lon="10.827039"><ele>337.0</ele><time>2026-03-28T12:32:40.587Z</time></trkpt><trkpt lat="45.6077776" lon="10.8270594"><ele>337.0</ele><time>2026-03-28T12:32:41.59Z</time></trkpt><trkpt lat="45.6078964" lon="10.8270725"><ele>337.0</ele><time>2026-03-28T12:32:42.592Z</time></trkpt><trkpt lat="45.6079829" lon="10.8270836"><ele>336.6</ele><time>2026-03-28T12:32:43.595Z</time></trkpt><trkpt lat="45.608069" lon="10.8271183"><ele>336.20000000000005</ele><time>2026-03-28T12:32:44.604Z</time></trkpt><trkpt lat="45.6081444" lon="10.8271608"><ele>335.8</ele><time>2026-03-28T12:32:45.603Z</time></trkpt><trkpt lat="45.6082357" lon="10.8272177"><ele>335.4</ele><time>2026-03-28T12:32:47.599Z</time></trkpt><trkpt lat="45.6083422" lon="10.8272305"><ele>335.0</ele><time>2026-03-28T12:32:50.606Z</time></trkpt><trkpt lat="45.6084437" lon="10.8270739"><ele>335.0</ele><time>2026-03-28T12:32:52.6Z</time></trkpt><trkpt lat="45.6084975" lon="10.8269282"><ele>335.0</ele><time>2026-03-28T12:32:53.606Z</time></trkpt><trkpt lat="45.608544" lon="10.8267782"><ele>335.0</ele><time>2026-03-28T12:32:54.611Z</time></trkpt><trkpt lat="45.6085618" lon="10.826603"><ele>335.0</ele><time>2026-03-28T12:32:55.603Z</time></trkpt><trkpt lat="45.6085674" lon="10.8264093"><ele>333.5</ele><time>2026-03-28T12:32:56.609Z</time></trkpt><trkpt lat="45.6085433" lon="10.8262117"><ele>332.0</ele><time>2026-03-28T12:32:57.615Z</time></trkpt><trkpt lat="45.6085311" lon="10.8260229"><ele>330.5</ele><time>2026-03-28T12:32:58.618Z</time></trkpt><trkpt lat="45.6085344" lon="10.8258412"><ele>329.0</ele><time>2026-03-28T12:32:59.626Z</time></trkpt><trkpt lat="45.6085453" lon="10.8256764"><ele>329.0</ele><time>2026-03-28T12:33:00.623Z</time></trkpt><trkpt lat="45.6085592" lon="10.8255098"><ele>329.0</ele><time>2026-03-28T12:33:01.622Z</time></trkpt><trkpt lat="45.6085742" lon="10.8253457"><ele>329.0</ele><time>2026-03-28T12:33:02.623Z</time></trkpt><trkpt lat="45.6085918" lon="10.825187"><ele>329.0</ele><time>2026-03-28T12:33:03.614Z</time></trkpt><trkpt lat="45.6086131" lon="10.8250369"><ele>328.6</ele><time>2026-03-28T12:33:04.632Z</time></trkpt><trkpt lat="45.6086278" lon="10.8248845"><ele>328.2</ele><time>2026-03-28T12:33:06.701Z</time></trkpt><trkpt lat="45.6086366" lon="10.824745"><ele>327.8</ele><time>2026-03-28T12:33:07.701Z</time></trkpt><trkpt lat="45.6086326" lon="10.8246159"><ele>327.40000000000003</ele><time>2026-03-28T12:33:08.683Z</time></trkpt><trkpt lat="45.6086081" lon="10.8244981"><ele>327.0</ele><time>2026-03-28T12:33:09.678Z</time></trkpt><trkpt lat="45.6085667" lon="10.824384"><ele>326.5</ele><time>2026-03-28T12:33:10.682Z</time></trkpt><trkpt lat="45.608509" lon="10.8242669"><ele>326.0</ele><time>2026-03-28T12:33:11.684Z</time></trkpt><trkpt lat="45.6084209" lon="10.8240875"><ele>325.5</ele><time>2026-03-28T12:33:12.71Z</time></trkpt><trkpt lat="45.6083355" lon="10.823919"><ele>325.0</ele><time>2026-03-28T12:33:13.715Z</time></trkpt><trkpt lat="45.608248" lon="10.8237503"><ele>325.0</ele><time>2026-03-28T12:33:14.717Z</time></trkpt><trkpt lat="45.6081682" lon="10.8235984"><ele>325.0</ele><time>2026-03-28T12:33:15.714Z</time></trkpt><trkpt lat="45.6080848" lon="10.8234442"><ele>325.0</ele><time>2026-03-28T12:33:16.711Z</time></trkpt><trkpt lat="45.6080011" lon="10.8232966"><ele>325.0</ele><time>2026-03-28T12:33:17.72Z</time></trkpt><trkpt lat="45.6079177" lon="10.8231334"><ele>324.66666666666663</ele><time>2026-03-28T12:33:18.711Z</time></trkpt><trkpt lat="45.6078361" lon="10.8229649"><ele>324.3333333333333</ele><time>2026-03-28T12:33:19.711Z</time></trkpt><trkpt lat="45.6077532" lon="10.8227819"><ele>324.0</ele><time>2026-03-28T12:33:20.723Z</time></trkpt><trkpt lat="45.6076797" lon="10.8225888"><ele>322.5</ele><time>2026-03-28T12:33:21.718Z</time></trkpt><trkpt lat="45.6076116" lon="10.8224061"><ele>321.0</ele><time>2026-03-28T12:33:22.718Z</time></trkpt><trkpt lat="45.6075465" lon="10.8222327"><ele>319.5</ele><time>2026-03-28T12:33:23.716Z</time></trkpt><trkpt lat="45.6074953" lon="10.8220596"><ele>318.0</ele><time>2026-03-28T12:33:24.713Z</time></trkpt><trkpt lat="45.6074491" lon="10.8218727"><ele>315.75</ele><time>2026-03-28T12:33:25.72Z</time></trkpt><trkpt lat="45.6074089" lon="10.8216922"><ele>313.5</ele><time>2026-03-28T12:33:26.714Z</time></trkpt><trkpt lat="45.607371" lon="10.8215203"><ele>311.25</ele><time>2026-03-28T12:33:27.708Z</time></trkpt><trkpt lat="45.6073265" lon="10.8213526"><ele>309.0</ele><time>2026-03-28T12:33:28.716Z</time></trkpt><trkpt lat="45.6072792" lon="10.8211754"><ele>309.0</ele><time>2026-03-28T12:33:29.725Z</time></trkpt><trkpt lat="45.6072336" lon="10.8210136"><ele>309.0</ele><time>2026-03-28T12:33:30.708Z</time></trkpt><trkpt lat="45.6071922" lon="10.8208587"><ele>309.0</ele><time>2026-03-28T12:33:31.707Z</time></trkpt><trkpt lat="45.6071574" lon="10.8207066"><ele>309.0</ele><time>2026-03-28T12:33:32.71Z</time></trkpt><trkpt lat="45.6071332" lon="10.8205419"><ele>307.75</ele><time>2026-03-28T12:33:33.706Z</time></trkpt><trkpt lat="45.6071183" lon="10.8203673"><ele>306.5</ele><time>2026-03-28T12:33:34.709Z</time></trkpt><trkpt lat="45.6071281" lon="10.820192"><ele>305.25</ele><time>2026-03-28T12:33:35.678Z</time></trkpt><trkpt lat="45.6071583" lon="10.8200242"><ele>304.0</ele><time>2026-03-28T12:33:36.708Z</time></trkpt><trkpt lat="45.6072129" lon="10.8198472"><ele>303.0</ele><time>2026-03-28T12:33:37.687Z</time></trkpt><trkpt lat="45.6072697" lon="10.8196737"><ele>302.0</ele><time>2026-03-28T12:33:38.689Z</time></trkpt><trkpt lat="45.6073186" lon="10.8195332"><ele>301.0</ele><time>2026-03-28T12:33:39.714Z</time></trkpt><trkpt lat="45.60736" lon="10.8194096"><ele>300.0</ele><time>2026-03-28T12:33:40.717Z</time></trkpt><trkpt lat="45.6073925" lon="10.8192886"><ele>299.0</ele><time>2026-03-28T12:33:41.72Z</time></trkpt><trkpt lat="45.6074409" lon="10.8191434"><ele>298.0</ele><time>2026-03-28T12:33:42.719Z</time></trkpt><trkpt lat="45.6074926" lon="10.8189808"><ele>297.0</ele><time>2026-03-28T12:33:43.72Z</time></trkpt><trkpt lat="45.6075419" lon="10.8188074"><ele>296.0</ele><time>2026-03-28T12:33:44.717Z</time></trkpt><trkpt lat="45.6075911" lon="10.8186086"><ele>295.0</ele><time>2026-03-28T12:33:45.719Z</time></trkpt><trkpt lat="45.6076422" lon="10.8183916"><ele>294.25</ele><time>2026-03-28T12:33:46.721Z</time></trkpt><trkpt lat="45.6076841" lon="10.8181766"><ele>293.5</ele><time>2026-03-28T12:33:47.722Z</time></trkpt><trkpt lat="45.6077191" lon="10.8179752"><ele>292.75</ele><time>2026-03-28T12:33:48.716Z</time></trkpt><trkpt lat="45.607755" lon="10.8177828"><ele>292.0</ele><time>2026-03-28T12:33:49.719Z</time></trkpt><trkpt lat="45.6077903" lon="10.8176027"><ele>290.6</ele><time>2026-03-28T12:33:50.711Z</time></trkpt><trkpt lat="45.607825" lon="10.8174449"><ele>289.2</ele><time>2026-03-28T12:33:51.711Z</time></trkpt><trkpt lat="45.6078623" lon="10.8173009"><ele>287.8</ele><time>2026-03-28T12:33:52.719Z</time></trkpt><trkpt lat="45.6078991" lon="10.8171763"><ele>286.4</ele><time>2026-03-28T12:33:53.715Z</time></trkpt><trkpt lat="45.6079368" lon="10.8170601"><ele>285.0</ele><time>2026-03-28T12:33:54.726Z</time></trkpt><trkpt lat="45.6079742" lon="10.8169362"><ele>285.0</ele><time>2026-03-28T12:33:55.72Z</time></trkpt><trkpt lat="45.6080153" lon="10.8168415"><ele>285.0</ele><time>2026-03-28T12:33:56.724Z</time></trkpt><trkpt lat="45.6080585" lon="10.8167652"><ele>285.0</ele><time>2026-03-28T12:33:57.695Z</time></trkpt><trkpt lat="45.6081164" lon="10.8166748"><ele>285.0</ele><time>2026-03-28T12:33:59.705Z</time></trkpt><trkpt lat="45.6081738" lon="10.8165452"><ele>285.0</ele><time>2026-03-28T12:34:03.727Z</time></trkpt><trkpt lat="45.6082059" lon="10.8164647"><ele>285.0</ele><time>2026-03-28T12:34:04.721Z</time></trkpt><trkpt lat="45.6082408" lon="10.8163697"><ele>284.8</ele><time>2026-03-28T12:34:05.716Z</time></trkpt><trkpt lat="45.6082797" lon="10.8162717"><ele>284.6</ele><time>2026-03-28T12:34:06.698Z</time></trkpt><trkpt lat="45.6083282" lon="10.8161533"><ele>284.4</ele><time>2026-03-28T12:34:07.716Z</time></trkpt><trkpt lat="45.6083767" lon="10.8160247"><ele>284.2</ele><time>2026-03-28T12:34:08.696Z</time></trkpt><trkpt lat="45.6084261" lon="10.8158835"><ele>284.0</ele><time>2026-03-28T12:34:09.689Z</time></trkpt><trkpt lat="45.6084757" lon="10.8157622"><ele>284.0</ele><time>2026-03-28T12:34:10.68Z</time></trkpt><trkpt lat="45.6085477" lon="10.815655"><ele>284.0</ele><time>2026-03-28T12:34:11.681Z</time></trkpt><trkpt lat="45.6086228" lon="10.8155493"><ele>284.0</ele><time>2026-03-28T12:34:12.678Z</time></trkpt><trkpt lat="45.6086926" lon="10.8154249"><ele>284.0</ele><time>2026-03-28T12:34:13.682Z</time></trkpt><trkpt lat="45.6087503" lon="10.8152826"><ele>284.0</ele><time>2026-03-28T12:34:14.693Z</time></trkpt><trkpt lat="45.6087867" lon="10.8151272"><ele>283.5</ele><time>2026-03-28T12:34:15.701Z</time></trkpt><trkpt lat="45.6088482" lon="10.8149869"><ele>283.0</ele><time>2026-03-28T12:34:16.688Z</time></trkpt><trkpt lat="45.6088673" lon="10.8148106"><ele>282.5</ele><time>2026-03-28T12:34:17.693Z</time></trkpt><trkpt lat="45.6088794" lon="10.8146294"><ele>282.0</ele><time>2026-03-28T12:34:18.695Z</time></trkpt><trkpt lat="45.6089034" lon="10.8144403"><ele>281.6666666666667</ele><time>2026-03-28T12:34:19.703Z</time></trkpt><trkpt lat="45.6089274" lon="10.8142391"><ele>281.33333333333337</ele><time>2026-03-28T12:34:20.709Z</time></trkpt><trkpt lat="45.6089553" lon="10.8140189"><ele>281.0</ele><time>2026-03-28T12:34:21.717Z</time></trkpt><trkpt lat="45.6089907" lon="10.8137874"><ele>281.0</ele><time>2026-03-28T12:34:22.716Z</time></trkpt><trkpt lat="45.6090261" lon="10.8135681"><ele>281.0</ele><time>2026-03-28T12:34:23.721Z</time></trkpt><trkpt lat="45.6090657" lon="10.8133426"><ele>281.0</ele><time>2026-03-28T12:34:24.715Z</time></trkpt><trkpt lat="45.6091083" lon="10.8131205"><ele>280.75</ele><time>2026-03-28T12:34:25.716Z</time></trkpt><trkpt lat="45.6091485" lon="10.8129136"><ele>280.5</ele><time>2026-03-28T12:34:26.713Z</time></trkpt><trkpt lat="45.6091866" lon="10.8127181"><ele>280.25</ele><time>2026-03-28T12:34:27.716Z</time></trkpt><trkpt lat="45.6092051" lon="10.8125337"><ele>280.0</ele><time>2026-03-28T12:34:28.716Z</time></trkpt><trkpt lat="45.609213" lon="10.8123667"><ele>281.3333333333333</ele><time>2026-03-28T12:34:29.715Z</time></trkpt><trkpt lat="45.6092229" lon="10.8122004"><ele>282.6666666666667</ele><time>2026-03-28T12:34:30.713Z</time></trkpt><trkpt lat="45.6092325" lon="10.8120461"><ele>284.0</ele><time>2026-03-28T12:34:31.713Z</time></trkpt><trkpt lat="45.6093491" lon="10.8117007"><ele>284.0</ele><time>2026-03-28T12:34:33.603Z</time></trkpt><trkpt lat="45.6094458" lon="10.8116229"><ele>284.0</ele><time>2026-03-28T12:34:34.603Z</time></trkpt><trkpt lat="45.6095501" lon="10.8115641"><ele>284.0</ele><time>2026-03-28T12:34:35.606Z</time></trkpt><trkpt lat="45.6096408" lon="10.8115022"><ele>284.0</ele><time>2026-03-28T12:34:36.632Z</time></trkpt><trkpt lat="45.6097179" lon="10.8114408"><ele>284.0</ele><time>2026-03-28T12:34:37.616Z</time></trkpt><trkpt lat="45.6097908" lon="10.811375"><ele>284.6666666666667</ele><time>2026-03-28T12:34:38.639Z</time></trkpt><trkpt lat="45.609843" lon="10.8113203"><ele>285.33333333333337</ele><time>2026-03-28T12:34:39.626Z</time></trkpt><trkpt lat="45.6099214" lon="10.8112214"><ele>286.0</ele><time>2026-03-28T12:34:41.626Z</time></trkpt><trkpt lat="45.6100236" lon="10.8111303"><ele>286.6666666666667</ele><time>2026-03-28T12:34:43.624Z</time></trkpt><trkpt lat="45.6100907" lon="10.8111424"><ele>287.3333333333333</ele><time>2026-03-28T12:34:44.617Z</time></trkpt><trkpt lat="45.6101768" lon="10.8111812"><ele>288.0</ele><time>2026-03-28T12:34:45.627Z</time></trkpt><trkpt lat="45.6102866" lon="10.8112271"><ele>289.0</ele><time>2026-03-28T12:34:46.621Z</time></trkpt><trkpt lat="45.6104163" lon="10.811273"><ele>290.0</ele><time>2026-03-28T12:34:47.622Z</time></trkpt><trkpt lat="45.6105564" lon="10.8113168"><ele>291.0</ele><time>2026-03-28T12:34:48.633Z</time></trkpt><trkpt lat="45.6107001" lon="10.811356"><ele>292.0</ele><time>2026-03-28T12:34:49.632Z</time></trkpt><trkpt lat="45.6108529" lon="10.8113855"><ele>292.0</ele><time>2026-03-28T12:34:50.632Z</time></trkpt><trkpt lat="45.6109824" lon="10.811412"><ele>292.0</ele><time>2026-03-28T12:34:51.632Z</time></trkpt><trkpt lat="45.6111035" lon="10.8114391"><ele>292.0</ele><time>2026-03-28T12:34:52.637Z</time></trkpt><trkpt lat="45.6112" lon="10.8114743"><ele>292.0</ele><time>2026-03-28T12:34:53.635Z</time></trkpt><trkpt lat="45.6112864" lon="10.8115167"><ele>292.0</ele><time>2026-03-28T12:34:54.627Z</time></trkpt><trkpt lat="45.6113811" lon="10.8115509"><ele>294.6</ele><time>2026-03-28T12:34:56.628Z</time></trkpt><trkpt lat="45.6114683" lon="10.8115116"><ele>297.2</ele><time>2026-03-28T12:34:58.624Z</time></trkpt><trkpt lat="45.6114883" lon="10.8114243"><ele>299.8</ele><time>2026-03-28T12:34:59.626Z</time></trkpt><trkpt lat="45.6114644" lon="10.8113129"><ele>302.4</ele><time>2026-03-28T12:35:00.621Z</time></trkpt><trkpt lat="45.6114002" lon="10.8111843"><ele>305.0</ele><time>2026-03-28T12:35:01.62Z</time></trkpt><trkpt lat="45.6113409" lon="10.8110536"><ele>307.4</ele><time>2026-03-28T12:35:02.613Z</time></trkpt><trkpt lat="45.6112932" lon="10.8109076"><ele>309.8</ele><time>2026-03-28T12:35:03.62Z</time></trkpt><trkpt lat="45.6112654" lon="10.8107512"><ele>312.2</ele><time>2026-03-28T12:35:04.622Z</time></trkpt><trkpt lat="45.6112417" lon="10.8105885"><ele>314.6</ele><time>2026-03-28T12:35:05.62Z</time></trkpt><trkpt lat="45.6112278" lon="10.8104362"><ele>317.0</ele><time>2026-03-28T12:35:06.611Z</time></trkpt><trkpt lat="45.6112305" lon="10.8102808"><ele>319.25</ele><time>2026-03-28T12:35:07.626Z</time></trkpt><trkpt lat="45.6112458" lon="10.8101222"><ele>321.5</ele><time>2026-03-28T12:35:08.624Z</time></trkpt><trkpt lat="45.6112651" lon="10.8099557"><ele>323.75</ele><time>2026-03-28T12:35:09.637Z</time></trkpt><trkpt lat="45.6112801" lon="10.8097922"><ele>326.0</ele><time>2026-03-28T12:35:10.617Z</time></trkpt><trkpt lat="45.611302" lon="10.8096126"><ele>326.0</ele><time>2026-03-28T12:35:11.616Z</time></trkpt><trkpt lat="45.6113274" lon="10.8094406"><ele>326.0</ele><time>2026-03-28T12:35:12.615Z</time></trkpt><trkpt lat="45.611359" lon="10.8092708"><ele>326.0</ele><time>2026-03-28T12:35:13.605Z</time></trkpt><trkpt lat="45.6113975" lon="10.8091099"><ele>326.0</ele><time>2026-03-28T12:35:14.607Z</time></trkpt><trkpt lat="45.6114325" lon="10.8089656"><ele>325.75</ele><time>2026-03-28T12:35:15.602Z</time></trkpt><trkpt lat="45.6114714" lon="10.8088144"><ele>325.5</ele><time>2026-03-28T12:35:16.61Z</time></trkpt><trkpt lat="45.6115068" lon="10.8086625"><ele>325.25</ele><time>2026-03-28T12:35:17.605Z</time></trkpt><trkpt lat="45.6115371" lon="10.8085028"><ele>325.0</ele><time>2026-03-28T12:35:18.608Z</time></trkpt><trkpt lat="45.6115625" lon="10.8083492"><ele>323.8333333333333</ele><time>2026-03-28T12:35:19.609Z</time></trkpt><trkpt lat="45.6115842" lon="10.8082249"><ele>322.66666666666663</ele><time>2026-03-28T12:35:20.608Z</time></trkpt><trkpt lat="45.6116045" lon="10.8081177"><ele>321.5</ele><time>2026-03-28T12:35:21.609Z</time></trkpt><trkpt lat="45.6116174" lon="10.8080295"><ele>320.3333333333333</ele><time>2026-03-28T12:35:22.612Z</time></trkpt><trkpt lat="45.6116896" lon="10.8078988"><ele>319.1666666666667</ele><time>2026-03-28T12:35:24.607Z</time></trkpt><trkpt lat="45.6117652" lon="10.8078582"><ele>318.0</ele><time>2026-03-28T12:35:26.612Z</time></trkpt><trkpt lat="45.6118485" lon="10.8077832"><ele>318.2</ele><time>2026-03-28T12:35:29.615Z</time></trkpt><trkpt lat="45.6119209" lon="10.8076466"><ele>318.4</ele><time>2026-03-28T12:35:31.609Z</time></trkpt><trkpt lat="45.6119835" lon="10.8075916"><ele>318.59999999999997</ele><time>2026-03-28T12:35:32.603Z</time></trkpt><trkpt lat="45.6120628" lon="10.8075441"><ele>318.8</ele><time>2026-03-28T12:35:33.597Z</time></trkpt><trkpt lat="45.612177" lon="10.8075257"><ele>319.0</ele><time>2026-03-28T12:35:34.603Z</time></trkpt><trkpt lat="45.6123121" lon="10.8075145"><ele>319.0</ele><time>2026-03-28T12:35:35.615Z</time></trkpt><trkpt lat="45.6124483" lon="10.8074891"><ele>319.0</ele><time>2026-03-28T12:35:36.611Z</time></trkpt><trkpt lat="45.6125852" lon="10.8074872"><ele>319.0</ele><time>2026-03-28T12:35:37.611Z</time></trkpt><trkpt lat="45.612716" lon="10.8074878"><ele>319.0</ele><time>2026-03-28T12:35:38.606Z</time></trkpt><trkpt lat="45.612845" lon="10.807481"><ele>321.0</ele><time>2026-03-28T12:35:39.606Z</time></trkpt><trkpt lat="45.6129689" lon="10.807479"><ele>323.0</ele><time>2026-03-28T12:35:40.646Z</time></trkpt><trkpt lat="45.6130842" lon="10.8074781"><ele>325.0</ele><time>2026-03-28T12:35:41.603Z</time></trkpt><trkpt lat="45.6131961" lon="10.8074729"><ele>327.0</ele><time>2026-03-28T12:35:42.598Z</time></trkpt><trkpt lat="45.6133012" lon="10.807463"><ele>327.0</ele><time>2026-03-28T12:35:43.599Z</time></trkpt><trkpt lat="45.6134109" lon="10.80745"><ele>327.0</ele><time>2026-03-28T12:35:44.596Z</time></trkpt><trkpt lat="45.6135267" lon="10.8074551"><ele>327.0</ele><time>2026-03-28T12:35:45.592Z</time></trkpt><trkpt lat="45.6136424" lon="10.8074876"><ele>327.0</ele><time>2026-03-28T12:35:46.591Z</time></trkpt><trkpt lat="45.6137456" lon="10.8075327"><ele>327.6</ele><time>2026-03-28T12:35:47.592Z</time></trkpt><trkpt lat="45.6138382" lon="10.807591"><ele>328.20000000000005</ele><time>2026-03-28T12:35:48.594Z</time></trkpt><trkpt lat="45.6139216" lon="10.8076462"><ele>328.8</ele><time>2026-03-28T12:35:49.593Z</time></trkpt><trkpt lat="45.6139936" lon="10.8076928"><ele>329.4</ele><time>2026-03-28T12:35:50.594Z</time></trkpt><trkpt lat="45.6140526" lon="10.8077257"><ele>330.0</ele><time>2026-03-28T12:35:51.596Z</time></trkpt><trkpt lat="45.6141699" lon="10.807689"><ele>330.0</ele><time>2026-03-28T12:35:53.61Z</time></trkpt><trkpt lat="45.614232" lon="10.8075963"><ele>330.0</ele><time>2026-03-28T12:35:54.597Z</time></trkpt><trkpt lat="45.6143087" lon="10.8074888"><ele>330.0</ele><time>2026-03-28T12:35:55.606Z</time></trkpt><trkpt lat="45.6143844" lon="10.8073955"><ele>330.0</ele><time>2026-03-28T12:35:56.609Z</time></trkpt><trkpt lat="45.6144646" lon="10.8073379"><ele>330.0</ele><time>2026-03-28T12:35:57.611Z</time></trkpt><trkpt lat="45.6145592" lon="10.8073132"><ele>333.0</ele><time>2026-03-28T12:35:58.61Z</time></trkpt><trkpt lat="45.614659" lon="10.8073256"><ele>336.0</ele><time>2026-03-28T12:35:59.607Z</time></trkpt><trkpt lat="45.6147664" lon="10.8073602"><ele>339.0</ele><time>2026-03-28T12:36:00.603Z</time></trkpt><trkpt lat="45.6148846" lon="10.8074013"><ele>342.0</ele><time>2026-03-28T12:36:01.611Z</time></trkpt><trkpt lat="45.6150106" lon="10.8074469"><ele>342.0</ele><time>2026-03-28T12:36:02.604Z</time></trkpt><trkpt lat="45.6151338" lon="10.8075132"><ele>342.0</ele><time>2026-03-28T12:36:03.605Z</time></trkpt><trkpt lat="45.6152527" lon="10.8076056"><ele>342.0</ele><time>2026-03-28T12:36:04.599Z</time></trkpt><trkpt lat="45.6153554" lon="10.8077215"><ele>342.0</ele><time>2026-03-28T12:36:05.597Z</time></trkpt><trkpt lat="45.6154522" lon="10.8078399"><ele>344.5</ele><time>2026-03-28T12:36:06.607Z</time></trkpt><trkpt lat="45.6155576" lon="10.807944"><ele>347.0</ele><time>2026-03-28T12:36:07.611Z</time></trkpt><trkpt lat="45.6156677" lon="10.8080252"><ele>349.5</ele><time>2026-03-28T12:36:08.611Z</time></trkpt><trkpt lat="45.615798" lon="10.8080698"><ele>352.0</ele><time>2026-03-28T12:36:09.617Z</time></trkpt><trkpt lat="45.6159336" lon="10.8081065"><ele>352.0</ele><time>2026-03-28T12:36:10.635Z</time></trkpt><trkpt lat="45.6160635" lon="10.8081236"><ele>352.0</ele><time>2026-03-28T12:36:11.617Z</time></trkpt><trkpt lat="45.6161914" lon="10.8081597"><ele>352.0</ele><time>2026-03-28T12:36:12.616Z</time></trkpt><trkpt lat="45.6163119" lon="10.8082032"><ele>352.0</ele><time>2026-03-28T12:36:13.614Z</time></trkpt><trkpt lat="45.6164259" lon="10.8082694"><ele>354.75</ele><time>2026-03-28T12:36:14.617Z</time></trkpt><trkpt lat="45.6165414" lon="10.8083616"><ele>357.5</ele><time>2026-03-28T12:36:15.618Z</time></trkpt><trkpt lat="45.616654" lon="10.8084647"><ele>360.25</ele><time>2026-03-28T12:36:16.615Z</time></trkpt><trkpt lat="45.6167588" lon="10.808578"><ele>363.0</ele><time>2026-03-28T12:36:17.615Z</time></trkpt><trkpt lat="45.6168592" lon="10.8087019"><ele>364.75</ele><time>2026-03-28T12:36:18.611Z</time></trkpt><trkpt lat="45.6169595" lon="10.808826"><ele>366.5</ele><time>2026-03-28T12:36:19.613Z</time></trkpt><trkpt lat="45.6170586" lon="10.8089307"><ele>368.25</ele><time>2026-03-28T12:36:20.605Z</time></trkpt><trkpt lat="45.6171329" lon="10.8090647"><ele>370.0</ele><time>2026-03-28T12:36:21.608Z</time></trkpt><trkpt lat="45.6172319" lon="10.809154"><ele>370.75</ele><time>2026-03-28T12:36:22.602Z</time></trkpt><trkpt lat="45.61735" lon="10.8092161"><ele>371.5</ele><time>2026-03-28T12:36:23.597Z</time></trkpt><trkpt lat="45.6174792" lon="10.8092787"><ele>372.25</ele><time>2026-03-28T12:36:24.607Z</time></trkpt><trkpt lat="45.6176071" lon="10.8093667"><ele>373.0</ele><time>2026-03-28T12:36:25.601Z</time></trkpt><trkpt lat="45.6177363" lon="10.8094876"><ele>376.5</ele><time>2026-03-28T12:36:26.607Z</time></trkpt><trkpt lat="45.6178705" lon="10.809617"><ele>380.0</ele><time>2026-03-28T12:36:27.606Z</time></trkpt><trkpt lat="45.61799" lon="10.8096973"><ele>383.5</ele><time>2026-03-28T12:36:28.612Z</time></trkpt><trkpt lat="45.6181126" lon="10.8097856"><ele>387.0</ele><time>2026-03-28T12:36:29.613Z</time></trkpt><trkpt lat="45.6181856" lon="10.8098813"><ele>387.0</ele><time>2026-03-28T12:36:30.607Z</time></trkpt><trkpt lat="45.6182533" lon="10.810006"><ele>387.0</ele><time>2026-03-28T12:36:31.611Z</time></trkpt><trkpt lat="45.6183137" lon="10.8101407"><ele>387.0</ele><time>2026-03-28T12:36:32.61Z</time></trkpt><trkpt lat="45.6183715" lon="10.8102811"><ele>387.0</ele><time>2026-03-28T12:36:33.603Z</time></trkpt><trkpt lat="45.6184326" lon="10.8104214"><ele>385.75</ele><time>2026-03-28T12:36:34.599Z</time></trkpt><trkpt lat="45.6185074" lon="10.8105521"><ele>384.5</ele><time>2026-03-28T12:36:35.593Z</time></trkpt><trkpt lat="45.6185977" lon="10.8106631"><ele>383.25</ele><time>2026-03-28T12:36:36.588Z</time></trkpt><trkpt lat="45.6187032" lon="10.810759"><ele>382.0</ele><time>2026-03-28T12:36:37.59Z</time></trkpt><trkpt lat="45.6188304" lon="10.8108433"><ele>386.3333333333333</ele><time>2026-03-28T12:36:38.594Z</time></trkpt><trkpt lat="45.618991" lon="10.8108988"><ele>390.66666666666663</ele><time>2026-03-28T12:36:39.598Z</time></trkpt><trkpt lat="45.6191186" lon="10.8109839"><ele>395.0</ele><time>2026-03-28T12:36:40.594Z</time></trkpt><trkpt lat="45.6192443" lon="10.811116"><ele>395.0</ele><time>2026-03-28T12:36:41.61Z</time></trkpt><trkpt lat="45.619324" lon="10.8112266"><ele>395.0</ele><time>2026-03-28T12:36:42.6Z</time></trkpt><trkpt lat="45.6194043" lon="10.8113462"><ele>395.0</ele><time>2026-03-28T12:36:43.599Z</time></trkpt><trkpt lat="45.6194698" lon="10.8114883"><ele>395.0</ele><time>2026-03-28T12:36:44.619Z</time></trkpt><trkpt lat="45.6195452" lon="10.8116428"><ele>398.75</ele><time>2026-03-28T12:36:45.614Z</time></trkpt><trkpt lat="45.619621" lon="10.8118072"><ele>402.5</ele><time>2026-03-28T12:36:46.616Z</time></trkpt><trkpt lat="45.6196962" lon="10.8119734"><ele>406.25</ele><time>2026-03-28T12:36:47.629Z</time></trkpt><trkpt lat="45.6197812" lon="10.8121531"><ele>410.0</ele><time>2026-03-28T12:36:48.622Z</time></trkpt><trkpt lat="45.6198791" lon="10.8123273"><ele>410.66666666666663</ele><time>2026-03-28T12:36:49.631Z</time></trkpt><trkpt lat="45.6199867" lon="10.8124943"><ele>411.33333333333337</ele><time>2026-03-28T12:36:50.625Z</time></trkpt><trkpt lat="45.6200984" lon="10.8126515"><ele>412.0</ele><time>2026-03-28T12:36:51.627Z</time></trkpt><trkpt lat="45.6201907" lon="10.8128129"><ele>415.33333333333337</ele><time>2026-03-28T12:36:52.628Z</time></trkpt><trkpt lat="45.6202909" lon="10.8129868"><ele>418.66666666666663</ele><time>2026-03-28T12:36:53.627Z</time></trkpt><trkpt lat="45.6203863" lon="10.8131677"><ele>422.0</ele><time>2026-03-28T12:36:54.634Z</time></trkpt><trkpt lat="45.6204621" lon="10.8133444"><ele>422.75</ele><time>2026-03-28T12:36:56.698Z</time></trkpt><trkpt lat="45.6205432" lon="10.8134863"><ele>423.5</ele><time>2026-03-28T12:36:57.704Z</time></trkpt><trkpt lat="45.6206271" lon="10.8136087"><ele>424.25</ele><time>2026-03-28T12:36:58.68Z</time></trkpt><trkpt lat="45.6207208" lon="10.8137017"><ele>425.0</ele><time>2026-03-28T12:36:59.688Z</time></trkpt><trkpt lat="45.6208225" lon="10.8137703"><ele>425.75</ele><time>2026-03-28T12:37:00.679Z</time></trkpt><trkpt lat="45.6209443" lon="10.8138138"><ele>426.5</ele><time>2026-03-28T12:37:01.69Z</time></trkpt><trkpt lat="45.6210889" lon="10.813855"><ele>427.25</ele><time>2026-03-28T12:37:02.702Z</time></trkpt><trkpt lat="45.6212354" lon="10.8138837"><ele>428.0</ele><time>2026-03-28T12:37:03.691Z</time></trkpt><trkpt lat="45.6213396" lon="10.8139357"><ele>429.3333333333333</ele><time>2026-03-28T12:37:04.693Z</time></trkpt><trkpt lat="45.6214278" lon="10.813989"><ele>430.66666666666663</ele><time>2026-03-28T12:37:05.694Z</time></trkpt><trkpt lat="45.6214952" lon="10.8140545"><ele>432.0</ele><time>2026-03-28T12:37:06.687Z</time></trkpt><trkpt lat="45.6215275" lon="10.8141357"><ele>433.33333333333337</ele><time>2026-03-28T12:37:07.69Z</time></trkpt><trkpt lat="45.621521" lon="10.8142305"><ele>434.6666666666667</ele><time>2026-03-28T12:37:08.677Z</time></trkpt><trkpt lat="45.6215009" lon="10.8143512"><ele>436.0</ele><time>2026-03-28T12:37:09.683Z</time></trkpt><trkpt lat="45.6215043" lon="10.8145019"><ele>436.0</ele><time>2026-03-28T12:37:10.674Z</time></trkpt><trkpt lat="45.6215013" lon="10.8146903"><ele>436.0</ele><time>2026-03-28T12:37:11.689Z</time></trkpt><trkpt lat="45.6215134" lon="10.8148898"><ele>436.0</ele><time>2026-03-28T12:37:12.704Z</time></trkpt><trkpt lat="45.6215392" lon="10.8150815"><ele>436.0</ele><time>2026-03-28T12:37:13.681Z</time></trkpt><trkpt lat="45.6215795" lon="10.8152791"><ele>437.25</ele><time>2026-03-28T12:37:14.677Z</time></trkpt><trkpt lat="45.6216205" lon="10.8154789"><ele>438.5</ele><time>2026-03-28T12:37:15.681Z</time></trkpt><trkpt lat="45.6216645" lon="10.8156864"><ele>439.75</ele><time>2026-03-28T12:37:16.674Z</time></trkpt><trkpt lat="45.6217102" lon="10.81587"><ele>441.0</ele><time>2026-03-28T12:37:17.698Z</time></trkpt><trkpt lat="45.6217591" lon="10.8160227"><ele>442.4</ele><time>2026-03-28T12:37:18.694Z</time></trkpt><trkpt lat="45.6218072" lon="10.8161591"><ele>443.8</ele><time>2026-03-28T12:37:19.696Z</time></trkpt><trkpt lat="45.6218516" lon="10.8162855"><ele>445.19999999999993</ele><time>2026-03-28T12:37:20.687Z</time></trkpt><trkpt lat="45.6219026" lon="10.8163976"><ele>446.59999999999997</ele><time>2026-03-28T12:37:21.685Z</time></trkpt><trkpt lat="45.6219623" lon="10.8165076"><ele>448.0</ele><time>2026-03-28T12:37:22.687Z</time></trkpt><trkpt lat="45.6220301" lon="10.8166249"><ele>447.83333333333337</ele><time>2026-03-28T12:37:23.695Z</time></trkpt><trkpt lat="45.6220899" lon="10.8167212"><ele>447.6666666666667</ele><time>2026-03-28T12:37:24.696Z</time></trkpt><trkpt lat="45.6221643" lon="10.8167948"><ele>447.5</ele><time>2026-03-28T12:37:25.679Z</time></trkpt><trkpt lat="45.6222294" lon="10.8168441"><ele>447.33333333333337</ele><time>2026-03-28T12:37:26.67Z</time></trkpt><trkpt lat="45.6223279" lon="10.8169273"><ele>447.1666666666667</ele><time>2026-03-28T12:37:28.671Z</time></trkpt><trkpt lat="45.6223876" lon="10.8169928"><ele>447.0</ele><time>2026-03-28T12:37:30.695Z</time></trkpt><trkpt lat="45.622479" lon="10.8169504"><ele>447.8333333333333</ele><time>2026-03-28T12:37:33.702Z</time></trkpt><trkpt lat="45.6225147" lon="10.8167832"><ele>448.66666666666663</ele><time>2026-03-28T12:37:35.677Z</time></trkpt><trkpt lat="45.622533" lon="10.8166719"><ele>449.5</ele><time>2026-03-28T12:37:36.674Z</time></trkpt><trkpt lat="45.6225471" lon="10.8165684"><ele>450.3333333333333</ele><time>2026-03-28T12:37:37.683Z</time></trkpt><trkpt lat="45.6225538" lon="10.8164618"><ele>451.16666666666663</ele><time>2026-03-28T12:37:38.67Z</time></trkpt><trkpt lat="45.6225537" lon="10.8163459"><ele>452.0</ele><time>2026-03-28T12:37:39.69Z</time></trkpt><trkpt lat="45.6225551" lon="10.8161606"><ele>452.0</ele><time>2026-03-28T12:37:40.704Z</time></trkpt><trkpt lat="45.6225435" lon="10.8160134"><ele>452.0</ele><time>2026-03-28T12:37:41.706Z</time></trkpt><trkpt lat="45.6225342" lon="10.8158161"><ele>452.0</ele><time>2026-03-28T12:37:42.701Z</time></trkpt><trkpt lat="45.6225098" lon="10.8156861"><ele>452.0</ele><time>2026-03-28T12:37:43.716Z</time></trkpt><trkpt lat="45.6224481" lon="10.8153423"><ele>451.8333333333333</ele><time>2026-03-28T12:37:45.591Z</time></trkpt><trkpt lat="45.6224566" lon="10.8152287"><ele>451.66666666666663</ele><time>2026-03-28T12:37:46.588Z</time></trkpt><trkpt lat="45.6224486" lon="10.8151227"><ele>451.5</ele><time>2026-03-28T12:37:47.597Z</time></trkpt><trkpt lat="45.6224528" lon="10.8150195"><ele>451.33333333333337</ele><time>2026-03-28T12:37:48.611Z</time></trkpt><trkpt lat="45.6224633" lon="10.8149077"><ele>451.1666666666667</ele><time>2026-03-28T12:37:49.605Z</time></trkpt><trkpt lat="45.6224696" lon="10.8147891"><ele>451.0</ele><time>2026-03-28T12:37:50.605Z</time></trkpt><trkpt lat="45.6224592" lon="10.81467"><ele>451.6</ele><time>2026-03-28T12:37:51.625Z</time></trkpt><trkpt lat="45.6224532" lon="10.8145696"><ele>452.20000000000005</ele><time>2026-03-28T12:37:52.612Z</time></trkpt><trkpt lat="45.6224362" lon="10.8144138"><ele>452.79999999999995</ele><time>2026-03-28T12:37:54.616Z</time></trkpt><trkpt lat="45.6224364" lon="10.814256"><ele>453.4</ele><time>2026-03-28T12:37:56.607Z</time></trkpt><trkpt lat="45.6224548" lon="10.8140884"><ele>454.0</ele><time>2026-03-28T12:37:58.604Z</time></trkpt><trkpt lat="45.6224842" lon="10.8140033"><ele>454.1666666666667</ele><time>2026-03-28T12:37:59.616Z</time></trkpt><trkpt lat="45.622553" lon="10.8138801"><ele>454.33333333333337</ele><time>2026-03-28T12:38:01.61Z</time></trkpt><trkpt lat="45.622569" lon="10.8137668"><ele>454.5</ele><time>2026-03-28T12:38:03.598Z</time></trkpt><trkpt lat="45.6225153" lon="10.8136433"><ele>454.66666666666663</ele><time>2026-03-28T12:38:05.603Z</time></trkpt><trkpt lat="45.6224522" lon="10.813611"><ele>454.8333333333333</ele><time>2026-03-28T12:38:06.596Z</time></trkpt><trkpt lat="45.6223816" lon="10.8135806"><ele>455.0</ele><time>2026-03-28T12:38:07.598Z</time></trkpt><trkpt lat="45.6223218" lon="10.8135376"><ele>456.2</ele><time>2026-03-28T12:38:08.595Z</time></trkpt><trkpt lat="45.6222595" lon="10.8134159"><ele>457.4</ele><time>2026-03-28T12:38:10.605Z</time></trkpt><trkpt lat="45.6222664" lon="10.8133233"><ele>458.6</ele><time>2026-03-28T12:38:11.613Z</time></trkpt><trkpt lat="45.6222727" lon="10.8131762"><ele>459.8</ele><time>2026-03-28T12:38:13.609Z</time></trkpt><trkpt lat="45.6222159" lon="10.8130818"><ele>461.0</ele><time>2026-03-28T12:38:15.626Z</time></trkpt><trkpt lat="45.6221468" lon="10.8129828"><ele>461.0</ele><time>2026-03-28T12:38:17.607Z</time></trkpt><trkpt lat="45.6221111" lon="10.8128612"><ele>461.0</ele><time>2026-03-28T12:38:19.625Z</time></trkpt><trkpt lat="45.6220592" lon="10.8127294"><ele>461.0</ele><time>2026-03-28T12:38:21.609Z</time></trkpt><trkpt lat="45.6220046" lon="10.812601"><ele>461.0</ele><time>2026-03-28T12:38:23.61Z</time></trkpt><trkpt lat="45.6219365" lon="10.812453"><ele>461.0</ele><time>2026-03-28T12:38:25.611Z</time></trkpt><trkpt lat="45.6219011" lon="10.8123776"><ele>459.6</ele><time>2026-03-28T12:38:26.604Z</time></trkpt><trkpt lat="45.6218701" lon="10.8122972"><ele>458.20000000000005</ele><time>2026-03-28T12:38:27.605Z</time></trkpt><trkpt lat="45.6218418" lon="10.8122112"><ele>456.79999999999995</ele><time>2026-03-28T12:38:28.61Z</time></trkpt><trkpt lat="45.6218067" lon="10.8120517"><ele>455.4</ele><time>2026-03-28T12:38:30.607Z</time></trkpt><trkpt lat="45.6217585" lon="10.8119166"><ele>454.0</ele><time>2026-03-28T12:38:32.606Z</time></trkpt><trkpt lat="45.6217108" lon="10.8117748"><ele>454.00000000000006</ele><time>2026-03-28T12:38:34.605Z</time></trkpt><trkpt lat="45.6216775" lon="10.8116757"><ele>454.0</ele><time>2026-03-28T12:38:35.592Z</time></trkpt><trkpt lat="45.6216374" lon="10.811569"><ele>454.0</ele><time>2026-03-28T12:38:36.61Z</time></trkpt><trkpt lat="45.6215965" lon="10.8114702"><ele>454.0</ele><time>2026-03-28T12:38:37.598Z</time></trkpt><trkpt lat="45.6215629" lon="10.8113855"><ele>454.00000000000006</ele><time>2026-03-28T12:38:38.598Z</time></trkpt><trkpt lat="45.6215059" lon="10.811216"><ele>454.0</ele><time>2026-03-28T12:38:40.598Z</time></trkpt><trkpt lat="45.6214715" lon="10.8111129"><ele>454.00000000000006</ele><time>2026-03-28T12:38:41.596Z</time></trkpt><trkpt lat="45.6214476" lon="10.8110261"><ele>454.0</ele><time>2026-03-28T12:38:42.601Z</time></trkpt><trkpt lat="45.6214235" lon="10.8108676"><ele>454.0</ele><time>2026-03-28T12:38:44.6Z</time></trkpt><trkpt lat="45.6213889" lon="10.8107005"><ele>454.0</ele><time>2026-03-28T12:38:46.593Z</time></trkpt><trkpt lat="45.6213667" lon="10.8106045"><ele>454.00000000000006</ele><time>2026-03-28T12:38:47.599Z</time></trkpt><trkpt lat="45.6213419" lon="10.8105059"><ele>454.0</ele><time>2026-03-28T12:38:48.599Z</time></trkpt><trkpt lat="45.6212867" lon="10.810337"><ele>453.4</ele><time>2026-03-28T12:38:50.615Z</time></trkpt><trkpt lat="45.6212454" lon="10.8102643"><ele>452.79999999999995</ele><time>2026-03-28T12:38:51.618Z</time></trkpt><trkpt lat="45.6211773" lon="10.8101498"><ele>452.20000000000005</ele><time>2026-03-28T12:38:53.622Z</time></trkpt><trkpt lat="45.6211032" lon="10.8100659"><ele>451.6</ele><time>2026-03-28T12:38:55.614Z</time></trkpt><trkpt lat="45.6210044" lon="10.8100012"><ele>451.0</ele><time>2026-03-28T12:38:57.612Z</time></trkpt><trkpt lat="45.6208883" lon="10.8099208"><ele>451.0</ele><time>2026-03-28T12:38:59.608Z</time></trkpt><trkpt lat="45.6208014" lon="10.8098305"><ele>451.0</ele><time>2026-03-28T12:39:01.612Z</time></trkpt><trkpt lat="45.6207017" lon="10.8097526"><ele>451.0</ele><time>2026-03-28T12:39:03.607Z</time></trkpt><trkpt lat="45.6206489" lon="10.8096976"><ele>451.0</ele><time>2026-03-28T12:39:04.611Z</time></trkpt><trkpt lat="45.6205613" lon="10.8096007"><ele>451.0</ele><time>2026-03-28T12:39:06.615Z</time></trkpt><trkpt lat="45.6204998" lon="10.8095483"><ele>451.0</ele><time>2026-03-28T12:39:07.609Z</time></trkpt><trkpt lat="45.6204276" lon="10.8094958"><ele>451.0</ele><time>2026-03-28T12:39:08.616Z</time></trkpt><trkpt lat="45.6203545" lon="10.809446"><ele>451.0</ele><time>2026-03-28T12:39:09.609Z</time></trkpt><trkpt lat="45.6202927" lon="10.8094056"><ele>451.0</ele><time>2026-03-28T12:39:10.612Z</time></trkpt><trkpt lat="45.6202261" lon="10.8093726"><ele>451.0</ele><time>2026-03-28T12:39:11.613Z</time></trkpt><trkpt lat="45.6201676" lon="10.8093307"><ele>451.0</ele><time>2026-03-28T12:39:12.622Z</time></trkpt><trkpt lat="45.6201038" lon="10.8092934"><ele>451.0</ele><time>2026-03-28T12:39:13.617Z</time></trkpt><trkpt lat="45.6200397" lon="10.8092414"><ele>450.83333333333337</ele><time>2026-03-28T12:39:14.625Z</time></trkpt><trkpt lat="45.6199679" lon="10.8091975"><ele>450.6666666666667</ele><time>2026-03-28T12:39:15.62Z</time></trkpt><trkpt lat="45.6199011" lon="10.8091431"><ele>450.5</ele><time>2026-03-28T12:39:16.636Z</time></trkpt><trkpt lat="45.6198366" lon="10.8090972"><ele>450.33333333333337</ele><time>2026-03-28T12:39:17.618Z</time></trkpt><trkpt lat="45.6197814" lon="10.8090399"><ele>450.1666666666667</ele><time>2026-03-28T12:39:18.613Z</time></trkpt><trkpt lat="45.6197217" lon="10.8089681"><ele>450.0</ele><time>2026-03-28T12:39:19.622Z</time></trkpt><trkpt lat="45.6196639" lon="10.8088848"><ele>450.0</ele><time>2026-03-28T12:39:20.625Z</time></trkpt><trkpt lat="45.6196086" lon="10.808798"><ele>450.0</ele><time>2026-03-28T12:39:21.619Z</time></trkpt><trkpt lat="45.6195632" lon="10.8087163"><ele>450.0</ele><time>2026-03-28T12:39:22.627Z</time></trkpt><trkpt lat="45.6195199" lon="10.8086363"><ele>450.0</ele><time>2026-03-28T12:39:23.621Z</time></trkpt><trkpt lat="45.6194725" lon="10.8085363"><ele>450.0</ele><time>2026-03-28T12:39:24.621Z</time></trkpt><trkpt lat="45.6194401" lon="10.808427"><ele>450.0</ele><time>2026-03-28T12:39:25.631Z</time></trkpt><trkpt lat="45.6194068" lon="10.8083308"><ele>449.6</ele><time>2026-03-28T12:39:26.627Z</time></trkpt><trkpt lat="45.6193286" lon="10.8081758"><ele>449.2</ele><time>2026-03-28T12:39:28.622Z</time></trkpt><trkpt lat="45.6192824" lon="10.8080958"><ele>448.79999999999995</ele><time>2026-03-28T12:39:29.642Z</time></trkpt><trkpt lat="45.6192355" lon="10.808006"><ele>448.4</ele><time>2026-03-28T12:39:30.633Z</time></trkpt><trkpt lat="45.6191908" lon="10.8079365"><ele>448.0</ele><time>2026-03-28T12:39:31.626Z</time></trkpt><trkpt lat="45.6191003" lon="10.8078132"><ele>448.00000000000006</ele><time>2026-03-28T12:39:33.618Z</time></trkpt><trkpt lat="45.6190341" lon="10.8077431"><ele>448.0</ele><time>2026-03-28T12:39:34.618Z</time></trkpt><trkpt lat="45.618967" lon="10.8076818"><ele>448.0</ele><time>2026-03-28T12:39:35.62Z</time></trkpt><trkpt lat="45.618914" lon="10.8076178"><ele>448.0</ele><time>2026-03-28T12:39:36.619Z</time></trkpt><trkpt lat="45.6188334" lon="10.8075055"><ele>448.00000000000006</ele><time>2026-03-28T12:39:38.613Z</time></trkpt><trkpt lat="45.6187801" lon="10.8073917"><ele>448.0</ele><time>2026-03-28T12:39:40.61Z</time></trkpt><trkpt lat="45.6187146" lon="10.8072322"><ele>446.83333333333337</ele><time>2026-03-28T12:39:42.613Z</time></trkpt><trkpt lat="45.6186806" lon="10.8071352"><ele>445.6666666666667</ele><time>2026-03-28T12:39:43.608Z</time></trkpt><trkpt lat="45.6186275" lon="10.8070465"><ele>444.5</ele><time>2026-03-28T12:39:44.609Z</time></trkpt><trkpt lat="45.6185731" lon="10.8069521"><ele>443.33333333333337</ele><time>2026-03-28T12:39:45.608Z</time></trkpt><trkpt lat="45.6185378" lon="10.806856"><ele>442.1666666666667</ele><time>2026-03-28T12:39:46.608Z</time></trkpt><trkpt lat="45.6185137" lon="10.8067667"><ele>441.0</ele><time>2026-03-28T12:39:47.626Z</time></trkpt><trkpt lat="45.6184977" lon="10.8066738"><ele>441.0</ele><time>2026-03-28T12:39:48.598Z</time></trkpt><trkpt lat="45.6184721" lon="10.8065815"><ele>441.0</ele><time>2026-03-28T12:39:49.606Z</time></trkpt><trkpt lat="45.6184377" lon="10.8064813"><ele>441.0</ele><time>2026-03-28T12:39:50.607Z</time></trkpt><trkpt lat="45.6183945" lon="10.8063859"><ele>441.0</ele><time>2026-03-28T12:39:51.606Z</time></trkpt><trkpt lat="45.6183646" lon="10.8062979"><ele>441.0</ele><time>2026-03-28T12:39:52.604Z</time></trkpt><trkpt lat="45.6183032" lon="10.8061529"><ele>441.0</ele><time>2026-03-28T12:39:54.604Z</time></trkpt><trkpt lat="45.6182597" lon="10.8060414"><ele>442.6666666666667</ele><time>2026-03-28T12:39:56.603Z</time></trkpt><trkpt lat="45.6182196" lon="10.8059317"><ele>444.33333333333337</ele><time>2026-03-28T12:40:00.613Z</time></trkpt><trkpt lat="45.6181656" lon="10.8058732"><ele>446.0</ele><time>2026-03-28T12:41:02.635Z</time></trkpt><trkpt lat="45.6181422" lon="10.8057856"><ele>447.6666666666667</ele><time>2026-03-28T12:43:18.632Z</time></trkpt><trkpt lat="45.6181055" lon="10.8057044"><ele>449.33333333333337</ele><time>2026-03-28T12:43:22.621Z</time></trkpt><trkpt lat="45.6180882" lon="10.8055839"><ele>451.0</ele><time>2026-03-28T12:43:25.612Z</time></trkpt><trkpt lat="45.6180645" lon="10.8054627"><ele>451.0</ele><time>2026-03-28T12:43:27.604Z</time></trkpt><trkpt lat="45.618048" lon="10.8053623"><ele>451.0</ele><time>2026-03-28T12:43:29.61Z</time></trkpt><trkpt lat="45.6180134" lon="10.8052627"><ele>451.0</ele><time>2026-03-28T12:43:32.619Z</time></trkpt><trkpt lat="45.6179782" lon="10.8051871"><ele>451.0</ele><time>2026-03-28T12:44:18.631Z</time></trkpt><trkpt lat="45.6179744" lon="10.805095"><ele>451.0</ele><time>2026-03-28T12:44:20.627Z</time></trkpt><trkpt lat="45.6179583" lon="10.804984"><ele>451.0</ele><time>2026-03-28T12:44:22.63Z</time></trkpt><trkpt lat="45.617885" lon="10.8049883"><ele>451.0</ele><time>2026-03-28T12:44:33.632Z</time></trkpt><trkpt lat="45.6178185" lon="10.8048973"><ele>448.50000000000006</ele><time>2026-03-28T12:44:35.625Z</time></trkpt><trkpt lat="45.6177614" lon="10.8048192"><ele>446.0</ele><time>2026-03-28T12:44:36.614Z</time></trkpt><trkpt lat="45.6177003" lon="10.8047313"><ele>443.5</ele><time>2026-03-28T12:44:37.607Z</time></trkpt><trkpt lat="45.6176223" lon="10.8046531"><ele>441.0</ele><time>2026-03-28T12:44:38.609Z</time></trkpt><trkpt lat="45.6175447" lon="10.8045931"><ele>438.50000000000006</ele><time>2026-03-28T12:44:39.599Z</time></trkpt><trkpt lat="45.6174659" lon="10.8045184"><ele>436.0</ele><time>2026-03-28T12:44:40.611Z</time></trkpt><trkpt lat="45.6173917" lon="10.8044509"><ele>439.4</ele><time>2026-03-28T12:44:41.791Z</time></trkpt><trkpt lat="45.6172789" lon="10.8043233"><ele>442.8</ele><time>2026-03-28T12:44:43.595Z</time></trkpt><trkpt lat="45.6172098" lon="10.8042707"><ele>446.19999999999993</ele><time>2026-03-28T12:44:44.605Z</time></trkpt><trkpt lat="45.617133" lon="10.8042308"><ele>449.59999999999997</ele><time>2026-03-28T12:44:45.608Z</time></trkpt><trkpt lat="45.6170694" lon="10.8041826"><ele>453.0</ele><time>2026-03-28T12:44:46.601Z</time></trkpt><trkpt lat="45.616998" lon="10.8041225"><ele>451.6666666666667</ele><time>2026-03-28T12:44:47.6Z</time></trkpt><trkpt lat="45.6169172" lon="10.8040566"><ele>450.33333333333337</ele><time>2026-03-28T12:44:48.599Z</time></trkpt><trkpt lat="45.6168367" lon="10.8039725"><ele>449.0</ele><time>2026-03-28T12:44:49.606Z</time></trkpt><trkpt lat="45.6167715" lon="10.8038712"><ele>447.6666666666667</ele><time>2026-03-28T12:44:50.599Z</time></trkpt><trkpt lat="45.6167102" lon="10.8038016"><ele>446.33333333333337</ele><time>2026-03-28T12:44:51.606Z</time></trkpt><trkpt lat="45.6166582" lon="10.8037472"><ele>445.0</ele><time>2026-03-28T12:44:52.611Z</time></trkpt><trkpt lat="45.6165561" lon="10.8036423"><ele>445.0</ele><time>2026-03-28T12:44:54.612Z</time></trkpt><trkpt lat="45.6164875" lon="10.8035929"><ele>445.0</ele><time>2026-03-28T12:44:55.613Z</time></trkpt><trkpt lat="45.6164198" lon="10.8035387"><ele>445.0</ele><time>2026-03-28T12:44:56.651Z</time></trkpt><trkpt lat="45.6163626" lon="10.8034649"><ele>445.0</ele><time>2026-03-28T12:44:57.62Z</time></trkpt><trkpt lat="45.6163199" lon="10.8033879"><ele>445.0</ele><time>2026-03-28T12:44:58.612Z</time></trkpt><trkpt lat="45.6162827" lon="10.803307"><ele>445.0</ele><time>2026-03-28T12:44:59.611Z</time></trkpt><trkpt lat="45.6162304" lon="10.8032377"><ele>445.0</ele><time>2026-03-28T12:45:00.607Z</time></trkpt><trkpt lat="45.6161586" lon="10.8031681"><ele>445.33333333333337</ele><time>2026-03-28T12:45:01.609Z</time></trkpt><trkpt lat="45.6160919" lon="10.8031108"><ele>445.6666666666667</ele><time>2026-03-28T12:45:02.606Z</time></trkpt><trkpt lat="45.6160258" lon="10.8030487"><ele>446.0</ele><time>2026-03-28T12:45:03.614Z</time></trkpt><trkpt lat="45.6159721" lon="10.8029939"><ele>446.33333333333337</ele><time>2026-03-28T12:45:04.607Z</time></trkpt><trkpt lat="45.6158815" lon="10.8029054"><ele>446.6666666666667</ele><time>2026-03-28T12:45:06.611Z</time></trkpt><trkpt lat="45.6157901" lon="10.8028188"><ele>447.0</ele><time>2026-03-28T12:45:08.606Z</time></trkpt><trkpt lat="45.6157016" lon="10.8027518"><ele>445.8333333333333</ele><time>2026-03-28T12:45:10.612Z</time></trkpt><trkpt lat="45.6156673" lon="10.8026287"><ele>444.66666666666663</ele><time>2026-03-28T12:45:12.621Z</time></trkpt><trkpt lat="45.6156253" lon="10.8024462"><ele>443.5</ele><time>2026-03-28T12:45:14.61Z</time></trkpt><trkpt lat="45.6156121" lon="10.8023476"><ele>442.3333333333333</ele><time>2026-03-28T12:45:15.609Z</time></trkpt><trkpt lat="45.6155992" lon="10.8022576"><ele>441.16666666666663</ele><time>2026-03-28T12:45:16.613Z</time></trkpt><trkpt lat="45.6155799" lon="10.8021584"><ele>440.0</ele><time>2026-03-28T12:45:17.609Z</time></trkpt><trkpt lat="45.6155558" lon="10.8020545"><ele>439.99999999999994</ele><time>2026-03-28T12:45:18.608Z</time></trkpt><trkpt lat="45.6155212" lon="10.8019532"><ele>440.0</ele><time>2026-03-28T12:45:19.614Z</time></trkpt><trkpt lat="45.6154881" lon="10.8018594"><ele>440.0</ele><time>2026-03-28T12:45:20.611Z</time></trkpt><trkpt lat="45.6154217" lon="10.8016946"><ele>440.0</ele><time>2026-03-28T12:45:22.618Z</time></trkpt><trkpt lat="45.615371" lon="10.8016141"><ele>439.99999999999994</ele><time>2026-03-28T12:45:23.615Z</time></trkpt><trkpt lat="45.6153237" lon="10.8015462"><ele>440.0</ele><time>2026-03-28T12:45:24.611Z</time></trkpt><trkpt lat="45.6152599" lon="10.8014242"><ele>438.3333333333333</ele><time>2026-03-28T12:45:26.633Z</time></trkpt><trkpt lat="45.6152453" lon="10.8012731"><ele>436.66666666666663</ele><time>2026-03-28T12:45:28.626Z</time></trkpt><trkpt lat="45.6152507" lon="10.8011637"><ele>435.0</ele><time>2026-03-28T12:45:29.62Z</time></trkpt><trkpt lat="45.6152537" lon="10.8010346"><ele>433.33333333333337</ele><time>2026-03-28T12:45:30.618Z</time></trkpt><trkpt lat="45.6152392" lon="10.8009124"><ele>431.6666666666667</ele><time>2026-03-28T12:45:31.616Z</time></trkpt><trkpt lat="45.6152207" lon="10.8008098"><ele>430.0</ele><time>2026-03-28T12:45:32.618Z</time></trkpt><trkpt lat="45.6152026" lon="10.8007196"><ele>428.6666666666667</ele><time>2026-03-28T12:45:33.617Z</time></trkpt><trkpt lat="45.6151763" lon="10.8006225"><ele>427.33333333333337</ele><time>2026-03-28T12:45:34.619Z</time></trkpt><trkpt lat="45.6151615" lon="10.8005296"><ele>426.0</ele><time>2026-03-28T12:45:35.619Z</time></trkpt><trkpt lat="45.6151742" lon="10.8003801"><ele>424.66666666666663</ele><time>2026-03-28T12:45:37.622Z</time></trkpt><trkpt lat="45.6151936" lon="10.8002352"><ele>423.3333333333333</ele><time>2026-03-28T12:45:39.615Z</time></trkpt><trkpt lat="45.6152306" lon="10.8001114"><ele>422.0</ele><time>2026-03-28T12:45:41.611Z</time></trkpt><trkpt lat="45.6152768" lon="10.7999709"><ele>420.3333333333333</ele><time>2026-03-28T12:45:43.603Z</time></trkpt><trkpt lat="45.6153119" lon="10.7998846"><ele>418.66666666666663</ele><time>2026-03-28T12:45:44.601Z</time></trkpt><trkpt lat="45.6153443" lon="10.7997968"><ele>417.0</ele><time>2026-03-28T12:45:45.598Z</time></trkpt><trkpt lat="45.6153902" lon="10.7996592"><ele>415.33333333333337</ele><time>2026-03-28T12:45:47.599Z</time></trkpt><trkpt lat="45.6154006" lon="10.7995011"><ele>413.6666666666667</ele><time>2026-03-28T12:45:49.606Z</time></trkpt><trkpt lat="45.6153912" lon="10.799409"><ele>412.0</ele><time>2026-03-28T12:45:50.6Z</time></trkpt><trkpt lat="45.6153722" lon="10.7992863"><ele>411.00000000000006</ele><time>2026-03-28T12:45:51.602Z</time></trkpt><trkpt lat="45.6153476" lon="10.7991753"><ele>410.0</ele><time>2026-03-28T12:45:52.605Z</time></trkpt><trkpt lat="45.6153072" lon="10.7990568"><ele>409.0</ele><time>2026-03-28T12:45:53.605Z</time></trkpt><trkpt lat="45.6152712" lon="10.7989517"><ele>408.0</ele><time>2026-03-28T12:45:54.619Z</time></trkpt><trkpt lat="45.6152528" lon="10.798842"><ele>407.00000000000006</ele><time>2026-03-28T12:45:55.619Z</time></trkpt><trkpt lat="45.6152305" lon="10.7987372"><ele>406.0</ele><time>2026-03-28T12:45:56.614Z</time></trkpt><trkpt lat="45.6151982" lon="10.798626"><ele>406.50000000000006</ele><time>2026-03-28T12:45:57.638Z</time></trkpt><trkpt lat="45.6151601" lon="10.7984967"><ele>407.0</ele><time>2026-03-28T12:45:58.615Z</time></trkpt><trkpt lat="45.6151306" lon="10.7983721"><ele>407.5</ele><time>2026-03-28T12:45:59.631Z</time></trkpt><trkpt lat="45.6151028" lon="10.7982643"><ele>408.0</ele><time>2026-03-28T12:46:00.615Z</time></trkpt><trkpt lat="45.615069" lon="10.7981669"><ele>408.50000000000006</ele><time>2026-03-28T12:46:01.626Z</time></trkpt><trkpt lat="45.615034" lon="10.7980699"><ele>409.0</ele><time>2026-03-28T12:46:02.618Z</time></trkpt><trkpt lat="45.6149968" lon="10.7979031"><ele>409.0</ele><time>2026-03-28T12:46:04.617Z</time></trkpt><trkpt lat="45.6149836" lon="10.7978082"><ele>409.0</ele><time>2026-03-28T12:46:05.62Z</time></trkpt><trkpt lat="45.6149664" lon="10.7977097"><ele>409.0</ele><time>2026-03-28T12:46:06.619Z</time></trkpt><trkpt lat="45.6149468" lon="10.7976168"><ele>409.0</ele><time>2026-03-28T12:46:07.62Z</time></trkpt><trkpt lat="45.6149277" lon="10.7975303"><ele>409.0</ele><time>2026-03-28T12:46:08.615Z</time></trkpt><trkpt lat="45.6149057" lon="10.797444"><ele>409.0</ele><time>2026-03-28T12:46:09.63Z</time></trkpt><trkpt lat="45.6148837" lon="10.7973538"><ele>409.0</ele><time>2026-03-28T12:46:10.621Z</time></trkpt><trkpt lat="45.6148687" lon="10.7972512"><ele>408.79999999999995</ele><time>2026-03-28T12:46:11.622Z</time></trkpt><trkpt lat="45.6148624" lon="10.7971504"><ele>408.59999999999997</ele><time>2026-03-28T12:46:12.615Z</time></trkpt><trkpt lat="45.6148599" lon="10.797058"><ele>408.4</ele><time>2026-03-28T12:46:13.617Z</time></trkpt><trkpt lat="45.6148611" lon="10.7968987"><ele>408.2</ele><time>2026-03-28T12:46:15.613Z</time></trkpt><trkpt lat="45.6148595" lon="10.7967337"><ele>408.0</ele><time>2026-03-28T12:46:17.617Z</time></trkpt><trkpt lat="45.6148268" lon="10.7965644"><ele>407.59999999999997</ele><time>2026-03-28T12:46:19.628Z</time></trkpt><trkpt lat="45.6147913" lon="10.7964218"><ele>407.2</ele><time>2026-03-28T12:46:21.617Z</time></trkpt><trkpt lat="45.6147581" lon="10.796305"><ele>406.8</ele><time>2026-03-28T12:46:23.616Z</time></trkpt><trkpt lat="45.614711" lon="10.796214"><ele>406.4</ele><time>2026-03-28T12:46:25.622Z</time></trkpt><trkpt lat="45.6146064" lon="10.7961471"><ele>406.0</ele><time>2026-03-28T12:46:27.608Z</time></trkpt><trkpt lat="45.6145372" lon="10.7961339"><ele>400.8</ele><time>2026-03-28T12:46:28.634Z</time></trkpt><trkpt lat="45.6144405" lon="10.796128"><ele>395.6</ele><time>2026-03-28T12:46:30.615Z</time></trkpt><trkpt lat="45.6143676" lon="10.796125"><ele>390.4</ele><time>2026-03-28T12:46:32.615Z</time></trkpt><trkpt lat="45.6142844" lon="10.7961389"><ele>385.2</ele><time>2026-03-28T12:46:34.624Z</time></trkpt><trkpt lat="45.6141767" lon="10.7960866"><ele>380.0</ele><time>2026-03-28T12:46:36.613Z</time></trkpt><trkpt lat="45.6140717" lon="10.7960416"><ele>380.6666666666667</ele><time>2026-03-28T12:46:38.608Z</time></trkpt><trkpt lat="45.6140091" lon="10.7959835"><ele>381.33333333333337</ele><time>2026-03-28T12:46:40.623Z</time></trkpt><trkpt lat="45.6139481" lon="10.7959527"><ele>382.0</ele><time>2026-03-28T12:46:44.619Z</time></trkpt><trkpt lat="45.6138703" lon="10.7958918"><ele>382.6666666666667</ele><time>2026-03-28T12:46:48.624Z</time></trkpt><trkpt lat="45.6138477" lon="10.795765"><ele>383.3333333333333</ele><time>2026-03-28T12:46:50.604Z</time></trkpt><trkpt lat="45.6138355" lon="10.7956517"><ele>384.0</ele><time>2026-03-28T12:46:51.588Z</time></trkpt><trkpt lat="45.6138254" lon="10.7955422"><ele>384.0</ele><time>2026-03-28T12:46:52.599Z</time></trkpt><trkpt lat="45.6138097" lon="10.7954493"><ele>384.0</ele><time>2026-03-28T12:46:53.598Z</time></trkpt><trkpt lat="45.6137722" lon="10.7952749"><ele>384.0</ele><time>2026-03-28T12:46:55.612Z</time></trkpt><trkpt lat="45.6137239" lon="10.7951227"><ele>384.0</ele><time>2026-03-28T12:46:57.612Z</time></trkpt><trkpt lat="45.6136923" lon="10.7950258"><ele>384.0</ele><time>2026-03-28T12:46:58.618Z</time></trkpt><trkpt lat="45.6136609" lon="10.7949297"><ele>383.4</ele><time>2026-03-28T12:46:59.639Z</time></trkpt><trkpt lat="45.6136342" lon="10.7948473"><ele>382.79999999999995</ele><time>2026-03-28T12:47:00.625Z</time></trkpt><trkpt lat="45.6136098" lon="10.7947067"><ele>382.20000000000005</ele><time>2026-03-28T12:47:02.617Z</time></trkpt><trkpt lat="45.6135968" lon="10.7946041"><ele>381.6</ele><time>2026-03-28T12:47:10.629Z</time></trkpt><trkpt lat="45.6135674" lon="10.7944369"><ele>381.0</ele><time>2026-03-28T12:47:12.62Z</time></trkpt><trkpt lat="45.6135293" lon="10.7942766"><ele>381.0</ele><time>2026-03-28T12:47:13.617Z</time></trkpt><trkpt lat="45.6134825" lon="10.7941208"><ele>381.0</ele><time>2026-03-28T12:47:15.689Z</time></trkpt><trkpt lat="45.6134404" lon="10.7939816"><ele>381.0</ele><time>2026-03-28T12:47:16.681Z</time></trkpt><trkpt lat="45.6133794" lon="10.7938454"><ele>381.0</ele><time>2026-03-28T12:47:17.666Z</time></trkpt><trkpt lat="45.6133262" lon="10.7937284"><ele>381.0</ele><time>2026-03-28T12:47:18.663Z</time></trkpt><trkpt lat="45.6132752" lon="10.7936307"><ele>381.0</ele><time>2026-03-28T12:47:19.669Z</time></trkpt><trkpt lat="45.6132307" lon="10.7935454"><ele>381.0</ele><time>2026-03-28T12:47:20.676Z</time></trkpt><trkpt lat="45.613187" lon="10.7934782"><ele>381.0</ele><time>2026-03-28T12:47:21.675Z</time></trkpt><trkpt lat="45.6131309" lon="10.7934259"><ele>381.0</ele><time>2026-03-28T12:47:22.676Z</time></trkpt><trkpt lat="45.6130483" lon="10.7933449"><ele>381.0</ele><time>2026-03-28T12:47:24.676Z</time></trkpt><trkpt lat="45.6130035" lon="10.7932803"><ele>381.0</ele><time>2026-03-28T12:47:25.675Z</time></trkpt><trkpt lat="45.6128332" lon="10.7930902"><ele>380.0</ele><time>2026-03-28T12:47:26.674Z</time></trkpt><trkpt lat="45.6127278" lon="10.7929509"><ele>379.0</ele><time>2026-03-28T12:47:27.688Z</time></trkpt><trkpt lat="45.6126708" lon="10.7928441"><ele>378.0</ele><time>2026-03-28T12:47:28.69Z</time></trkpt><trkpt lat="45.6126301" lon="10.7927319"><ele>377.0</ele><time>2026-03-28T12:47:29.677Z</time></trkpt><trkpt lat="45.6126008" lon="10.7926276"><ele>376.0</ele><time>2026-03-28T12:47:30.7Z</time></trkpt><trkpt lat="45.6125936" lon="10.7925194"><ele>376.0</ele><time>2026-03-28T12:47:31.676Z</time></trkpt><trkpt lat="45.6125825" lon="10.7923945"><ele>376.0</ele><time>2026-03-28T12:47:32.673Z</time></trkpt><trkpt lat="45.6125839" lon="10.7922569"><ele>376.0</ele><time>2026-03-28T12:47:33.686Z</time></trkpt><trkpt lat="45.6126078" lon="10.7921432"><ele>376.0</ele><time>2026-03-28T12:47:34.684Z</time></trkpt><trkpt lat="45.6126407" lon="10.7920484"><ele>376.0</ele><time>2026-03-28T12:47:35.682Z</time></trkpt><trkpt lat="45.6126792" lon="10.7919587"><ele>376.0</ele><time>2026-03-28T12:47:37.671Z</time></trkpt><trkpt lat="45.6127195" lon="10.7918597"><ele>375.5</ele><time>2026-03-28T12:47:39.695Z</time></trkpt><trkpt lat="45.6127177" lon="10.791717"><ele>375.0</ele><time>2026-03-28T12:47:41.691Z</time></trkpt><trkpt lat="45.6127131" lon="10.791624"><ele>374.5</ele><time>2026-03-28T12:47:42.702Z</time></trkpt><trkpt lat="45.6127042" lon="10.7915149"><ele>374.0</ele><time>2026-03-28T12:47:43.7Z</time></trkpt><trkpt lat="45.6127001" lon="10.7913903"><ele>373.5</ele><time>2026-03-28T12:47:44.699Z</time></trkpt><trkpt lat="45.6126886" lon="10.7912605"><ele>373.0</ele><time>2026-03-28T12:47:45.702Z</time></trkpt><trkpt lat="45.6126744" lon="10.7911262"><ele>372.0</ele><time>2026-03-28T12:47:46.691Z</time></trkpt><trkpt lat="45.6126635" lon="10.7909839"><ele>371.0</ele><time>2026-03-28T12:47:47.69Z</time></trkpt><trkpt lat="45.6126116" lon="10.7906911"><ele>370.0</ele><time>2026-03-28T12:47:48.604Z</time></trkpt><trkpt lat="45.6125858" lon="10.7905381"><ele>369.0</ele><time>2026-03-28T12:47:49.606Z</time></trkpt><trkpt lat="45.6125564" lon="10.7903867"><ele>369.0</ele><time>2026-03-28T12:47:50.593Z</time></trkpt><trkpt lat="45.6125114" lon="10.7902259"><ele>369.0</ele><time>2026-03-28T12:47:51.596Z</time></trkpt><trkpt lat="45.6124559" lon="10.7900701"><ele>369.0</ele><time>2026-03-28T12:47:52.611Z</time></trkpt><trkpt lat="45.6123848" lon="10.7899224"><ele>369.0</ele><time>2026-03-28T12:47:53.606Z</time></trkpt><trkpt lat="45.612307" lon="10.7897891"><ele>369.5</ele><time>2026-03-28T12:47:54.605Z</time></trkpt><trkpt lat="45.6122298" lon="10.7896613"><ele>370.0</ele><time>2026-03-28T12:47:55.609Z</time></trkpt><trkpt lat="45.6121285" lon="10.7895348"><ele>370.5</ele><time>2026-03-28T12:47:56.606Z</time></trkpt><trkpt lat="45.6120329" lon="10.7894137"><ele>371.0</ele><time>2026-03-28T12:47:57.606Z</time></trkpt><trkpt lat="45.6119572" lon="10.789316"><ele>368.6666666666667</ele><time>2026-03-28T12:47:58.612Z</time></trkpt><trkpt lat="45.6118934" lon="10.789231"><ele>366.33333333333337</ele><time>2026-03-28T12:47:59.612Z</time></trkpt><trkpt lat="45.6118416" lon="10.7891604"><ele>364.0</ele><time>2026-03-28T12:48:00.612Z</time></trkpt><trkpt lat="45.6117694" lon="10.789046"><ele>361.6666666666667</ele><time>2026-03-28T12:48:02.616Z</time></trkpt><trkpt lat="45.6117334" lon="10.7889646"><ele>359.3333333333333</ele><time>2026-03-28T12:48:03.612Z</time></trkpt><trkpt lat="45.611704" lon="10.7888486"><ele>357.0</ele><time>2026-03-28T12:48:04.617Z</time></trkpt><trkpt lat="45.6116844" lon="10.7887334"><ele>357.0</ele><time>2026-03-28T12:48:05.607Z</time></trkpt><trkpt lat="45.6116799" lon="10.7885632"><ele>357.0</ele><time>2026-03-28T12:48:07.603Z</time></trkpt><trkpt lat="45.611689" lon="10.7884376"><ele>357.0</ele><time>2026-03-28T12:48:08.605Z</time></trkpt><trkpt lat="45.6117031" lon="10.788302"><ele>357.0</ele><time>2026-03-28T12:48:09.607Z</time></trkpt><trkpt lat="45.6117107" lon="10.7881823"><ele>357.0</ele><time>2026-03-28T12:48:10.607Z</time></trkpt><trkpt lat="45.611722" lon="10.7880645"><ele>357.0</ele><time>2026-03-28T12:48:11.604Z</time></trkpt><trkpt lat="45.6117553" lon="10.7879609"><ele>357.0</ele><time>2026-03-28T12:48:12.606Z</time></trkpt><trkpt lat="45.6118135" lon="10.7878678"><ele>357.0</ele><time>2026-03-28T12:48:13.609Z</time></trkpt><trkpt lat="45.6118759" lon="10.7877822"><ele>357.0</ele><time>2026-03-28T12:48:14.614Z</time></trkpt><trkpt lat="45.6119307" lon="10.7876977"><ele>357.0</ele><time>2026-03-28T12:48:15.605Z</time></trkpt><trkpt lat="45.6119745" lon="10.7876278"><ele>357.0</ele><time>2026-03-28T12:48:16.603Z</time></trkpt><trkpt lat="45.6120082" lon="10.787536"><ele>356.0</ele><time>2026-03-28T12:48:17.603Z</time></trkpt><trkpt lat="45.6120247" lon="10.7874086"><ele>355.0</ele><time>2026-03-28T12:48:18.594Z</time></trkpt><trkpt lat="45.6120127" lon="10.7872785"><ele>354.0</ele><time>2026-03-28T12:48:19.608Z</time></trkpt><trkpt lat="45.6119852" lon="10.7871581"><ele>353.0</ele><time>2026-03-28T12:48:20.608Z</time></trkpt><trkpt lat="45.6119544" lon="10.787061"><ele>352.0</ele><time>2026-03-28T12:48:21.609Z</time></trkpt><trkpt lat="45.6119081" lon="10.7869544"><ele>351.0</ele><time>2026-03-28T12:48:22.596Z</time></trkpt><trkpt lat="45.611854" lon="10.7868647"><ele>351.20000000000005</ele><time>2026-03-28T12:48:23.603Z</time></trkpt><trkpt lat="45.611777" lon="10.7867939"><ele>351.40000000000003</ele><time>2026-03-28T12:48:24.61Z</time></trkpt><trkpt lat="45.611665" lon="10.7867238"><ele>351.6</ele><time>2026-03-28T12:48:25.61Z</time></trkpt><trkpt lat="45.6115556" lon="10.7866415"><ele>351.8</ele><time>2026-03-28T12:48:26.61Z</time></trkpt><trkpt lat="45.6114671" lon="10.7865439"><ele>352.0</ele><time>2026-03-28T12:48:27.613Z</time></trkpt><trkpt lat="45.6113839" lon="10.7864259"><ele>352.0</ele><time>2026-03-28T12:48:28.61Z</time></trkpt><trkpt lat="45.6113033" lon="10.7863102"><ele>352.0</ele><time>2026-03-28T12:48:29.621Z</time></trkpt><trkpt lat="45.6112353" lon="10.7861923"><ele>352.0</ele><time>2026-03-28T12:48:30.609Z</time></trkpt><trkpt lat="45.6111739" lon="10.7860763"><ele>352.0</ele><time>2026-03-28T12:48:31.614Z</time></trkpt><trkpt lat="45.6111273" lon="10.7859549"><ele>352.0</ele><time>2026-03-28T12:48:32.614Z</time></trkpt><trkpt lat="45.6110932" lon="10.7858203"><ele>349.8</ele><time>2026-03-28T12:48:33.603Z</time></trkpt><trkpt lat="45.6110662" lon="10.7856912"><ele>347.6</ele><time>2026-03-28T12:48:34.605Z</time></trkpt><trkpt lat="45.6110346" lon="10.7855852"><ele>345.40000000000003</ele><time>2026-03-28T12:48:35.601Z</time></trkpt><trkpt lat="45.6109922" lon="10.7854408"><ele>343.20000000000005</ele><time>2026-03-28T12:48:37.602Z</time></trkpt><trkpt lat="45.6110394" lon="10.7853482"><ele>341.0</ele><time>2026-03-28T12:48:42.61Z</time></trkpt><trkpt lat="45.6111386" lon="10.7854057"><ele>344.4</ele><time>2026-03-28T12:48:44.613Z</time></trkpt><trkpt lat="45.6112246" lon="10.7854506"><ele>347.8</ele><time>2026-03-28T12:48:45.601Z</time></trkpt><trkpt lat="45.6113224" lon="10.7854531"><ele>351.2</ele><time>2026-03-28T12:48:46.607Z</time></trkpt><trkpt lat="45.6114287" lon="10.785429"><ele>354.59999999999997</ele><time>2026-03-28T12:48:47.614Z</time></trkpt><trkpt lat="45.6115353" lon="10.78539"><ele>358.0</ele><time>2026-03-28T12:48:48.607Z</time></trkpt><trkpt lat="45.6116276" lon="10.7853177"><ele>358.0</ele><time>2026-03-28T12:48:49.606Z</time></trkpt><trkpt lat="45.6117095" lon="10.7852126"><ele>358.0</ele><time>2026-03-28T12:48:50.61Z</time></trkpt><trkpt lat="45.6117682" lon="10.7850799"><ele>358.0</ele><time>2026-03-28T12:48:51.604Z</time></trkpt><trkpt lat="45.6117966" lon="10.7849174"><ele>358.0</ele><time>2026-03-28T12:48:52.595Z</time></trkpt><trkpt lat="45.6117966" lon="10.7847309"><ele>358.3333333333333</ele><time>2026-03-28T12:48:53.592Z</time></trkpt><trkpt lat="45.6117775" lon="10.784529"><ele>358.6666666666667</ele><time>2026-03-28T12:48:54.594Z</time></trkpt><trkpt lat="45.6117561" lon="10.7843068"><ele>359.0</ele><time>2026-03-28T12:48:55.6Z</time></trkpt><trkpt lat="45.6117135" lon="10.7840454"><ele>359.6666666666667</ele><time>2026-03-28T12:48:56.611Z</time></trkpt><trkpt lat="45.6116859" lon="10.7837928"><ele>360.3333333333333</ele><time>2026-03-28T12:48:57.606Z</time></trkpt><trkpt lat="45.6116636" lon="10.7835535"><ele>361.0</ele><time>2026-03-28T12:48:58.606Z</time></trkpt><trkpt lat="45.6116371" lon="10.7832984"><ele>362.0</ele><time>2026-03-28T12:48:59.611Z</time></trkpt><trkpt lat="45.6116188" lon="10.7830386"><ele>363.0</ele><time>2026-03-28T12:49:00.61Z</time></trkpt><trkpt lat="45.6115974" lon="10.7827857"><ele>364.0</ele><time>2026-03-28T12:49:01.623Z</time></trkpt><trkpt lat="45.6115839" lon="10.7825223"><ele>366.0</ele><time>2026-03-28T12:49:02.611Z</time></trkpt><trkpt lat="45.6115709" lon="10.7822659"><ele>368.0</ele><time>2026-03-28T12:49:03.629Z</time></trkpt><trkpt lat="45.6115631" lon="10.7820036"><ele>370.0</ele><time>2026-03-28T12:49:04.613Z</time></trkpt><trkpt lat="45.6115602" lon="10.7817287"><ele>370.66666666666663</ele><time>2026-03-28T12:49:05.602Z</time></trkpt><trkpt lat="45.6115599" lon="10.7814921"><ele>371.3333333333333</ele><time>2026-03-28T12:49:06.609Z</time></trkpt><trkpt lat="45.6115632" lon="10.7812714"><ele>372.0</ele><time>2026-03-28T12:49:07.62Z</time></trkpt><trkpt lat="45.6115666" lon="10.7810733"><ele>373.0</ele><time>2026-03-28T12:49:08.609Z</time></trkpt><trkpt lat="45.6115594" lon="10.7808616"><ele>374.0</ele><time>2026-03-28T12:49:09.598Z</time></trkpt><trkpt lat="45.6115264" lon="10.7806557"><ele>375.0</ele><time>2026-03-28T12:49:10.599Z</time></trkpt><trkpt lat="45.6114725" lon="10.7804922"><ele>376.0</ele><time>2026-03-28T12:49:11.603Z</time></trkpt><trkpt lat="45.6113965" lon="10.7803557"><ele>376.0</ele><time>2026-03-28T12:49:12.608Z</time></trkpt><trkpt lat="45.6113281" lon="10.780224"><ele>376.0</ele><time>2026-03-28T12:49:13.605Z</time></trkpt><trkpt lat="45.6112641" lon="10.7801212"><ele>376.0</ele><time>2026-03-28T12:49:15.604Z</time></trkpt><trkpt lat="45.611192" lon="10.7801501"><ele>376.0</ele><time>2026-03-28T12:49:18.614Z</time></trkpt><trkpt lat="45.6111303" lon="10.7801832"><ele>376.0</ele><time>2026-03-28T12:49:19.604Z</time></trkpt><trkpt lat="45.6110588" lon="10.7802054"><ele>376.0</ele><time>2026-03-28T12:49:20.608Z</time></trkpt><trkpt lat="45.6109939" lon="10.7802194"><ele>374.8</ele><time>2026-03-28T12:49:21.611Z</time></trkpt><trkpt lat="45.6108907" lon="10.7802376"><ele>373.6</ele><time>2026-03-28T12:49:23.614Z</time></trkpt><trkpt lat="45.6108018" lon="10.7801819"><ele>372.4</ele><time>2026-03-28T12:49:29.618Z</time></trkpt><trkpt lat="45.6106795" lon="10.78009"><ele>371.2</ele><time>2026-03-28T12:49:31.617Z</time></trkpt><trkpt lat="45.6105968" lon="10.7800342"><ele>370.0</ele><time>2026-03-28T12:49:32.614Z</time></trkpt><trkpt lat="45.6104952" lon="10.7799995"><ele>370.0</ele><time>2026-03-28T12:49:33.617Z</time></trkpt><trkpt lat="45.6103991" lon="10.7799672"><ele>370.0</ele><time>2026-03-28T12:49:34.65Z</time></trkpt><trkpt lat="45.6103162" lon="10.7799414"><ele>370.0</ele><time>2026-03-28T12:49:35.616Z</time></trkpt><trkpt lat="45.6102279" lon="10.7799188"><ele>370.0</ele><time>2026-03-28T12:49:36.611Z</time></trkpt><trkpt lat="45.6101473" lon="10.7798883"><ele>370.0</ele><time>2026-03-28T12:49:37.617Z</time></trkpt><trkpt lat="45.6100786" lon="10.7798625"><ele>370.0</ele><time>2026-03-28T12:49:38.609Z</time></trkpt><trkpt lat="45.6100029" lon="10.7798386"><ele>367.66666666666663</ele><time>2026-03-28T12:49:39.615Z</time></trkpt><trkpt lat="45.6099245" lon="10.7798115"><ele>365.3333333333333</ele><time>2026-03-28T12:49:40.61Z</time></trkpt><trkpt lat="45.6098594" lon="10.7797744"><ele>363.0</ele><time>2026-03-28T12:49:41.611Z</time></trkpt><trkpt lat="45.6097933" lon="10.7797484"><ele>360.6666666666667</ele><time>2026-03-28T12:49:42.608Z</time></trkpt><trkpt lat="45.6097117" lon="10.7797496"><ele>358.33333333333337</ele><time>2026-03-28T12:49:43.613Z</time></trkpt><trkpt lat="45.6096162" lon="10.7797833"><ele>356.0</ele><time>2026-03-28T12:49:44.612Z</time></trkpt><trkpt lat="45.6095235" lon="10.7798308"><ele>352.4</ele><time>2026-03-28T12:49:45.617Z</time></trkpt><trkpt lat="45.6094404" lon="10.779867"><ele>348.8</ele><time>2026-03-28T12:49:46.615Z</time></trkpt><trkpt lat="45.6093598" lon="10.7798892"><ele>345.2</ele><time>2026-03-28T12:49:47.616Z</time></trkpt><trkpt lat="45.6092743" lon="10.7798768"><ele>341.59999999999997</ele><time>2026-03-28T12:49:48.612Z</time></trkpt><trkpt lat="45.6091735" lon="10.7798524"><ele>338.0</ele><time>2026-03-28T12:49:49.617Z</time></trkpt><trkpt lat="45.609068" lon="10.7798185"><ele>338.0</ele><time>2026-03-28T12:49:50.617Z</time></trkpt><trkpt lat="45.608966" lon="10.779795"><ele>338.0</ele><time>2026-03-28T12:49:51.616Z</time></trkpt><trkpt lat="45.6088641" lon="10.7797706"><ele>338.0</ele><time>2026-03-28T12:49:52.611Z</time></trkpt><trkpt lat="45.6087648" lon="10.7797185"><ele>338.0</ele><time>2026-03-28T12:49:53.602Z</time></trkpt><trkpt lat="45.6086608" lon="10.7796404"><ele>338.0</ele><time>2026-03-28T12:49:54.61Z</time></trkpt><trkpt lat="45.6085414" lon="10.7795517"><ele>336.0</ele><time>2026-03-28T12:49:55.618Z</time></trkpt><trkpt lat="45.6084224" lon="10.7794676"><ele>334.0</ele><time>2026-03-28T12:49:56.613Z</time></trkpt><trkpt lat="45.6083025" lon="10.7794059"><ele>332.0</ele><time>2026-03-28T12:49:57.611Z</time></trkpt><trkpt lat="45.6081741" lon="10.7793509"><ele>330.0</ele><time>2026-03-28T12:49:58.613Z</time></trkpt><trkpt lat="45.6080655" lon="10.7793064"><ele>330.0</ele><time>2026-03-28T12:49:59.622Z</time></trkpt><trkpt lat="45.6079601" lon="10.7792698"><ele>330.0</ele><time>2026-03-28T12:50:00.616Z</time></trkpt><trkpt lat="45.6078592" lon="10.7792225"><ele>330.0</ele><time>2026-03-28T12:50:01.618Z</time></trkpt><trkpt lat="45.6077538" lon="10.779172"><ele>330.0</ele><time>2026-03-28T12:50:02.616Z</time></trkpt><trkpt lat="45.6076619" lon="10.7791144"><ele>330.0</ele><time>2026-03-28T12:50:03.619Z</time></trkpt><trkpt lat="45.6075568" lon="10.7790537"><ele>328.5</ele><time>2026-03-28T12:50:04.631Z</time></trkpt><trkpt lat="45.6074441" lon="10.7789909"><ele>327.0</ele><time>2026-03-28T12:50:05.615Z</time></trkpt><trkpt lat="45.6073272" lon="10.7789351"><ele>325.5</ele><time>2026-03-28T12:50:06.614Z</time></trkpt><trkpt lat="45.6072203" lon="10.7788953"><ele>324.0</ele><time>2026-03-28T12:50:07.615Z</time></trkpt><trkpt lat="45.6071162" lon="10.7788691"><ele>324.0</ele><time>2026-03-28T12:50:08.616Z</time></trkpt><trkpt lat="45.607011" lon="10.7788531"><ele>324.0</ele><time>2026-03-28T12:50:09.617Z</time></trkpt><trkpt lat="45.6069005" lon="10.778855"><ele>324.0</ele><time>2026-03-28T12:50:10.619Z</time></trkpt><trkpt lat="45.606797" lon="10.778855"><ele>324.0</ele><time>2026-03-28T12:50:11.616Z</time></trkpt><trkpt lat="45.6067007" lon="10.7788495"><ele>324.0</ele><time>2026-03-28T12:50:12.616Z</time></trkpt><trkpt lat="45.606619" lon="10.7788285"><ele>321.59999999999997</ele><time>2026-03-28T12:50:13.612Z</time></trkpt><trkpt lat="45.6065422" lon="10.7787955"><ele>319.2</ele><time>2026-03-28T12:50:14.615Z</time></trkpt><trkpt lat="45.606466" lon="10.7787626"><ele>316.79999999999995</ele><time>2026-03-28T12:50:15.621Z</time></trkpt><trkpt lat="45.6063842" lon="10.7787278"><ele>314.4</ele><time>2026-03-28T12:50:16.615Z</time></trkpt><trkpt lat="45.6062864" lon="10.7786902"><ele>312.0</ele><time>2026-03-28T12:50:17.618Z</time></trkpt><trkpt lat="45.6061827" lon="10.7786538"><ele>308.8333333333333</ele><time>2026-03-28T12:50:18.616Z</time></trkpt><trkpt lat="45.6060857" lon="10.7786221"><ele>305.6666666666667</ele><time>2026-03-28T12:50:19.618Z</time></trkpt><trkpt lat="45.6060004" lon="10.7785822"><ele>302.5</ele><time>2026-03-28T12:50:20.618Z</time></trkpt><trkpt lat="45.6059144" lon="10.7785508"><ele>299.33333333333337</ele><time>2026-03-28T12:50:21.613Z</time></trkpt><trkpt lat="45.605833" lon="10.7785351"><ele>296.1666666666667</ele><time>2026-03-28T12:50:22.608Z</time></trkpt><trkpt lat="45.6057639" lon="10.7785137"><ele>293.0</ele><time>2026-03-28T12:50:23.615Z</time></trkpt><trkpt lat="45.6057014" lon="10.7784879"><ele>292.5</ele><time>2026-03-28T12:50:24.614Z</time></trkpt><trkpt lat="45.6056303" lon="10.7784728"><ele>292.0</ele><time>2026-03-28T12:50:25.607Z</time></trkpt><trkpt lat="45.6055653" lon="10.7784731"><ele>291.5</ele><time>2026-03-28T12:50:26.607Z</time></trkpt><trkpt lat="45.605499" lon="10.7784799"><ele>291.0</ele><time>2026-03-28T12:50:27.605Z</time></trkpt><trkpt lat="45.6053887" lon="10.7784898"><ele>290.5</ele><time>2026-03-28T12:50:29.61Z</time></trkpt><trkpt lat="45.6052694" lon="10.7784764"><ele>290.0</ele><time>2026-03-28T12:50:31.621Z</time></trkpt><trkpt lat="45.6052027" lon="10.7784728"><ele>286.0</ele><time>2026-03-28T12:50:32.61Z</time></trkpt><trkpt lat="45.605095" lon="10.7784603"><ele>282.0</ele><time>2026-03-28T12:50:34.616Z</time></trkpt><trkpt lat="45.6049837" lon="10.7784056"><ele>278.0</ele><time>2026-03-28T12:50:36.616Z</time></trkpt><trkpt lat="45.60487" lon="10.7783386"><ele>274.0</ele><time>2026-03-28T12:50:38.612Z</time></trkpt><trkpt lat="45.604759" lon="10.7782903"><ele>274.0</ele><time>2026-03-28T12:50:40.61Z</time></trkpt><trkpt lat="45.6046466" lon="10.7782706"><ele>274.0</ele><time>2026-03-28T12:50:42.601Z</time></trkpt><trkpt lat="45.6045796" lon="10.7782761"><ele>274.0</ele><time>2026-03-28T12:50:44.613Z</time></trkpt><trkpt lat="45.6044938" lon="10.7782217"><ele>274.0</ele><time>2026-03-28T12:50:47.609Z</time></trkpt><trkpt lat="45.6044619" lon="10.7781279"><ele>274.0</ele><time>2026-03-28T12:50:49.606Z</time></trkpt><trkpt lat="45.6043846" lon="10.7781038"><ele>274.0</ele><time>2026-03-28T12:50:51.612Z</time></trkpt><trkpt lat="45.6042873" lon="10.7781849"><ele>272.0</ele><time>2026-03-28T12:50:53.608Z</time></trkpt><trkpt lat="45.6041808" lon="10.7782156"><ele>270.0</ele><time>2026-03-28T12:50:55.606Z</time></trkpt><trkpt lat="45.6041111" lon="10.7782096"><ele>268.0</ele><time>2026-03-28T12:50:56.597Z</time></trkpt><trkpt lat="45.6040321" lon="10.7782145"><ele>266.0</ele><time>2026-03-28T12:50:57.602Z</time></trkpt><trkpt lat="45.6039524" lon="10.7782195"><ele>264.0</ele><time>2026-03-28T12:50:58.604Z</time></trkpt><trkpt lat="45.6038664" lon="10.778214"><ele>262.0</ele><time>2026-03-28T12:50:59.611Z</time></trkpt><trkpt lat="45.6037748" lon="10.778182"><ele>259.8</ele><time>2026-03-28T12:51:00.601Z</time></trkpt><trkpt lat="45.6036598" lon="10.778132"><ele>257.6</ele><time>2026-03-28T12:51:01.602Z</time></trkpt><trkpt lat="45.6035485" lon="10.7780872"><ele>255.40000000000003</ele><time>2026-03-28T12:51:02.601Z</time></trkpt><trkpt lat="45.603435" lon="10.7780695"><ele>253.20000000000002</ele><time>2026-03-28T12:51:03.589Z</time></trkpt><trkpt lat="45.6033406" lon="10.7780619"><ele>251.0</ele><time>2026-03-28T12:51:04.59Z</time></trkpt><trkpt lat="45.60323" lon="10.7780676"><ele>251.0</ele><time>2026-03-28T12:51:06.615Z</time></trkpt><trkpt lat="45.6031654" lon="10.7780437"><ele>251.00000000000003</ele><time>2026-03-28T12:51:08.609Z</time></trkpt><trkpt lat="45.603132" lon="10.7781254"><ele>251.00000000000003</ele><time>2026-03-28T12:51:21.624Z</time></trkpt><trkpt lat="45.6031543" lon="10.778283"><ele>251.0</ele><time>2026-03-28T12:51:23.617Z</time></trkpt><trkpt lat="45.6031958" lon="10.7784314"><ele>251.0</ele><time>2026-03-28T12:51:24.606Z</time></trkpt><trkpt lat="45.6032574" lon="10.7785972"><ele>250.0</ele><time>2026-03-28T12:51:25.619Z</time></trkpt><trkpt lat="45.6033234" lon="10.7787798"><ele>249.0</ele><time>2026-03-28T12:51:26.615Z</time></trkpt><trkpt lat="45.6033782" lon="10.7789812"><ele>248.0</ele><time>2026-03-28T12:51:27.615Z</time></trkpt><trkpt lat="45.603434" lon="10.7791922"><ele>247.0</ele><time>2026-03-28T12:51:28.617Z</time></trkpt><trkpt lat="45.6034828" lon="10.7794255"><ele>246.0</ele><time>2026-03-28T12:51:29.619Z</time></trkpt><trkpt lat="45.6035324" lon="10.7796358"><ele>245.0</ele><time>2026-03-28T12:51:30.613Z</time></trkpt><trkpt lat="45.6035671" lon="10.7798521"><ele>245.0</ele><time>2026-03-28T12:51:31.621Z</time></trkpt><trkpt lat="45.6036047" lon="10.7800547"><ele>245.0</ele><time>2026-03-28T12:51:32.615Z</time></trkpt><trkpt lat="45.6036338" lon="10.7802358"><ele>245.0</ele><time>2026-03-28T12:51:33.612Z</time></trkpt><trkpt lat="45.6036617" lon="10.7803939"><ele>245.0</ele><time>2026-03-28T12:51:34.622Z</time></trkpt><trkpt lat="45.6036807" lon="10.7805579"><ele>246.8</ele><time>2026-03-28T12:51:35.61Z</time></trkpt><trkpt lat="45.6037" lon="10.7806977"><ele>248.6</ele><time>2026-03-28T12:51:36.614Z</time></trkpt><trkpt lat="45.6037324" lon="10.7808291"><ele>250.39999999999998</ele><time>2026-03-28T12:51:37.638Z</time></trkpt><trkpt lat="45.6037735" lon="10.78095"><ele>252.2</ele><time>2026-03-28T12:51:38.62Z</time></trkpt><trkpt lat="45.6037883" lon="10.78105"><ele>254.0</ele><time>2026-03-28T12:51:39.619Z</time></trkpt><trkpt lat="45.6037712" lon="10.7812054"><ele>254.2</ele><time>2026-03-28T12:51:41.607Z</time></trkpt><trkpt lat="45.6036924" lon="10.7812957"><ele>254.39999999999998</ele><time>2026-03-28T12:51:43.619Z</time></trkpt><trkpt lat="45.6035723" lon="10.781373"><ele>254.6</ele><time>2026-03-28T12:51:45.627Z</time></trkpt><trkpt lat="45.6034873" lon="10.7813734"><ele>254.8</ele><time>2026-03-28T12:51:46.62Z</time></trkpt><trkpt lat="45.6033959" lon="10.7813741"><ele>255.0</ele><time>2026-03-28T12:51:47.61Z</time></trkpt><trkpt lat="45.6033172" lon="10.7813907"><ele>253.4</ele><time>2026-03-28T12:51:48.616Z</time></trkpt><trkpt lat="45.6032248" lon="10.7814275"><ele>251.8</ele><time>2026-03-28T12:51:49.615Z</time></trkpt><trkpt lat="45.6031179" lon="10.7814613"><ele>250.2</ele><time>2026-03-28T12:51:50.611Z</time></trkpt><trkpt lat="45.6030071" lon="10.781494"><ele>248.6</ele><time>2026-03-28T12:51:51.617Z</time></trkpt><trkpt lat="45.602908" lon="10.7815064"><ele>247.0</ele><time>2026-03-28T12:51:52.61Z</time></trkpt><trkpt lat="45.6028279" lon="10.7815228"><ele>245.99999999999997</ele><time>2026-03-28T12:51:53.603Z</time></trkpt><trkpt lat="45.6027162" lon="10.78154"><ele>245.0</ele><time>2026-03-28T12:51:55.615Z</time></trkpt><trkpt lat="45.6026512" lon="10.7815444"><ele>244.0</ele><time>2026-03-28T12:51:56.607Z</time></trkpt><trkpt lat="45.6025722" lon="10.7815637"><ele>243.0</ele><time>2026-03-28T12:51:57.609Z</time></trkpt><trkpt lat="45.6024879" lon="10.7815845"><ele>241.99999999999997</ele><time>2026-03-28T12:51:58.615Z</time></trkpt><trkpt lat="45.6023997" lon="10.7816173"><ele>241.0</ele><time>2026-03-28T12:51:59.621Z</time></trkpt><trkpt lat="45.6023131" lon="10.7816457"><ele>241.0</ele><time>2026-03-28T12:52:00.614Z</time></trkpt><trkpt lat="45.6022218" lon="10.7816837"><ele>241.00000000000003</ele><time>2026-03-28T12:52:01.629Z</time></trkpt><trkpt lat="45.6021239" lon="10.7817076"><ele>241.00000000000003</ele><time>2026-03-28T12:52:02.622Z</time></trkpt><trkpt lat="45.6020261" lon="10.7817168"><ele>241.0</ele><time>2026-03-28T12:52:03.612Z</time></trkpt><trkpt lat="45.6019236" lon="10.7817248"><ele>241.0</ele><time>2026-03-28T12:52:04.617Z</time></trkpt><trkpt lat="45.6018117" lon="10.7817549"><ele>239.75</ele><time>2026-03-28T12:52:05.608Z</time></trkpt><trkpt lat="45.6016922" lon="10.7818108"><ele>238.5</ele><time>2026-03-28T12:52:06.605Z</time></trkpt><trkpt lat="45.601578" lon="10.7818694"><ele>237.25</ele><time>2026-03-28T12:52:07.607Z</time></trkpt><trkpt lat="45.6014685" lon="10.7819374"><ele>236.0</ele><time>2026-03-28T12:52:08.633Z</time></trkpt><trkpt lat="45.6013512" lon="10.7819945"><ele>236.0</ele><time>2026-03-28T12:52:09.611Z</time></trkpt><trkpt lat="45.6012273" lon="10.7820541"><ele>236.0</ele><time>2026-03-28T12:52:10.619Z</time></trkpt><trkpt lat="45.6011127" lon="10.7821074"><ele>236.0</ele><time>2026-03-28T12:52:11.614Z</time></trkpt><trkpt lat="45.6010049" lon="10.7821596"><ele>236.0</ele><time>2026-03-28T12:52:12.613Z</time></trkpt><trkpt lat="45.600904" lon="10.7822165"><ele>235.50000000000003</ele><time>2026-03-28T12:52:13.614Z</time></trkpt><trkpt lat="45.600809" lon="10.782267"><ele>235.0</ele><time>2026-03-28T12:52:14.613Z</time></trkpt><trkpt lat="45.600722" lon="10.7823136"><ele>234.5</ele><time>2026-03-28T12:52:15.612Z</time></trkpt><trkpt lat="45.6006379" lon="10.7823545"><ele>234.0</ele><time>2026-03-28T12:52:16.618Z</time></trkpt><trkpt lat="45.6005753" lon="10.782386"><ele>233.50000000000003</ele><time>2026-03-28T12:52:17.606Z</time></trkpt><trkpt lat="45.6005134" lon="10.7824218"><ele>233.0</ele><time>2026-03-28T12:52:18.614Z</time></trkpt><trkpt lat="45.6004275" lon="10.782466"><ele>233.0</ele><time>2026-03-28T12:52:20.616Z</time></trkpt><trkpt lat="45.6003544" lon="10.7823656"><ele>233.0</ele><time>2026-03-28T12:52:22.64Z</time></trkpt><trkpt lat="45.6003107" lon="10.7822337"><ele>233.0</ele><time>2026-03-28T12:52:23.63Z</time></trkpt><trkpt lat="45.6002707" lon="10.7820884"><ele>233.0</ele><time>2026-03-28T12:52:24.625Z</time></trkpt><trkpt lat="45.6002101" lon="10.7819486"><ele>233.0</ele><time>2026-03-28T12:52:26.717Z</time></trkpt><trkpt lat="45.6001461" lon="10.78179"><ele>232.5</ele><time>2026-03-28T12:52:27.702Z</time></trkpt><trkpt lat="45.6000866" lon="10.7816353"><ele>232.0</ele><time>2026-03-28T12:52:28.697Z</time></trkpt><trkpt lat="45.6000246" lon="10.7814832"><ele>231.5</ele><time>2026-03-28T12:52:29.7Z</time></trkpt><trkpt lat="45.5999613" lon="10.7813213"><ele>231.0</ele><time>2026-03-28T12:52:30.701Z</time></trkpt><trkpt lat="45.5999001" lon="10.7811521"><ele>231.0</ele><time>2026-03-28T12:52:31.697Z</time></trkpt><trkpt lat="45.5998372" lon="10.7809826"><ele>231.0</ele><time>2026-03-28T12:52:32.699Z</time></trkpt><trkpt lat="45.5997722" lon="10.7808366"><ele>231.0</ele><time>2026-03-28T12:52:33.694Z</time></trkpt><trkpt lat="45.5997119" lon="10.7807042"><ele>231.0</ele><time>2026-03-28T12:52:34.696Z</time></trkpt><trkpt lat="45.5996625" lon="10.7805819"><ele>231.0</ele><time>2026-03-28T12:52:35.703Z</time></trkpt><trkpt lat="45.59962" lon="10.7804593"><ele>231.00000000000003</ele><time>2026-03-28T12:52:36.695Z</time></trkpt><trkpt lat="45.5995873" lon="10.7803661"><ele>231.00000000000003</ele><time>2026-03-28T12:52:37.692Z</time></trkpt><trkpt lat="45.5995385" lon="10.7802111"><ele>231.0</ele><time>2026-03-28T12:52:39.717Z</time></trkpt><trkpt lat="45.5995011" lon="10.7801034"><ele>231.0</ele><time>2026-03-28T12:52:41.693Z</time></trkpt><trkpt lat="45.5993893" lon="10.7799763"><ele>231.0</ele><time>2026-03-28T12:52:43.619Z</time></trkpt><trkpt lat="45.5993446" lon="10.7799103"><ele>231.0</ele><time>2026-03-28T12:52:52.628Z</time></trkpt><trkpt lat="45.5992436" lon="10.7797499"><ele>231.0</ele><time>2026-03-28T12:52:54.616Z</time></trkpt><trkpt lat="45.5991777" lon="10.7796049"><ele>231.0</ele><time>2026-03-28T12:52:55.6Z</time></trkpt><trkpt lat="45.5991056" lon="10.7794557"><ele>231.25</ele><time>2026-03-28T12:52:56.602Z</time></trkpt><trkpt lat="45.5990286" lon="10.779283"><ele>231.5</ele><time>2026-03-28T12:52:57.605Z</time></trkpt><trkpt lat="45.5989467" lon="10.7791122"><ele>231.75</ele><time>2026-03-28T12:52:58.612Z</time></trkpt><trkpt lat="45.5988619" lon="10.7789278"><ele>232.0</ele><time>2026-03-28T12:52:59.612Z</time></trkpt><trkpt lat="45.5987885" lon="10.7787443"><ele>232.0</ele><time>2026-03-28T12:53:00.606Z</time></trkpt><trkpt lat="45.5986962" lon="10.7785641"><ele>232.0</ele><time>2026-03-28T12:53:01.615Z</time></trkpt><trkpt lat="45.5986052" lon="10.7783728"><ele>232.0</ele><time>2026-03-28T12:53:02.608Z</time></trkpt><trkpt lat="45.5985091" lon="10.7781724"><ele>232.0</ele><time>2026-03-28T12:53:03.616Z</time></trkpt><trkpt lat="45.5984037" lon="10.7779552"><ele>232.0</ele><time>2026-03-28T12:53:04.613Z</time></trkpt><trkpt lat="45.5983047" lon="10.7777458"><ele>232.0</ele><time>2026-03-28T12:53:05.61Z</time></trkpt><trkpt lat="45.5982131" lon="10.777534"><ele>232.0</ele><time>2026-03-28T12:53:06.612Z</time></trkpt><trkpt lat="45.5981238" lon="10.7773168"><ele>232.0</ele><time>2026-03-28T12:53:07.615Z</time></trkpt><trkpt lat="45.5980461" lon="10.7771004"><ele>232.0</ele><time>2026-03-28T12:53:08.612Z</time></trkpt><trkpt lat="45.5979674" lon="10.7768751"><ele>232.33333333333331</ele><time>2026-03-28T12:53:09.623Z</time></trkpt><trkpt lat="45.5978929" lon="10.7766377"><ele>232.66666666666669</ele><time>2026-03-28T12:53:10.628Z</time></trkpt><trkpt lat="45.5978335" lon="10.7764377"><ele>233.0</ele><time>2026-03-28T12:53:11.612Z</time></trkpt><trkpt lat="45.5977722" lon="10.7762487"><ele>232.5</ele><time>2026-03-28T12:53:12.614Z</time></trkpt><trkpt lat="45.5977143" lon="10.776061"><ele>232.0</ele><time>2026-03-28T12:53:13.616Z</time></trkpt><trkpt lat="45.5976645" lon="10.7758889"><ele>231.5</ele><time>2026-03-28T12:53:14.614Z</time></trkpt><trkpt lat="45.597615" lon="10.7757192"><ele>231.0</ele><time>2026-03-28T12:53:15.619Z</time></trkpt><trkpt lat="45.5975494" lon="10.775544"><ele>230.25</ele><time>2026-03-28T12:53:16.614Z</time></trkpt><trkpt lat="45.5974887" lon="10.775336"><ele>229.5</ele><time>2026-03-28T12:53:17.617Z</time></trkpt><trkpt lat="45.5974245" lon="10.7751393"><ele>228.75</ele><time>2026-03-28T12:53:18.608Z</time></trkpt><trkpt lat="45.5973687" lon="10.7749924"><ele>228.0</ele><time>2026-03-28T12:53:19.619Z</time></trkpt><trkpt lat="45.5973225" lon="10.774848"><ele>228.0</ele><time>2026-03-28T12:53:20.609Z</time></trkpt><trkpt lat="45.5972684" lon="10.7747079"><ele>228.0</ele><time>2026-03-28T12:53:21.607Z</time></trkpt><trkpt lat="45.5972195" lon="10.7745761"><ele>228.0</ele><time>2026-03-28T12:53:22.613Z</time></trkpt><trkpt lat="45.5971826" lon="10.7744437"><ele>228.0</ele><time>2026-03-28T12:53:23.607Z</time></trkpt><trkpt lat="45.5971624" lon="10.7743135"><ele>228.0</ele><time>2026-03-28T12:53:24.611Z</time></trkpt><trkpt lat="45.5971694" lon="10.7742101"><ele>228.0</ele><time>2026-03-28T12:53:25.621Z</time></trkpt><trkpt lat="45.5971659" lon="10.774096"><ele>227.99999999999997</ele><time>2026-03-28T12:53:26.612Z</time></trkpt><trkpt lat="45.5971513" lon="10.7739891"><ele>228.0</ele><time>2026-03-28T12:53:27.605Z</time></trkpt><trkpt lat="45.5971169" lon="10.7738999"><ele>228.0</ele><time>2026-03-28T12:53:28.619Z</time></trkpt><trkpt lat="45.5970665" lon="10.7738283"><ele>227.99999999999997</ele><time>2026-03-28T12:53:29.621Z</time></trkpt><trkpt lat="45.5970028" lon="10.7738078"><ele>228.0</ele><time>2026-03-28T12:53:30.619Z</time></trkpt><trkpt lat="45.5969395" lon="10.773854"><ele>228.0</ele><time>2026-03-28T12:53:31.624Z</time></trkpt><trkpt lat="45.5968722" lon="10.7739256"><ele>227.2</ele><time>2026-03-28T12:53:32.622Z</time></trkpt><trkpt lat="45.5968055" lon="10.7740187"><ele>226.4</ele><time>2026-03-28T12:53:33.618Z</time></trkpt><trkpt lat="45.5967217" lon="10.7741045"><ele>225.59999999999997</ele><time>2026-03-28T12:53:34.618Z</time></trkpt><trkpt lat="45.596628" lon="10.7741813"><ele>224.79999999999998</ele><time>2026-03-28T12:53:35.621Z</time></trkpt><trkpt lat="45.5965437" lon="10.7742395"><ele>224.0</ele><time>2026-03-28T12:53:36.616Z</time></trkpt><trkpt lat="45.5964713" lon="10.774294"><ele>224.0</ele><time>2026-03-28T12:53:37.621Z</time></trkpt><trkpt lat="45.5963936" lon="10.7743792"><ele>223.99999999999997</ele><time>2026-03-28T12:53:38.621Z</time></trkpt><trkpt lat="45.5963213" lon="10.7744841"><ele>223.99999999999997</ele><time>2026-03-28T12:53:39.618Z</time></trkpt><trkpt lat="45.5962461" lon="10.7746013"><ele>224.0</ele><time>2026-03-28T12:53:40.617Z</time></trkpt><trkpt lat="45.596168" lon="10.7747195"><ele>224.0</ele><time>2026-03-28T12:53:41.625Z</time></trkpt><trkpt lat="45.5960866" lon="10.7748485"><ele>223.75</ele><time>2026-03-28T12:53:42.607Z</time></trkpt><trkpt lat="45.596006" lon="10.7749938"><ele>223.5</ele><time>2026-03-28T12:53:43.611Z</time></trkpt><trkpt lat="45.5959016" lon="10.7751321"><ele>223.25</ele><time>2026-03-28T12:53:44.605Z</time></trkpt><trkpt lat="45.5957855" lon="10.7752447"><ele>223.0</ele><time>2026-03-28T12:53:45.615Z</time></trkpt><trkpt lat="45.5956482" lon="10.775333"><ele>223.75</ele><time>2026-03-28T12:53:46.613Z</time></trkpt><trkpt lat="45.5955008" lon="10.7754247"><ele>224.5</ele><time>2026-03-28T12:53:47.612Z</time></trkpt><trkpt lat="45.5953744" lon="10.7755291"><ele>225.25</ele><time>2026-03-28T12:53:48.613Z</time></trkpt><trkpt lat="45.5952705" lon="10.7756361"><ele>226.0</ele><time>2026-03-28T12:53:49.618Z</time></trkpt><trkpt lat="45.5951654" lon="10.7757249"><ele>226.0</ele><time>2026-03-28T12:53:50.616Z</time></trkpt><trkpt lat="45.5950672" lon="10.7758224"><ele>226.00000000000003</ele><time>2026-03-28T12:53:51.621Z</time></trkpt><trkpt lat="45.5949869" lon="10.7758869"><ele>226.00000000000003</ele><time>2026-03-28T12:53:52.62Z</time></trkpt><trkpt lat="45.5949028" lon="10.7759566"><ele>226.0</ele><time>2026-03-28T12:53:53.617Z</time></trkpt><trkpt lat="45.5947993" lon="10.7760391"><ele>226.0</ele><time>2026-03-28T12:53:55.613Z</time></trkpt><trkpt lat="45.5947311" lon="10.776078"><ele>226.16666666666666</ele><time>2026-03-28T12:53:56.618Z</time></trkpt><trkpt lat="45.5946608" lon="10.7761183"><ele>226.33333333333331</ele><time>2026-03-28T12:53:57.612Z</time></trkpt><trkpt lat="45.5945947" lon="10.7761426"><ele>226.5</ele><time>2026-03-28T12:53:58.62Z</time></trkpt><trkpt lat="45.5945241" lon="10.7761256"><ele>226.66666666666669</ele><time>2026-03-28T12:53:59.624Z</time></trkpt><trkpt lat="45.5944478" lon="10.7760625"><ele>226.83333333333334</ele><time>2026-03-28T12:54:00.608Z</time></trkpt><trkpt lat="45.5943815" lon="10.7759516"><ele>227.0</ele><time>2026-03-28T12:54:01.621Z</time></trkpt><trkpt lat="45.594298" lon="10.7758189"><ele>226.33333333333334</ele><time>2026-03-28T12:54:02.606Z</time></trkpt><trkpt lat="45.594203" lon="10.7756718"><ele>225.66666666666669</ele><time>2026-03-28T12:54:03.612Z</time></trkpt><trkpt lat="45.5940941" lon="10.7755105"><ele>225.0</ele><time>2026-03-28T12:54:04.613Z</time></trkpt><trkpt lat="45.5939608" lon="10.7753413"><ele>224.66666666666669</ele><time>2026-03-28T12:54:05.617Z</time></trkpt><trkpt lat="45.5938372" lon="10.775174"><ele>224.33333333333334</ele><time>2026-03-28T12:54:06.612Z</time></trkpt><trkpt lat="45.593716" lon="10.7750151"><ele>224.0</ele><time>2026-03-28T12:54:07.617Z</time></trkpt><trkpt lat="45.5935977" lon="10.7748838"><ele>224.0</ele><time>2026-03-28T12:54:08.619Z</time></trkpt><trkpt lat="45.5934811" lon="10.7747533"><ele>224.0</ele><time>2026-03-28T12:54:09.603Z</time></trkpt><trkpt lat="45.5933727" lon="10.7746606"><ele>224.0</ele><time>2026-03-28T12:54:10.607Z</time></trkpt><trkpt lat="45.5932383" lon="10.7745825"><ele>224.0</ele><time>2026-03-28T12:54:11.603Z</time></trkpt><trkpt lat="45.593086" lon="10.774513"><ele>224.0</ele><time>2026-03-28T12:54:12.643Z</time></trkpt><trkpt lat="45.5929121" lon="10.7744261"><ele>224.0</ele><time>2026-03-28T12:54:13.639Z</time></trkpt><trkpt lat="45.592734" lon="10.7743424"><ele>224.0</ele><time>2026-03-28T12:54:15.71Z</time></trkpt><trkpt lat="45.5925621" lon="10.7742512"><ele>224.33333333333334</ele><time>2026-03-28T12:54:16.709Z</time></trkpt><trkpt lat="45.592389" lon="10.7741527"><ele>224.66666666666669</ele><time>2026-03-28T12:54:17.708Z</time></trkpt><trkpt lat="45.592222" lon="10.7740537"><ele>225.0</ele><time>2026-03-28T12:54:18.702Z</time></trkpt><trkpt lat="45.5920602" lon="10.7739643"><ele>224.33333333333331</ele><time>2026-03-28T12:54:19.695Z</time></trkpt><trkpt lat="45.5919037" lon="10.7738877"><ele>223.66666666666666</ele><time>2026-03-28T12:54:20.703Z</time></trkpt><trkpt lat="45.5917524" lon="10.7738112"><ele>223.0</ele><time>2026-03-28T12:54:21.706Z</time></trkpt><trkpt lat="45.5915937" lon="10.7737234"><ele>223.0</ele><time>2026-03-28T12:54:22.711Z</time></trkpt><trkpt lat="45.5914405" lon="10.7736415"><ele>223.0</ele><time>2026-03-28T12:54:23.705Z</time></trkpt><trkpt lat="45.5912938" lon="10.7735677"><ele>223.0</ele><time>2026-03-28T12:54:24.707Z</time></trkpt><trkpt lat="45.5911485" lon="10.7734956"><ele>222.33333333333331</ele><time>2026-03-28T12:54:25.708Z</time></trkpt><trkpt lat="45.5909106" lon="10.773375"><ele>221.66666666666669</ele><time>2026-03-28T12:54:26.613Z</time></trkpt><trkpt lat="45.59079" lon="10.773282"><ele>221.0</ele><time>2026-03-28T12:54:27.618Z</time></trkpt><trkpt lat="45.5906884" lon="10.7731661"><ele>221.0</ele><time>2026-03-28T12:54:28.613Z</time></trkpt><trkpt lat="45.590602" lon="10.7730436"><ele>221.00000000000003</ele><time>2026-03-28T12:54:29.614Z</time></trkpt><trkpt lat="45.5905261" lon="10.7729388"><ele>221.00000000000003</ele><time>2026-03-28T12:54:30.616Z</time></trkpt><trkpt lat="45.5904851" lon="10.7728492"><ele>221.0</ele><time>2026-03-28T12:54:31.611Z</time></trkpt><trkpt lat="45.5904391" lon="10.7726982"><ele>221.0</ele><time>2026-03-28T12:54:33.618Z</time></trkpt><trkpt lat="45.5904406" lon="10.7726016"><ele>221.0</ele><time>2026-03-28T12:54:34.61Z</time></trkpt><trkpt lat="45.5904791" lon="10.7724866"><ele>221.0</ele><time>2026-03-28T12:54:35.614Z</time></trkpt><trkpt lat="45.5905455" lon="10.7723531"><ele>221.0</ele><time>2026-03-28T12:54:36.608Z</time></trkpt><trkpt lat="45.5906272" lon="10.7722132"><ele>221.0</ele><time>2026-03-28T12:54:37.615Z</time></trkpt><trkpt lat="45.5907116" lon="10.7720774"><ele>221.0</ele><time>2026-03-28T12:54:38.613Z</time></trkpt><trkpt lat="45.5907924" lon="10.7719443"><ele>221.0</ele><time>2026-03-28T12:54:39.612Z</time></trkpt><trkpt lat="45.5908719" lon="10.7718043"><ele>221.0</ele><time>2026-03-28T12:54:40.608Z</time></trkpt><trkpt lat="45.5909406" lon="10.7716464"><ele>221.0</ele><time>2026-03-28T12:54:41.608Z</time></trkpt><trkpt lat="45.5910089" lon="10.7714829"><ele>220.60000000000002</ele><time>2026-03-28T12:54:42.631Z</time></trkpt><trkpt lat="45.5910734" lon="10.7713259"><ele>220.20000000000002</ele><time>2026-03-28T12:54:43.61Z</time></trkpt><trkpt lat="45.5911265" lon="10.7711977"><ele>219.79999999999998</ele><time>2026-03-28T12:54:44.612Z</time></trkpt><trkpt lat="45.5911595" lon="10.7710816"><ele>219.39999999999998</ele><time>2026-03-28T12:54:45.622Z</time></trkpt><trkpt lat="45.5911577" lon="10.7709256"><ele>219.0</ele><time>2026-03-28T12:54:46.617Z</time></trkpt><trkpt lat="45.5911284" lon="10.7707743"><ele>219.0</ele><time>2026-03-28T12:54:47.61Z</time></trkpt><trkpt lat="45.591098" lon="10.7706198"><ele>219.0</ele><time>2026-03-28T12:54:48.615Z</time></trkpt><trkpt lat="45.5910867" lon="10.7704565"><ele>219.0</ele><time>2026-03-28T12:54:49.606Z</time></trkpt><trkpt lat="45.5910856" lon="10.770291"><ele>219.0</ele><time>2026-03-28T12:54:50.617Z</time></trkpt><trkpt lat="45.5910997" lon="10.7701157"><ele>219.0</ele><time>2026-03-28T12:54:51.608Z</time></trkpt><trkpt lat="45.5911329" lon="10.7699293"><ele>219.0</ele><time>2026-03-28T12:54:52.61Z</time></trkpt><trkpt lat="45.5911838" lon="10.7697422"><ele>219.0</ele><time>2026-03-28T12:54:53.619Z</time></trkpt><trkpt lat="45.591245" lon="10.7695415"><ele>219.0</ele><time>2026-03-28T12:54:54.617Z</time></trkpt><trkpt lat="45.5913071" lon="10.7693626"><ele>218.5</ele><time>2026-03-28T12:54:55.618Z</time></trkpt><trkpt lat="45.5913737" lon="10.7691878"><ele>218.0</ele><time>2026-03-28T12:54:56.62Z</time></trkpt><trkpt lat="45.5914323" lon="10.7690209"><ele>217.5</ele><time>2026-03-28T12:54:57.618Z</time></trkpt><trkpt lat="45.5914758" lon="10.7688591"><ele>217.0</ele><time>2026-03-28T12:54:58.624Z</time></trkpt><trkpt lat="45.5915033" lon="10.768707"><ele>217.0</ele><time>2026-03-28T12:54:59.617Z</time></trkpt><trkpt lat="45.5915331" lon="10.768555"><ele>217.0</ele><time>2026-03-28T12:55:00.628Z</time></trkpt><trkpt lat="45.5915539" lon="10.7684241"><ele>217.0</ele><time>2026-03-28T12:55:01.639Z</time></trkpt><trkpt lat="45.5915611" lon="10.7682956"><ele>217.0</ele><time>2026-03-28T12:55:02.615Z</time></trkpt><trkpt lat="45.591566" lon="10.7681297"><ele>217.0</ele><time>2026-03-28T12:55:03.628Z</time></trkpt><trkpt lat="45.5915599" lon="10.7679547"><ele>217.0</ele><time>2026-03-28T12:55:04.614Z</time></trkpt><trkpt lat="45.5915407" lon="10.7677751"><ele>217.0</ele><time>2026-03-28T12:55:05.613Z</time></trkpt><trkpt lat="45.5915278" lon="10.7676071"><ele>217.0</ele><time>2026-03-28T12:55:06.621Z</time></trkpt><trkpt lat="45.5915257" lon="10.7674289"><ele>217.0</ele><time>2026-03-28T12:55:07.627Z</time></trkpt><trkpt lat="45.5915381" lon="10.7672362"><ele>217.25</ele><time>2026-03-28T12:55:08.616Z</time></trkpt><trkpt lat="45.5915699" lon="10.7670409"><ele>217.5</ele><time>2026-03-28T12:55:09.615Z</time></trkpt><trkpt lat="45.5916166" lon="10.7668515"><ele>217.75</ele><time>2026-03-28T12:55:10.618Z</time></trkpt><trkpt lat="45.5916784" lon="10.7666915"><ele>218.0</ele><time>2026-03-28T12:55:11.611Z</time></trkpt><trkpt lat="45.5917704" lon="10.766524"><ele>217.5</ele><time>2026-03-28T12:55:12.626Z</time></trkpt><trkpt lat="45.5918413" lon="10.7663389"><ele>217.0</ele><time>2026-03-28T12:55:13.639Z</time></trkpt><trkpt lat="45.5919088" lon="10.7661744"><ele>216.5</ele><time>2026-03-28T12:55:14.618Z</time></trkpt><trkpt lat="45.5919754" lon="10.7660165"><ele>216.0</ele><time>2026-03-28T12:55:15.63Z</time></trkpt><trkpt lat="45.5920398" lon="10.7658789"><ele>216.0</ele><time>2026-03-28T12:55:16.619Z</time></trkpt><trkpt lat="45.5921174" lon="10.765739"><ele>216.0</ele><time>2026-03-28T12:55:17.618Z</time></trkpt><trkpt lat="45.5921955" lon="10.7656111"><ele>216.0</ele><time>2026-03-28T12:55:18.625Z</time></trkpt><trkpt lat="45.5922819" lon="10.7654785"><ele>216.0</ele><time>2026-03-28T12:55:19.627Z</time></trkpt><trkpt lat="45.5923763" lon="10.7653408"><ele>216.0</ele><time>2026-03-28T12:55:20.626Z</time></trkpt><trkpt lat="45.5924649" lon="10.7652025"><ele>216.00000000000003</ele><time>2026-03-28T12:55:21.619Z</time></trkpt><trkpt lat="45.5925349" lon="10.7650779"><ele>216.00000000000003</ele><time>2026-03-28T12:55:22.619Z</time></trkpt><trkpt lat="45.5925807" lon="10.7649704"><ele>216.0</ele><time>2026-03-28T12:55:23.612Z</time></trkpt><trkpt lat="45.5926171" lon="10.7648866"><ele>216.0</ele><time>2026-03-28T12:55:24.616Z</time></trkpt><trkpt lat="45.592644" lon="10.7648031"><ele>216.0</ele><time>2026-03-28T12:55:25.616Z</time></trkpt><trkpt lat="45.5926476" lon="10.7646774"><ele>216.00000000000003</ele><time>2026-03-28T12:55:27.62Z</time></trkpt><trkpt lat="45.5926405" lon="10.7645324"><ele>216.00000000000003</ele><time>2026-03-28T12:55:29.63Z</time></trkpt><trkpt lat="45.5927169" lon="10.7643955"><ele>216.0</ele><time>2026-03-28T12:55:31.622Z</time></trkpt><trkpt lat="45.5927648" lon="10.7643153"><ele>216.0</ele><time>2026-03-28T12:55:32.617Z</time></trkpt><trkpt lat="45.5928331" lon="10.7642061"><ele>216.0</ele><time>2026-03-28T12:55:33.618Z</time></trkpt><trkpt lat="45.5929098" lon="10.7641108"><ele>216.0</ele><time>2026-03-28T12:55:34.61Z</time></trkpt><trkpt lat="45.5929782" lon="10.7640433"><ele>216.0</ele><time>2026-03-28T12:55:35.62Z</time></trkpt><trkpt lat="45.593037" lon="10.7639836"><ele>216.0</ele><time>2026-03-28T12:55:36.615Z</time></trkpt><trkpt lat="45.5930904" lon="10.7639297"><ele>216.0</ele><time>2026-03-28T12:55:37.612Z</time></trkpt><trkpt lat="45.5931726" lon="10.7638696"><ele>216.0</ele><time>2026-03-28T12:55:39.624Z</time></trkpt><trkpt lat="45.5932213" lon="10.7637608"><ele>216.0</ele><time>2026-03-28T12:55:53.635Z</time></trkpt><trkpt lat="45.5932724" lon="10.7636372"><ele>216.0</ele><time>2026-03-28T12:55:54.619Z</time></trkpt><trkpt lat="45.5933478" lon="10.763455"><ele>216.0</ele><time>2026-03-28T12:55:55.612Z</time></trkpt><trkpt lat="45.593421" lon="10.7632439"><ele>216.0</ele><time>2026-03-28T12:55:56.626Z</time></trkpt><trkpt lat="45.5934877" lon="10.7630495"><ele>216.0</ele><time>2026-03-28T12:55:57.626Z</time></trkpt><trkpt lat="45.5935476" lon="10.7628559"><ele>216.0</ele><time>2026-03-28T12:55:58.615Z</time></trkpt><trkpt lat="45.5935989" lon="10.7626512"><ele>216.0</ele><time>2026-03-28T12:55:59.63Z</time></trkpt><trkpt lat="45.5936412" lon="10.7624269"><ele>216.0</ele><time>2026-03-28T12:56:00.615Z</time></trkpt><trkpt lat="45.593666" lon="10.762222"><ele>216.0</ele><time>2026-03-28T12:56:01.628Z</time></trkpt><trkpt lat="45.5936876" lon="10.7620185"><ele>216.0</ele><time>2026-03-28T12:56:02.626Z</time></trkpt><trkpt lat="45.5937007" lon="10.7618126"><ele>216.0</ele><time>2026-03-28T12:56:03.624Z</time></trkpt><trkpt lat="45.5937131" lon="10.7616157"><ele>216.0</ele><time>2026-03-28T12:56:04.627Z</time></trkpt><trkpt lat="45.59372" lon="10.7614124"><ele>216.0</ele><time>2026-03-28T12:56:05.617Z</time></trkpt><trkpt lat="45.5937235" lon="10.7611984"><ele>216.0</ele><time>2026-03-28T12:56:06.622Z</time></trkpt><trkpt lat="45.5937259" lon="10.7609835"><ele>216.0</ele><time>2026-03-28T12:56:07.626Z</time></trkpt><trkpt lat="45.5937317" lon="10.7607696"><ele>216.0</ele><time>2026-03-28T12:56:08.621Z</time></trkpt><trkpt lat="45.5937348" lon="10.7605502"><ele>216.0</ele><time>2026-03-28T12:56:09.622Z</time></trkpt><trkpt lat="45.5937358" lon="10.760327"><ele>216.0</ele><time>2026-03-28T12:56:10.627Z</time></trkpt><trkpt lat="45.5937386" lon="10.7601043"><ele>216.66666666666669</ele><time>2026-03-28T12:56:11.622Z</time></trkpt><trkpt lat="45.5937409" lon="10.7598662"><ele>217.33333333333334</ele><time>2026-03-28T12:56:12.624Z</time></trkpt><trkpt lat="45.5937467" lon="10.7596472"><ele>218.0</ele><time>2026-03-28T12:56:13.608Z</time></trkpt><trkpt lat="45.5937539" lon="10.7594466"><ele>219.0</ele><time>2026-03-28T12:56:14.616Z</time></trkpt><trkpt lat="45.5937701" lon="10.7592724"><ele>220.0</ele><time>2026-03-28T12:56:15.642Z</time></trkpt><trkpt lat="45.5937879" lon="10.7590854"><ele>221.0</ele><time>2026-03-28T12:56:16.612Z</time></trkpt><trkpt lat="45.5938053" lon="10.7588949"><ele>222.0</ele><time>2026-03-28T12:56:17.626Z</time></trkpt><trkpt lat="45.5938303" lon="10.7587356"><ele>222.0</ele><time>2026-03-28T12:56:18.618Z</time></trkpt><trkpt lat="45.5938454" lon="10.7585953"><ele>222.0</ele><time>2026-03-28T12:56:19.612Z</time></trkpt><trkpt lat="45.5938557" lon="10.758477"><ele>222.0</ele><time>2026-03-28T12:56:20.615Z</time></trkpt><trkpt lat="45.5939202" lon="10.7583065"><ele>222.0</ele><time>2026-03-28T12:56:22.628Z</time></trkpt><trkpt lat="45.593961" lon="10.7582217"><ele>222.0</ele><time>2026-03-28T12:56:23.615Z</time></trkpt><trkpt lat="45.5939953" lon="10.758116"><ele>221.5</ele><time>2026-03-28T12:56:24.611Z</time></trkpt><trkpt lat="45.5940364" lon="10.7579784"><ele>221.0</ele><time>2026-03-28T12:56:25.609Z</time></trkpt><trkpt lat="45.594085" lon="10.7578058"><ele>220.5</ele><time>2026-03-28T12:56:26.614Z</time></trkpt><trkpt lat="45.5941394" lon="10.7576117"><ele>220.0</ele><time>2026-03-28T12:56:27.611Z</time></trkpt><trkpt lat="45.5941984" lon="10.7573995"><ele>220.0</ele><time>2026-03-28T12:56:28.621Z</time></trkpt><trkpt lat="45.5942599" lon="10.7571737"><ele>220.0</ele><time>2026-03-28T12:56:29.626Z</time></trkpt><trkpt lat="45.5943085" lon="10.7569788"><ele>220.0</ele><time>2026-03-28T12:56:30.623Z</time></trkpt><trkpt lat="45.5943584" lon="10.7568035"><ele>220.0</ele><time>2026-03-28T12:56:31.628Z</time></trkpt><trkpt lat="45.5944014" lon="10.7566209"><ele>220.0</ele><time>2026-03-28T12:56:32.622Z</time></trkpt><trkpt lat="45.5944438" lon="10.7564253"><ele>220.0</ele><time>2026-03-28T12:56:33.614Z</time></trkpt><trkpt lat="45.5945044" lon="10.7562094"><ele>220.0</ele><time>2026-03-28T12:56:34.614Z</time></trkpt><trkpt lat="45.5945744" lon="10.7559784"><ele>221.66666666666666</ele><time>2026-03-28T12:56:35.62Z</time></trkpt><trkpt lat="45.594653" lon="10.7557545"><ele>223.33333333333331</ele><time>2026-03-28T12:56:36.615Z</time></trkpt><trkpt lat="45.5947373" lon="10.7555456"><ele>225.0</ele><time>2026-03-28T12:56:37.614Z</time></trkpt><trkpt lat="45.5948293" lon="10.7553442"><ele>225.25</ele><time>2026-03-28T12:56:38.622Z</time></trkpt><trkpt lat="45.5949036" lon="10.7551592"><ele>225.5</ele><time>2026-03-28T12:56:39.615Z</time></trkpt><trkpt lat="45.5949722" lon="10.754997"><ele>225.75</ele><time>2026-03-28T12:56:40.618Z</time></trkpt><trkpt lat="45.5950356" lon="10.7548206"><ele>226.0</ele><time>2026-03-28T12:56:41.621Z</time></trkpt><trkpt lat="45.5950946" lon="10.7546276"><ele>226.0</ele><time>2026-03-28T12:56:42.62Z</time></trkpt><trkpt lat="45.5951396" lon="10.7544499"><ele>226.0</ele><time>2026-03-28T12:56:43.615Z</time></trkpt><trkpt lat="45.5951868" lon="10.7542829"><ele>226.0</ele><time>2026-03-28T12:56:44.615Z</time></trkpt><trkpt lat="45.5952122" lon="10.7541199"><ele>226.0</ele><time>2026-03-28T12:56:45.613Z</time></trkpt><trkpt lat="45.5952477" lon="10.7539759"><ele>226.16666666666666</ele><time>2026-03-28T12:56:46.639Z</time></trkpt><trkpt lat="45.5952801" lon="10.7538314"><ele>226.33333333333331</ele><time>2026-03-28T12:56:47.608Z</time></trkpt><trkpt lat="45.5952991" lon="10.7537025"><ele>226.5</ele><time>2026-03-28T12:56:48.617Z</time></trkpt><trkpt lat="45.5953217" lon="10.7535833"><ele>226.66666666666669</ele><time>2026-03-28T12:56:49.614Z</time></trkpt><trkpt lat="45.59534" lon="10.7534721"><ele>226.83333333333334</ele><time>2026-03-28T12:56:50.612Z</time></trkpt><trkpt lat="45.5953526" lon="10.7533799"><ele>227.0</ele><time>2026-03-28T12:56:51.615Z</time></trkpt><trkpt lat="45.5953698" lon="10.7532509"><ele>228.16666666666669</ele><time>2026-03-28T12:56:53.622Z</time></trkpt><trkpt lat="45.5954797" lon="10.7531844"><ele>229.33333333333334</ele><time>2026-03-28T12:56:55.614Z</time></trkpt><trkpt lat="45.5955604" lon="10.7531794"><ele>230.5</ele><time>2026-03-28T12:56:56.612Z</time></trkpt><trkpt lat="45.5956422" lon="10.7531602"><ele>231.66666666666669</ele><time>2026-03-28T12:56:57.62Z</time></trkpt><trkpt lat="45.5957267" lon="10.7531433"><ele>232.83333333333334</ele><time>2026-03-28T12:56:58.619Z</time></trkpt><trkpt lat="45.5957879" lon="10.7531222"><ele>234.0</ele><time>2026-03-28T12:56:59.619Z</time></trkpt><trkpt lat="45.5958629" lon="10.7530947"><ele>234.0</ele><time>2026-03-28T12:57:01.633Z</time></trkpt><trkpt lat="45.5959118" lon="10.7530358"><ele>233.99999999999997</ele><time>2026-03-28T12:57:05.632Z</time></trkpt><trkpt lat="45.5958797" lon="10.7529395"><ele>233.99999999999997</ele><time>2026-03-28T12:57:09.639Z</time></trkpt><trkpt lat="45.5958129" lon="10.7528756"><ele>234.0</ele><time>2026-03-28T12:57:10.625Z</time></trkpt><trkpt lat="45.5957094" lon="10.7527891"><ele>234.0</ele><time>2026-03-28T12:57:11.619Z</time></trkpt><trkpt lat="45.5955823" lon="10.7527009"><ele>233.33333333333331</ele><time>2026-03-28T12:57:12.62Z</time></trkpt><trkpt lat="45.5954563" lon="10.7525998"><ele>232.66666666666666</ele><time>2026-03-28T12:57:13.611Z</time></trkpt><trkpt lat="45.5953271" lon="10.7524876"><ele>232.0</ele><time>2026-03-28T12:57:14.608Z</time></trkpt><trkpt lat="45.5951824" lon="10.7523671"><ele>231.0</ele><time>2026-03-28T12:57:15.618Z</time></trkpt><trkpt lat="45.5950346" lon="10.7522403"><ele>230.0</ele><time>2026-03-28T12:57:16.625Z</time></trkpt><trkpt lat="45.5949049" lon="10.7521012"><ele>229.0</ele><time>2026-03-28T12:57:17.635Z</time></trkpt><trkpt lat="45.594793" lon="10.7519592"><ele>229.0</ele><time>2026-03-28T12:57:18.62Z</time></trkpt><trkpt lat="45.5946718" lon="10.7518119"><ele>229.0</ele><time>2026-03-28T12:57:19.621Z</time></trkpt><trkpt lat="45.5945255" lon="10.7516771"><ele>229.0</ele><time>2026-03-28T12:57:20.621Z</time></trkpt><trkpt lat="45.5943762" lon="10.751538"><ele>227.33333333333331</ele><time>2026-03-28T12:57:21.623Z</time></trkpt><trkpt lat="45.5942298" lon="10.7514016"><ele>225.66666666666669</ele><time>2026-03-28T12:57:22.622Z</time></trkpt><trkpt lat="45.5940905" lon="10.7512613"><ele>224.0</ele><time>2026-03-28T12:57:23.627Z</time></trkpt><trkpt lat="45.5939444" lon="10.7511086"><ele>224.0</ele><time>2026-03-28T12:57:24.631Z</time></trkpt><trkpt lat="45.5937939" lon="10.7509624"><ele>224.0</ele><time>2026-03-28T12:57:25.623Z</time></trkpt><trkpt lat="45.593653" lon="10.7508229"><ele>224.0</ele><time>2026-03-28T12:57:26.622Z</time></trkpt><trkpt lat="45.593512" lon="10.7506932"><ele>224.0</ele><time>2026-03-28T12:57:27.623Z</time></trkpt><trkpt lat="45.5933694" lon="10.7505559"><ele>224.0</ele><time>2026-03-28T12:57:28.623Z</time></trkpt><trkpt lat="45.5932038" lon="10.7504265"><ele>224.0</ele><time>2026-03-28T12:57:29.616Z</time></trkpt><trkpt lat="45.593045" lon="10.7503097"><ele>224.0</ele><time>2026-03-28T12:57:30.62Z</time></trkpt><trkpt lat="45.5928853" lon="10.7501942"><ele>224.0</ele><time>2026-03-28T12:57:31.633Z</time></trkpt><trkpt lat="45.5927321" lon="10.7500851"><ele>224.0</ele><time>2026-03-28T12:57:32.612Z</time></trkpt><trkpt lat="45.5925793" lon="10.7499814"><ele>223.33333333333334</ele><time>2026-03-28T12:57:33.646Z</time></trkpt><trkpt lat="45.5924224" lon="10.7498854"><ele>222.66666666666669</ele><time>2026-03-28T12:57:34.63Z</time></trkpt><trkpt lat="45.5922722" lon="10.7497758"><ele>222.0</ele><time>2026-03-28T12:57:36.704Z</time></trkpt><trkpt lat="45.592121" lon="10.7496625"><ele>222.0</ele><time>2026-03-28T12:57:37.711Z</time></trkpt><trkpt lat="45.5919653" lon="10.7495458"><ele>222.0</ele><time>2026-03-28T12:57:38.707Z</time></trkpt><trkpt lat="45.5918164" lon="10.7494223"><ele>222.0</ele><time>2026-03-28T12:57:39.709Z</time></trkpt><trkpt lat="45.5916693" lon="10.7492947"><ele>222.0</ele><time>2026-03-28T12:57:40.711Z</time></trkpt><trkpt lat="45.5915209" lon="10.7491638"><ele>222.0</ele><time>2026-03-28T12:57:41.712Z</time></trkpt><trkpt lat="45.5913702" lon="10.749034"><ele>222.0</ele><time>2026-03-28T12:57:42.714Z</time></trkpt><trkpt lat="45.5912159" lon="10.7489032"><ele>222.0</ele><time>2026-03-28T12:57:43.707Z</time></trkpt><trkpt lat="45.5910663" lon="10.7487774"><ele>222.0</ele><time>2026-03-28T12:57:44.708Z</time></trkpt><trkpt lat="45.5909209" lon="10.7486548"><ele>222.0</ele><time>2026-03-28T12:57:45.716Z</time></trkpt><trkpt lat="45.5907777" lon="10.7485358"><ele>222.0</ele><time>2026-03-28T12:57:46.714Z</time></trkpt><trkpt lat="45.5906439" lon="10.7484324"><ele>222.0</ele><time>2026-03-28T12:57:47.705Z</time></trkpt><trkpt lat="45.5905057" lon="10.7483051"><ele>222.0</ele><time>2026-03-28T12:57:48.736Z</time></trkpt><trkpt lat="45.5903698" lon="10.7481891"><ele>222.0</ele><time>2026-03-28T12:57:49.708Z</time></trkpt><trkpt lat="45.5902286" lon="10.748081"><ele>222.0</ele><time>2026-03-28T12:57:50.706Z</time></trkpt><trkpt lat="45.59009" lon="10.7479851"><ele>222.0</ele><time>2026-03-28T12:57:51.709Z</time></trkpt><trkpt lat="45.589959" lon="10.7479072"><ele>222.0</ele><time>2026-03-28T12:57:52.715Z</time></trkpt><trkpt lat="45.5898303" lon="10.7478327"><ele>222.0</ele><time>2026-03-28T12:57:53.712Z</time></trkpt><trkpt lat="45.5896985" lon="10.7477538"><ele>222.0</ele><time>2026-03-28T12:57:54.715Z</time></trkpt><trkpt lat="45.5895614" lon="10.7476708"><ele>222.0</ele><time>2026-03-28T12:57:55.71Z</time></trkpt><trkpt lat="45.5894326" lon="10.7475939"><ele>221.75</ele><time>2026-03-28T12:57:56.722Z</time></trkpt><trkpt lat="45.5893076" lon="10.7475223"><ele>221.5</ele><time>2026-03-28T12:57:57.714Z</time></trkpt><trkpt lat="45.5891896" lon="10.7474503"><ele>221.25</ele><time>2026-03-28T12:57:58.713Z</time></trkpt><trkpt lat="45.5890836" lon="10.7473859"><ele>221.0</ele><time>2026-03-28T12:57:59.715Z</time></trkpt><trkpt lat="45.5889785" lon="10.7473224"><ele>221.0</ele><time>2026-03-28T12:58:00.708Z</time></trkpt><trkpt lat="45.5888735" lon="10.7472571"><ele>221.00000000000003</ele><time>2026-03-28T12:58:01.728Z</time></trkpt><trkpt lat="45.5887778" lon="10.7471941"><ele>221.00000000000003</ele><time>2026-03-28T12:58:02.705Z</time></trkpt><trkpt lat="45.5886891" lon="10.7471375"><ele>221.0</ele><time>2026-03-28T12:58:03.712Z</time></trkpt><trkpt lat="45.5886081" lon="10.7470881"><ele>221.0</ele><time>2026-03-28T12:58:04.708Z</time></trkpt><trkpt lat="45.5885376" lon="10.7470443"><ele>221.00000000000003</ele><time>2026-03-28T12:58:05.713Z</time></trkpt><trkpt lat="45.5884707" lon="10.7470033"><ele>221.0</ele><time>2026-03-28T12:58:06.711Z</time></trkpt><trkpt lat="45.588407" lon="10.7469647"><ele>221.0</ele><time>2026-03-28T12:58:07.707Z</time></trkpt><trkpt lat="45.5883247" lon="10.7469137"><ele>221.0</ele><time>2026-03-28T12:58:09.71Z</time></trkpt><trkpt lat="45.5882624" lon="10.746837"><ele>221.00000000000003</ele><time>2026-03-28T12:58:11.713Z</time></trkpt><trkpt lat="45.5881923" lon="10.7467055"><ele>221.0</ele><time>2026-03-28T12:58:13.709Z</time></trkpt><trkpt lat="45.5880895" lon="10.7466005"><ele>221.60000000000002</ele><time>2026-03-28T12:58:15.712Z</time></trkpt><trkpt lat="45.5880258" lon="10.7465768"><ele>222.20000000000002</ele><time>2026-03-28T12:58:16.682Z</time></trkpt><trkpt lat="45.5879521" lon="10.7465763"><ele>222.79999999999998</ele><time>2026-03-28T12:58:17.688Z</time></trkpt><trkpt lat="45.5878987" lon="10.7466335"><ele>223.39999999999998</ele><time>2026-03-28T12:58:18.692Z</time></trkpt><trkpt lat="45.5878064" lon="10.7468385"><ele>224.0</ele><time>2026-03-28T12:58:19.616Z</time></trkpt><trkpt lat="45.587754" lon="10.7469565"><ele>224.0</ele><time>2026-03-28T12:58:20.633Z</time></trkpt><trkpt lat="45.5876896" lon="10.7470595"><ele>223.99999999999997</ele><time>2026-03-28T12:58:21.623Z</time></trkpt><trkpt lat="45.5876227" lon="10.7471701"><ele>223.99999999999997</ele><time>2026-03-28T12:58:22.62Z</time></trkpt><trkpt lat="45.587542" lon="10.7472881"><ele>224.0</ele><time>2026-03-28T12:58:23.623Z</time></trkpt><trkpt lat="45.5874551" lon="10.7474039"><ele>224.0</ele><time>2026-03-28T12:58:24.62Z</time></trkpt><trkpt lat="45.5873682" lon="10.7475193"><ele>224.0</ele><time>2026-03-28T12:58:25.618Z</time></trkpt><trkpt lat="45.5872846" lon="10.7476107"><ele>223.99999999999997</ele><time>2026-03-28T12:58:26.627Z</time></trkpt><trkpt lat="45.5872064" lon="10.747695"><ele>223.99999999999997</ele><time>2026-03-28T12:58:27.618Z</time></trkpt><trkpt lat="45.5871396" lon="10.7477638"><ele>224.0</ele><time>2026-03-28T12:58:28.612Z</time></trkpt><trkpt lat="45.5870474" lon="10.7478449"><ele>224.0</ele><time>2026-03-28T12:58:30.619Z</time></trkpt><trkpt lat="45.5869643" lon="10.7479193"><ele>223.79999999999998</ele><time>2026-03-28T12:58:37.624Z</time></trkpt><trkpt lat="45.5868552" lon="10.7479835"><ele>223.59999999999997</ele><time>2026-03-28T12:58:39.622Z</time></trkpt><trkpt lat="45.5868023" lon="10.7480599"><ele>223.4</ele><time>2026-03-28T12:58:40.621Z</time></trkpt><trkpt lat="45.586747" lon="10.748145"><ele>223.2</ele><time>2026-03-28T12:58:41.626Z</time></trkpt><trkpt lat="45.5866693" lon="10.7482304"><ele>223.0</ele><time>2026-03-28T12:58:42.621Z</time></trkpt><trkpt lat="45.5865879" lon="10.7483065"><ele>223.0</ele><time>2026-03-28T12:58:43.622Z</time></trkpt><trkpt lat="45.5865047" lon="10.7483858"><ele>223.0</ele><time>2026-03-28T12:58:44.621Z</time></trkpt><trkpt lat="45.5864217" lon="10.7484642"><ele>223.0</ele><time>2026-03-28T12:58:45.623Z</time></trkpt><trkpt lat="45.5863457" lon="10.7485332"><ele>223.0</ele><time>2026-03-28T12:58:46.622Z</time></trkpt><trkpt lat="45.5862638" lon="10.7486081"><ele>223.0</ele><time>2026-03-28T12:58:47.626Z</time></trkpt><trkpt lat="45.5861779" lon="10.7486841"><ele>222.60000000000002</ele><time>2026-03-28T12:58:48.623Z</time></trkpt><trkpt lat="45.5860901" lon="10.7487674"><ele>222.20000000000002</ele><time>2026-03-28T12:58:49.619Z</time></trkpt><trkpt lat="45.5860078" lon="10.7488483"><ele>221.8</ele><time>2026-03-28T12:58:50.657Z</time></trkpt><trkpt lat="45.5859262" lon="10.7489249"><ele>221.4</ele><time>2026-03-28T12:58:51.621Z</time></trkpt><trkpt lat="45.5858449" lon="10.7489926"><ele>221.0</ele><time>2026-03-28T12:58:52.628Z</time></trkpt><trkpt lat="45.5857751" lon="10.7490546"><ele>221.0</ele><time>2026-03-28T12:58:53.629Z</time></trkpt><trkpt lat="45.5857148" lon="10.7490973"><ele>221.00000000000003</ele><time>2026-03-28T12:58:54.611Z</time></trkpt><trkpt lat="45.5856253" lon="10.7491037"><ele>221.00000000000003</ele><time>2026-03-28T12:58:56.622Z</time></trkpt><trkpt lat="45.5855303" lon="10.7490084"><ele>221.0</ele><time>2026-03-28T12:58:58.631Z</time></trkpt><trkpt lat="45.5854398" lon="10.7489543"><ele>221.0</ele><time>2026-03-28T12:58:59.628Z</time></trkpt><trkpt lat="45.5853375" lon="10.7489048"><ele>221.5</ele><time>2026-03-28T12:59:00.622Z</time></trkpt><trkpt lat="45.5852257" lon="10.748899"><ele>222.0</ele><time>2026-03-28T12:59:01.622Z</time></trkpt><trkpt lat="45.5851094" lon="10.7489488"><ele>222.5</ele><time>2026-03-28T12:59:02.613Z</time></trkpt><trkpt lat="45.5849872" lon="10.7490565"><ele>223.0</ele><time>2026-03-28T12:59:03.621Z</time></trkpt><trkpt lat="45.5848642" lon="10.7491955"><ele>223.0</ele><time>2026-03-28T12:59:04.603Z</time></trkpt><trkpt lat="45.5847692" lon="10.7493576"><ele>223.0</ele><time>2026-03-28T12:59:05.604Z</time></trkpt><trkpt lat="45.5846667" lon="10.7494663"><ele>223.0</ele><time>2026-03-28T12:59:06.611Z</time></trkpt><trkpt lat="45.5845931" lon="10.7495225"><ele>223.0</ele><time>2026-03-28T12:59:07.607Z</time></trkpt><trkpt lat="45.5845038" lon="10.74958"><ele>223.25</ele><time>2026-03-28T12:59:08.599Z</time></trkpt><trkpt lat="45.5844024" lon="10.7496145"><ele>223.5</ele><time>2026-03-28T12:59:09.62Z</time></trkpt><trkpt lat="45.5842722" lon="10.749617"><ele>223.75</ele><time>2026-03-28T12:59:10.613Z</time></trkpt><trkpt lat="45.5841348" lon="10.7496203"><ele>224.0</ele><time>2026-03-28T12:59:11.62Z</time></trkpt><trkpt lat="45.5839939" lon="10.749604"><ele>224.0</ele><time>2026-03-28T12:59:12.619Z</time></trkpt><trkpt lat="45.5838376" lon="10.7496032"><ele>224.0</ele><time>2026-03-28T12:59:13.627Z</time></trkpt><trkpt lat="45.5836632" lon="10.7496302"><ele>224.0</ele><time>2026-03-28T12:59:14.618Z</time></trkpt><trkpt lat="45.5835178" lon="10.7496457"><ele>225.0</ele><time>2026-03-28T12:59:15.622Z</time></trkpt><trkpt lat="45.583367" lon="10.7496944"><ele>226.0</ele><time>2026-03-28T12:59:16.626Z</time></trkpt><trkpt lat="45.583207" lon="10.7497432"><ele>227.0</ele><time>2026-03-28T12:59:17.622Z</time></trkpt><trkpt lat="45.5830721" lon="10.7497612"><ele>227.0</ele><time>2026-03-28T12:59:18.633Z</time></trkpt><trkpt lat="45.5829304" lon="10.7497622"><ele>227.0</ele><time>2026-03-28T12:59:19.627Z</time></trkpt><trkpt lat="45.5827824" lon="10.7497522"><ele>227.0</ele><time>2026-03-28T12:59:20.639Z</time></trkpt><trkpt lat="45.5826274" lon="10.7497297"><ele>227.0</ele><time>2026-03-28T12:59:21.612Z</time></trkpt><trkpt lat="45.5824509" lon="10.7496686"><ele>226.33333333333334</ele><time>2026-03-28T12:59:22.621Z</time></trkpt><trkpt lat="45.5822831" lon="10.7496198"><ele>225.66666666666669</ele><time>2026-03-28T12:59:23.623Z</time></trkpt><trkpt lat="45.5821281" lon="10.7495792"><ele>225.0</ele><time>2026-03-28T12:59:24.62Z</time></trkpt><trkpt lat="45.5819888" lon="10.7495339"><ele>224.0</ele><time>2026-03-28T12:59:25.621Z</time></trkpt><trkpt lat="45.5818311" lon="10.7494906"><ele>223.0</ele><time>2026-03-28T12:59:26.625Z</time></trkpt><trkpt lat="45.5816599" lon="10.7494759"><ele>222.0</ele><time>2026-03-28T12:59:27.624Z</time></trkpt><trkpt lat="45.5814916" lon="10.7494582"><ele>222.0</ele><time>2026-03-28T12:59:28.626Z</time></trkpt><trkpt lat="45.5813411" lon="10.7494288"><ele>222.0</ele><time>2026-03-28T12:59:29.622Z</time></trkpt><trkpt lat="45.5812114" lon="10.7493949"><ele>222.0</ele><time>2026-03-28T12:59:30.618Z</time></trkpt><trkpt lat="45.5810634" lon="10.7493927"><ele>222.0</ele><time>2026-03-28T12:59:31.631Z</time></trkpt><trkpt lat="45.5809263" lon="10.7493998"><ele>222.25</ele><time>2026-03-28T12:59:32.62Z</time></trkpt><trkpt lat="45.5807764" lon="10.74944"><ele>222.5</ele><time>2026-03-28T12:59:33.617Z</time></trkpt><trkpt lat="45.5806385" lon="10.7495136"><ele>222.75</ele><time>2026-03-28T12:59:34.612Z</time></trkpt><trkpt lat="45.5805199" lon="10.7495918"><ele>223.0</ele><time>2026-03-28T12:59:35.609Z</time></trkpt><trkpt lat="45.5804166" lon="10.7496793"><ele>224.16666666666666</ele><time>2026-03-28T12:59:36.609Z</time></trkpt><trkpt lat="45.5803283" lon="10.7497495"><ele>225.33333333333331</ele><time>2026-03-28T12:59:37.606Z</time></trkpt><trkpt lat="45.580267" lon="10.7498337"><ele>226.5</ele><time>2026-03-28T12:59:39.606Z</time></trkpt><trkpt lat="45.5802213" lon="10.7499233"><ele>227.66666666666669</ele><time>2026-03-28T12:59:41.611Z</time></trkpt><trkpt lat="45.58016" lon="10.7499601"><ele>228.83333333333334</ele><time>2026-03-28T12:59:42.613Z</time></trkpt><trkpt lat="45.5800756" lon="10.7500247"><ele>230.0</ele><time>2026-03-28T12:59:43.593Z</time></trkpt><trkpt lat="45.5799566" lon="10.7500827"><ele>230.0</ele><time>2026-03-28T12:59:44.608Z</time></trkpt><trkpt lat="45.5798153" lon="10.7501552"><ele>230.0</ele><time>2026-03-28T12:59:45.611Z</time></trkpt><trkpt lat="45.5796737" lon="10.7502319"><ele>230.0</ele><time>2026-03-28T12:59:46.611Z</time></trkpt><trkpt lat="45.5795379" lon="10.750314"><ele>230.0</ele><time>2026-03-28T12:59:47.613Z</time></trkpt><trkpt lat="45.579412" lon="10.7504075"><ele>229.75</ele><time>2026-03-28T12:59:48.606Z</time></trkpt><trkpt lat="45.579291" lon="10.750494"><ele>229.5</ele><time>2026-03-28T12:59:49.597Z</time></trkpt><trkpt lat="45.5791795" lon="10.7505719"><ele>229.25</ele><time>2026-03-28T12:59:50.608Z</time></trkpt><trkpt lat="45.5790772" lon="10.7506468"><ele>229.0</ele><time>2026-03-28T12:59:51.626Z</time></trkpt><trkpt lat="45.5789834" lon="10.75072"><ele>228.99999999999997</ele><time>2026-03-28T12:59:52.609Z</time></trkpt><trkpt lat="45.5788988" lon="10.7507766"><ele>229.0</ele><time>2026-03-28T12:59:53.613Z</time></trkpt><trkpt lat="45.5788321" lon="10.7508208"><ele>229.0</ele><time>2026-03-28T12:59:54.612Z</time></trkpt><trkpt lat="45.5787722" lon="10.7508579"><ele>229.0</ele><time>2026-03-28T12:59:55.612Z</time></trkpt><trkpt lat="45.5786658" lon="10.7509414"><ele>228.99999999999997</ele><time>2026-03-28T12:59:57.607Z</time></trkpt><trkpt lat="45.5786205" lon="10.7510411"><ele>229.0</ele><time>2026-03-28T12:59:59.6Z</time></trkpt><trkpt lat="45.5786597" lon="10.751191"><ele>227.79999999999998</ele><time>2026-03-28T13:00:01.625Z</time></trkpt><trkpt lat="45.5787121" lon="10.7513239"><ele>226.59999999999997</ele><time>2026-03-28T13:00:02.613Z</time></trkpt><trkpt lat="45.5787646" lon="10.7514723"><ele>225.4</ele><time>2026-03-28T13:00:03.609Z</time></trkpt><trkpt lat="45.5787931" lon="10.7515828"><ele>224.2</ele><time>2026-03-28T13:00:04.624Z</time></trkpt><trkpt lat="45.578819" lon="10.7516851"><ele>223.0</ele><time>2026-03-28T13:00:05.612Z</time></trkpt><trkpt lat="45.5788274" lon="10.7517998"><ele>221.0</ele><time>2026-03-28T13:00:06.612Z</time></trkpt><trkpt lat="45.5788197" lon="10.7519337"><ele>219.0</ele><time>2026-03-28T13:00:07.618Z</time></trkpt><trkpt lat="45.5787629" lon="10.7522046"><ele>217.0</ele><time>2026-03-28T13:00:09.624Z</time></trkpt><trkpt lat="45.5787393" lon="10.7523316"><ele>215.0</ele><time>2026-03-28T13:00:10.614Z</time></trkpt><trkpt lat="45.5787131" lon="10.7524501"><ele>215.00000000000003</ele><time>2026-03-28T13:00:11.614Z</time></trkpt><trkpt lat="45.5786945" lon="10.7525435"><ele>215.0</ele><time>2026-03-28T13:00:12.602Z</time></trkpt><trkpt lat="45.5786288" lon="10.7526629"><ele>215.0</ele><time>2026-03-28T13:00:14.614Z</time></trkpt><trkpt lat="45.578557" lon="10.7527196"><ele>215.0</ele><time>2026-03-28T13:00:17.624Z</time></trkpt><trkpt lat="45.5785053" lon="10.7528113"><ele>215.00000000000003</ele><time>2026-03-28T13:00:19.625Z</time></trkpt><trkpt lat="45.5784893" lon="10.7529323"><ele>215.0</ele><time>2026-03-28T13:00:20.61Z</time></trkpt><trkpt lat="45.5784897" lon="10.7531071"><ele>214.5</ele><time>2026-03-28T13:00:21.598Z</time></trkpt><trkpt lat="45.5784882" lon="10.7532963"><ele>214.0</ele><time>2026-03-28T13:00:22.609Z</time></trkpt><trkpt lat="45.5784906" lon="10.7534723"><ele>213.5</ele><time>2026-03-28T13:00:23.598Z</time></trkpt><trkpt lat="45.5785045" lon="10.7536357"><ele>213.0</ele><time>2026-03-28T13:00:24.591Z</time></trkpt><trkpt lat="45.5785308" lon="10.7537699"><ele>212.33333333333334</ele><time>2026-03-28T13:00:25.609Z</time></trkpt><trkpt lat="45.5785718" lon="10.75389"><ele>211.66666666666669</ele><time>2026-03-28T13:00:26.604Z</time></trkpt><trkpt lat="45.5786029" lon="10.753978"><ele>211.0</ele><time>2026-03-28T13:00:27.614Z</time></trkpt><trkpt lat="45.5786223" lon="10.7540813"><ele>210.33333333333334</ele><time>2026-03-28T13:00:29.616Z</time></trkpt><trkpt lat="45.5785619" lon="10.7541715"><ele>209.66666666666669</ele><time>2026-03-28T13:00:32.624Z</time></trkpt><trkpt lat="45.5784745" lon="10.7541236"><ele>209.0</ele><time>2026-03-28T13:00:34.611Z</time></trkpt><trkpt lat="45.5784069" lon="10.7540623"><ele>209.0</ele><time>2026-03-28T13:00:35.615Z</time></trkpt><trkpt lat="45.5782899" lon="10.7539794"><ele>209.0</ele><time>2026-03-28T13:00:36.612Z</time></trkpt><trkpt lat="45.5781575" lon="10.753884"><ele>209.0</ele><time>2026-03-28T13:00:37.606Z</time></trkpt><trkpt lat="45.5780072" lon="10.7537836"><ele>209.0</ele><time>2026-03-28T13:00:38.598Z</time></trkpt><trkpt lat="45.577869" lon="10.7536859"><ele>209.33333333333334</ele><time>2026-03-28T13:00:39.601Z</time></trkpt><trkpt lat="45.5777339" lon="10.7535575"><ele>209.66666666666669</ele><time>2026-03-28T13:00:40.601Z</time></trkpt><trkpt lat="45.577613" lon="10.7534232"><ele>210.0</ele><time>2026-03-28T13:00:41.607Z</time></trkpt><trkpt lat="45.5775033" lon="10.7532743"><ele>210.0</ele><time>2026-03-28T13:00:42.607Z</time></trkpt><trkpt lat="45.5774249" lon="10.7531495"><ele>210.0</ele><time>2026-03-28T13:00:43.607Z</time></trkpt><trkpt lat="45.5773403" lon="10.7529974"><ele>210.0</ele><time>2026-03-28T13:00:44.609Z</time></trkpt><trkpt lat="45.5772416" lon="10.7528061"><ele>210.0</ele><time>2026-03-28T13:00:45.608Z</time></trkpt><trkpt lat="45.577146" lon="10.7526088"><ele>210.0</ele><time>2026-03-28T13:00:46.604Z</time></trkpt><trkpt lat="45.5770523" lon="10.7524143"><ele>210.0</ele><time>2026-03-28T13:00:47.599Z</time></trkpt><trkpt lat="45.5769552" lon="10.7522146"><ele>210.0</ele><time>2026-03-28T13:00:48.607Z</time></trkpt><trkpt lat="45.5768809" lon="10.7520524"><ele>210.0</ele><time>2026-03-28T13:00:49.605Z</time></trkpt><trkpt lat="45.5768184" lon="10.7519102"><ele>210.0</ele><time>2026-03-28T13:00:50.609Z</time></trkpt><trkpt lat="45.5767522" lon="10.7517609"><ele>210.0</ele><time>2026-03-28T13:00:51.605Z</time></trkpt><trkpt lat="45.5766907" lon="10.751646"><ele>210.0</ele><time>2026-03-28T13:00:52.599Z</time></trkpt><trkpt lat="45.5766368" lon="10.7515481"><ele>210.0</ele><time>2026-03-28T13:00:53.629Z</time></trkpt><trkpt lat="45.5765883" lon="10.7514612"><ele>210.0</ele><time>2026-03-28T13:00:54.603Z</time></trkpt><trkpt lat="45.5765124" lon="10.7513159"><ele>210.0</ele><time>2026-03-28T13:00:56.599Z</time></trkpt><trkpt lat="45.5764291" lon="10.7511874"><ele>210.0</ele><time>2026-03-28T13:00:57.599Z</time></trkpt><trkpt lat="45.5763414" lon="10.7510385"><ele>210.0</ele><time>2026-03-28T13:00:58.6Z</time></trkpt><trkpt lat="45.5762395" lon="10.7508667"><ele>208.66666666666669</ele><time>2026-03-28T13:00:59.596Z</time></trkpt><trkpt lat="45.5761341" lon="10.7506914"><ele>207.33333333333334</ele><time>2026-03-28T13:01:00.597Z</time></trkpt><trkpt lat="45.5760348" lon="10.7504978"><ele>206.0</ele><time>2026-03-28T13:01:01.607Z</time></trkpt><trkpt lat="45.5759177" lon="10.7503108"><ele>207.33333333333334</ele><time>2026-03-28T13:01:02.604Z</time></trkpt><trkpt lat="45.5758036" lon="10.7501602"><ele>208.66666666666669</ele><time>2026-03-28T13:01:03.597Z</time></trkpt><trkpt lat="45.5756745" lon="10.7500147"><ele>210.0</ele><time>2026-03-28T13:01:04.614Z</time></trkpt><trkpt lat="45.575543" lon="10.7498998"><ele>210.0</ele><time>2026-03-28T13:01:05.601Z</time></trkpt><trkpt lat="45.5753994" lon="10.7497946"><ele>210.0</ele><time>2026-03-28T13:01:06.609Z</time></trkpt><trkpt lat="45.5752314" lon="10.7497133"><ele>210.0</ele><time>2026-03-28T13:01:07.612Z</time></trkpt><trkpt lat="45.575075" lon="10.7496189"><ele>210.33333333333331</ele><time>2026-03-28T13:01:08.6Z</time></trkpt><trkpt lat="45.574936" lon="10.7495083"><ele>210.66666666666666</ele><time>2026-03-28T13:01:09.612Z</time></trkpt><trkpt lat="45.5747856" lon="10.7493698"><ele>211.0</ele><time>2026-03-28T13:01:10.609Z</time></trkpt><trkpt lat="45.5746316" lon="10.7492361"><ele>209.33333333333331</ele><time>2026-03-28T13:01:11.61Z</time></trkpt><trkpt lat="45.5744875" lon="10.7491306"><ele>207.66666666666669</ele><time>2026-03-28T13:01:12.611Z</time></trkpt><trkpt lat="45.5743543" lon="10.7490341"><ele>206.0</ele><time>2026-03-28T13:01:13.606Z</time></trkpt><trkpt lat="45.5742113" lon="10.7489421"><ele>206.0</ele><time>2026-03-28T13:01:14.615Z</time></trkpt><trkpt lat="45.574078" lon="10.7488621"><ele>206.0</ele><time>2026-03-28T13:01:15.612Z</time></trkpt><trkpt lat="45.5739395" lon="10.748753"><ele>206.0</ele><time>2026-03-28T13:01:16.613Z</time></trkpt><trkpt lat="45.5738083" lon="10.7486168"><ele>206.33333333333334</ele><time>2026-03-28T13:01:17.622Z</time></trkpt><trkpt lat="45.5736781" lon="10.7484623"><ele>206.66666666666669</ele><time>2026-03-28T13:01:18.615Z</time></trkpt><trkpt lat="45.5735583" lon="10.748318"><ele>207.0</ele><time>2026-03-28T13:01:19.623Z</time></trkpt><trkpt lat="45.5734632" lon="10.7481819"><ele>207.0</ele><time>2026-03-28T13:01:20.612Z</time></trkpt><trkpt lat="45.5733897" lon="10.7480884"><ele>207.0</ele><time>2026-03-28T13:01:21.625Z</time></trkpt><trkpt lat="45.5733389" lon="10.7480184"><ele>207.0</ele><time>2026-03-28T13:01:22.624Z</time></trkpt><trkpt lat="45.573232" lon="10.7480339"><ele>207.0</ele><time>2026-03-28T13:01:25.635Z</time></trkpt><trkpt lat="45.5731538" lon="10.7481089"><ele>207.0</ele><time>2026-03-28T13:01:26.616Z</time></trkpt><trkpt lat="45.5730472" lon="10.7481988"><ele>207.0</ele><time>2026-03-28T13:01:27.61Z</time></trkpt><trkpt lat="45.5729215" lon="10.7483024"><ele>207.0</ele><time>2026-03-28T13:01:28.626Z</time></trkpt><trkpt lat="45.5728154" lon="10.7483992"><ele>207.0</ele><time>2026-03-28T13:01:29.622Z</time></trkpt><trkpt lat="45.5727141" lon="10.7484926"><ele>207.0</ele><time>2026-03-28T13:01:30.62Z</time></trkpt><trkpt lat="45.5726159" lon="10.748588"><ele>207.16666666666666</ele><time>2026-03-28T13:01:31.623Z</time></trkpt><trkpt lat="45.5725227" lon="10.7486691"><ele>207.33333333333331</ele><time>2026-03-28T13:01:32.612Z</time></trkpt><trkpt lat="45.5724417" lon="10.7487362"><ele>207.5</ele><time>2026-03-28T13:01:33.62Z</time></trkpt><trkpt lat="45.5723707" lon="10.7487991"><ele>207.66666666666666</ele><time>2026-03-28T13:01:34.609Z</time></trkpt><trkpt lat="45.5723045" lon="10.7488504"><ele>207.83333333333331</ele><time>2026-03-28T13:01:35.61Z</time></trkpt><trkpt lat="45.5722354" lon="10.7488836"><ele>208.0</ele><time>2026-03-28T13:01:36.62Z</time></trkpt><trkpt lat="45.5721556" lon="10.7489075"><ele>207.99999999999997</ele><time>2026-03-28T13:01:37.626Z</time></trkpt><trkpt lat="45.5720775" lon="10.7489059"><ele>208.0</ele><time>2026-03-28T13:01:38.605Z</time></trkpt><trkpt lat="45.571994" lon="10.7488798"><ele>208.0</ele><time>2026-03-28T13:01:39.619Z</time></trkpt><trkpt lat="45.5719093" lon="10.7488468"><ele>208.0</ele><time>2026-03-28T13:01:40.621Z</time></trkpt><trkpt lat="45.5718232" lon="10.7488066"><ele>207.99999999999997</ele><time>2026-03-28T13:01:41.614Z</time></trkpt><trkpt lat="45.5717384" lon="10.7487562"><ele>208.0</ele><time>2026-03-28T13:01:42.61Z</time></trkpt><trkpt lat="45.571649" lon="10.7486995"><ele>208.25</ele><time>2026-03-28T13:01:43.605Z</time></trkpt><trkpt lat="45.571569" lon="10.7486223"><ele>208.5</ele><time>2026-03-28T13:01:44.618Z</time></trkpt><trkpt lat="45.5714717" lon="10.7485293"><ele>208.75</ele><time>2026-03-28T13:01:45.622Z</time></trkpt><trkpt lat="45.5713597" lon="10.7484408"><ele>209.0</ele><time>2026-03-28T13:01:46.617Z</time></trkpt><trkpt lat="45.5712626" lon="10.7483657"><ele>208.6</ele><time>2026-03-28T13:01:47.623Z</time></trkpt><trkpt lat="45.571174" lon="10.7482918"><ele>208.2</ele><time>2026-03-28T13:01:48.619Z</time></trkpt><trkpt lat="45.5710848" lon="10.7482179"><ele>207.79999999999998</ele><time>2026-03-28T13:01:49.616Z</time></trkpt><trkpt lat="45.5709991" lon="10.7481319"><ele>207.39999999999998</ele><time>2026-03-28T13:01:50.619Z</time></trkpt><trkpt lat="45.5709187" lon="10.7480608"><ele>207.0</ele><time>2026-03-28T13:01:51.607Z</time></trkpt><trkpt lat="45.5708273" lon="10.748006"><ele>207.0</ele><time>2026-03-28T13:01:52.625Z</time></trkpt><trkpt lat="45.5707412" lon="10.7479875"><ele>207.0</ele><time>2026-03-28T13:01:53.602Z</time></trkpt><trkpt lat="45.570665" lon="10.7480168"><ele>207.0</ele><time>2026-03-28T13:01:54.616Z</time></trkpt><trkpt lat="45.5705893" lon="10.7481015"><ele>207.0</ele><time>2026-03-28T13:01:55.628Z</time></trkpt><trkpt lat="45.5705009" lon="10.7482198"><ele>207.0</ele><time>2026-03-28T13:01:56.598Z</time></trkpt><trkpt lat="45.5704033" lon="10.7483707"><ele>211.25</ele><time>2026-03-28T13:01:57.597Z</time></trkpt><trkpt lat="45.5703178" lon="10.7485221"><ele>215.5</ele><time>2026-03-28T13:01:58.592Z</time></trkpt><trkpt lat="45.5702583" lon="10.748705"><ele>219.75</ele><time>2026-03-28T13:01:59.591Z</time></trkpt><trkpt lat="45.5702105" lon="10.7489013"><ele>224.0</ele><time>2026-03-28T13:02:00.59Z</time></trkpt><trkpt lat="45.57018" lon="10.7490787"><ele>224.0</ele><time>2026-03-28T13:02:01.592Z</time></trkpt><trkpt lat="45.5701645" lon="10.7492954"><ele>224.0</ele><time>2026-03-28T13:02:02.592Z</time></trkpt><trkpt lat="45.5701478" lon="10.7495181"><ele>224.0</ele><time>2026-03-28T13:02:03.585Z</time></trkpt><trkpt lat="45.5701188" lon="10.7496869"><ele>224.0</ele><time>2026-03-28T13:02:04.577Z</time></trkpt><trkpt lat="45.5700751" lon="10.7498389"><ele>224.50000000000003</ele><time>2026-03-28T13:02:05.573Z</time></trkpt><trkpt lat="45.5700406" lon="10.7499838"><ele>225.0</ele><time>2026-03-28T13:02:06.583Z</time></trkpt><trkpt lat="45.5699947" lon="10.7500894"><ele>225.5</ele><time>2026-03-28T13:02:07.58Z</time></trkpt><trkpt lat="45.569932" lon="10.7501498"><ele>226.0</ele><time>2026-03-28T13:02:08.593Z</time></trkpt><trkpt lat="45.569854" lon="10.7502215"><ele>226.50000000000003</ele><time>2026-03-28T13:02:10.611Z</time></trkpt><trkpt lat="45.5698035" lon="10.7503119"><ele>227.0</ele><time>2026-03-28T13:02:12.621Z</time></trkpt><trkpt lat="45.5697165" lon="10.7502874"><ele>227.0</ele><time>2026-03-28T13:02:17.625Z</time></trkpt><trkpt lat="45.5696822" lon="10.7501962"><ele>227.0</ele><time>2026-03-28T13:02:18.632Z</time></trkpt><trkpt lat="45.5696356" lon="10.7500528"><ele>227.0</ele><time>2026-03-28T13:02:19.62Z</time></trkpt><trkpt lat="45.5695945" lon="10.7498968"><ele>227.0</ele><time>2026-03-28T13:02:20.623Z</time></trkpt><trkpt lat="45.5695504" lon="10.7497136"><ele>227.0</ele><time>2026-03-28T13:02:21.601Z</time></trkpt><trkpt lat="45.5695053" lon="10.7494836"><ele>226.66666666666669</ele><time>2026-03-28T13:02:22.608Z</time></trkpt><trkpt lat="45.5694683" lon="10.7491954"><ele>226.33333333333331</ele><time>2026-03-28T13:02:23.623Z</time></trkpt><trkpt lat="45.5694352" lon="10.7489957"><ele>226.0</ele><time>2026-03-28T13:02:24.612Z</time></trkpt><trkpt lat="45.5694125" lon="10.7488233"><ele>226.0</ele><time>2026-03-28T13:02:25.614Z</time></trkpt><trkpt lat="45.5693892" lon="10.7486628"><ele>226.00000000000003</ele><time>2026-03-28T13:02:26.635Z</time></trkpt><trkpt lat="45.5693765" lon="10.7485247"><ele>226.00000000000003</ele><time>2026-03-28T13:02:27.609Z</time></trkpt><trkpt lat="45.5693763" lon="10.7484133"><ele>226.0</ele><time>2026-03-28T13:02:28.607Z</time></trkpt><trkpt lat="45.5693852" lon="10.7482749"><ele>226.0</ele><time>2026-03-28T13:02:30.605Z</time></trkpt><trkpt lat="45.5693604" lon="10.7481657"><ele>225.75</ele><time>2026-03-28T13:02:33.632Z</time></trkpt><trkpt lat="45.5692215" lon="10.7480905"><ele>225.5</ele><time>2026-03-28T13:02:35.605Z</time></trkpt><trkpt lat="45.569141" lon="10.748013"><ele>225.25</ele><time>2026-03-28T13:02:36.612Z</time></trkpt><trkpt lat="45.5690416" lon="10.7479035"><ele>225.0</ele><time>2026-03-28T13:02:37.61Z</time></trkpt><trkpt lat="45.5689341" lon="10.7477825"><ele>225.25</ele><time>2026-03-28T13:02:38.611Z</time></trkpt><trkpt lat="45.5688337" lon="10.747662"><ele>225.5</ele><time>2026-03-28T13:02:39.635Z</time></trkpt><trkpt lat="45.5687283" lon="10.7475644"><ele>225.75</ele><time>2026-03-28T13:02:40.623Z</time></trkpt><trkpt lat="45.5686151" lon="10.7474767"><ele>226.0</ele><time>2026-03-28T13:02:41.619Z</time></trkpt><trkpt lat="45.5684772" lon="10.7474095"><ele>227.25</ele><time>2026-03-28T13:02:42.627Z</time></trkpt><trkpt lat="45.5683556" lon="10.7473494"><ele>228.5</ele><time>2026-03-28T13:02:43.618Z</time></trkpt><trkpt lat="45.568236" lon="10.7472996"><ele>229.75</ele><time>2026-03-28T13:02:44.611Z</time></trkpt><trkpt lat="45.5681254" lon="10.7472812"><ele>231.0</ele><time>2026-03-28T13:02:45.614Z</time></trkpt><trkpt lat="45.5680214" lon="10.7472734"><ele>231.0</ele><time>2026-03-28T13:02:46.611Z</time></trkpt><trkpt lat="45.5679214" lon="10.7472796"><ele>231.0</ele><time>2026-03-28T13:02:47.615Z</time></trkpt><trkpt lat="45.5678248" lon="10.7472966"><ele>231.0</ele><time>2026-03-28T13:02:48.616Z</time></trkpt><trkpt lat="45.5677435" lon="10.7473054"><ele>231.0</ele><time>2026-03-28T13:02:49.615Z</time></trkpt><trkpt lat="45.567666" lon="10.7473078"><ele>231.0</ele><time>2026-03-28T13:02:50.624Z</time></trkpt><trkpt lat="45.5675748" lon="10.7473209"><ele>231.0</ele><time>2026-03-28T13:02:51.623Z</time></trkpt><trkpt lat="45.5674796" lon="10.7473574"><ele>232.0</ele><time>2026-03-28T13:02:52.626Z</time></trkpt><trkpt lat="45.5673789" lon="10.7474001"><ele>233.00000000000003</ele><time>2026-03-28T13:02:53.623Z</time></trkpt><trkpt lat="45.567268" lon="10.7474263"><ele>234.00000000000003</ele><time>2026-03-28T13:02:54.619Z</time></trkpt><trkpt lat="45.5671618" lon="10.7474456"><ele>235.0</ele><time>2026-03-28T13:02:55.626Z</time></trkpt><trkpt lat="45.5670737" lon="10.7474393"><ele>236.0</ele><time>2026-03-28T13:02:56.617Z</time></trkpt><trkpt lat="45.5670078" lon="10.747428"><ele>238.00000000000003</ele><time>2026-03-28T13:02:57.631Z</time></trkpt><trkpt lat="45.5669418" lon="10.7474083"><ele>240.0</ele><time>2026-03-28T13:02:58.613Z</time></trkpt><trkpt lat="45.5668765" lon="10.7473914"><ele>242.0</ele><time>2026-03-28T13:02:59.611Z</time></trkpt><trkpt lat="45.5667549" lon="10.7474429"><ele>244.0</ele><time>2026-03-28T13:03:01.611Z</time></trkpt><trkpt lat="45.5666935" lon="10.7474722"><ele>246.00000000000003</ele><time>2026-03-28T13:03:02.607Z</time></trkpt><trkpt lat="45.5666135" lon="10.7475265"><ele>248.0</ele><time>2026-03-28T13:03:03.597Z</time></trkpt><trkpt lat="45.5665394" lon="10.7475962"><ele>248.00000000000003</ele><time>2026-03-28T13:03:04.606Z</time></trkpt><trkpt lat="45.5664719" lon="10.7476582"><ele>248.0</ele><time>2026-03-28T13:03:05.606Z</time></trkpt><trkpt lat="45.5664131" lon="10.7477199"><ele>248.0</ele><time>2026-03-28T13:03:06.603Z</time></trkpt><trkpt lat="45.5663585" lon="10.747801"><ele>248.0</ele><time>2026-03-28T13:03:07.601Z</time></trkpt><trkpt lat="45.5663396" lon="10.7479043"><ele>248.00000000000003</ele><time>2026-03-28T13:03:08.619Z</time></trkpt><trkpt lat="45.5663485" lon="10.7480332"><ele>248.0</ele><time>2026-03-28T13:03:09.614Z</time></trkpt><trkpt lat="45.5663839" lon="10.7481838"><ele>249.5</ele><time>2026-03-28T13:03:10.598Z</time></trkpt><trkpt lat="45.5664204" lon="10.7483338"><ele>251.0</ele><time>2026-03-28T13:03:11.61Z</time></trkpt><trkpt lat="45.5664716" lon="10.7485004"><ele>252.5</ele><time>2026-03-28T13:03:12.604Z</time></trkpt><trkpt lat="45.5665168" lon="10.7486487"><ele>254.0</ele><time>2026-03-28T13:03:13.585Z</time></trkpt><trkpt lat="45.5665662" lon="10.74877"><ele>256.1666666666667</ele><time>2026-03-28T13:03:14.595Z</time></trkpt><trkpt lat="45.5666335" lon="10.7488764"><ele>258.33333333333337</ele><time>2026-03-28T13:03:15.591Z</time></trkpt><trkpt lat="45.5666971" lon="10.748979"><ele>260.5</ele><time>2026-03-28T13:03:16.588Z</time></trkpt><trkpt lat="45.5667413" lon="10.7490941"><ele>262.6666666666667</ele><time>2026-03-28T13:03:17.576Z</time></trkpt><trkpt lat="45.5667797" lon="10.7491992"><ele>264.8333333333333</ele><time>2026-03-28T13:03:18.596Z</time></trkpt><trkpt lat="45.566781" lon="10.7492988"><ele>267.0</ele><time>2026-03-28T13:03:19.592Z</time></trkpt><trkpt lat="45.5667425" lon="10.749451"><ele>268.0</ele><time>2026-03-28T13:03:21.597Z</time></trkpt><trkpt lat="45.5666821" lon="10.7495305"><ele>269.0</ele><time>2026-03-28T13:03:22.595Z</time></trkpt><trkpt lat="45.5666105" lon="10.7496201"><ele>270.0</ele><time>2026-03-28T13:03:23.599Z</time></trkpt><trkpt lat="45.5665321" lon="10.7497066"><ele>271.0</ele><time>2026-03-28T13:03:24.598Z</time></trkpt><trkpt lat="45.5664457" lon="10.7497876"><ele>272.0</ele><time>2026-03-28T13:03:25.586Z</time></trkpt><trkpt lat="45.566324" lon="10.7498732"><ele>272.33333333333337</ele><time>2026-03-28T13:03:26.609Z</time></trkpt><trkpt lat="45.5661861" lon="10.7499786"><ele>272.6666666666667</ele><time>2026-03-28T13:03:27.609Z</time></trkpt><trkpt lat="45.5660119" lon="10.7501242"><ele>273.0</ele><time>2026-03-28T13:03:28.65Z</time></trkpt><trkpt lat="45.5658977" lon="10.7502579"><ele>273.0</ele><time>2026-03-28T13:03:29.611Z</time></trkpt><trkpt lat="45.5657885" lon="10.7503555"><ele>273.0</ele><time>2026-03-28T13:03:30.61Z</time></trkpt><trkpt lat="45.5656933" lon="10.7504385"><ele>273.0</ele><time>2026-03-28T13:03:31.608Z</time></trkpt><trkpt lat="45.5656188" lon="10.7505135"><ele>273.0</ele><time>2026-03-28T13:03:32.602Z</time></trkpt><trkpt lat="45.5655622" lon="10.7505746"><ele>273.0</ele><time>2026-03-28T13:03:33.611Z</time></trkpt><trkpt lat="45.5654859" lon="10.7506491"><ele>273.0</ele><time>2026-03-28T13:03:34.606Z</time></trkpt><trkpt lat="45.5654032" lon="10.7507213"><ele>273.0</ele><time>2026-03-28T13:03:35.617Z</time></trkpt><trkpt lat="45.5653061" lon="10.7507837"><ele>273.0</ele><time>2026-03-28T13:03:36.608Z</time></trkpt><trkpt lat="45.5651897" lon="10.7508428"><ele>273.0</ele><time>2026-03-28T13:03:37.617Z</time></trkpt><trkpt lat="45.5650836" lon="10.7508852"><ele>273.0</ele><time>2026-03-28T13:03:38.616Z</time></trkpt><trkpt lat="45.5649854" lon="10.7509442"><ele>273.4</ele><time>2026-03-28T13:03:39.611Z</time></trkpt><trkpt lat="45.5648981" lon="10.7510389"><ele>273.8</ele><time>2026-03-28T13:03:40.607Z</time></trkpt><trkpt lat="45.5648256" lon="10.7511684"><ele>274.2</ele><time>2026-03-28T13:03:41.612Z</time></trkpt><trkpt lat="45.5647749" lon="10.751316"><ele>274.6</ele><time>2026-03-28T13:03:42.612Z</time></trkpt><trkpt lat="45.5647118" lon="10.7514196"><ele>275.0</ele><time>2026-03-28T13:03:43.61Z</time></trkpt><trkpt lat="45.5646387" lon="10.751515"><ele>275.25</ele><time>2026-03-28T13:03:44.618Z</time></trkpt><trkpt lat="45.5645426" lon="10.7516023"><ele>275.5</ele><time>2026-03-28T13:03:45.617Z</time></trkpt><trkpt lat="45.5644334" lon="10.7516818"><ele>275.75</ele><time>2026-03-28T13:03:46.618Z</time></trkpt><trkpt lat="45.5643218" lon="10.7517535"><ele>276.0</ele><time>2026-03-28T13:03:47.624Z</time></trkpt><trkpt lat="45.5642236" lon="10.7518189"><ele>273.0</ele><time>2026-03-28T13:03:48.619Z</time></trkpt><trkpt lat="45.5641366" lon="10.7518825"><ele>270.0</ele><time>2026-03-28T13:03:49.605Z</time></trkpt><trkpt lat="45.5640468" lon="10.7519475"><ele>267.0</ele><time>2026-03-28T13:03:50.601Z</time></trkpt><trkpt lat="45.5639616" lon="10.752017"><ele>264.0</ele><time>2026-03-28T13:03:51.6Z</time></trkpt><trkpt lat="45.5639096" lon="10.7520916"><ele>261.0</ele><time>2026-03-28T13:03:52.58Z</time></trkpt><trkpt lat="45.56386" lon="10.752181"><ele>261.0</ele><time>2026-03-28T13:03:53.592Z</time></trkpt><trkpt lat="45.5638388" lon="10.7523064"><ele>261.0</ele><time>2026-03-28T13:03:54.598Z</time></trkpt><trkpt lat="45.5638396" lon="10.7524512"><ele>261.0</ele><time>2026-03-28T13:03:55.575Z</time></trkpt><trkpt lat="45.5638818" lon="10.7526293"><ele>261.0</ele><time>2026-03-28T13:03:56.58Z</time></trkpt><trkpt lat="45.5639159" lon="10.7528078"><ele>260.1666666666667</ele><time>2026-03-28T13:03:57.576Z</time></trkpt><trkpt lat="45.5639516" lon="10.7529672"><ele>259.3333333333333</ele><time>2026-03-28T13:03:58.598Z</time></trkpt><trkpt lat="45.563987" lon="10.7530976"><ele>258.5</ele><time>2026-03-28T13:03:59.59Z</time></trkpt><trkpt lat="45.5640036" lon="10.7532006"><ele>257.66666666666663</ele><time>2026-03-28T13:04:00.587Z</time></trkpt><trkpt lat="45.5639513" lon="10.753272"><ele>256.8333333333333</ele><time>2026-03-28T13:04:03.594Z</time></trkpt><trkpt lat="45.5639048" lon="10.7532109"><ele>256.0</ele><time>2026-03-28T13:04:04.61Z</time></trkpt><trkpt lat="45.563878" lon="10.7530987"><ele>256.0</ele><time>2026-03-28T13:04:05.603Z</time></trkpt><trkpt lat="45.5638719" lon="10.752945"><ele>256.0</ele><time>2026-03-28T13:04:06.591Z</time></trkpt><trkpt lat="45.563857" lon="10.7528091"><ele>256.0</ele><time>2026-03-28T13:04:07.585Z</time></trkpt><trkpt lat="45.5638304" lon="10.7527031"><ele>256.0</ele><time>2026-03-28T13:04:08.576Z</time></trkpt><trkpt lat="45.5637899" lon="10.7526234"><ele>256.0</ele><time>2026-03-28T13:04:09.573Z</time></trkpt><trkpt lat="45.5636911" lon="10.752571"><ele>256.3333333333333</ele><time>2026-03-28T13:04:11.581Z</time></trkpt><trkpt lat="45.5635942" lon="10.7526825"><ele>256.66666666666663</ele><time>2026-03-28T13:04:13.562Z</time></trkpt><trkpt lat="45.5635716" lon="10.7527837"><ele>257.0</ele><time>2026-03-28T13:04:14.569Z</time></trkpt><trkpt lat="45.5635751" lon="10.7529006"><ele>257.3333333333333</ele><time>2026-03-28T13:04:15.557Z</time></trkpt><trkpt lat="45.5635711" lon="10.7530132"><ele>257.6666666666667</ele><time>2026-03-28T13:04:16.566Z</time></trkpt><trkpt lat="45.5635548" lon="10.7531224"><ele>258.0</ele><time>2026-03-28T13:04:17.578Z</time></trkpt><trkpt lat="45.5634828" lon="10.7532658"><ele>256.4</ele><time>2026-03-28T13:04:19.582Z</time></trkpt><trkpt lat="45.563428" lon="10.7533433"><ele>254.8</ele><time>2026-03-28T13:04:20.581Z</time></trkpt><trkpt lat="45.5633697" lon="10.7534441"><ele>253.2</ele><time>2026-03-28T13:04:21.594Z</time></trkpt><trkpt lat="45.5633025" lon="10.7535585"><ele>251.6</ele><time>2026-03-28T13:04:22.59Z</time></trkpt><trkpt lat="45.5632128" lon="10.7536471"><ele>250.0</ele><time>2026-03-28T13:04:23.588Z</time></trkpt><trkpt lat="45.5631167" lon="10.753732"><ele>247.4</ele><time>2026-03-28T13:04:24.592Z</time></trkpt><trkpt lat="45.563016" lon="10.7537857"><ele>244.8</ele><time>2026-03-28T13:04:25.599Z</time></trkpt><trkpt lat="45.5629265" lon="10.7538093"><ele>242.2</ele><time>2026-03-28T13:04:26.59Z</time></trkpt><trkpt lat="45.5628378" lon="10.753808"><ele>239.6</ele><time>2026-03-28T13:04:27.59Z</time></trkpt><trkpt lat="45.5627442" lon="10.7537898"><ele>237.0</ele><time>2026-03-28T13:04:28.596Z</time></trkpt><trkpt lat="45.5626343" lon="10.7537501"><ele>236.0</ele><time>2026-03-28T13:04:29.613Z</time></trkpt><trkpt lat="45.562516" lon="10.7537003"><ele>235.0</ele><time>2026-03-28T13:04:30.589Z</time></trkpt><trkpt lat="45.5624019" lon="10.7536576"><ele>234.0</ele><time>2026-03-28T13:04:31.594Z</time></trkpt><trkpt lat="45.5622861" lon="10.7536332"><ele>233.0</ele><time>2026-03-28T13:04:32.597Z</time></trkpt><trkpt lat="45.5621685" lon="10.7536286"><ele>233.0</ele><time>2026-03-28T13:04:33.594Z</time></trkpt><trkpt lat="45.5620534" lon="10.7536492"><ele>233.0</ele><time>2026-03-28T13:04:34.601Z</time></trkpt><trkpt lat="45.5619532" lon="10.7536696"><ele>233.0</ele><time>2026-03-28T13:04:35.601Z</time></trkpt><trkpt lat="45.5618506" lon="10.7536717"><ele>233.0</ele><time>2026-03-28T13:04:36.598Z</time></trkpt><trkpt lat="45.5617538" lon="10.7536625"><ele>233.0</ele><time>2026-03-28T13:04:37.593Z</time></trkpt><trkpt lat="45.561652" lon="10.7536392"><ele>232.2</ele><time>2026-03-28T13:04:38.589Z</time></trkpt><trkpt lat="45.5615523" lon="10.7535918"><ele>231.4</ele><time>2026-03-28T13:04:39.596Z</time></trkpt><trkpt lat="45.5614525" lon="10.7535131"><ele>230.59999999999997</ele><time>2026-03-28T13:04:40.598Z</time></trkpt><trkpt lat="45.5613618" lon="10.7534372"><ele>229.79999999999998</ele><time>2026-03-28T13:04:41.589Z</time></trkpt><trkpt lat="45.5612956" lon="10.7533528"><ele>229.0</ele><time>2026-03-28T13:04:42.599Z</time></trkpt><trkpt lat="45.5612303" lon="10.7532734"><ele>230.39999999999998</ele><time>2026-03-28T13:04:43.587Z</time></trkpt><trkpt lat="45.5611442" lon="10.7532147"><ele>231.79999999999998</ele><time>2026-03-28T13:04:44.59Z</time></trkpt><trkpt lat="45.561039" lon="10.7531765"><ele>233.20000000000002</ele><time>2026-03-28T13:04:45.586Z</time></trkpt><trkpt lat="45.5609285" lon="10.753145"><ele>234.60000000000002</ele><time>2026-03-28T13:04:46.584Z</time></trkpt><trkpt lat="45.560829" lon="10.7531117"><ele>236.0</ele><time>2026-03-28T13:04:47.581Z</time></trkpt><trkpt lat="45.5607362" lon="10.7530797"><ele>236.0</ele><time>2026-03-28T13:04:48.584Z</time></trkpt><trkpt lat="45.5606244" lon="10.7530718"><ele>236.0</ele><time>2026-03-28T13:04:49.579Z</time></trkpt><trkpt lat="45.560507" lon="10.7530678"><ele>236.0</ele><time>2026-03-28T13:04:50.582Z</time></trkpt><trkpt lat="45.5603754" lon="10.7530543"><ele>236.0</ele><time>2026-03-28T13:04:51.594Z</time></trkpt><trkpt lat="45.5602563" lon="10.7530522"><ele>234.75</ele><time>2026-03-28T13:04:52.591Z</time></trkpt><trkpt lat="45.5601426" lon="10.7530264"><ele>233.5</ele><time>2026-03-28T13:04:53.586Z</time></trkpt><trkpt lat="45.5600223" lon="10.7529817"><ele>232.25</ele><time>2026-03-28T13:04:54.583Z</time></trkpt><trkpt lat="45.559908" lon="10.7529123"><ele>231.0</ele><time>2026-03-28T13:04:55.586Z</time></trkpt><trkpt lat="45.5597828" lon="10.7528235"><ele>231.0</ele><time>2026-03-28T13:04:56.582Z</time></trkpt><trkpt lat="45.5596495" lon="10.7527162"><ele>231.0</ele><time>2026-03-28T13:04:57.588Z</time></trkpt><trkpt lat="45.5595003" lon="10.7525941"><ele>231.0</ele><time>2026-03-28T13:04:58.588Z</time></trkpt><trkpt lat="45.55937" lon="10.7524816"><ele>232.0</ele><time>2026-03-28T13:04:59.581Z</time></trkpt><trkpt lat="45.5592427" lon="10.7523585"><ele>233.0</ele><time>2026-03-28T13:05:00.604Z</time></trkpt><trkpt lat="45.5591152" lon="10.752244"><ele>234.0</ele><time>2026-03-28T13:05:01.593Z</time></trkpt><trkpt lat="45.5589865" lon="10.7521558"><ele>235.0</ele><time>2026-03-28T13:05:02.589Z</time></trkpt><trkpt lat="45.5588482" lon="10.7520455"><ele>235.0</ele><time>2026-03-28T13:05:03.583Z</time></trkpt><trkpt lat="45.5587393" lon="10.7519468"><ele>235.0</ele><time>2026-03-28T13:05:04.587Z</time></trkpt><trkpt lat="45.5586425" lon="10.7518655"><ele>235.0</ele><time>2026-03-28T13:05:05.577Z</time></trkpt><trkpt lat="45.5585618" lon="10.7517606"><ele>235.0</ele><time>2026-03-28T13:05:06.582Z</time></trkpt><trkpt lat="45.5584801" lon="10.7516628"><ele>235.75</ele><time>2026-03-28T13:05:07.581Z</time></trkpt><trkpt lat="45.5583915" lon="10.7515481"><ele>236.5</ele><time>2026-03-28T13:05:08.584Z</time></trkpt><trkpt lat="45.5582814" lon="10.7514636"><ele>237.25</ele><time>2026-03-28T13:05:09.59Z</time></trkpt><trkpt lat="45.5581415" lon="10.7513857"><ele>238.0</ele><time>2026-03-28T13:05:10.581Z</time></trkpt><trkpt lat="45.5579844" lon="10.7513463"><ele>236.5</ele><time>2026-03-28T13:05:11.583Z</time></trkpt><trkpt lat="45.557817" lon="10.7513117"><ele>235.0</ele><time>2026-03-28T13:05:12.58Z</time></trkpt><trkpt lat="45.557695" lon="10.7512795"><ele>233.5</ele><time>2026-03-28T13:05:13.579Z</time></trkpt><trkpt lat="45.5575767" lon="10.7512347"><ele>232.0</ele><time>2026-03-28T13:05:14.594Z</time></trkpt><trkpt lat="45.5574652" lon="10.7512392"><ele>232.0</ele><time>2026-03-28T13:05:15.587Z</time></trkpt><trkpt lat="45.5573203" lon="10.7512546"><ele>232.0</ele><time>2026-03-28T13:05:16.593Z</time></trkpt><trkpt lat="45.5571663" lon="10.7513007"><ele>232.0</ele><time>2026-03-28T13:05:17.586Z</time></trkpt><trkpt lat="45.5570286" lon="10.751316"><ele>232.0</ele><time>2026-03-28T13:05:18.587Z</time></trkpt><trkpt lat="45.5568679" lon="10.7513438"><ele>232.75</ele><time>2026-03-28T13:05:19.588Z</time></trkpt><trkpt lat="45.5567186" lon="10.7513701"><ele>233.5</ele><time>2026-03-28T13:05:20.591Z</time></trkpt><trkpt lat="45.5566001" lon="10.7513875"><ele>234.25</ele><time>2026-03-28T13:05:21.584Z</time></trkpt><trkpt lat="45.5565048" lon="10.7514011"><ele>235.0</ele><time>2026-03-28T13:05:22.585Z</time></trkpt><trkpt lat="45.55641" lon="10.7514116"><ele>234.99999999999997</ele><time>2026-03-28T13:05:23.589Z</time></trkpt><trkpt lat="45.5563213" lon="10.7514382"><ele>235.0</ele><time>2026-03-28T13:05:24.584Z</time></trkpt><trkpt lat="45.5562429" lon="10.7514615"><ele>235.0</ele><time>2026-03-28T13:05:25.594Z</time></trkpt><trkpt lat="45.5561866" lon="10.751517"><ele>235.0</ele><time>2026-03-28T13:05:26.598Z</time></trkpt><trkpt lat="45.5561312" lon="10.7515842"><ele>234.99999999999997</ele><time>2026-03-28T13:05:27.607Z</time></trkpt><trkpt lat="45.5560556" lon="10.7516341"><ele>235.0</ele><time>2026-03-28T13:05:28.598Z</time></trkpt><trkpt lat="45.5559695" lon="10.7516647"><ele>235.33333333333331</ele><time>2026-03-28T13:05:29.6Z</time></trkpt><trkpt lat="45.5558817" lon="10.7516925"><ele>235.66666666666666</ele><time>2026-03-28T13:05:30.604Z</time></trkpt><trkpt lat="45.5558138" lon="10.7517011"><ele>236.0</ele><time>2026-03-28T13:05:31.622Z</time></trkpt><trkpt lat="45.5557495" lon="10.7517037"><ele>236.33333333333331</ele><time>2026-03-28T13:05:32.604Z</time></trkpt><trkpt lat="45.5556522" lon="10.7516741"><ele>236.66666666666666</ele><time>2026-03-28T13:05:34.603Z</time></trkpt><trkpt lat="45.5555749" lon="10.7515508"><ele>237.0</ele><time>2026-03-28T13:05:36.591Z</time></trkpt><trkpt lat="45.5555227" lon="10.7514643"><ele>237.0</ele><time>2026-03-28T13:05:37.595Z</time></trkpt><trkpt lat="45.5554684" lon="10.7513354"><ele>237.0</ele><time>2026-03-28T13:05:38.616Z</time></trkpt><trkpt lat="45.5554152" lon="10.7511486"><ele>237.0</ele><time>2026-03-28T13:05:39.603Z</time></trkpt><trkpt lat="45.555369" lon="10.7509356"><ele>237.0</ele><time>2026-03-28T13:05:40.618Z</time></trkpt><trkpt lat="45.5553205" lon="10.7506959"><ele>236.75</ele><time>2026-03-28T13:05:41.605Z</time></trkpt><trkpt lat="45.5552456" lon="10.7504487"><ele>236.5</ele><time>2026-03-28T13:05:42.607Z</time></trkpt><trkpt lat="45.5551987" lon="10.7502729"><ele>236.25</ele><time>2026-03-28T13:05:43.602Z</time></trkpt><trkpt lat="45.5551605" lon="10.7501163"><ele>236.0</ele><time>2026-03-28T13:05:44.616Z</time></trkpt><trkpt lat="45.5551207" lon="10.7499748"><ele>236.0</ele><time>2026-03-28T13:05:45.621Z</time></trkpt><trkpt lat="45.5550807" lon="10.7498358"><ele>236.00000000000003</ele><time>2026-03-28T13:05:46.619Z</time></trkpt><trkpt lat="45.5550516" lon="10.7497123"><ele>236.00000000000003</ele><time>2026-03-28T13:05:47.609Z</time></trkpt><trkpt lat="45.5550341" lon="10.7496109"><ele>236.0</ele><time>2026-03-28T13:05:48.623Z</time></trkpt><trkpt lat="45.555025" lon="10.7495054"><ele>236.0</ele><time>2026-03-28T13:05:49.615Z</time></trkpt><trkpt lat="45.5550317" lon="10.7493443"><ele>236.00000000000003</ele><time>2026-03-28T13:05:51.615Z</time></trkpt><trkpt lat="45.5550272" lon="10.7492474"><ele>236.0</ele><time>2026-03-28T13:05:53.623Z</time></trkpt><trkpt lat="45.5549487" lon="10.7492402"><ele>236.0</ele><time>2026-03-28T13:05:56.624Z</time></trkpt><trkpt lat="45.5549655" lon="10.7493584"><ele>236.0</ele><time>2026-03-28T13:05:58.614Z</time></trkpt><trkpt lat="45.5549946" lon="10.7494469"><ele>236.00000000000003</ele><time>2026-03-28T13:05:59.625Z</time></trkpt><trkpt lat="45.5550246" lon="10.7495695"><ele>236.0</ele><time>2026-03-28T13:06:00.611Z</time></trkpt><trkpt lat="45.5550627" lon="10.7497355"><ele>236.0</ele><time>2026-03-28T13:06:01.616Z</time></trkpt><trkpt lat="45.5551125" lon="10.7499257"><ele>236.0</ele><time>2026-03-28T13:06:02.627Z</time></trkpt><trkpt lat="45.5551662" lon="10.7501343"><ele>236.0</ele><time>2026-03-28T13:06:03.611Z</time></trkpt><trkpt lat="45.5552223" lon="10.7503266"><ele>236.0</ele><time>2026-03-28T13:06:04.605Z</time></trkpt><trkpt lat="45.5552627" lon="10.7504861"><ele>236.0</ele><time>2026-03-28T13:06:05.613Z</time></trkpt><trkpt lat="45.5553035" lon="10.7506339"><ele>236.00000000000003</ele><time>2026-03-28T13:06:06.614Z</time></trkpt><trkpt lat="45.5553376" lon="10.7507979"><ele>236.00000000000003</ele><time>2026-03-28T13:06:07.615Z</time></trkpt><trkpt lat="45.5553707" lon="10.7509346"><ele>236.0</ele><time>2026-03-28T13:06:08.615Z</time></trkpt><trkpt lat="45.5553984" lon="10.7510315"><ele>236.0</ele><time>2026-03-28T13:06:09.61Z</time></trkpt><trkpt lat="45.555369" lon="10.7509356"><ele>236.0</ele><time>2026-03-28T13:05:40.618Z</time></trkpt><trkpt lat="45.5553205" lon="10.7506959"><ele>236.0</ele><time>2026-03-28T13:05:41.605Z</time></trkpt><trkpt lat="45.5552456" lon="10.7504487"><ele>236.0</ele><time>2026-03-28T13:05:42.607Z</time></trkpt><trkpt lat="45.5551987" lon="10.7502729"><ele>236.0</ele><time>2026-03-28T13:05:43.602Z</time></trkpt><trkpt lat="45.5551605" lon="10.7501163"><ele>236.00000000000003</ele><time>2026-03-28T13:05:44.616Z</time></trkpt><trkpt lat="45.5551207" lon="10.7499748"><ele>236.00000000000003</ele><time>2026-03-28T13:05:45.621Z</time></trkpt><trkpt lat="45.5550807" lon="10.7498358"><ele>236.0</ele><time>2026-03-28T13:05:46.619Z</time></trkpt><trkpt lat="45.5550516" lon="10.7497123"><ele>236.0</ele><time>2026-03-28T13:05:47.609Z</time></trkpt><trkpt lat="45.5550341" lon="10.7496109"><ele>236.00000000000003</ele><time>2026-03-28T13:05:48.623Z</time></trkpt><trkpt lat="45.555025" lon="10.7495054"><ele>236.0</ele><time>2026-03-28T13:05:49.615Z</time></trkpt><trkpt lat="45.5550317" lon="10.7493443"><ele>236.0</ele><time>2026-03-28T13:05:51.615Z</time></trkpt><trkpt lat="45.5550272" lon="10.7492474"><ele>236.0</ele><time>2026-03-28T13:05:53.623Z</time></trkpt><trkpt lat="45.5549487" lon="10.7492402"><ele>236.00000000000003</ele><time>2026-03-28T13:05:56.624Z</time></trkpt><trkpt lat="45.5549655" lon="10.7493584"><ele>236.0</ele><time>2026-03-28T13:05:58.614Z</time></trkpt><trkpt lat="45.5549946" lon="10.7494469"><ele>236.0</ele><time>2026-03-28T13:05:59.625Z</time></trkpt><trkpt lat="45.5550246" lon="10.7495695"><ele>236.0</ele><time>2026-03-28T13:06:00.611Z</time></trkpt><trkpt lat="45.5550627" lon="10.7497355"><ele>236.0</ele><time>2026-03-28T13:06:01.616Z</time></trkpt><trkpt lat="45.5551125" lon="10.7499257"><ele>236.0</ele><time>2026-03-28T13:06:02.627Z</time></trkpt><trkpt lat="45.5551662" lon="10.7501343"><ele>236.0</ele><time>2026-03-28T13:06:03.611Z</time></trkpt><trkpt lat="45.5552223" lon="10.7503266"><ele>236.0</ele><time>2026-03-28T13:06:04.605Z</time></trkpt><trkpt lat="45.5552627" lon="10.7504861"><ele>236.0</ele><time>2026-03-28T13:06:05.613Z</time></trkpt><trkpt lat="45.5553035" lon="10.7506339"><ele>236.0</ele><time>2026-03-28T13:06:06.614Z</time></trkpt><trkpt lat="45.5553376" lon="10.7507979"><ele>236.20000000000002</ele><time>2026-03-28T13:06:07.615Z</time></trkpt><trkpt lat="45.5553707" lon="10.7509346"><ele>236.40000000000003</ele><time>2026-03-28T13:06:08.615Z</time></trkpt><trkpt lat="45.5553984" lon="10.7510315"><ele>236.6</ele><time>2026-03-28T13:06:09.61Z</time></trkpt><trkpt lat="45.555444" lon="10.7511952"><ele>236.8</ele><time>2026-03-28T13:06:11.599Z</time></trkpt><trkpt lat="45.5555287" lon="10.7512626"><ele>237.0</ele><time>2026-03-28T13:06:13.615Z</time></trkpt><trkpt lat="45.5555985" lon="10.7512323"><ele>237.0</ele><time>2026-03-28T13:06:14.616Z</time></trkpt><trkpt lat="45.5556724" lon="10.7511701"><ele>237.0</ele><time>2026-03-28T13:06:15.615Z</time></trkpt><trkpt lat="45.5557316" lon="10.7510717"><ele>237.0</ele><time>2026-03-28T13:06:16.598Z</time></trkpt><trkpt lat="45.5557765" lon="10.7509621"><ele>237.0</ele><time>2026-03-28T13:06:17.608Z</time></trkpt><trkpt lat="45.5558025" lon="10.7508138"><ele>237.0</ele><time>2026-03-28T13:06:18.606Z</time></trkpt><trkpt lat="45.5558263" lon="10.7506335"><ele>238.33333333333331</ele><time>2026-03-28T13:06:19.599Z</time></trkpt><trkpt lat="45.5558436" lon="10.7504137"><ele>239.66666666666666</ele><time>2026-03-28T13:06:20.594Z</time></trkpt><trkpt lat="45.5558595" lon="10.7501877"><ele>241.0</ele><time>2026-03-28T13:06:21.594Z</time></trkpt><trkpt lat="45.55588" lon="10.7499682"><ele>241.0</ele><time>2026-03-28T13:06:22.595Z</time></trkpt><trkpt lat="45.5559099" lon="10.7497716"><ele>241.0</ele><time>2026-03-28T13:06:23.597Z</time></trkpt><trkpt lat="45.5559742" lon="10.7495799"><ele>241.0</ele><time>2026-03-28T13:06:24.598Z</time></trkpt><trkpt lat="45.5560657" lon="10.749372"><ele>240.0</ele><time>2026-03-28T13:06:25.596Z</time></trkpt><trkpt lat="45.5561441" lon="10.7491581"><ele>239.0</ele><time>2026-03-28T13:06:26.592Z</time></trkpt><trkpt lat="45.556219" lon="10.7489331"><ele>238.0</ele><time>2026-03-28T13:06:27.594Z</time></trkpt><trkpt lat="45.5562923" lon="10.748725"><ele>241.0</ele><time>2026-03-28T13:06:28.6Z</time></trkpt><trkpt lat="45.5563377" lon="10.7485185"><ele>244.0</ele><time>2026-03-28T13:06:29.603Z</time></trkpt><trkpt lat="45.5563928" lon="10.7483198"><ele>247.0</ele><time>2026-03-28T13:06:30.595Z</time></trkpt><trkpt lat="45.5564461" lon="10.7481483"><ele>250.0</ele><time>2026-03-28T13:06:31.624Z</time></trkpt><trkpt lat="45.5564924" lon="10.7479603"><ele>250.0</ele><time>2026-03-28T13:06:33.701Z</time></trkpt><trkpt lat="45.5565489" lon="10.7477784"><ele>250.0</ele><time>2026-03-28T13:06:34.678Z</time></trkpt><trkpt lat="45.556626" lon="10.7476101"><ele>250.0</ele><time>2026-03-28T13:06:35.681Z</time></trkpt><trkpt lat="45.5567106" lon="10.7474619"><ele>250.0</ele><time>2026-03-28T13:06:36.67Z</time></trkpt><trkpt lat="45.5567759" lon="10.747351"><ele>248.6</ele><time>2026-03-28T13:06:37.661Z</time></trkpt><trkpt lat="45.5568334" lon="10.74725"><ele>247.2</ele><time>2026-03-28T13:06:38.663Z</time></trkpt><trkpt lat="45.5568723" lon="10.7471679"><ele>245.8</ele><time>2026-03-28T13:06:39.663Z</time></trkpt><trkpt lat="45.5569412" lon="10.7470687"><ele>244.4</ele><time>2026-03-28T13:06:41.596Z</time></trkpt><trkpt lat="45.5570802" lon="10.7470381"><ele>243.0</ele><time>2026-03-28T13:06:43.604Z</time></trkpt><trkpt lat="45.5571564" lon="10.7470014"><ele>244.60000000000002</ele><time>2026-03-28T13:06:44.602Z</time></trkpt><trkpt lat="45.557236" lon="10.7469389"><ele>246.20000000000002</ele><time>2026-03-28T13:06:45.588Z</time></trkpt><trkpt lat="45.5573072" lon="10.746832"><ele>247.8</ele><time>2026-03-28T13:06:46.594Z</time></trkpt><trkpt lat="45.557376" lon="10.7466924"><ele>249.4</ele><time>2026-03-28T13:06:47.585Z</time></trkpt><trkpt lat="45.557449" lon="10.7465582"><ele>251.0</ele><time>2026-03-28T13:06:48.591Z</time></trkpt><trkpt lat="45.5575085" lon="10.7464191"><ele>251.00000000000003</ele><time>2026-03-28T13:06:49.592Z</time></trkpt><trkpt lat="45.557556" lon="10.7463065"><ele>251.0</ele><time>2026-03-28T13:06:50.586Z</time></trkpt><trkpt lat="45.5575916" lon="10.7461898"><ele>251.0</ele><time>2026-03-28T13:06:51.594Z</time></trkpt><trkpt lat="45.5576364" lon="10.7460858"><ele>251.0</ele><time>2026-03-28T13:06:52.592Z</time></trkpt><trkpt lat="45.5576761" lon="10.7459897"><ele>251.00000000000003</ele><time>2026-03-28T13:06:53.594Z</time></trkpt><trkpt lat="45.557723" lon="10.7459142"><ele>251.0</ele><time>2026-03-28T13:06:54.582Z</time></trkpt><trkpt lat="45.5578165" lon="10.7458015"><ele>251.83333333333334</ele><time>2026-03-28T13:06:56.59Z</time></trkpt><trkpt lat="45.5578815" lon="10.7457493"><ele>252.66666666666669</ele><time>2026-03-28T13:06:57.595Z</time></trkpt><trkpt lat="45.5579509" lon="10.7457139"><ele>253.5</ele><time>2026-03-28T13:06:58.603Z</time></trkpt><trkpt lat="45.5580201" lon="10.7456576"><ele>254.33333333333331</ele><time>2026-03-28T13:06:59.602Z</time></trkpt><trkpt lat="45.558093" lon="10.7455871"><ele>255.16666666666666</ele><time>2026-03-28T13:07:00.601Z</time></trkpt><trkpt lat="45.5581745" lon="10.7455265"><ele>256.0</ele><time>2026-03-28T13:07:01.593Z</time></trkpt><trkpt lat="45.5582759" lon="10.7454761"><ele>256.0</ele><time>2026-03-28T13:07:02.597Z</time></trkpt><trkpt lat="45.5583883" lon="10.7454478"><ele>256.0</ele><time>2026-03-28T13:07:03.604Z</time></trkpt><trkpt lat="45.5585062" lon="10.7454277"><ele>256.0</ele><time>2026-03-28T13:07:04.619Z</time></trkpt><trkpt lat="45.5586168" lon="10.7454077"><ele>256.0</ele><time>2026-03-28T13:07:05.601Z</time></trkpt><trkpt lat="45.5587275" lon="10.7453853"><ele>256.8</ele><time>2026-03-28T13:07:06.606Z</time></trkpt><trkpt lat="45.5588425" lon="10.7453661"><ele>257.6</ele><time>2026-03-28T13:07:07.602Z</time></trkpt><trkpt lat="45.5589424" lon="10.7453462"><ele>258.4</ele><time>2026-03-28T13:07:08.603Z</time></trkpt><trkpt lat="45.5590342" lon="10.7453156"><ele>259.2</ele><time>2026-03-28T13:07:09.607Z</time></trkpt><trkpt lat="45.559114" lon="10.745277"><ele>260.0</ele><time>2026-03-28T13:07:10.605Z</time></trkpt><trkpt lat="45.5591969" lon="10.7452203"><ele>259.0</ele><time>2026-03-28T13:07:11.605Z</time></trkpt><trkpt lat="45.5592821" lon="10.7451583"><ele>258.0</ele><time>2026-03-28T13:07:12.607Z</time></trkpt><trkpt lat="45.5593506" lon="10.7451088"><ele>257.0</ele><time>2026-03-28T13:07:13.61Z</time></trkpt><trkpt lat="45.5594174" lon="10.7450637"><ele>256.0</ele><time>2026-03-28T13:07:14.617Z</time></trkpt><trkpt lat="45.5594908" lon="10.745005"><ele>255.00000000000003</ele><time>2026-03-28T13:07:15.608Z</time></trkpt><trkpt lat="45.5595678" lon="10.7449508"><ele>254.0</ele><time>2026-03-28T13:07:16.61Z</time></trkpt><trkpt lat="45.5596467" lon="10.7449023"><ele>254.00000000000003</ele><time>2026-03-28T13:07:17.609Z</time></trkpt><trkpt lat="45.5597091" lon="10.7448453"><ele>254.0</ele><time>2026-03-28T13:07:18.609Z</time></trkpt><trkpt lat="45.5597609" lon="10.7447883"><ele>254.0</ele><time>2026-03-28T13:07:19.607Z</time></trkpt><trkpt lat="45.5598397" lon="10.744719"><ele>254.0</ele><time>2026-03-28T13:07:21.606Z</time></trkpt><trkpt lat="45.5599098" lon="10.7446524"><ele>254.00000000000003</ele><time>2026-03-28T13:07:23.621Z</time></trkpt><trkpt lat="45.5599784" lon="10.7445886"><ele>254.0</ele><time>2026-03-28T13:07:25.616Z</time></trkpt><trkpt lat="45.5600397" lon="10.7445251"><ele>254.0</ele><time>2026-03-28T13:07:29.617Z</time></trkpt><trkpt lat="45.5600397" lon="10.7445251"><ele>254.0</ele><time>2026-03-28T13:07:29.617Z</time></trkpt><trkpt lat="45.5600397" lon="10.7445251"><ele>254.0</ele><time>2026-03-28T13:07:29.617Z</time></trkpt><trkpt lat="45.5601387" lon="10.7444385"><ele>254.0</ele><time>2026-03-28T13:13:31.572Z</time></trkpt><trkpt lat="45.5600791" lon="10.7444829"><ele>254.0</ele><time>2026-03-28T13:13:45.623Z</time></trkpt><trkpt lat="45.5601555" lon="10.7443792"><ele>254.0</ele><time>2026-03-28T13:13:48.603Z</time></trkpt><trkpt lat="45.5602303" lon="10.7442804"><ele>254.0</ele><time>2026-03-28T13:13:49.587Z</time></trkpt><trkpt lat="45.5603415" lon="10.7441365"><ele>252.0</ele><time>2026-03-28T13:13:50.592Z</time></trkpt><trkpt lat="45.5604517" lon="10.7439818"><ele>250.0</ele><time>2026-03-28T13:13:51.599Z</time></trkpt><trkpt lat="45.5605613" lon="10.7438332"><ele>248.0</ele><time>2026-03-28T13:13:52.6Z</time></trkpt><trkpt lat="45.5606809" lon="10.7436911"><ele>248.0</ele><time>2026-03-28T13:13:53.607Z</time></trkpt><trkpt lat="45.5608114" lon="10.7435703"><ele>248.0</ele><time>2026-03-28T13:13:54.605Z</time></trkpt><trkpt lat="45.5609406" lon="10.743473"><ele>248.0</ele><time>2026-03-28T13:13:55.602Z</time></trkpt><trkpt lat="45.5610881" lon="10.7434009"><ele>247.25</ele><time>2026-03-28T13:13:56.609Z</time></trkpt><trkpt lat="45.5612319" lon="10.7433581"><ele>246.5</ele><time>2026-03-28T13:13:57.602Z</time></trkpt><trkpt lat="45.5613786" lon="10.7433339"><ele>245.75</ele><time>2026-03-28T13:13:58.612Z</time></trkpt><trkpt lat="45.5615318" lon="10.74332"><ele>245.0</ele><time>2026-03-28T13:13:59.6Z</time></trkpt><trkpt lat="45.5616465" lon="10.7432958"><ele>245.0</ele><time>2026-03-28T13:14:00.6Z</time></trkpt><trkpt lat="45.5617783" lon="10.7432723"><ele>245.0</ele><time>2026-03-28T13:14:01.597Z</time></trkpt><trkpt lat="45.5618781" lon="10.7432444"><ele>245.0</ele><time>2026-03-28T13:14:02.596Z</time></trkpt><trkpt lat="45.5619838" lon="10.7432212"><ele>245.0</ele><time>2026-03-28T13:14:03.596Z</time></trkpt><trkpt lat="45.5620668" lon="10.7432111"><ele>245.0</ele><time>2026-03-28T13:14:04.596Z</time></trkpt><trkpt lat="45.5621555" lon="10.743186"><ele>244.25</ele><time>2026-03-28T13:14:05.598Z</time></trkpt><trkpt lat="45.5622553" lon="10.7431599"><ele>243.5</ele><time>2026-03-28T13:14:06.595Z</time></trkpt><trkpt lat="45.5623686" lon="10.74313"><ele>242.75</ele><time>2026-03-28T13:14:07.597Z</time></trkpt><trkpt lat="45.5624992" lon="10.7430977"><ele>242.0</ele><time>2026-03-28T13:14:08.613Z</time></trkpt><trkpt lat="45.562642" lon="10.7430467"><ele>242.0</ele><time>2026-03-28T13:14:09.607Z</time></trkpt><trkpt lat="45.562784" lon="10.7429565"><ele>242.0</ele><time>2026-03-28T13:14:10.604Z</time></trkpt><trkpt lat="45.5629102" lon="10.7428747"><ele>242.0</ele><time>2026-03-28T13:14:11.604Z</time></trkpt><trkpt lat="45.5630031" lon="10.7427985"><ele>242.0</ele><time>2026-03-28T13:14:12.611Z</time></trkpt><trkpt lat="45.5630953" lon="10.7427082"><ele>241.33333333333334</ele><time>2026-03-28T13:14:13.611Z</time></trkpt><trkpt lat="45.563172" lon="10.74267"><ele>240.66666666666669</ele><time>2026-03-28T13:14:14.615Z</time></trkpt><trkpt lat="45.5632379" lon="10.7426467"><ele>240.0</ele><time>2026-03-28T13:14:15.613Z</time></trkpt><trkpt lat="45.5633435" lon="10.7425687"><ele>239.33333333333331</ele><time>2026-03-28T13:14:17.61Z</time></trkpt><trkpt lat="45.5634307" lon="10.7425874"><ele>238.66666666666666</ele><time>2026-03-28T13:14:19.61Z</time></trkpt><trkpt lat="45.5634635" lon="10.7426935"><ele>238.0</ele><time>2026-03-28T13:14:21.612Z</time></trkpt><trkpt lat="45.5634465" lon="10.7428844"><ele>238.2</ele><time>2026-03-28T13:14:23.618Z</time></trkpt><trkpt lat="45.5634134" lon="10.7430043"><ele>238.4</ele><time>2026-03-28T13:14:24.609Z</time></trkpt><trkpt lat="45.5633701" lon="10.7431441"><ele>238.59999999999997</ele><time>2026-03-28T13:14:25.609Z</time></trkpt><trkpt lat="45.563328" lon="10.7432723"><ele>238.79999999999998</ele><time>2026-03-28T13:14:26.611Z</time></trkpt><trkpt lat="45.5633036" lon="10.7434022"><ele>239.0</ele><time>2026-03-28T13:14:27.609Z</time></trkpt><trkpt lat="45.5633108" lon="10.7435593"><ele>239.00000000000003</ele><time>2026-03-28T13:14:28.595Z</time></trkpt><trkpt lat="45.563324" lon="10.7437084"><ele>239.0</ele><time>2026-03-28T13:14:29.594Z</time></trkpt><trkpt lat="45.563329" lon="10.7438394"><ele>239.0</ele><time>2026-03-28T13:14:30.598Z</time></trkpt><trkpt lat="45.5633413" lon="10.7439585"><ele>239.0</ele><time>2026-03-28T13:14:31.598Z</time></trkpt><trkpt lat="45.5633646" lon="10.7440607"><ele>239.00000000000003</ele><time>2026-03-28T13:14:32.59Z</time></trkpt><trkpt lat="45.5634032" lon="10.7441405"><ele>239.0</ele><time>2026-03-28T13:14:33.596Z</time></trkpt><trkpt lat="45.5634514" lon="10.7442056"><ele>239.0</ele><time>2026-03-28T13:14:34.608Z</time></trkpt><trkpt lat="45.5635317" lon="10.7442487"><ele>239.0</ele><time>2026-03-28T13:14:35.597Z</time></trkpt><trkpt lat="45.5636319" lon="10.7442853"><ele>239.0</ele><time>2026-03-28T13:14:36.596Z</time></trkpt><trkpt lat="45.5637578" lon="10.7443147"><ele>239.0</ele><time>2026-03-28T13:14:38.676Z</time></trkpt><trkpt lat="45.5639171" lon="10.7443381"><ele>239.0</ele><time>2026-03-28T13:14:39.673Z</time></trkpt><trkpt lat="45.5640682" lon="10.7443401"><ele>239.0</ele><time>2026-03-28T13:14:40.673Z</time></trkpt><trkpt lat="45.5642228" lon="10.7443445"><ele>239.0</ele><time>2026-03-28T13:14:41.676Z</time></trkpt><trkpt lat="45.5643738" lon="10.7443487"><ele>239.0</ele><time>2026-03-28T13:14:42.669Z</time></trkpt><trkpt lat="45.5645245" lon="10.7443557"><ele>239.0</ele><time>2026-03-28T13:14:43.668Z</time></trkpt><trkpt lat="45.5646817" lon="10.7443597"><ele>239.0</ele><time>2026-03-28T13:14:44.667Z</time></trkpt><trkpt lat="45.564841" lon="10.7443664"><ele>239.75</ele><time>2026-03-28T13:14:45.668Z</time></trkpt><trkpt lat="45.5649957" lon="10.7443753"><ele>240.5</ele><time>2026-03-28T13:14:46.663Z</time></trkpt><trkpt lat="45.5651406" lon="10.7443817"><ele>241.25</ele><time>2026-03-28T13:14:47.684Z</time></trkpt><trkpt lat="45.565285" lon="10.7443762"><ele>242.0</ele><time>2026-03-28T13:14:48.664Z</time></trkpt><trkpt lat="45.5654412" lon="10.7443317"><ele>242.25</ele><time>2026-03-28T13:14:49.655Z</time></trkpt><trkpt lat="45.5655638" lon="10.7443093"><ele>242.5</ele><time>2026-03-28T13:14:50.652Z</time></trkpt><trkpt lat="45.5656945" lon="10.7442805"><ele>242.75</ele><time>2026-03-28T13:14:51.664Z</time></trkpt><trkpt lat="45.5658285" lon="10.7442351"><ele>243.0</ele><time>2026-03-28T13:14:52.675Z</time></trkpt><trkpt lat="45.5659762" lon="10.7441821"><ele>243.0</ele><time>2026-03-28T13:14:53.671Z</time></trkpt><trkpt lat="45.5661256" lon="10.7441285"><ele>243.0</ele><time>2026-03-28T13:14:54.672Z</time></trkpt><trkpt lat="45.5662706" lon="10.7440833"><ele>243.0</ele><time>2026-03-28T13:14:55.675Z</time></trkpt><trkpt lat="45.5664038" lon="10.7440452"><ele>243.0</ele><time>2026-03-28T13:14:56.67Z</time></trkpt><trkpt lat="45.5665378" lon="10.7440129"><ele>244.0</ele><time>2026-03-28T13:14:57.669Z</time></trkpt><trkpt lat="45.5666805" lon="10.7439866"><ele>245.0</ele><time>2026-03-28T13:14:58.67Z</time></trkpt><trkpt lat="45.5668241" lon="10.7439754"><ele>246.0</ele><time>2026-03-28T13:14:59.672Z</time></trkpt><trkpt lat="45.5669639" lon="10.7439829"><ele>247.0</ele><time>2026-03-28T13:15:00.667Z</time></trkpt><trkpt lat="45.5671028" lon="10.7439956"><ele>247.5</ele><time>2026-03-28T13:15:01.668Z</time></trkpt><trkpt lat="45.5672331" lon="10.7440172"><ele>248.0</ele><time>2026-03-28T13:15:02.666Z</time></trkpt><trkpt lat="45.5673549" lon="10.7440601"><ele>248.5</ele><time>2026-03-28T13:15:03.668Z</time></trkpt><trkpt lat="45.5674801" lon="10.7441097"><ele>249.0</ele><time>2026-03-28T13:15:04.648Z</time></trkpt><trkpt lat="45.5675832" lon="10.7441514"><ele>249.0</ele><time>2026-03-28T13:15:05.643Z</time></trkpt><trkpt lat="45.5676642" lon="10.7441844"><ele>249.0</ele><time>2026-03-28T13:15:06.643Z</time></trkpt><trkpt lat="45.5677274" lon="10.7442099"><ele>249.0</ele><time>2026-03-28T13:15:07.64Z</time></trkpt><trkpt lat="45.5678062" lon="10.7442402"><ele>249.0</ele><time>2026-03-28T13:15:09.658Z</time></trkpt><trkpt lat="45.5677729" lon="10.7441007"><ele>249.0</ele><time>2026-03-28T13:15:19.683Z</time></trkpt><trkpt lat="45.5677682" lon="10.7439896"><ele>249.0</ele><time>2026-03-28T13:15:20.65Z</time></trkpt><trkpt lat="45.5677777" lon="10.743896"><ele>249.0</ele><time>2026-03-28T13:15:21.65Z</time></trkpt><trkpt lat="45.5677638" lon="10.743746"><ele>248.99999999999997</ele><time>2026-03-28T13:15:22.653Z</time></trkpt><trkpt lat="45.5677531" lon="10.7436252"><ele>248.99999999999997</ele><time>2026-03-28T13:15:23.651Z</time></trkpt><trkpt lat="45.5677425" lon="10.7435059"><ele>249.0</ele><time>2026-03-28T13:15:24.679Z</time></trkpt><trkpt lat="45.5677157" lon="10.7433314"><ele>249.0</ele><time>2026-03-28T13:15:25.668Z</time></trkpt><trkpt lat="45.567701" lon="10.7432327"><ele>248.79999999999998</ele><time>2026-03-28T13:15:26.666Z</time></trkpt><trkpt lat="45.5676511" lon="10.7430714"><ele>248.59999999999997</ele><time>2026-03-28T13:15:27.666Z</time></trkpt><trkpt lat="45.5676246" lon="10.7429798"><ele>248.4</ele><time>2026-03-28T13:15:28.674Z</time></trkpt><trkpt lat="45.5676063" lon="10.7428931"><ele>248.2</ele><time>2026-03-28T13:15:29.652Z</time></trkpt><trkpt lat="45.5676036" lon="10.7427846"><ele>248.0</ele><time>2026-03-28T13:15:30.65Z</time></trkpt><trkpt lat="45.5676403" lon="10.7426079"><ele>247.0</ele><time>2026-03-28T13:15:32.65Z</time></trkpt><trkpt lat="45.5676455" lon="10.7425174"><ele>246.0</ele><time>2026-03-28T13:15:33.671Z</time></trkpt><trkpt lat="45.5676688" lon="10.7423473"><ele>245.0</ele><time>2026-03-28T13:15:35.658Z</time></trkpt><trkpt lat="45.5677148" lon="10.7421866"><ele>244.0</ele><time>2026-03-28T13:15:37.653Z</time></trkpt><trkpt lat="45.5678145" lon="10.7419874"><ele>243.49999999999997</ele><time>2026-03-28T13:15:38.565Z</time></trkpt><trkpt lat="45.5678752" lon="10.7418786"><ele>243.0</ele><time>2026-03-28T13:15:39.581Z</time></trkpt><trkpt lat="45.5679295" lon="10.7417841"><ele>242.5</ele><time>2026-03-28T13:15:40.578Z</time></trkpt><trkpt lat="45.5679763" lon="10.7416997"><ele>242.0</ele><time>2026-03-28T13:15:41.582Z</time></trkpt><trkpt lat="45.5680186" lon="10.7416156"><ele>241.49999999999997</ele><time>2026-03-28T13:15:42.585Z</time></trkpt><trkpt lat="45.5680536" lon="10.7415346"><ele>241.0</ele><time>2026-03-28T13:15:43.585Z</time></trkpt><trkpt lat="45.5680747" lon="10.7414469"><ele>240.99999999999997</ele><time>2026-03-28T13:15:44.584Z</time></trkpt><trkpt lat="45.5680837" lon="10.7413529"><ele>241.0</ele><time>2026-03-28T13:15:45.58Z</time></trkpt><trkpt lat="45.5680716" lon="10.7412463"><ele>241.0</ele><time>2026-03-28T13:15:46.577Z</time></trkpt><trkpt lat="45.56805" lon="10.7411318"><ele>241.0</ele><time>2026-03-28T13:15:47.585Z</time></trkpt><trkpt lat="45.5680168" lon="10.7410258"><ele>240.99999999999997</ele><time>2026-03-28T13:15:48.586Z</time></trkpt><trkpt lat="45.5679744" lon="10.7409228"><ele>241.0</ele><time>2026-03-28T13:15:49.596Z</time></trkpt><trkpt lat="45.5679097" lon="10.7408502"><ele>238.20000000000002</ele><time>2026-03-28T13:15:50.579Z</time></trkpt><trkpt lat="45.5678377" lon="10.7407762"><ele>235.40000000000003</ele><time>2026-03-28T13:15:51.571Z</time></trkpt><trkpt lat="45.5677539" lon="10.7407163"><ele>232.6</ele><time>2026-03-28T13:15:52.577Z</time></trkpt><trkpt lat="45.5676544" lon="10.7406726"><ele>229.8</ele><time>2026-03-28T13:15:53.579Z</time></trkpt><trkpt lat="45.5675516" lon="10.7406314"><ele>227.0</ele><time>2026-03-28T13:15:54.583Z</time></trkpt><trkpt lat="45.5674428" lon="10.7405945"><ele>227.0</ele><time>2026-03-28T13:15:55.587Z</time></trkpt><trkpt lat="45.5673212" lon="10.7405668"><ele>227.0</ele><time>2026-03-28T13:15:56.584Z</time></trkpt><trkpt lat="45.5671952" lon="10.7405459"><ele>227.0</ele><time>2026-03-28T13:15:57.591Z</time></trkpt><trkpt lat="45.5670715" lon="10.7405223"><ele>227.0</ele><time>2026-03-28T13:15:58.589Z</time></trkpt><trkpt lat="45.5669587" lon="10.7404863"><ele>227.2</ele><time>2026-03-28T13:15:59.58Z</time></trkpt><trkpt lat="45.5668618" lon="10.7404357"><ele>227.39999999999998</ele><time>2026-03-28T13:16:00.591Z</time></trkpt><trkpt lat="45.5667776" lon="10.7403562"><ele>227.60000000000002</ele><time>2026-03-28T13:16:01.586Z</time></trkpt><trkpt lat="45.5666867" lon="10.7402571"><ele>227.8</ele><time>2026-03-28T13:16:02.586Z</time></trkpt><trkpt lat="45.5666136" lon="10.7401286"><ele>228.0</ele><time>2026-03-28T13:16:03.59Z</time></trkpt><trkpt lat="45.5665524" lon="10.739978"><ele>229.0</ele><time>2026-03-28T13:16:04.587Z</time></trkpt><trkpt lat="45.5664896" lon="10.7398385"><ele>230.0</ele><time>2026-03-28T13:16:05.585Z</time></trkpt><trkpt lat="45.5664349" lon="10.7396904"><ele>231.0</ele><time>2026-03-28T13:16:06.587Z</time></trkpt><trkpt lat="45.566392" lon="10.7395411"><ele>232.0</ele><time>2026-03-28T13:16:07.593Z</time></trkpt><trkpt lat="45.5663687" lon="10.7394041"><ele>233.0</ele><time>2026-03-28T13:16:08.59Z</time></trkpt><trkpt lat="45.5663617" lon="10.7392615"><ele>233.8</ele><time>2026-03-28T13:16:09.6Z</time></trkpt><trkpt lat="45.566358" lon="10.739146"><ele>234.60000000000002</ele><time>2026-03-28T13:16:10.593Z</time></trkpt><trkpt lat="45.5663529" lon="10.7390563"><ele>235.39999999999998</ele><time>2026-03-28T13:16:11.598Z</time></trkpt><trkpt lat="45.5663647" lon="10.7389267"><ele>236.2</ele><time>2026-03-28T13:16:13.591Z</time></trkpt><trkpt lat="45.5664183" lon="10.7388298"><ele>237.0</ele><time>2026-03-28T13:16:16.601Z</time></trkpt><trkpt lat="45.5665366" lon="10.7387046"><ele>237.0</ele><time>2026-03-28T13:16:18.596Z</time></trkpt><trkpt lat="45.5666208" lon="10.7386014"><ele>237.0</ele><time>2026-03-28T13:16:19.588Z</time></trkpt><trkpt lat="45.5667092" lon="10.7384824"><ele>237.0</ele><time>2026-03-28T13:16:20.605Z</time></trkpt><trkpt lat="45.566801" lon="10.7383455"><ele>237.0</ele><time>2026-03-28T13:16:21.588Z</time></trkpt><trkpt lat="45.5669052" lon="10.7381957"><ele>237.0</ele><time>2026-03-28T13:16:22.596Z</time></trkpt><trkpt lat="45.5670125" lon="10.7380407"><ele>237.0</ele><time>2026-03-28T13:16:23.593Z</time></trkpt><trkpt lat="45.5671265" lon="10.7378596"><ele>237.0</ele><time>2026-03-28T13:16:24.597Z</time></trkpt><trkpt lat="45.567214" lon="10.737705"><ele>235.6</ele><time>2026-03-28T13:16:25.596Z</time></trkpt><trkpt lat="45.5672796" lon="10.7375609"><ele>234.2</ele><time>2026-03-28T13:16:26.594Z</time></trkpt><trkpt lat="45.567363" lon="10.7374207"><ele>232.8</ele><time>2026-03-28T13:16:27.592Z</time></trkpt><trkpt lat="45.5674184" lon="10.7373073"><ele>231.4</ele><time>2026-03-28T13:16:28.595Z</time></trkpt><trkpt lat="45.5674818" lon="10.7372154"><ele>230.0</ele><time>2026-03-28T13:16:29.594Z</time></trkpt><trkpt lat="45.567535" lon="10.7371248"><ele>230.0</ele><time>2026-03-28T13:16:30.59Z</time></trkpt><trkpt lat="45.5675836" lon="10.7370097"><ele>230.0</ele><time>2026-03-28T13:16:31.585Z</time></trkpt><trkpt lat="45.567621" lon="10.736866"><ele>230.0</ele><time>2026-03-28T13:16:32.583Z</time></trkpt><trkpt lat="45.5676402" lon="10.7367145"><ele>230.0</ele><time>2026-03-28T13:16:33.584Z</time></trkpt><trkpt lat="45.5676568" lon="10.7365607"><ele>230.0</ele><time>2026-03-28T13:16:34.581Z</time></trkpt><trkpt lat="45.5676624" lon="10.7364245"><ele>229.83333333333334</ele><time>2026-03-28T13:16:35.577Z</time></trkpt><trkpt lat="45.5676636" lon="10.7363241"><ele>229.66666666666669</ele><time>2026-03-28T13:16:36.585Z</time></trkpt><trkpt lat="45.5676672" lon="10.7361979"><ele>229.5</ele><time>2026-03-28T13:16:38.584Z</time></trkpt><trkpt lat="45.5677514" lon="10.7362653"><ele>229.33333333333331</ele><time>2026-03-28T13:16:41.6Z</time></trkpt><trkpt lat="45.567785" lon="10.7363642"><ele>229.16666666666666</ele><time>2026-03-28T13:16:42.584Z</time></trkpt><trkpt lat="45.5678275" lon="10.7364383"><ele>229.0</ele><time>2026-03-28T13:16:43.586Z</time></trkpt><trkpt lat="45.5678828" lon="10.7364825"><ele>228.99999999999997</ele><time>2026-03-28T13:16:44.584Z</time></trkpt><trkpt lat="45.5679618" lon="10.736468"><ele>229.0</ele><time>2026-03-28T13:16:46.591Z</time></trkpt><trkpt lat="45.5679879" lon="10.7363836"><ele>229.0</ele><time>2026-03-28T13:16:49.599Z</time></trkpt><trkpt lat="45.5679383" lon="10.736254"><ele>229.0</ele><time>2026-03-28T13:16:51.615Z</time></trkpt><trkpt lat="45.5678688" lon="10.7361565"><ele>228.99999999999997</ele><time>2026-03-28T13:16:52.588Z</time></trkpt><trkpt lat="45.567817" lon="10.7360541"><ele>229.0</ele><time>2026-03-28T13:16:53.586Z</time></trkpt><trkpt lat="45.5677721" lon="10.7359541"><ele>228.2</ele><time>2026-03-28T13:16:54.583Z</time></trkpt><trkpt lat="45.5677577" lon="10.7358115"><ele>227.39999999999998</ele><time>2026-03-28T13:16:56.585Z</time></trkpt><trkpt lat="45.5678208" lon="10.7357261"><ele>226.6</ele><time>2026-03-28T13:16:58.587Z</time></trkpt><trkpt lat="45.5678875" lon="10.7357391"><ele>225.8</ele><time>2026-03-28T13:16:59.601Z</time></trkpt><trkpt lat="45.5679851" lon="10.7357706"><ele>225.0</ele><time>2026-03-28T13:17:00.585Z</time></trkpt><trkpt lat="45.5681167" lon="10.7358217"><ele>223.75</ele><time>2026-03-28T13:17:01.581Z</time></trkpt><trkpt lat="45.5682641" lon="10.7358845"><ele>222.5</ele><time>2026-03-28T13:17:02.587Z</time></trkpt><trkpt lat="45.568416" lon="10.7359468"><ele>221.25</ele><time>2026-03-28T13:17:03.591Z</time></trkpt><trkpt lat="45.5685515" lon="10.7359731"><ele>220.0</ele><time>2026-03-28T13:17:04.581Z</time></trkpt><trkpt lat="45.5686892" lon="10.7359879"><ele>219.66666666666666</ele><time>2026-03-28T13:17:05.584Z</time></trkpt><trkpt lat="45.5688419" lon="10.7359938"><ele>219.33333333333331</ele><time>2026-03-28T13:17:06.584Z</time></trkpt><trkpt lat="45.5689962" lon="10.7360155"><ele>219.0</ele><time>2026-03-28T13:17:07.581Z</time></trkpt><trkpt lat="45.5691465" lon="10.7360427"><ele>219.0</ele><time>2026-03-28T13:17:08.581Z</time></trkpt><trkpt lat="45.5692846" lon="10.7360774"><ele>219.0</ele><time>2026-03-28T13:17:09.587Z</time></trkpt><trkpt lat="45.5694277" lon="10.7361652"><ele>219.0</ele><time>2026-03-28T13:17:10.584Z</time></trkpt><trkpt lat="45.5695571" lon="10.7362102"><ele>219.0</ele><time>2026-03-28T13:17:11.588Z</time></trkpt><trkpt lat="45.5696831" lon="10.7362485"><ele>219.0</ele><time>2026-03-28T13:17:12.588Z</time></trkpt><trkpt lat="45.5698277" lon="10.7362687"><ele>219.0</ele><time>2026-03-28T13:17:13.591Z</time></trkpt><trkpt lat="45.5699655" lon="10.7362937"><ele>219.0</ele><time>2026-03-28T13:17:14.591Z</time></trkpt><trkpt lat="45.5701121" lon="10.7363049"><ele>219.0</ele><time>2026-03-28T13:17:15.587Z</time></trkpt><trkpt lat="45.570249" lon="10.736324"><ele>219.0</ele><time>2026-03-28T13:17:16.588Z</time></trkpt><trkpt lat="45.5703566" lon="10.7363294"><ele>218.99999999999997</ele><time>2026-03-28T13:17:17.585Z</time></trkpt><trkpt lat="45.5704733" lon="10.7363282"><ele>218.99999999999997</ele><time>2026-03-28T13:17:18.586Z</time></trkpt><trkpt lat="45.5705644" lon="10.7363205"><ele>219.0</ele><time>2026-03-28T13:17:19.585Z</time></trkpt><trkpt lat="45.5706343" lon="10.7363166"><ele>219.0</ele><time>2026-03-28T13:17:20.579Z</time></trkpt><trkpt lat="45.5707064" lon="10.7363664"><ele>219.5</ele><time>2026-03-28T13:17:22.612Z</time></trkpt><trkpt lat="45.5707335" lon="10.7364508"><ele>220.0</ele><time>2026-03-28T13:17:23.58Z</time></trkpt><trkpt lat="45.5707596" lon="10.7365646"><ele>220.5</ele><time>2026-03-28T13:17:24.591Z</time></trkpt><trkpt lat="45.5707861" lon="10.7367004"><ele>221.0</ele><time>2026-03-28T13:17:25.593Z</time></trkpt><trkpt lat="45.5708111" lon="10.7368151"><ele>221.5</ele><time>2026-03-28T13:17:26.59Z</time></trkpt><trkpt lat="45.5708253" lon="10.7369312"><ele>222.0</ele><time>2026-03-28T13:17:27.587Z</time></trkpt><trkpt lat="45.5708359" lon="10.7370833"><ele>222.0</ele><time>2026-03-28T13:17:28.587Z</time></trkpt><trkpt lat="45.5708461" lon="10.7372565"><ele>222.0</ele><time>2026-03-28T13:17:29.593Z</time></trkpt><trkpt lat="45.5708557" lon="10.7374345"><ele>222.0</ele><time>2026-03-28T13:17:30.6Z</time></trkpt><trkpt lat="45.5708514" lon="10.7376001"><ele>222.0</ele><time>2026-03-28T13:17:31.595Z</time></trkpt><trkpt lat="45.5708505" lon="10.7377497"><ele>222.33333333333334</ele><time>2026-03-28T13:17:32.592Z</time></trkpt><trkpt lat="45.5708531" lon="10.737879"><ele>222.66666666666669</ele><time>2026-03-28T13:17:33.597Z</time></trkpt><trkpt lat="45.5708664" lon="10.7379975"><ele>223.0</ele><time>2026-03-28T13:17:34.596Z</time></trkpt><trkpt lat="45.5708734" lon="10.7381208"><ele>223.33333333333334</ele><time>2026-03-28T13:17:35.59Z</time></trkpt><trkpt lat="45.5708745" lon="10.738242"><ele>223.66666666666669</ele><time>2026-03-28T13:17:36.59Z</time></trkpt><trkpt lat="45.5708908" lon="10.7383607"><ele>224.0</ele><time>2026-03-28T13:17:37.583Z</time></trkpt><trkpt lat="45.5709045" lon="10.7384487"><ele>219.0</ele><time>2026-03-28T13:17:38.583Z</time></trkpt><trkpt lat="45.5691465" lon="10.7360427"><ele>219.0</ele><time>2026-03-28T13:17:08.581Z</time></trkpt><trkpt lat="45.5692846" lon="10.7360774"><ele>219.0</ele><time>2026-03-28T13:17:09.587Z</time></trkpt><trkpt lat="45.5694277" lon="10.7361652"><ele>219.0</ele><time>2026-03-28T13:17:10.584Z</time></trkpt><trkpt lat="45.5695571" lon="10.7362102"><ele>219.0</ele><time>2026-03-28T13:17:11.588Z</time></trkpt><trkpt lat="45.5696831" lon="10.7362485"><ele>219.0</ele><time>2026-03-28T13:17:12.588Z</time></trkpt><trkpt lat="45.5698277" lon="10.7362687"><ele>219.0</ele><time>2026-03-28T13:17:13.591Z</time></trkpt><trkpt lat="45.5699655" lon="10.7362937"><ele>219.0</ele><time>2026-03-28T13:17:14.591Z</time></trkpt><trkpt lat="45.5701121" lon="10.7363049"><ele>219.0</ele><time>2026-03-28T13:17:15.587Z</time></trkpt><trkpt lat="45.570249" lon="10.736324"><ele>219.0</ele><time>2026-03-28T13:17:16.588Z</time></trkpt><trkpt lat="45.5703566" lon="10.7363294"><ele>218.99999999999997</ele><time>2026-03-28T13:17:17.585Z</time></trkpt><trkpt lat="45.5704733" lon="10.7363282"><ele>218.99999999999997</ele><time>2026-03-28T13:17:18.586Z</time></trkpt><trkpt lat="45.5705644" lon="10.7363205"><ele>219.0</ele><time>2026-03-28T13:17:19.585Z</time></trkpt><trkpt lat="45.5706343" lon="10.7363166"><ele>219.0</ele><time>2026-03-28T13:17:20.579Z</time></trkpt><trkpt lat="45.5707064" lon="10.7363664"><ele>219.5</ele><time>2026-03-28T13:17:22.612Z</time></trkpt><trkpt lat="45.5707335" lon="10.7364508"><ele>220.0</ele><time>2026-03-28T13:17:23.58Z</time></trkpt><trkpt lat="45.5707596" lon="10.7365646"><ele>220.5</ele><time>2026-03-28T13:17:24.591Z</time></trkpt><trkpt lat="45.5707861" lon="10.7367004"><ele>221.0</ele><time>2026-03-28T13:17:25.593Z</time></trkpt><trkpt lat="45.5708111" lon="10.7368151"><ele>221.5</ele><time>2026-03-28T13:17:26.59Z</time></trkpt><trkpt lat="45.5708253" lon="10.7369312"><ele>222.0</ele><time>2026-03-28T13:17:27.587Z</time></trkpt><trkpt lat="45.5708359" lon="10.7370833"><ele>222.0</ele><time>2026-03-28T13:17:28.587Z</time></trkpt><trkpt lat="45.5708461" lon="10.7372565"><ele>222.0</ele><time>2026-03-28T13:17:29.593Z</time></trkpt><trkpt lat="45.5708557" lon="10.7374345"><ele>222.0</ele><time>2026-03-28T13:17:30.6Z</time></trkpt><trkpt lat="45.5708514" lon="10.7376001"><ele>222.0</ele><time>2026-03-28T13:17:31.595Z</time></trkpt><trkpt lat="45.5708505" lon="10.7377497"><ele>222.33333333333334</ele><time>2026-03-28T13:17:32.592Z</time></trkpt><trkpt lat="45.5708531" lon="10.737879"><ele>222.66666666666669</ele><time>2026-03-28T13:17:33.597Z</time></trkpt><trkpt lat="45.5708664" lon="10.7379975"><ele>223.0</ele><time>2026-03-28T13:17:34.596Z</time></trkpt><trkpt lat="45.5708734" lon="10.7381208"><ele>223.33333333333334</ele><time>2026-03-28T13:17:35.59Z</time></trkpt><trkpt lat="45.5708745" lon="10.738242"><ele>223.66666666666669</ele><time>2026-03-28T13:17:36.59Z</time></trkpt><trkpt lat="45.5708908" lon="10.7383607"><ele>224.0</ele><time>2026-03-28T13:17:37.583Z</time></trkpt><trkpt lat="45.5709045" lon="10.7384487"><ele>223.25</ele><time>2026-03-28T13:17:38.583Z</time></trkpt><trkpt lat="45.5709163" lon="10.7386146"><ele>222.5</ele><time>2026-03-28T13:17:40.577Z</time></trkpt><trkpt lat="45.5709198" lon="10.7387804"><ele>221.75</ele><time>2026-03-28T13:17:42.576Z</time></trkpt><trkpt lat="45.5709225" lon="10.7389684"><ele>221.0</ele><time>2026-03-28T13:17:44.584Z</time></trkpt><trkpt lat="45.5709092" lon="10.739095"><ele>221.00000000000003</ele><time>2026-03-28T13:17:45.586Z</time></trkpt><trkpt lat="45.5709075" lon="10.7392167"><ele>221.0</ele><time>2026-03-28T13:17:46.589Z</time></trkpt><trkpt lat="45.5709153" lon="10.7393542"><ele>221.0</ele><time>2026-03-28T13:17:47.587Z</time></trkpt><trkpt lat="45.5709178" lon="10.739471"><ele>221.0</ele><time>2026-03-28T13:17:48.591Z</time></trkpt><trkpt lat="45.5709148" lon="10.7395706"><ele>221.00000000000003</ele><time>2026-03-28T13:17:49.588Z</time></trkpt><trkpt lat="45.5709113" lon="10.7396843"><ele>221.0</ele><time>2026-03-28T13:17:51.586Z</time></trkpt><trkpt lat="45.5709699" lon="10.7397346"><ele>221.0</ele><time>2026-03-28T13:17:54.596Z</time></trkpt><trkpt lat="45.5710678" lon="10.7397393"><ele>221.00000000000003</ele><time>2026-03-28T13:17:56.594Z</time></trkpt><trkpt lat="45.5711668" lon="10.7397037"><ele>221.00000000000003</ele><time>2026-03-28T13:17:58.589Z</time></trkpt><trkpt lat="45.5712514" lon="10.7397205"><ele>221.0</ele><time>2026-03-28T13:18:00.587Z</time></trkpt><trkpt lat="45.5712901" lon="10.739866"><ele>221.0</ele><time>2026-03-28T13:18:02.581Z</time></trkpt><trkpt lat="45.5712874" lon="10.7399766"><ele>218.50000000000003</ele><time>2026-03-28T13:18:03.594Z</time></trkpt><trkpt lat="45.5712818" lon="10.7400903"><ele>216.0</ele><time>2026-03-28T13:18:04.592Z</time></trkpt><trkpt lat="45.5712692" lon="10.7402102"><ele>213.5</ele><time>2026-03-28T13:18:05.588Z</time></trkpt><trkpt lat="45.5712583" lon="10.7403365"><ele>211.0</ele><time>2026-03-28T13:18:06.592Z</time></trkpt><trkpt lat="45.5712531" lon="10.7404478"><ele>208.50000000000003</ele><time>2026-03-28T13:18:07.594Z</time></trkpt><trkpt lat="45.5712518" lon="10.7405478"><ele>206.0</ele><time>2026-03-28T13:18:08.589Z</time></trkpt><trkpt lat="45.5712474" lon="10.7406534"><ele>205.4</ele><time>2026-03-28T13:18:09.584Z</time></trkpt><trkpt lat="45.5712459" lon="10.7408124"><ele>204.8</ele><time>2026-03-28T13:18:11.588Z</time></trkpt><trkpt lat="45.5712375" lon="10.740971"><ele>204.20000000000002</ele><time>2026-03-28T13:18:13.585Z</time></trkpt><trkpt lat="45.5711829" lon="10.7410899"><ele>203.60000000000002</ele><time>2026-03-28T13:18:15.585Z</time></trkpt><trkpt lat="45.571128" lon="10.7411344"><ele>203.0</ele><time>2026-03-28T13:18:16.575Z</time></trkpt><trkpt lat="45.5710673" lon="10.7411959"><ele>206.71428571428572</ele><time>2026-03-28T13:18:17.579Z</time></trkpt><trkpt lat="45.5710069" lon="10.7412658"><ele>210.42857142857144</ele><time>2026-03-28T13:18:18.595Z</time></trkpt><trkpt lat="45.5709742" lon="10.7413517"><ele>214.14285714285714</ele><time>2026-03-28T13:18:19.581Z</time></trkpt><trkpt lat="45.5709426" lon="10.7414337"><ele>217.85714285714286</ele><time>2026-03-28T13:18:20.578Z</time></trkpt><trkpt lat="45.5709474" lon="10.7415268"><ele>221.57142857142858</ele><time>2026-03-28T13:18:21.573Z</time></trkpt><trkpt lat="45.5709564" lon="10.7416299"><ele>225.28571428571428</ele><time>2026-03-28T13:18:22.572Z</time></trkpt><trkpt lat="45.5710023" lon="10.7417415"><ele>229.0</ele><time>2026-03-28T13:18:23.591Z</time></trkpt><trkpt lat="45.5710625" lon="10.7418322"><ele>229.16666666666666</ele><time>2026-03-28T13:18:24.564Z</time></trkpt><trkpt lat="45.5711159" lon="10.7419015"><ele>229.33333333333331</ele><time>2026-03-28T13:18:25.574Z</time></trkpt><trkpt lat="45.5712108" lon="10.7419771"><ele>229.5</ele><time>2026-03-28T13:18:27.573Z</time></trkpt><trkpt lat="45.5712707" lon="10.7420228"><ele>229.66666666666669</ele><time>2026-03-28T13:18:28.587Z</time></trkpt><trkpt lat="45.5713295" lon="10.7420667"><ele>229.83333333333334</ele><time>2026-03-28T13:18:29.588Z</time></trkpt><trkpt lat="45.5714179" lon="10.7421476"><ele>230.0</ele><time>2026-03-28T13:18:31.59Z</time></trkpt><trkpt lat="45.5714862" lon="10.7422633"><ele>226.66666666666669</ele><time>2026-03-28T13:18:33.585Z</time></trkpt><trkpt lat="45.5715455" lon="10.7423452"><ele>223.33333333333334</ele><time>2026-03-28T13:18:35.589Z</time></trkpt><trkpt lat="45.5716199" lon="10.742432"><ele>220.0</ele><time>2026-03-28T13:18:37.591Z</time></trkpt><trkpt lat="45.5717059" lon="10.7425467"><ele>216.66666666666669</ele><time>2026-03-28T13:18:39.582Z</time></trkpt><trkpt lat="45.5717524" lon="10.7426087"><ele>213.33333333333334</ele><time>2026-03-28T13:18:40.576Z</time></trkpt><trkpt lat="45.5718342" lon="10.7426122"><ele>210.0</ele><time>2026-03-28T13:18:42.571Z</time></trkpt><trkpt lat="45.5718982" lon="10.7425899"><ele>210.0</ele><time>2026-03-28T13:18:43.574Z</time></trkpt><trkpt lat="45.5719706" lon="10.7425416"><ele>210.0</ele><time>2026-03-28T13:18:44.577Z</time></trkpt><trkpt lat="45.5720387" lon="10.7424991"><ele>210.0</ele><time>2026-03-28T13:18:45.579Z</time></trkpt><trkpt lat="45.5721081" lon="10.7424664"><ele>210.0</ele><time>2026-03-28T13:18:46.581Z</time></trkpt><trkpt lat="45.5721782" lon="10.7424347"><ele>210.0</ele><time>2026-03-28T13:18:47.573Z</time></trkpt><trkpt lat="45.5722445" lon="10.7424285"><ele>210.0</ele><time>2026-03-28T13:18:49.578Z</time></trkpt><trkpt lat="45.5723398" lon="10.7424832"><ele>209.33333333333334</ele><time>2026-03-28T13:18:51.582Z</time></trkpt><trkpt lat="45.572399" lon="10.742541"><ele>208.66666666666669</ele><time>2026-03-28T13:18:52.581Z</time></trkpt><trkpt lat="45.5724608" lon="10.7426145"><ele>208.0</ele><time>2026-03-28T13:18:53.577Z</time></trkpt><trkpt lat="45.5725264" lon="10.7427017"><ele>207.33333333333334</ele><time>2026-03-28T13:18:54.588Z</time></trkpt><trkpt lat="45.5725995" lon="10.7427888"><ele>206.66666666666669</ele><time>2026-03-28T13:18:55.578Z</time></trkpt><trkpt lat="45.5726891" lon="10.7428812"><ele>206.0</ele><time>2026-03-28T13:18:56.582Z</time></trkpt><trkpt lat="45.5727799" lon="10.7429656"><ele>205.8</ele><time>2026-03-28T13:18:57.58Z</time></trkpt><trkpt lat="45.5728688" lon="10.7430463"><ele>205.60000000000002</ele><time>2026-03-28T13:18:58.579Z</time></trkpt><trkpt lat="45.5729668" lon="10.7431289"><ele>205.4</ele><time>2026-03-28T13:18:59.577Z</time></trkpt><trkpt lat="45.5730437" lon="10.7432028"><ele>205.2</ele><time>2026-03-28T13:19:00.578Z</time></trkpt><trkpt lat="45.5731264" lon="10.7432767"><ele>205.0</ele><time>2026-03-28T13:19:01.581Z</time></trkpt><trkpt lat="45.5732095" lon="10.7433631"><ele>205.0</ele><time>2026-03-28T13:19:02.579Z</time></trkpt><trkpt lat="45.573286" lon="10.743449"><ele>205.0</ele><time>2026-03-28T13:19:03.576Z</time></trkpt><trkpt lat="45.5733631" lon="10.7435195"><ele>205.0</ele><time>2026-03-28T13:19:04.574Z</time></trkpt><trkpt lat="45.5734396" lon="10.7435662"><ele>205.0</ele><time>2026-03-28T13:19:05.579Z</time></trkpt><trkpt lat="45.5734974" lon="10.7436362"><ele>205.0</ele><time>2026-03-28T13:19:06.579Z</time></trkpt><trkpt lat="45.5735664" lon="10.7437456"><ele>204.66666666666666</ele><time>2026-03-28T13:19:07.574Z</time></trkpt><trkpt lat="45.5736391" lon="10.7438668"><ele>204.33333333333331</ele><time>2026-03-28T13:19:08.576Z</time></trkpt><trkpt lat="45.5737134" lon="10.7439638"><ele>204.0</ele><time>2026-03-28T13:19:09.576Z</time></trkpt><trkpt lat="45.5737794" lon="10.7440419"><ele>203.66666666666669</ele><time>2026-03-28T13:19:10.576Z</time></trkpt><trkpt lat="45.5738334" lon="10.7440926"><ele>203.33333333333334</ele><time>2026-03-28T13:19:11.566Z</time></trkpt><trkpt lat="45.5738873" lon="10.7441471"><ele>203.0</ele><time>2026-03-28T13:19:13.57Z</time></trkpt><trkpt lat="45.5739368" lon="10.7442411"><ele>203.0</ele><time>2026-03-28T13:19:15.577Z</time></trkpt><trkpt lat="45.5739917" lon="10.7443251"><ele>203.0</ele><time>2026-03-28T13:19:16.57Z</time></trkpt><trkpt lat="45.5740611" lon="10.7444166"><ele>203.0</ele><time>2026-03-28T13:19:17.571Z</time></trkpt><trkpt lat="45.5741495" lon="10.7445088"><ele>203.0</ele><time>2026-03-28T13:19:18.577Z</time></trkpt><trkpt lat="45.5742406" lon="10.7446213"><ele>203.0</ele><time>2026-03-28T13:19:19.576Z</time></trkpt><trkpt lat="45.5743332" lon="10.7447479"><ele>203.5</ele><time>2026-03-28T13:19:20.576Z</time></trkpt><trkpt lat="45.5744379" lon="10.744884"><ele>204.0</ele><time>2026-03-28T13:19:21.583Z</time></trkpt><trkpt lat="45.5745352" lon="10.7450111"><ele>204.5</ele><time>2026-03-28T13:19:22.586Z</time></trkpt><trkpt lat="45.5746172" lon="10.7451224"><ele>205.0</ele><time>2026-03-28T13:19:23.591Z</time></trkpt><trkpt lat="45.5746943" lon="10.7452188"><ele>208.16666666666666</ele><time>2026-03-28T13:19:24.586Z</time></trkpt><trkpt lat="45.5747581" lon="10.7452882"><ele>211.33333333333331</ele><time>2026-03-28T13:19:25.596Z</time></trkpt><trkpt lat="45.5748125" lon="10.7453451"><ele>214.5</ele><time>2026-03-28T13:19:26.576Z</time></trkpt><trkpt lat="45.574878" lon="10.7454318"><ele>217.66666666666669</ele><time>2026-03-28T13:19:28.595Z</time></trkpt><trkpt lat="45.5749231" lon="10.7454977"><ele>220.83333333333334</ele><time>2026-03-28T13:19:30.597Z</time></trkpt><trkpt lat="45.5749483" lon="10.7456617"><ele>224.0</ele><time>2026-03-28T13:19:42.589Z</time></trkpt><trkpt lat="45.574989" lon="10.7457491"><ele>224.0</ele><time>2026-03-28T13:19:43.573Z</time></trkpt><trkpt lat="45.5750735" lon="10.7458227"><ele>223.99999999999997</ele><time>2026-03-28T13:19:44.575Z</time></trkpt><trkpt lat="45.5751601" lon="10.7459012"><ele>223.99999999999997</ele><time>2026-03-28T13:19:45.578Z</time></trkpt><trkpt lat="45.5752478" lon="10.7459954"><ele>224.0</ele><time>2026-03-28T13:19:46.574Z</time></trkpt><trkpt lat="45.5753691" lon="10.7460788"><ele>224.0</ele><time>2026-03-28T13:19:47.572Z</time></trkpt><trkpt lat="45.5754939" lon="10.746155"><ele>226.25</ele><time>2026-03-28T13:19:48.576Z</time></trkpt><trkpt lat="45.5756262" lon="10.746224"><ele>228.5</ele><time>2026-03-28T13:19:49.574Z</time></trkpt><trkpt lat="45.5757526" lon="10.746286"><ele>230.75</ele><time>2026-03-28T13:19:50.567Z</time></trkpt><trkpt lat="45.5758743" lon="10.7463245"><ele>233.0</ele><time>2026-03-28T13:19:51.565Z</time></trkpt><trkpt lat="45.5759996" lon="10.746335"><ele>233.0</ele><time>2026-03-28T13:19:52.566Z</time></trkpt><trkpt lat="45.5761251" lon="10.7463211"><ele>233.0</ele><time>2026-03-28T13:19:53.57Z</time></trkpt><trkpt lat="45.5762309" lon="10.7463032"><ele>233.0</ele><time>2026-03-28T13:19:54.573Z</time></trkpt><trkpt lat="45.576324" lon="10.7463012"><ele>233.0</ele><time>2026-03-28T13:19:55.577Z</time></trkpt><trkpt lat="45.5764111" lon="10.7462959"><ele>233.0</ele><time>2026-03-28T13:19:56.591Z</time></trkpt><trkpt lat="45.5764953" lon="10.7462827"><ele>233.33333333333334</ele><time>2026-03-28T13:19:57.577Z</time></trkpt><trkpt lat="45.5765796" lon="10.7462879"><ele>233.66666666666669</ele><time>2026-03-28T13:19:58.585Z</time></trkpt><trkpt lat="45.5766518" lon="10.7463142"><ele>234.0</ele><time>2026-03-28T13:19:59.574Z</time></trkpt><trkpt lat="45.5767103" lon="10.7463623"><ele>234.33333333333331</ele><time>2026-03-28T13:20:00.569Z</time></trkpt><trkpt lat="45.57675" lon="10.7464628"><ele>234.66666666666666</ele><time>2026-03-28T13:20:01.571Z</time></trkpt><trkpt lat="45.576772" lon="10.7465761"><ele>235.0</ele><time>2026-03-28T13:20:02.587Z</time></trkpt><trkpt lat="45.5767866" lon="10.7466956"><ele>234.99999999999997</ele><time>2026-03-28T13:20:03.59Z</time></trkpt><trkpt lat="45.5768184" lon="10.7467916"><ele>235.0</ele><time>2026-03-28T13:20:04.587Z</time></trkpt><trkpt lat="45.5768721" lon="10.7468649"><ele>235.0</ele><time>2026-03-28T13:20:05.586Z</time></trkpt><trkpt lat="45.5769566" lon="10.7468987"><ele>235.0</ele><time>2026-03-28T13:20:06.576Z</time></trkpt><trkpt lat="45.5770395" lon="10.746911"><ele>234.99999999999997</ele><time>2026-03-28T13:20:07.597Z</time></trkpt><trkpt lat="45.5771489" lon="10.7468841"><ele>235.0</ele><time>2026-03-28T13:20:08.607Z</time></trkpt><trkpt lat="45.5772653" lon="10.7468216"><ele>234.8</ele><time>2026-03-28T13:20:09.591Z</time></trkpt><trkpt lat="45.5773589" lon="10.7467535"><ele>234.6</ele><time>2026-03-28T13:20:10.594Z</time></trkpt><trkpt lat="45.5774515" lon="10.7466977"><ele>234.39999999999998</ele><time>2026-03-28T13:20:11.592Z</time></trkpt><trkpt lat="45.5775347" lon="10.7466281"><ele>234.2</ele><time>2026-03-28T13:20:12.591Z</time></trkpt><trkpt lat="45.5776226" lon="10.7465266"><ele>234.0</ele><time>2026-03-28T13:20:13.589Z</time></trkpt><trkpt lat="45.577721" lon="10.7464104"><ele>234.0</ele><time>2026-03-28T13:20:14.593Z</time></trkpt><trkpt lat="45.5778146" lon="10.7463062"><ele>233.99999999999997</ele><time>2026-03-28T13:20:15.595Z</time></trkpt><trkpt lat="45.5778968" lon="10.7462303"><ele>233.99999999999997</ele><time>2026-03-28T13:20:16.595Z</time></trkpt><trkpt lat="45.5779677" lon="10.7461451"><ele>234.0</ele><time>2026-03-28T13:20:17.595Z</time></trkpt><trkpt lat="45.578042" lon="10.7460652"><ele>234.0</ele><time>2026-03-28T13:20:18.602Z</time></trkpt><trkpt lat="45.578126" lon="10.7459971"><ele>232.6</ele><time>2026-03-28T13:20:19.591Z</time></trkpt><trkpt lat="45.5782189" lon="10.7459164"><ele>231.2</ele><time>2026-03-28T13:20:20.59Z</time></trkpt><trkpt lat="45.5783062" lon="10.7458421"><ele>229.79999999999998</ele><time>2026-03-28T13:20:21.585Z</time></trkpt><trkpt lat="45.5783836" lon="10.7457701"><ele>228.39999999999998</ele><time>2026-03-28T13:20:22.588Z</time></trkpt><trkpt lat="45.578459" lon="10.7457033"><ele>227.0</ele><time>2026-03-28T13:20:23.588Z</time></trkpt><trkpt lat="45.5785287" lon="10.7456446"><ele>227.0</ele><time>2026-03-28T13:20:24.585Z</time></trkpt><trkpt lat="45.5786106" lon="10.7455695"><ele>227.0</ele><time>2026-03-28T13:20:25.589Z</time></trkpt><trkpt lat="45.5787023" lon="10.7454773"><ele>227.0</ele><time>2026-03-28T13:20:26.587Z</time></trkpt><trkpt lat="45.5787938" lon="10.7453642"><ele>227.0</ele><time>2026-03-28T13:20:27.604Z</time></trkpt><trkpt lat="45.5788767" lon="10.7452638"><ele>227.0</ele><time>2026-03-28T13:20:28.599Z</time></trkpt><trkpt lat="45.578948" lon="10.7451766"><ele>225.83333333333334</ele><time>2026-03-28T13:20:29.588Z</time></trkpt><trkpt lat="45.5790195" lon="10.7450927"><ele>224.66666666666669</ele><time>2026-03-28T13:20:30.585Z</time></trkpt><trkpt lat="45.5790842" lon="10.7449925"><ele>223.5</ele><time>2026-03-28T13:20:31.586Z</time></trkpt><trkpt lat="45.579139" lon="10.7448861"><ele>222.33333333333331</ele><time>2026-03-28T13:20:32.583Z</time></trkpt><trkpt lat="45.5791913" lon="10.7447893"><ele>221.16666666666666</ele><time>2026-03-28T13:20:33.584Z</time></trkpt><trkpt lat="45.5792459" lon="10.7447124"><ele>220.0</ele><time>2026-03-28T13:20:34.583Z</time></trkpt><trkpt lat="45.579305" lon="10.7446486"><ele>219.99999999999997</ele><time>2026-03-28T13:20:35.574Z</time></trkpt><trkpt lat="45.5793685" lon="10.7445998"><ele>220.0</ele><time>2026-03-28T13:20:36.574Z</time></trkpt><trkpt lat="45.5794361" lon="10.7445828"><ele>220.0</ele><time>2026-03-28T13:20:37.583Z</time></trkpt><trkpt lat="45.5795072" lon="10.7446196"><ele>220.0</ele><time>2026-03-28T13:20:38.572Z</time></trkpt><trkpt lat="45.5795946" lon="10.7446912"><ele>219.99999999999997</ele><time>2026-03-28T13:20:39.574Z</time></trkpt><trkpt lat="45.5797061" lon="10.7447806"><ele>220.0</ele><time>2026-03-28T13:20:40.577Z</time></trkpt><trkpt lat="45.5798304" lon="10.7448728"><ele>219.25</ele><time>2026-03-28T13:20:41.573Z</time></trkpt><trkpt lat="45.57994" lon="10.7449695"><ele>218.5</ele><time>2026-03-28T13:20:42.58Z</time></trkpt><trkpt lat="45.5800353" lon="10.7450736"><ele>217.75</ele><time>2026-03-28T13:20:43.577Z</time></trkpt><trkpt lat="45.5801373" lon="10.74518"><ele>217.0</ele><time>2026-03-28T13:20:44.581Z</time></trkpt><trkpt lat="45.580252" lon="10.7452772"><ele>221.0</ele><time>2026-03-28T13:20:45.577Z</time></trkpt><trkpt lat="45.5803799" lon="10.745358"><ele>225.0</ele><time>2026-03-28T13:20:46.575Z</time></trkpt><trkpt lat="45.5805212" lon="10.7454135"><ele>229.0</ele><time>2026-03-28T13:20:47.572Z</time></trkpt><trkpt lat="45.5806577" lon="10.745444"><ele>233.0</ele><time>2026-03-28T13:20:48.575Z</time></trkpt><trkpt lat="45.5807882" lon="10.7454698"><ele>233.0</ele><time>2026-03-28T13:20:49.575Z</time></trkpt><trkpt lat="45.5809041" lon="10.7454899"><ele>233.0</ele><time>2026-03-28T13:20:50.565Z</time></trkpt><trkpt lat="45.5810053" lon="10.7455176"><ele>233.0</ele><time>2026-03-28T13:20:51.586Z</time></trkpt><trkpt lat="45.5811111" lon="10.7455482"><ele>233.0</ele><time>2026-03-28T13:20:52.582Z</time></trkpt><trkpt lat="45.5812143" lon="10.7455842"><ele>233.0</ele><time>2026-03-28T13:20:53.584Z</time></trkpt><trkpt lat="45.5813155" lon="10.7456251"><ele>231.2</ele><time>2026-03-28T13:20:54.587Z</time></trkpt><trkpt lat="45.5814275" lon="10.7456855"><ele>229.4</ele><time>2026-03-28T13:20:55.585Z</time></trkpt><trkpt lat="45.5815312" lon="10.7457358"><ele>227.59999999999997</ele><time>2026-03-28T13:20:56.592Z</time></trkpt><trkpt lat="45.5816316" lon="10.7457687"><ele>225.79999999999998</ele><time>2026-03-28T13:20:58.703Z</time></trkpt><trkpt lat="45.5817473" lon="10.7457936"><ele>224.0</ele><time>2026-03-28T13:20:59.676Z</time></trkpt><trkpt lat="45.5818682" lon="10.7458102"><ele>224.0</ele><time>2026-03-28T13:21:00.677Z</time></trkpt><trkpt lat="45.5819935" lon="10.7458276"><ele>224.0</ele><time>2026-03-28T13:21:01.675Z</time></trkpt><trkpt lat="45.5821239" lon="10.7458408"><ele>224.0</ele><time>2026-03-28T13:21:02.674Z</time></trkpt><trkpt lat="45.5822583" lon="10.7458503"><ele>224.0</ele><time>2026-03-28T13:21:03.675Z</time></trkpt><trkpt lat="45.5823842" lon="10.7458614"><ele>223.75</ele><time>2026-03-28T13:21:04.667Z</time></trkpt><trkpt lat="45.582496" lon="10.7458822"><ele>223.5</ele><time>2026-03-28T13:21:05.674Z</time></trkpt><trkpt lat="45.5826096" lon="10.7458996"><ele>223.25</ele><time>2026-03-28T13:21:06.669Z</time></trkpt><trkpt lat="45.5827288" lon="10.7459078"><ele>223.0</ele><time>2026-03-28T13:21:07.675Z</time></trkpt><trkpt lat="45.5828658" lon="10.7459058"><ele>224.25</ele><time>2026-03-28T13:21:08.682Z</time></trkpt><trkpt lat="45.5830181" lon="10.7459037"><ele>225.5</ele><time>2026-03-28T13:21:09.672Z</time></trkpt><trkpt lat="45.5831632" lon="10.7459018"><ele>226.75</ele><time>2026-03-28T13:21:10.673Z</time></trkpt><trkpt lat="45.5833006" lon="10.7459033"><ele>228.0</ele><time>2026-03-28T13:21:11.675Z</time></trkpt><trkpt lat="45.5835447" lon="10.7458959"><ele>228.0</ele><time>2026-03-28T13:21:12.606Z</time></trkpt><trkpt lat="45.5836596" lon="10.7458967"><ele>228.0</ele><time>2026-03-28T13:21:13.586Z</time></trkpt><trkpt lat="45.5837826" lon="10.7458981"><ele>228.0</ele><time>2026-03-28T13:21:14.589Z</time></trkpt><trkpt lat="45.5839123" lon="10.7459027"><ele>228.0</ele><time>2026-03-28T13:21:15.588Z</time></trkpt><trkpt lat="45.5840487" lon="10.7459004"><ele>229.0</ele><time>2026-03-28T13:21:16.588Z</time></trkpt><trkpt lat="45.5841609" lon="10.7458922"><ele>230.0</ele><time>2026-03-28T13:21:17.584Z</time></trkpt><trkpt lat="45.5842658" lon="10.7458732"><ele>231.0</ele><time>2026-03-28T13:21:18.584Z</time></trkpt><trkpt lat="45.5843722" lon="10.74584"><ele>232.0</ele><time>2026-03-28T13:21:19.581Z</time></trkpt><trkpt lat="45.5844689" lon="10.7457828"><ele>233.0</ele><time>2026-03-28T13:21:20.584Z</time></trkpt><trkpt lat="45.5845649" lon="10.7457337"><ele>233.60000000000002</ele><time>2026-03-28T13:21:21.586Z</time></trkpt><trkpt lat="45.5846465" lon="10.7456901"><ele>234.20000000000002</ele><time>2026-03-28T13:21:22.587Z</time></trkpt><trkpt lat="45.5847168" lon="10.7456515"><ele>234.8</ele><time>2026-03-28T13:21:23.581Z</time></trkpt><trkpt lat="45.5847938" lon="10.7455823"><ele>235.4</ele><time>2026-03-28T13:21:24.583Z</time></trkpt><trkpt lat="45.5848707" lon="10.7454826"><ele>236.0</ele><time>2026-03-28T13:21:25.588Z</time></trkpt><trkpt lat="45.5849536" lon="10.7453914"><ele>236.00000000000003</ele><time>2026-03-28T13:21:26.579Z</time></trkpt><trkpt lat="45.5850325" lon="10.7453179"><ele>236.0</ele><time>2026-03-28T13:21:27.582Z</time></trkpt><trkpt lat="45.5851044" lon="10.7452772"><ele>236.0</ele><time>2026-03-28T13:21:28.579Z</time></trkpt><trkpt lat="45.5851809" lon="10.7452445"><ele>236.0</ele><time>2026-03-28T13:21:29.588Z</time></trkpt><trkpt lat="45.585278" lon="10.7452374"><ele>236.00000000000003</ele><time>2026-03-28T13:21:30.565Z</time></trkpt><trkpt lat="45.5853726" lon="10.7452514"><ele>236.0</ele><time>2026-03-28T13:21:31.556Z</time></trkpt><trkpt lat="45.585479" lon="10.7452808"><ele>236.20000000000002</ele><time>2026-03-28T13:21:32.559Z</time></trkpt><trkpt lat="45.5855781" lon="10.7453133"><ele>236.40000000000003</ele><time>2026-03-28T13:21:33.558Z</time></trkpt><trkpt lat="45.5856692" lon="10.7453434"><ele>236.6</ele><time>2026-03-28T13:21:34.556Z</time></trkpt><trkpt lat="45.5857486" lon="10.7453807"><ele>236.8</ele><time>2026-03-28T13:21:35.556Z</time></trkpt><trkpt lat="45.5858177" lon="10.7453926"><ele>237.0</ele><time>2026-03-28T13:21:36.562Z</time></trkpt><trkpt lat="45.5859264" lon="10.7453967"><ele>237.0</ele><time>2026-03-28T13:21:38.569Z</time></trkpt><trkpt lat="45.5860087" lon="10.7454025"><ele>237.0</ele><time>2026-03-28T13:21:40.582Z</time></trkpt><trkpt lat="45.5860628" lon="10.7453481"><ele>237.0</ele><time>2026-03-28T13:21:49.601Z</time></trkpt><trkpt lat="45.5860729" lon="10.7451094"><ele>237.0</ele><time>2026-03-28T13:21:51.573Z</time></trkpt><trkpt lat="45.5860658" lon="10.7449115"><ele>238.5</ele><time>2026-03-28T13:21:52.571Z</time></trkpt><trkpt lat="45.5860387" lon="10.7447196"><ele>240.0</ele><time>2026-03-28T13:21:53.57Z</time></trkpt><trkpt lat="45.5860016" lon="10.7445348"><ele>241.5</ele><time>2026-03-28T13:21:54.573Z</time></trkpt><trkpt lat="45.5859747" lon="10.7443704"><ele>243.0</ele><time>2026-03-28T13:21:55.574Z</time></trkpt><trkpt lat="45.5859591" lon="10.7441932"><ele>243.25</ele><time>2026-03-28T13:21:56.573Z</time></trkpt><trkpt lat="45.5859473" lon="10.7440419"><ele>243.5</ele><time>2026-03-28T13:21:57.576Z</time></trkpt><trkpt lat="45.5859319" lon="10.7438905"><ele>243.75</ele><time>2026-03-28T13:21:58.577Z</time></trkpt><trkpt lat="45.5859114" lon="10.7437189"><ele>244.0</ele><time>2026-03-28T13:21:59.576Z</time></trkpt><trkpt lat="45.5858935" lon="10.7435574"><ele>242.75</ele><time>2026-03-28T13:22:00.587Z</time></trkpt><trkpt lat="45.5858616" lon="10.7434105"><ele>241.5</ele><time>2026-03-28T13:22:01.572Z</time></trkpt><trkpt lat="45.5858333" lon="10.7432573"><ele>240.25</ele><time>2026-03-28T13:22:02.57Z</time></trkpt><trkpt lat="45.5858179" lon="10.7430884"><ele>239.0</ele><time>2026-03-28T13:22:03.568Z</time></trkpt><trkpt lat="45.5858248" lon="10.7429013"><ele>239.0</ele><time>2026-03-28T13:22:04.572Z</time></trkpt><trkpt lat="45.5858327" lon="10.7427283"><ele>238.99999999999997</ele><time>2026-03-28T13:22:05.566Z</time></trkpt><trkpt lat="45.5858436" lon="10.7425644"><ele>238.99999999999997</ele><time>2026-03-28T13:22:06.57Z</time></trkpt><trkpt lat="45.5858576" lon="10.742431"><ele>239.0</ele><time>2026-03-28T13:22:07.572Z</time></trkpt><trkpt lat="45.5858589" lon="10.742307"><ele>239.0</ele><time>2026-03-28T13:22:08.572Z</time></trkpt><trkpt lat="45.585866" lon="10.7421937"><ele>238.16666666666669</ele><time>2026-03-28T13:22:09.573Z</time></trkpt><trkpt lat="45.5858655" lon="10.7420974"><ele>237.33333333333334</ele><time>2026-03-28T13:22:10.575Z</time></trkpt><trkpt lat="45.5858587" lon="10.7419873"><ele>236.5</ele><time>2026-03-28T13:22:11.573Z</time></trkpt><trkpt lat="45.5858526" lon="10.7418704"><ele>235.66666666666669</ele><time>2026-03-28T13:22:12.574Z</time></trkpt><trkpt lat="45.5858469" lon="10.7417482"><ele>234.83333333333334</ele><time>2026-03-28T13:22:13.572Z</time></trkpt><trkpt lat="45.5858373" lon="10.7416299"><ele>234.0</ele><time>2026-03-28T13:22:14.564Z</time></trkpt><trkpt lat="45.5858315" lon="10.7414824"><ele>232.79999999999998</ele><time>2026-03-28T13:22:16.565Z</time></trkpt><trkpt lat="45.5858324" lon="10.7413124"><ele>231.59999999999997</ele><time>2026-03-28T13:22:18.573Z</time></trkpt><trkpt lat="45.5858267" lon="10.7411957"><ele>230.4</ele><time>2026-03-28T13:22:19.575Z</time></trkpt><trkpt lat="45.5858179" lon="10.7410709"><ele>229.2</ele><time>2026-03-28T13:22:20.58Z</time></trkpt><trkpt lat="45.5858138" lon="10.7409249"><ele>228.0</ele><time>2026-03-28T13:22:21.579Z</time></trkpt><trkpt lat="45.585801" lon="10.7407764"><ele>227.8</ele><time>2026-03-28T13:22:22.58Z</time></trkpt><trkpt lat="45.5857925" lon="10.7406269"><ele>227.60000000000002</ele><time>2026-03-28T13:22:23.579Z</time></trkpt><trkpt lat="45.5857759" lon="10.7404653"><ele>227.39999999999998</ele><time>2026-03-28T13:22:24.58Z</time></trkpt><trkpt lat="45.5857675" lon="10.7403143"><ele>227.2</ele><time>2026-03-28T13:22:25.579Z</time></trkpt><trkpt lat="45.5857713" lon="10.7401876"><ele>227.0</ele><time>2026-03-28T13:22:26.574Z</time></trkpt><trkpt lat="45.585778" lon="10.7400888"><ele>227.0</ele><time>2026-03-28T13:22:27.578Z</time></trkpt><trkpt lat="45.5858011" lon="10.7399853"><ele>227.0</ele><time>2026-03-28T13:22:28.581Z</time></trkpt><trkpt lat="45.5858054" lon="10.7398608"><ele>227.0</ele><time>2026-03-28T13:22:29.57Z</time></trkpt><trkpt lat="45.5857796" lon="10.7397286"><ele>227.0</ele><time>2026-03-28T13:22:30.567Z</time></trkpt><trkpt lat="45.5857371" lon="10.7395962"><ele>227.0</ele><time>2026-03-28T13:22:31.59Z</time></trkpt><trkpt lat="45.5857175" lon="10.7394624"><ele>227.0</ele><time>2026-03-28T13:22:32.572Z</time></trkpt><trkpt lat="45.5857086" lon="10.7393159"><ele>227.0</ele><time>2026-03-28T13:22:33.573Z</time></trkpt><trkpt lat="45.5856818" lon="10.7391719"><ele>227.0</ele><time>2026-03-28T13:22:34.575Z</time></trkpt><trkpt lat="45.585634" lon="10.7390278"><ele>227.0</ele><time>2026-03-28T13:22:35.573Z</time></trkpt><trkpt lat="45.5855734" lon="10.7388838"><ele>227.0</ele><time>2026-03-28T13:22:36.574Z</time></trkpt><trkpt lat="45.5855275" lon="10.7387459"><ele>227.0</ele><time>2026-03-28T13:22:37.574Z</time></trkpt><trkpt lat="45.5854869" lon="10.7385987"><ele>227.0</ele><time>2026-03-28T13:22:38.573Z</time></trkpt><trkpt lat="45.5854487" lon="10.7384475"><ele>227.0</ele><time>2026-03-28T13:22:39.573Z</time></trkpt><trkpt lat="45.5853986" lon="10.7382814"><ele>227.0</ele><time>2026-03-28T13:22:40.574Z</time></trkpt><trkpt lat="45.5853498" lon="10.7381195"><ele>223.75</ele><time>2026-03-28T13:22:41.571Z</time></trkpt><trkpt lat="45.5853056" lon="10.7379665"><ele>220.5</ele><time>2026-03-28T13:22:42.572Z</time></trkpt><trkpt lat="45.58527" lon="10.7378135"><ele>217.25</ele><time>2026-03-28T13:22:43.57Z</time></trkpt><trkpt lat="45.5852445" lon="10.7376633"><ele>214.0</ele><time>2026-03-28T13:22:44.571Z</time></trkpt><trkpt lat="45.5852229" lon="10.7374968"><ele>213.0</ele><time>2026-03-28T13:22:45.567Z</time></trkpt><trkpt lat="45.5851941" lon="10.7373121"><ele>212.0</ele><time>2026-03-28T13:22:46.564Z</time></trkpt><trkpt lat="45.5851886" lon="10.7371184"><ele>211.0</ele><time>2026-03-28T13:22:47.565Z</time></trkpt><trkpt lat="45.5852017" lon="10.7369169"><ele>210.0</ele><time>2026-03-28T13:22:48.568Z</time></trkpt><trkpt lat="45.5852402" lon="10.7367138"><ele>208.33333333333331</ele><time>2026-03-28T13:22:49.571Z</time></trkpt><trkpt lat="45.5852855" lon="10.7365263"><ele>206.66666666666666</ele><time>2026-03-28T13:22:50.571Z</time></trkpt><trkpt lat="45.5853345" lon="10.7363263"><ele>205.0</ele><time>2026-03-28T13:22:51.57Z</time></trkpt><trkpt lat="45.585405" lon="10.7361123"><ele>207.0</ele><time>2026-03-28T13:22:52.573Z</time></trkpt><trkpt lat="45.5854725" lon="10.7358974"><ele>209.0</ele><time>2026-03-28T13:22:53.574Z</time></trkpt><trkpt lat="45.5855362" lon="10.7357168"><ele>211.0</ele><time>2026-03-28T13:22:54.571Z</time></trkpt><trkpt lat="45.5855801" lon="10.7355329"><ele>213.0</ele><time>2026-03-28T13:22:55.572Z</time></trkpt><trkpt lat="45.5856219" lon="10.7353418"><ele>211.5</ele><time>2026-03-28T13:22:56.578Z</time></trkpt><trkpt lat="45.5856507" lon="10.7351217"><ele>210.0</ele><time>2026-03-28T13:22:57.579Z</time></trkpt><trkpt lat="45.5856743" lon="10.7349193"><ele>208.5</ele><time>2026-03-28T13:22:58.581Z</time></trkpt><trkpt lat="45.5857041" lon="10.734736"><ele>207.0</ele><time>2026-03-28T13:22:59.579Z</time></trkpt><trkpt lat="45.5857192" lon="10.7345461"><ele>205.25</ele><time>2026-03-28T13:23:00.578Z</time></trkpt><trkpt lat="45.585726" lon="10.7343596"><ele>203.5</ele><time>2026-03-28T13:23:01.581Z</time></trkpt><trkpt lat="45.5857326" lon="10.7341819"><ele>201.75</ele><time>2026-03-28T13:23:02.592Z</time></trkpt><trkpt lat="45.5857359" lon="10.7340167"><ele>200.0</ele><time>2026-03-28T13:23:03.58Z</time></trkpt><trkpt lat="45.5857559" lon="10.7338596"><ele>200.0</ele><time>2026-03-28T13:23:04.581Z</time></trkpt><trkpt lat="45.5857633" lon="10.7337062"><ele>200.0</ele><time>2026-03-28T13:23:05.58Z</time></trkpt><trkpt lat="45.5857584" lon="10.7335596"><ele>200.0</ele><time>2026-03-28T13:23:06.579Z</time></trkpt><trkpt lat="45.5857522" lon="10.7334548"><ele>200.0</ele><time>2026-03-28T13:23:07.564Z</time></trkpt><trkpt lat="45.5857199" lon="10.733328"><ele>200.0</ele><time>2026-03-28T13:23:08.567Z</time></trkpt><trkpt lat="45.585669" lon="10.7332178"><ele>199.8</ele><time>2026-03-28T13:23:09.56Z</time></trkpt><trkpt lat="45.5855957" lon="10.7331164"><ele>199.6</ele><time>2026-03-28T13:23:10.56Z</time></trkpt><trkpt lat="45.5855053" lon="10.733027"><ele>199.39999999999998</ele><time>2026-03-28T13:23:11.585Z</time></trkpt><trkpt lat="45.585409" lon="10.7329859"><ele>199.2</ele><time>2026-03-28T13:23:12.567Z</time></trkpt><trkpt lat="45.5853125" lon="10.7329276"><ele>199.0</ele><time>2026-03-28T13:23:13.591Z</time></trkpt><trkpt lat="45.5852204" lon="10.7328501"><ele>196.2</ele><time>2026-03-28T13:23:14.567Z</time></trkpt><trkpt lat="45.5851358" lon="10.7327492"><ele>193.39999999999998</ele><time>2026-03-28T13:23:15.589Z</time></trkpt><trkpt lat="45.5850558" lon="10.7326392"><ele>190.6</ele><time>2026-03-28T13:23:16.568Z</time></trkpt><trkpt lat="45.5849899" lon="10.732516"><ele>187.8</ele><time>2026-03-28T13:23:17.564Z</time></trkpt><trkpt lat="45.5849395" lon="10.732391"><ele>185.0</ele><time>2026-03-28T13:23:18.566Z</time></trkpt><trkpt lat="45.5848996" lon="10.7322629"><ele>185.0</ele><time>2026-03-28T13:23:19.569Z</time></trkpt><trkpt lat="45.5848792" lon="10.7321488"><ele>185.0</ele><time>2026-03-28T13:23:20.567Z</time></trkpt><trkpt lat="45.5848826" lon="10.7320358"><ele>185.0</ele><time>2026-03-28T13:23:21.587Z</time></trkpt><trkpt lat="45.5848916" lon="10.7319393"><ele>185.0</ele><time>2026-03-28T13:23:22.566Z</time></trkpt><trkpt lat="45.5848531" lon="10.7318018"><ele>185.0</ele><time>2026-03-28T13:23:24.59Z</time></trkpt><trkpt lat="45.5847463" lon="10.7318069"><ele>185.0</ele><time>2026-03-28T13:23:26.6Z</time></trkpt><trkpt lat="45.584701" lon="10.7318791"><ele>185.0</ele><time>2026-03-28T13:23:27.578Z</time></trkpt><trkpt lat="45.5846576" lon="10.7319777"><ele>185.0</ele><time>2026-03-28T13:23:28.592Z</time></trkpt><trkpt lat="45.5846407" lon="10.7321047"><ele>185.0</ele><time>2026-03-28T13:23:29.57Z</time></trkpt><trkpt lat="45.5846346" lon="10.7322243"><ele>185.0</ele><time>2026-03-28T13:23:30.575Z</time></trkpt><trkpt lat="45.5846336" lon="10.7323303"><ele>185.0</ele><time>2026-03-28T13:23:31.575Z</time></trkpt><trkpt lat="45.5846269" lon="10.7324425"><ele>185.0</ele><time>2026-03-28T13:23:32.576Z</time></trkpt><trkpt lat="45.5846262" lon="10.7325408"><ele>185.0</ele><time>2026-03-28T13:23:33.594Z</time></trkpt><trkpt lat="45.584632" lon="10.7326911"><ele>185.0</ele><time>2026-03-28T13:23:35.577Z</time></trkpt><trkpt lat="45.5845609" lon="10.7327689"><ele>185.0</ele><time>2026-03-28T13:23:38.589Z</time></trkpt><trkpt lat="45.5845004" lon="10.7326338"><ele>185.0</ele><time>2026-03-28T13:23:40.571Z</time></trkpt><trkpt lat="45.5845001" lon="10.7325369"><ele>185.0</ele><time>2026-03-28T13:23:41.563Z</time></trkpt><trkpt lat="45.5844969" lon="10.7324333"><ele>185.0</ele><time>2026-03-28T13:23:42.567Z</time></trkpt><trkpt lat="45.5845022" lon="10.7323206"><ele>185.0</ele><time>2026-03-28T13:23:43.568Z</time></trkpt><trkpt lat="45.5845066" lon="10.7321886"><ele>185.0</ele><time>2026-03-28T13:23:44.571Z</time></trkpt><trkpt lat="45.5845047" lon="10.7320373"><ele>185.0</ele><time>2026-03-28T13:23:45.573Z</time></trkpt><trkpt lat="45.584513" lon="10.7318578"><ele>185.0</ele><time>2026-03-28T13:23:46.577Z</time></trkpt><trkpt lat="45.5845199" lon="10.7316541"><ele>185.0</ele><time>2026-03-28T13:23:47.571Z</time></trkpt><trkpt lat="45.5845203" lon="10.7314271"><ele>185.0</ele><time>2026-03-28T13:23:48.572Z</time></trkpt><trkpt lat="45.5845052" lon="10.7311683"><ele>185.0</ele><time>2026-03-28T13:23:49.571Z</time></trkpt><trkpt lat="45.584461" lon="10.730914"><ele>178.0</ele><time>2026-03-28T13:23:50.573Z</time></trkpt><trkpt lat="45.5844248" lon="10.7306814"><ele>171.0</ele><time>2026-03-28T13:23:51.57Z</time></trkpt><trkpt lat="45.5844022" lon="10.7304939"><ele>164.0</ele><time>2026-03-28T13:23:52.569Z</time></trkpt><trkpt lat="45.5843916" lon="10.7303341"><ele>157.0</ele><time>2026-03-28T13:23:53.58Z</time></trkpt><trkpt lat="45.5843575" lon="10.7301584"><ele>156.5</ele><time>2026-03-28T13:23:54.582Z</time></trkpt><trkpt lat="45.5843214" lon="10.7299696"><ele>156.0</ele><time>2026-03-28T13:23:55.578Z</time></trkpt><trkpt lat="45.5842923" lon="10.7297832"><ele>155.5</ele><time>2026-03-28T13:23:56.575Z</time></trkpt><trkpt lat="45.5842465" lon="10.7296032"><ele>155.0</ele><time>2026-03-28T13:23:57.571Z</time></trkpt><trkpt lat="45.5842188" lon="10.7294307"><ele>154.4</ele><time>2026-03-28T13:23:58.587Z</time></trkpt><trkpt lat="45.5841923" lon="10.7292878"><ele>153.8</ele><time>2026-03-28T13:23:59.573Z</time></trkpt><trkpt lat="45.5841775" lon="10.7291197"><ele>153.2</ele><time>2026-03-28T13:24:00.571Z</time></trkpt><trkpt lat="45.5841511" lon="10.7289628"><ele>152.6</ele><time>2026-03-28T13:24:01.592Z</time></trkpt><trkpt lat="45.5841192" lon="10.7288288"><ele>152.0</ele><time>2026-03-28T13:24:02.584Z</time></trkpt><trkpt lat="45.5840726" lon="10.7287006"><ele>152.0</ele><time>2026-03-28T13:24:03.584Z</time></trkpt><trkpt lat="45.5839974" lon="10.728586"><ele>152.0</ele><time>2026-03-28T13:24:04.595Z</time></trkpt><trkpt lat="45.5839152" lon="10.7284813"><ele>152.0</ele><time>2026-03-28T13:24:05.583Z</time></trkpt><trkpt lat="45.5838238" lon="10.7283786"><ele>152.0</ele><time>2026-03-28T13:24:06.585Z</time></trkpt><trkpt lat="45.5837495" lon="10.728278"><ele>152.0</ele><time>2026-03-28T13:24:08.666Z</time></trkpt><trkpt lat="45.5836872" lon="10.7281703"><ele>148.4</ele><time>2026-03-28T13:24:09.663Z</time></trkpt><trkpt lat="45.5836421" lon="10.7280504"><ele>144.79999999999998</ele><time>2026-03-28T13:24:10.648Z</time></trkpt><trkpt lat="45.583609" lon="10.7279147"><ele>141.2</ele><time>2026-03-28T13:24:11.65Z</time></trkpt><trkpt lat="45.5835854" lon="10.7277576"><ele>137.6</ele><time>2026-03-28T13:24:12.655Z</time></trkpt><trkpt lat="45.5835611" lon="10.7275871"><ele>134.0</ele><time>2026-03-28T13:24:13.657Z</time></trkpt><trkpt lat="45.5835387" lon="10.727408"><ele>133.25</ele><time>2026-03-28T13:24:14.674Z</time></trkpt><trkpt lat="45.5835169" lon="10.7272393"><ele>132.5</ele><time>2026-03-28T13:24:15.674Z</time></trkpt><trkpt lat="45.5834937" lon="10.7270611"><ele>131.75</ele><time>2026-03-28T13:24:16.672Z</time></trkpt><trkpt lat="45.5834713" lon="10.7269026"><ele>131.0</ele><time>2026-03-28T13:24:17.672Z</time></trkpt><trkpt lat="45.5834507" lon="10.7267547"><ele>130.66666666666666</ele><time>2026-03-28T13:24:18.674Z</time></trkpt><trkpt lat="45.5834277" lon="10.7266083"><ele>130.33333333333331</ele><time>2026-03-28T13:24:19.675Z</time></trkpt><trkpt lat="45.5834157" lon="10.7264785"><ele>130.0</ele><time>2026-03-28T13:24:20.67Z</time></trkpt><trkpt lat="45.5834032" lon="10.7263587"><ele>129.66666666666666</ele><time>2026-03-28T13:24:21.673Z</time></trkpt><trkpt lat="45.5833894" lon="10.72625"><ele>129.33333333333334</ele><time>2026-03-28T13:24:22.677Z</time></trkpt><trkpt lat="45.5833748" lon="10.7261501"><ele>129.0</ele><time>2026-03-28T13:24:23.671Z</time></trkpt><trkpt lat="45.5833568" lon="10.7260505"><ele>128.85714285714283</ele><time>2026-03-28T13:24:24.672Z</time></trkpt><trkpt lat="45.5833238" lon="10.7259429"><ele>128.71428571428572</ele><time>2026-03-28T13:24:25.673Z</time></trkpt><trkpt lat="45.5832818" lon="10.7258462"><ele>128.57142857142856</ele><time>2026-03-28T13:24:26.657Z</time></trkpt><trkpt lat="45.5832358" lon="10.7257584"><ele>128.42857142857142</ele><time>2026-03-28T13:24:27.657Z</time></trkpt><trkpt lat="45.5831912" lon="10.7256745"><ele>128.28571428571428</ele><time>2026-03-28T13:24:28.655Z</time></trkpt><trkpt lat="45.5831493" lon="10.7256022"><ele>128.14285714285714</ele><time>2026-03-28T13:24:29.656Z</time></trkpt><trkpt lat="45.5831265" lon="10.7255111"><ele>128.0</ele><time>2026-03-28T13:24:31.667Z</time></trkpt><trkpt lat="45.5832145" lon="10.7254561"><ele>128.0</ele><time>2026-03-28T13:24:33.587Z</time></trkpt><trkpt lat="45.5833532" lon="10.7254294"><ele>128.0</ele><time>2026-03-28T13:24:35.607Z</time></trkpt><trkpt lat="45.5834168" lon="10.7254104"><ele>128.0</ele><time>2026-03-28T13:24:36.586Z</time></trkpt><trkpt lat="45.5835198" lon="10.725397"><ele>128.0</ele><time>2026-03-28T13:24:38.584Z</time></trkpt><trkpt lat="45.5836103" lon="10.7253786"><ele>128.0</ele><time>2026-03-28T13:24:40.596Z</time></trkpt><trkpt lat="45.5837276" lon="10.7253578"><ele>129.33333333333331</ele><time>2026-03-28T13:24:42.59Z</time></trkpt><trkpt lat="45.5838148" lon="10.7253452"><ele>130.66666666666666</ele><time>2026-03-28T13:24:44.597Z</time></trkpt><trkpt lat="45.583907" lon="10.7253232"><ele>132.0</ele><time>2026-03-28T13:24:46.587Z</time></trkpt><trkpt lat="45.5839626" lon="10.7252652"><ele>133.33333333333334</ele><time>2026-03-28T13:24:49.593Z</time></trkpt><trkpt lat="45.5838738" lon="10.7252466"><ele>134.66666666666669</ele><time>2026-03-28T13:24:52.591Z</time></trkpt><trkpt lat="45.5838027" lon="10.7252845"><ele>136.0</ele><time>2026-03-28T13:24:53.586Z</time></trkpt><trkpt lat="45.5836942" lon="10.7253419"><ele>134.4</ele><time>2026-03-28T13:24:55.588Z</time></trkpt><trkpt lat="45.5836208" lon="10.725393"><ele>132.8</ele><time>2026-03-28T13:24:57.593Z</time></trkpt><trkpt lat="45.5835576" lon="10.7253717"><ele>131.20000000000002</ele><time>2026-03-28T13:25:00.59Z</time></trkpt><trkpt lat="45.5835635" lon="10.7252263"><ele>129.6</ele><time>2026-03-28T13:25:02.586Z</time></trkpt><trkpt lat="45.5835954" lon="10.7250937"><ele>128.0</ele><time>2026-03-28T13:25:03.585Z</time></trkpt><trkpt lat="45.5836355" lon="10.7249374"><ele>128.5</ele><time>2026-03-28T13:25:04.581Z</time></trkpt><trkpt lat="45.5836872" lon="10.7247742"><ele>129.0</ele><time>2026-03-28T13:25:05.575Z</time></trkpt><trkpt lat="45.5837371" lon="10.7245995"><ele>129.5</ele><time>2026-03-28T13:25:06.597Z</time></trkpt><trkpt lat="45.5837962" lon="10.7244305"><ele>130.0</ele><time>2026-03-28T13:25:07.572Z</time></trkpt><trkpt lat="45.583888" lon="10.7242827"><ele>130.25</ele><time>2026-03-28T13:25:08.576Z</time></trkpt><trkpt lat="45.5839854" lon="10.7241287"><ele>130.5</ele><time>2026-03-28T13:25:09.579Z</time></trkpt><trkpt lat="45.5840858" lon="10.7239697"><ele>130.75</ele><time>2026-03-28T13:25:10.581Z</time></trkpt><trkpt lat="45.5841717" lon="10.7238479"><ele>131.0</ele><time>2026-03-28T13:25:11.578Z</time></trkpt><trkpt lat="45.584259" lon="10.7237301"><ele>131.0</ele><time>2026-03-28T13:25:12.581Z</time></trkpt><trkpt lat="45.5843302" lon="10.7236629"><ele>131.0</ele><time>2026-03-28T13:25:13.577Z</time></trkpt><trkpt lat="45.5844022" lon="10.7236003"><ele>131.0</ele><time>2026-03-28T13:25:14.581Z</time></trkpt><trkpt lat="45.5844787" lon="10.7235587"><ele>131.0</ele><time>2026-03-28T13:25:15.581Z</time></trkpt><trkpt lat="45.5845441" lon="10.7235367"><ele>131.0</ele><time>2026-03-28T13:25:16.578Z</time></trkpt><trkpt lat="45.584669" lon="10.7235652"><ele>131.0</ele><time>2026-03-28T13:25:18.583Z</time></trkpt><trkpt lat="45.5847255" lon="10.7236403"><ele>134.0</ele><time>2026-03-28T13:25:19.575Z</time></trkpt><trkpt lat="45.5847698" lon="10.7237354"><ele>137.0</ele><time>2026-03-28T13:25:20.577Z</time></trkpt><trkpt lat="45.5848174" lon="10.7238466"><ele>140.0</ele><time>2026-03-28T13:25:21.575Z</time></trkpt><trkpt lat="45.584884" lon="10.7239415"><ele>143.0</ele><time>2026-03-28T13:25:22.577Z</time></trkpt><trkpt lat="45.5849503" lon="10.7240202"><ele>146.0</ele><time>2026-03-28T13:25:23.581Z</time></trkpt><trkpt lat="45.5850341" lon="10.7240708"><ele>149.0</ele><time>2026-03-28T13:25:24.575Z</time></trkpt><trkpt lat="45.5851229" lon="10.7240955"><ele>149.0</ele><time>2026-03-28T13:25:25.576Z</time></trkpt><trkpt lat="45.585214" lon="10.7240904"><ele>149.0</ele><time>2026-03-28T13:25:26.569Z</time></trkpt><trkpt lat="45.5852991" lon="10.7240719"><ele>149.0</ele><time>2026-03-28T13:25:27.579Z</time></trkpt><trkpt lat="45.5853827" lon="10.724096"><ele>149.0</ele><time>2026-03-28T13:25:28.575Z</time></trkpt><trkpt lat="45.5854636" lon="10.7241321"><ele>149.0</ele><time>2026-03-28T13:25:29.571Z</time></trkpt><trkpt lat="45.5855414" lon="10.7241821"><ele>149.0</ele><time>2026-03-28T13:25:30.57Z</time></trkpt><trkpt lat="45.5856193" lon="10.7242577"><ele>150.0</ele><time>2026-03-28T13:25:31.574Z</time></trkpt><trkpt lat="45.5856954" lon="10.7243274"><ele>151.0</ele><time>2026-03-28T13:25:32.573Z</time></trkpt><trkpt lat="45.5857702" lon="10.7243674"><ele>152.0</ele><time>2026-03-28T13:25:33.576Z</time></trkpt><trkpt lat="45.5858499" lon="10.7244085"><ele>153.0</ele><time>2026-03-28T13:25:34.578Z</time></trkpt><trkpt lat="45.5859221" lon="10.7244181"><ele>154.0</ele><time>2026-03-28T13:25:35.575Z</time></trkpt><trkpt lat="45.585983" lon="10.7244563"><ele>155.0</ele><time>2026-03-28T13:25:36.578Z</time></trkpt><trkpt lat="45.5860457" lon="10.7245233"><ele>155.0</ele><time>2026-03-28T13:25:37.591Z</time></trkpt><trkpt lat="45.5861169" lon="10.7246093"><ele>155.0</ele><time>2026-03-28T13:25:38.575Z</time></trkpt><trkpt lat="45.5862129" lon="10.7246865"><ele>155.0</ele><time>2026-03-28T13:25:39.579Z</time></trkpt><trkpt lat="45.5863033" lon="10.7247615"><ele>155.0</ele><time>2026-03-28T13:25:40.575Z</time></trkpt><trkpt lat="45.5864114" lon="10.7248221"><ele>155.0</ele><time>2026-03-28T13:25:41.574Z</time></trkpt><trkpt lat="45.5865212" lon="10.7248639"><ele>160.0</ele><time>2026-03-28T13:25:42.579Z</time></trkpt><trkpt lat="45.5866421" lon="10.7249161"><ele>165.0</ele><time>2026-03-28T13:25:43.576Z</time></trkpt><trkpt lat="45.5867485" lon="10.7249695"><ele>170.0</ele><time>2026-03-28T13:25:44.579Z</time></trkpt><trkpt lat="45.5868367" lon="10.7250161"><ele>175.0</ele><time>2026-03-28T13:25:45.57Z</time></trkpt><trkpt lat="45.5869097" lon="10.7250509"><ele>180.0</ele><time>2026-03-28T13:25:46.581Z</time></trkpt><trkpt lat="45.5870007" lon="10.7250999"><ele>184.8</ele><time>2026-03-28T13:25:48.576Z</time></trkpt><trkpt lat="45.5870789" lon="10.7250932"><ele>189.6</ele><time>2026-03-28T13:25:51.579Z</time></trkpt><trkpt lat="45.5871329" lon="10.724932"><ele>194.39999999999998</ele><time>2026-03-28T13:25:53.578Z</time></trkpt><trkpt lat="45.5871415" lon="10.7247727"><ele>199.2</ele><time>2026-03-28T13:25:54.579Z</time></trkpt><trkpt lat="45.5871602" lon="10.7246261"><ele>204.0</ele><time>2026-03-28T13:25:55.578Z</time></trkpt><trkpt lat="45.5871745" lon="10.7244656"><ele>203.39999999999998</ele><time>2026-03-28T13:25:56.577Z</time></trkpt><trkpt lat="45.5871873" lon="10.7243273"><ele>202.8</ele><time>2026-03-28T13:25:57.574Z</time></trkpt><trkpt lat="45.5871852" lon="10.724192"><ele>202.2</ele><time>2026-03-28T13:25:58.58Z</time></trkpt><trkpt lat="45.5871914" lon="10.7240566"><ele>201.60000000000002</ele><time>2026-03-28T13:25:59.57Z</time></trkpt><trkpt lat="45.5872003" lon="10.7239383"><ele>201.0</ele><time>2026-03-28T13:26:00.571Z</time></trkpt><trkpt lat="45.5872036" lon="10.7237914"><ele>201.0</ele><time>2026-03-28T13:26:01.572Z</time></trkpt><trkpt lat="45.5872021" lon="10.7236388"><ele>201.0</ele><time>2026-03-28T13:26:02.57Z</time></trkpt><trkpt lat="45.5872009" lon="10.7234838"><ele>201.0</ele><time>2026-03-28T13:26:03.574Z</time></trkpt><trkpt lat="45.5872068" lon="10.7233228"><ele>201.0</ele><time>2026-03-28T13:26:04.573Z</time></trkpt><trkpt lat="45.5872003" lon="10.7231778"><ele>201.0</ele><time>2026-03-28T13:26:05.576Z</time></trkpt><trkpt lat="45.5871951" lon="10.723043"><ele>200.83333333333334</ele><time>2026-03-28T13:26:06.577Z</time></trkpt><trkpt lat="45.5871926" lon="10.7229099"><ele>200.66666666666669</ele><time>2026-03-28T13:26:07.578Z</time></trkpt><trkpt lat="45.5871804" lon="10.7227989"><ele>200.5</ele><time>2026-03-28T13:26:08.593Z</time></trkpt><trkpt lat="45.5871665" lon="10.7226861"><ele>200.33333333333334</ele><time>2026-03-28T13:26:09.574Z</time></trkpt><trkpt lat="45.5871424" lon="10.7225715"><ele>200.16666666666669</ele><time>2026-03-28T13:26:10.57Z</time></trkpt><trkpt lat="45.5871207" lon="10.7224557"><ele>200.0</ele><time>2026-03-28T13:26:11.567Z</time></trkpt><trkpt lat="45.5870985" lon="10.7223601"><ele>200.0</ele><time>2026-03-28T13:26:12.564Z</time></trkpt><trkpt lat="45.5870469" lon="10.7222561"><ele>200.0</ele><time>2026-03-28T13:26:14.562Z</time></trkpt><trkpt lat="45.5869355" lon="10.7222007"><ele>200.0</ele><time>2026-03-28T13:26:16.581Z</time></trkpt><trkpt lat="45.5868037" lon="10.7222309"><ele>200.0</ele><time>2026-03-28T13:26:18.577Z</time></trkpt><trkpt lat="45.5866995" lon="10.7222679"><ele>200.0</ele><time>2026-03-28T13:26:20.571Z</time></trkpt><trkpt lat="45.5866386" lon="10.7223068"><ele>195.8</ele><time>2026-03-28T13:26:22.59Z</time></trkpt><trkpt lat="45.5865732" lon="10.7222924"><ele>191.6</ele><time>2026-03-28T13:26:24.59Z</time></trkpt><trkpt lat="45.586528" lon="10.7221516"><ele>187.39999999999998</ele><time>2026-03-28T13:26:26.579Z</time></trkpt><trkpt lat="45.5865009" lon="10.7220382"><ele>183.2</ele><time>2026-03-28T13:26:27.579Z</time></trkpt><trkpt lat="45.5864731" lon="10.7219009"><ele>179.0</ele><time>2026-03-28T13:26:28.584Z</time></trkpt><trkpt lat="45.5864532" lon="10.7217427"><ele>179.0</ele><time>2026-03-28T13:26:29.58Z</time></trkpt><trkpt lat="45.5864437" lon="10.7215702"><ele>179.0</ele><time>2026-03-28T13:26:30.583Z</time></trkpt><trkpt lat="45.586439" lon="10.7214031"><ele>179.0</ele><time>2026-03-28T13:26:31.589Z</time></trkpt><trkpt lat="45.5864344" lon="10.7212632"><ele>179.0</ele><time>2026-03-28T13:26:32.586Z</time></trkpt><trkpt lat="45.5864269" lon="10.7211248"><ele>179.0</ele><time>2026-03-28T13:26:33.592Z</time></trkpt><trkpt lat="45.5864084" lon="10.7209892"><ele>179.6</ele><time>2026-03-28T13:26:34.586Z</time></trkpt><trkpt lat="45.5863958" lon="10.7208593"><ele>180.2</ele><time>2026-03-28T13:26:35.583Z</time></trkpt><trkpt lat="45.5863894" lon="10.7207081"><ele>180.79999999999998</ele><time>2026-03-28T13:26:36.578Z</time></trkpt><trkpt lat="45.586379" lon="10.720541"><ele>181.39999999999998</ele><time>2026-03-28T13:26:37.584Z</time></trkpt><trkpt lat="45.5863758" lon="10.7203784"><ele>182.0</ele><time>2026-03-28T13:26:38.588Z</time></trkpt><trkpt lat="45.5863738" lon="10.7202312"><ele>182.33333333333331</ele><time>2026-03-28T13:26:39.604Z</time></trkpt><trkpt lat="45.5863704" lon="10.7200822"><ele>182.66666666666666</ele><time>2026-03-28T13:26:40.585Z</time></trkpt><trkpt lat="45.5863744" lon="10.7199405"><ele>183.0</ele><time>2026-03-28T13:26:41.582Z</time></trkpt><trkpt lat="45.5863738" lon="10.7198127"><ele>183.33333333333334</ele><time>2026-03-28T13:26:42.58Z</time></trkpt><trkpt lat="45.5863686" lon="10.7197012"><ele>183.66666666666669</ele><time>2026-03-28T13:26:43.589Z</time></trkpt><trkpt lat="45.5863639" lon="10.7195933"><ele>184.0</ele><time>2026-03-28T13:26:44.591Z</time></trkpt><trkpt lat="45.5863592" lon="10.7194857"><ele>184.33333333333334</ele><time>2026-03-28T13:26:45.589Z</time></trkpt><trkpt lat="45.586355" lon="10.7193882"><ele>184.66666666666669</ele><time>2026-03-28T13:26:46.584Z</time></trkpt><trkpt lat="45.586334" lon="10.7192834"><ele>185.0</ele><time>2026-03-28T13:26:48.582Z</time></trkpt><trkpt lat="45.5862566" lon="10.7192424"><ele>185.33333333333334</ele><time>2026-03-28T13:26:50.589Z</time></trkpt><trkpt lat="45.5861901" lon="10.7192502"><ele>185.66666666666666</ele><time>2026-03-28T13:26:51.578Z</time></trkpt><trkpt lat="45.5861192" lon="10.7192536"><ele>186.0</ele><time>2026-03-28T13:26:52.586Z</time></trkpt><trkpt lat="45.5860299" lon="10.7192639"><ele>183.83333333333334</ele><time>2026-03-28T13:26:53.59Z</time></trkpt><trkpt lat="45.585949" lon="10.7192638"><ele>181.66666666666666</ele><time>2026-03-28T13:26:54.588Z</time></trkpt><trkpt lat="45.5858762" lon="10.7192694"><ele>179.5</ele><time>2026-03-28T13:26:55.587Z</time></trkpt><trkpt lat="45.5857997" lon="10.7192543"><ele>177.33333333333331</ele><time>2026-03-28T13:26:56.588Z</time></trkpt><trkpt lat="45.5857279" lon="10.7192335"><ele>175.16666666666666</ele><time>2026-03-28T13:26:57.584Z</time></trkpt><trkpt lat="45.5856539" lon="10.7191923"><ele>173.0</ele><time>2026-03-28T13:26:58.587Z</time></trkpt><trkpt lat="45.5855862" lon="10.7191504"><ele>173.0</ele><time>2026-03-28T13:26:59.586Z</time></trkpt><trkpt lat="45.5855019" lon="10.7190415"><ele>173.0</ele><time>2026-03-28T13:27:01.581Z</time></trkpt><trkpt lat="45.5854759" lon="10.7188899"><ele>173.0</ele><time>2026-03-28T13:27:03.58Z</time></trkpt><trkpt lat="45.5854099" lon="10.7187427"><ele>173.0</ele><time>2026-03-28T13:27:05.569Z</time></trkpt><trkpt lat="45.5853467" lon="10.7186992"><ele>173.0</ele><time>2026-03-28T13:27:06.563Z</time></trkpt><trkpt lat="45.5852714" lon="10.7186673"><ele>169.6</ele><time>2026-03-28T13:27:07.577Z</time></trkpt><trkpt lat="45.5851732" lon="10.7186768"><ele>166.20000000000002</ele><time>2026-03-28T13:27:08.569Z</time></trkpt><trkpt lat="45.5850791" lon="10.7187269"><ele>162.8</ele><time>2026-03-28T13:27:09.573Z</time></trkpt><trkpt lat="45.5849903" lon="10.7187581"><ele>159.4</ele><time>2026-03-28T13:27:10.61Z</time></trkpt><trkpt lat="45.5849218" lon="10.7187595"><ele>156.0</ele><time>2026-03-28T13:27:11.57Z</time></trkpt><trkpt lat="45.5847891" lon="10.7187245"><ele>156.0</ele><time>2026-03-28T13:27:13.566Z</time></trkpt><trkpt lat="45.5847189" lon="10.7186522"><ele>156.0</ele><time>2026-03-28T13:27:14.576Z</time></trkpt><trkpt lat="45.5846436" lon="10.7185643"><ele>156.0</ele><time>2026-03-28T13:27:15.579Z</time></trkpt><trkpt lat="45.5845725" lon="10.7184283"><ele>156.0</ele><time>2026-03-28T13:27:16.581Z</time></trkpt><trkpt lat="45.5845028" lon="10.7182568"><ele>156.0</ele><time>2026-03-28T13:27:17.58Z</time></trkpt><trkpt lat="45.5844352" lon="10.7180873"><ele>151.5</ele><time>2026-03-28T13:27:18.586Z</time></trkpt><trkpt lat="45.5843755" lon="10.7179288"><ele>147.0</ele><time>2026-03-28T13:27:19.579Z</time></trkpt><trkpt lat="45.5843087" lon="10.7177789"><ele>142.5</ele><time>2026-03-28T13:27:20.58Z</time></trkpt><trkpt lat="45.5842368" lon="10.7176511"><ele>138.0</ele><time>2026-03-28T13:27:21.584Z</time></trkpt><trkpt lat="45.5841738" lon="10.7175167"><ele>138.0</ele><time>2026-03-28T13:27:22.583Z</time></trkpt><trkpt lat="45.5841228" lon="10.7173776"><ele>138.0</ele><time>2026-03-28T13:27:23.58Z</time></trkpt><trkpt lat="45.5840789" lon="10.7172397"><ele>138.0</ele><time>2026-03-28T13:27:24.58Z</time></trkpt><trkpt lat="45.5840344" lon="10.7171193"><ele>138.0</ele><time>2026-03-28T13:27:25.584Z</time></trkpt><trkpt lat="45.5839931" lon="10.7170019"><ele>138.0</ele><time>2026-03-28T13:27:26.579Z</time></trkpt><trkpt lat="45.5839497" lon="10.7168749"><ele>137.6</ele><time>2026-03-28T13:27:27.58Z</time></trkpt><trkpt lat="45.5839066" lon="10.7167634"><ele>137.20000000000002</ele><time>2026-03-28T13:27:28.585Z</time></trkpt><trkpt lat="45.5838686" lon="10.7166551"><ele>136.8</ele><time>2026-03-28T13:27:29.586Z</time></trkpt><trkpt lat="45.5838266" lon="10.7165753"><ele>136.4</ele><time>2026-03-28T13:27:30.591Z</time></trkpt><trkpt lat="45.5836946" lon="10.7165071"><ele>136.0</ele><time>2026-03-28T13:27:32.569Z</time></trkpt><trkpt lat="45.5835892" lon="10.7165087"><ele>130.75</ele><time>2026-03-28T13:27:33.573Z</time></trkpt><trkpt lat="45.5834729" lon="10.7165427"><ele>125.5</ele><time>2026-03-28T13:27:34.578Z</time></trkpt><trkpt lat="45.5833428" lon="10.7165883"><ele>120.25</ele><time>2026-03-28T13:27:35.573Z</time></trkpt><trkpt lat="45.5832139" lon="10.7166222"><ele>115.0</ele><time>2026-03-28T13:27:36.574Z</time></trkpt><trkpt lat="45.5830913" lon="10.7166455"><ele>115.0</ele><time>2026-03-28T13:27:37.578Z</time></trkpt><trkpt lat="45.5829643" lon="10.7166398"><ele>115.0</ele><time>2026-03-28T13:27:38.591Z</time></trkpt><trkpt lat="45.5828268" lon="10.7166307"><ele>115.0</ele><time>2026-03-28T13:27:39.578Z</time></trkpt><trkpt lat="45.5826982" lon="10.7166425"><ele>115.0</ele><time>2026-03-28T13:27:40.601Z</time></trkpt><trkpt lat="45.5825744" lon="10.7166449"><ele>112.75</ele><time>2026-03-28T13:27:41.581Z</time></trkpt><trkpt lat="45.5824559" lon="10.71663"><ele>110.5</ele><time>2026-03-28T13:27:42.586Z</time></trkpt><trkpt lat="45.5823325" lon="10.716599"><ele>108.25</ele><time>2026-03-28T13:27:43.587Z</time></trkpt><trkpt lat="45.5822111" lon="10.7165702"><ele>106.0</ele><time>2026-03-28T13:27:44.584Z</time></trkpt><trkpt lat="45.5820911" lon="10.716553"><ele>105.0</ele><time>2026-03-28T13:27:45.585Z</time></trkpt><trkpt lat="45.5819753" lon="10.7165454"><ele>104.0</ele><time>2026-03-28T13:27:46.579Z</time></trkpt><trkpt lat="45.5818593" lon="10.7165639"><ele>103.0</ele><time>2026-03-28T13:27:47.577Z</time></trkpt><trkpt lat="45.5817423" lon="10.7166011"><ele>102.0</ele><time>2026-03-28T13:27:48.58Z</time></trkpt><trkpt lat="45.5816356" lon="10.7166527"><ele>102.0</ele><time>2026-03-28T13:27:49.584Z</time></trkpt><trkpt lat="45.581522" lon="10.7166953"><ele>102.0</ele><time>2026-03-28T13:27:50.58Z</time></trkpt><trkpt lat="45.5814143" lon="10.716708"><ele>102.0</ele><time>2026-03-28T13:27:51.583Z</time></trkpt><trkpt lat="45.5813035" lon="10.7167068"><ele>102.0</ele><time>2026-03-28T13:27:52.577Z</time></trkpt><trkpt lat="45.5811901" lon="10.7166848"><ele>100.25</ele><time>2026-03-28T13:27:53.575Z</time></trkpt><trkpt lat="45.5810836" lon="10.7166349"><ele>98.5</ele><time>2026-03-28T13:27:54.585Z</time></trkpt><trkpt lat="45.5809753" lon="10.7165886"><ele>96.75</ele><time>2026-03-28T13:27:55.57Z</time></trkpt><trkpt lat="45.5808616" lon="10.7165709"><ele>95.0</ele><time>2026-03-28T13:27:56.574Z</time></trkpt><trkpt lat="45.5807465" lon="10.7165956"><ele>95.0</ele><time>2026-03-28T13:27:57.582Z</time></trkpt><trkpt lat="45.5806512" lon="10.7166382"><ele>95.0</ele><time>2026-03-28T13:27:58.578Z</time></trkpt><trkpt lat="45.5805804" lon="10.7166783"><ele>95.0</ele><time>2026-03-28T13:27:59.581Z</time></trkpt><trkpt lat="45.5804606" lon="10.7167006"><ele>95.0</ele><time>2026-03-28T13:28:01.585Z</time></trkpt><trkpt lat="45.5803538" lon="10.7166681"><ele>95.0</ele><time>2026-03-28T13:28:03.579Z</time></trkpt><trkpt lat="45.5802971" lon="10.7165161"><ele>94.5</ele><time>2026-03-28T13:28:05.58Z</time></trkpt><trkpt lat="45.5802937" lon="10.7163772"><ele>94.0</ele><time>2026-03-28T13:28:06.571Z</time></trkpt><trkpt lat="45.5802923" lon="10.7162114"><ele>93.5</ele><time>2026-03-28T13:28:07.569Z</time></trkpt><trkpt lat="45.5802925" lon="10.7160126"><ele>93.0</ele><time>2026-03-28T13:28:08.58Z</time></trkpt><trkpt lat="45.5802933" lon="10.7157985"><ele>92.33333333333333</ele><time>2026-03-28T13:28:09.585Z</time></trkpt><trkpt lat="45.5803006" lon="10.7155714"><ele>91.66666666666666</ele><time>2026-03-28T13:28:10.583Z</time></trkpt><trkpt lat="45.5803059" lon="10.7153222"><ele>91.0</ele><time>2026-03-28T13:28:11.601Z</time></trkpt><trkpt lat="45.5802688" lon="10.7151424"><ele>90.75</ele><time>2026-03-28T13:28:12.588Z</time></trkpt><trkpt lat="45.5802383" lon="10.7149792"><ele>90.5</ele><time>2026-03-28T13:28:13.586Z</time></trkpt><trkpt lat="45.5802137" lon="10.7148071"><ele>90.25</ele><time>2026-03-28T13:28:14.588Z</time></trkpt><trkpt lat="45.5801917" lon="10.7146357"><ele>90.0</ele><time>2026-03-28T13:28:15.59Z</time></trkpt><trkpt lat="45.5801742" lon="10.7144602"><ele>90.5</ele><time>2026-03-28T13:28:16.584Z</time></trkpt><trkpt lat="45.5801382" lon="10.7142621"><ele>91.0</ele><time>2026-03-28T13:28:17.589Z</time></trkpt><trkpt lat="45.5800947" lon="10.7140539"><ele>91.5</ele><time>2026-03-28T13:28:18.588Z</time></trkpt><trkpt lat="45.5800572" lon="10.7138498"><ele>92.0</ele><time>2026-03-28T13:28:19.588Z</time></trkpt><trkpt lat="45.5800182" lon="10.7136557"><ele>92.25</ele><time>2026-03-28T13:28:20.588Z</time></trkpt><trkpt lat="45.5799698" lon="10.7134598"><ele>92.5</ele><time>2026-03-28T13:28:21.584Z</time></trkpt><trkpt lat="45.5799165" lon="10.7132606"><ele>92.75</ele><time>2026-03-28T13:28:22.59Z</time></trkpt><trkpt lat="45.5798935" lon="10.7130817"><ele>93.0</ele><time>2026-03-28T13:28:23.585Z</time></trkpt><trkpt lat="45.5798684" lon="10.7129118"><ele>93.0</ele><time>2026-03-28T13:28:24.583Z</time></trkpt><trkpt lat="45.5798387" lon="10.7127537"><ele>93.0</ele><time>2026-03-28T13:28:25.589Z</time></trkpt><trkpt lat="45.5798102" lon="10.7126055"><ele>93.0</ele><time>2026-03-28T13:28:26.587Z</time></trkpt><trkpt lat="45.5797834" lon="10.712436"><ele>93.0</ele><time>2026-03-28T13:28:27.588Z</time></trkpt><trkpt lat="45.5797579" lon="10.7122693"><ele>93.75</ele><time>2026-03-28T13:28:28.589Z</time></trkpt><trkpt lat="45.5797287" lon="10.7120913"><ele>94.5</ele><time>2026-03-28T13:28:29.587Z</time></trkpt><trkpt lat="45.5796896" lon="10.7119057"><ele>95.25</ele><time>2026-03-28T13:28:30.586Z</time></trkpt><trkpt lat="45.5796626" lon="10.711724"><ele>96.0</ele><time>2026-03-28T13:28:31.582Z</time></trkpt><trkpt lat="45.5796344" lon="10.7115533"><ele>96.6</ele><time>2026-03-28T13:28:32.583Z</time></trkpt><trkpt lat="45.5796159" lon="10.7113955"><ele>97.19999999999999</ele><time>2026-03-28T13:28:33.581Z</time></trkpt><trkpt lat="45.5796" lon="10.71124"><ele>97.80000000000001</ele><time>2026-03-28T13:28:34.581Z</time></trkpt><trkpt lat="45.5795836" lon="10.711081"><ele>98.4</ele><time>2026-03-28T13:28:35.579Z</time></trkpt><trkpt lat="45.579565" lon="10.7109303"><ele>99.0</ele><time>2026-03-28T13:28:36.576Z</time></trkpt><trkpt lat="45.5795444" lon="10.7108041"><ele>98.0</ele><time>2026-03-28T13:28:37.576Z</time></trkpt><trkpt lat="45.5795148" lon="10.7106788"><ele>97.0</ele><time>2026-03-28T13:28:38.581Z</time></trkpt><trkpt lat="45.5794869" lon="10.7105366"><ele>96.0</ele><time>2026-03-28T13:28:39.578Z</time></trkpt><trkpt lat="45.5794497" lon="10.7103733"><ele>95.0</ele><time>2026-03-28T13:28:40.583Z</time></trkpt><trkpt lat="45.579417" lon="10.7102151"><ele>94.0</ele><time>2026-03-28T13:28:41.578Z</time></trkpt><trkpt lat="45.5793758" lon="10.7100848"><ele>94.0</ele><time>2026-03-28T13:28:42.594Z</time></trkpt><trkpt lat="45.5793239" lon="10.7099758"><ele>94.0</ele><time>2026-03-28T13:28:43.573Z</time></trkpt><trkpt lat="45.5792746" lon="10.7098888"><ele>94.0</ele><time>2026-03-28T13:28:44.571Z</time></trkpt><trkpt lat="45.5792241" lon="10.7098169"><ele>94.0</ele><time>2026-03-28T13:28:45.581Z</time></trkpt><trkpt lat="45.5791536" lon="10.7097093"><ele>94.0</ele><time>2026-03-28T13:28:47.576Z</time></trkpt><trkpt lat="45.579141" lon="10.7096041"><ele>94.0</ele><time>2026-03-28T13:28:49.58Z</time></trkpt><trkpt lat="45.579215" lon="10.7095793"><ele>94.0</ele><time>2026-03-28T13:28:51.59Z</time></trkpt><trkpt lat="45.5792876" lon="10.7096239"><ele>94.0</ele><time>2026-03-28T13:28:52.583Z</time></trkpt><trkpt lat="45.5793825" lon="10.7096709"><ele>94.0</ele><time>2026-03-28T13:28:53.579Z</time></trkpt><trkpt lat="45.5794995" lon="10.7097267"><ele>94.0</ele><time>2026-03-28T13:28:54.579Z</time></trkpt><trkpt lat="45.5796436" lon="10.7097707"><ele>96.0</ele><time>2026-03-28T13:28:55.572Z</time></trkpt><trkpt lat="45.5797968" lon="10.7097911"><ele>98.0</ele><time>2026-03-28T13:28:56.571Z</time></trkpt><trkpt lat="45.5799464" lon="10.7098105"><ele>100.0</ele><time>2026-03-28T13:28:57.578Z</time></trkpt><trkpt lat="45.5800786" lon="10.7098064"><ele>102.0</ele><time>2026-03-28T13:28:58.582Z</time></trkpt><trkpt lat="45.5801982" lon="10.709798"><ele>102.0</ele><time>2026-03-28T13:28:59.576Z</time></trkpt><trkpt lat="45.5803179" lon="10.7098351"><ele>102.0</ele><time>2026-03-28T13:29:00.573Z</time></trkpt><trkpt lat="45.5804427" lon="10.7098799"><ele>102.0</ele><time>2026-03-28T13:29:01.569Z</time></trkpt><trkpt lat="45.5805438" lon="10.7099034"><ele>102.0</ele><time>2026-03-28T13:29:02.577Z</time></trkpt><trkpt lat="45.5806357" lon="10.7099702"><ele>103.39999999999999</ele><time>2026-03-28T13:29:03.578Z</time></trkpt><trkpt lat="45.5807329" lon="10.710035"><ele>104.8</ele><time>2026-03-28T13:29:04.582Z</time></trkpt><trkpt lat="45.5808194" lon="10.7101012"><ele>106.2</ele><time>2026-03-28T13:29:05.58Z</time></trkpt><trkpt lat="45.5809086" lon="10.7101636"><ele>107.6</ele><time>2026-03-28T13:29:06.576Z</time></trkpt><trkpt lat="45.5810166" lon="10.7101926"><ele>109.0</ele><time>2026-03-28T13:29:07.582Z</time></trkpt><trkpt lat="45.5811281" lon="10.7102167"><ele>111.5</ele><time>2026-03-28T13:29:08.581Z</time></trkpt><trkpt lat="45.5812436" lon="10.7102409"><ele>114.0</ele><time>2026-03-28T13:29:09.578Z</time></trkpt><trkpt lat="45.5813754" lon="10.71025"><ele>116.5</ele><time>2026-03-28T13:29:10.584Z</time></trkpt><trkpt lat="45.5815109" lon="10.7102571"><ele>119.0</ele><time>2026-03-28T13:29:11.576Z</time></trkpt><trkpt lat="45.5816496" lon="10.7102715"><ele>119.0</ele><time>2026-03-28T13:29:12.58Z</time></trkpt><trkpt lat="45.5817818" lon="10.7103056"><ele>119.0</ele><time>2026-03-28T13:29:13.598Z</time></trkpt><trkpt lat="45.5819025" lon="10.7103395"><ele>119.0</ele><time>2026-03-28T13:29:14.582Z</time></trkpt><trkpt lat="45.582026" lon="10.7103674"><ele>119.0</ele><time>2026-03-28T13:29:15.579Z</time></trkpt><trkpt lat="45.5821629" lon="10.7103947"><ele>121.5</ele><time>2026-03-28T13:29:16.603Z</time></trkpt><trkpt lat="45.5822937" lon="10.7104137"><ele>124.0</ele><time>2026-03-28T13:29:18.674Z</time></trkpt><trkpt lat="45.5824251" lon="10.7104209"><ele>126.5</ele><time>2026-03-28T13:29:19.674Z</time></trkpt><trkpt lat="45.582565" lon="10.710424"><ele>129.0</ele><time>2026-03-28T13:29:20.668Z</time></trkpt><trkpt lat="45.5827059" lon="10.7104265"><ele>131.75</ele><time>2026-03-28T13:29:21.664Z</time></trkpt><trkpt lat="45.5828487" lon="10.7104201"><ele>134.5</ele><time>2026-03-28T13:29:22.668Z</time></trkpt><trkpt lat="45.5829958" lon="10.7104"><ele>137.25</ele><time>2026-03-28T13:29:23.672Z</time></trkpt><trkpt lat="45.5831486" lon="10.710368"><ele>140.0</ele><time>2026-03-28T13:29:24.654Z</time></trkpt><trkpt lat="45.583291" lon="10.710339"><ele>140.0</ele><time>2026-03-28T13:29:25.66Z</time></trkpt><trkpt lat="45.5834266" lon="10.7103136"><ele>140.0</ele><time>2026-03-28T13:29:26.654Z</time></trkpt><trkpt lat="45.5835469" lon="10.7102847"><ele>140.0</ele><time>2026-03-28T13:29:27.652Z</time></trkpt><trkpt lat="45.5836929" lon="10.7102808"><ele>140.0</ele><time>2026-03-28T13:29:28.672Z</time></trkpt><trkpt lat="45.5838441" lon="10.7102986"><ele>143.33333333333331</ele><time>2026-03-28T13:29:29.669Z</time></trkpt><trkpt lat="45.5839966" lon="10.7103294"><ele>146.66666666666666</ele><time>2026-03-28T13:29:30.667Z</time></trkpt><trkpt lat="45.5841542" lon="10.7103732"><ele>150.0</ele><time>2026-03-28T13:29:31.673Z</time></trkpt><trkpt lat="45.5843156" lon="10.7104273"><ele>150.0</ele><time>2026-03-28T13:29:32.674Z</time></trkpt><trkpt lat="45.5844843" lon="10.7104846"><ele>150.0</ele><time>2026-03-28T13:29:33.668Z</time></trkpt><trkpt lat="45.5846481" lon="10.7105315"><ele>150.0</ele><time>2026-03-28T13:29:34.676Z</time></trkpt><trkpt lat="45.5848054" lon="10.7105697"><ele>154.66666666666666</ele><time>2026-03-28T13:29:35.671Z</time></trkpt><trkpt lat="45.5849668" lon="10.7105989"><ele>159.33333333333331</ele><time>2026-03-28T13:29:36.672Z</time></trkpt><trkpt lat="45.5851193" lon="10.7106184"><ele>164.0</ele><time>2026-03-28T13:29:37.663Z</time></trkpt><trkpt lat="45.5852791" lon="10.7106195"><ele>170.0</ele><time>2026-03-28T13:29:38.663Z</time></trkpt><trkpt lat="45.5854338" lon="10.7105937"><ele>176.0</ele><time>2026-03-28T13:29:39.661Z</time></trkpt><trkpt lat="45.5855873" lon="10.7105461"><ele>182.0</ele><time>2026-03-28T13:29:40.648Z</time></trkpt><trkpt lat="45.5857321" lon="10.710489"><ele>182.0</ele><time>2026-03-28T13:29:41.647Z</time></trkpt><trkpt lat="45.5858604" lon="10.7104375"><ele>182.0</ele><time>2026-03-28T13:29:42.641Z</time></trkpt><trkpt lat="45.5859869" lon="10.7104012"><ele>182.0</ele><time>2026-03-28T13:29:43.64Z</time></trkpt><trkpt lat="45.5861319" lon="10.7103865"><ele>182.0</ele><time>2026-03-28T13:29:44.674Z</time></trkpt><trkpt lat="45.5862833" lon="10.7104007"><ele>189.0</ele><time>2026-03-28T13:29:45.646Z</time></trkpt><trkpt lat="45.5864489" lon="10.7104198"><ele>196.0</ele><time>2026-03-28T13:29:46.626Z</time></trkpt><trkpt lat="45.5866009" lon="10.7104196"><ele>203.0</ele><time>2026-03-28T13:29:47.627Z</time></trkpt><trkpt lat="45.5867395" lon="10.7103909"><ele>203.0</ele><time>2026-03-28T13:29:48.63Z</time></trkpt><trkpt lat="45.5868703" lon="10.7103433"><ele>203.0</ele><time>2026-03-28T13:29:49.629Z</time></trkpt><trkpt lat="45.5869793" lon="10.7102923"><ele>203.0</ele><time>2026-03-28T13:29:50.646Z</time></trkpt><trkpt lat="45.5870747" lon="10.7102401"><ele>203.0</ele><time>2026-03-28T13:29:51.647Z</time></trkpt><trkpt lat="45.5871544" lon="10.7102119"><ele>203.0</ele><time>2026-03-28T13:29:52.654Z</time></trkpt><trkpt lat="45.587264" lon="10.7102195"><ele>205.83333333333334</ele><time>2026-03-28T13:29:54.655Z</time></trkpt><trkpt lat="45.5872911" lon="10.7103108"><ele>208.66666666666669</ele><time>2026-03-28T13:29:56.566Z</time></trkpt><trkpt lat="45.5872831" lon="10.710411"><ele>211.5</ele><time>2026-03-28T13:29:57.56Z</time></trkpt><trkpt lat="45.5872375" lon="10.7105075"><ele>214.33333333333331</ele><time>2026-03-28T13:29:58.569Z</time></trkpt><trkpt lat="45.5871715" lon="10.7105934"><ele>217.16666666666666</ele><time>2026-03-28T13:29:59.565Z</time></trkpt><trkpt lat="45.5870886" lon="10.710665"><ele>220.0</ele><time>2026-03-28T13:30:00.577Z</time></trkpt><trkpt lat="45.5870398" lon="10.7107509"><ele>218.16666666666666</ele><time>2026-03-28T13:30:01.575Z</time></trkpt><trkpt lat="45.5870032" lon="10.7108568"><ele>216.33333333333331</ele><time>2026-03-28T13:30:02.576Z</time></trkpt><trkpt lat="45.586941" lon="10.7109538"><ele>214.5</ele><time>2026-03-28T13:30:03.575Z</time></trkpt><trkpt lat="45.5868589" lon="10.7110246"><ele>212.66666666666669</ele><time>2026-03-28T13:30:04.571Z</time></trkpt><trkpt lat="45.5867725" lon="10.7110847"><ele>210.83333333333334</ele><time>2026-03-28T13:30:05.567Z</time></trkpt><trkpt lat="45.5867014" lon="10.7111434"><ele>209.0</ele><time>2026-03-28T13:30:06.568Z</time></trkpt><trkpt lat="45.5866568" lon="10.7112166"><ele>209.0</ele><time>2026-03-28T13:30:07.566Z</time></trkpt><trkpt lat="45.5866221" lon="10.711302"><ele>209.0</ele><time>2026-03-28T13:30:08.562Z</time></trkpt><trkpt lat="45.5866147" lon="10.7113931"><ele>209.0</ele><time>2026-03-28T13:30:09.575Z</time></trkpt><trkpt lat="45.5866371" lon="10.71151"><ele>209.0</ele><time>2026-03-28T13:30:10.579Z</time></trkpt><trkpt lat="45.5867025" lon="10.7116381"><ele>209.0</ele><time>2026-03-28T13:30:11.578Z</time></trkpt><trkpt lat="45.5867899" lon="10.7117724"><ele>208.0</ele><time>2026-03-28T13:30:12.584Z</time></trkpt><trkpt lat="45.5868951" lon="10.7119124"><ele>207.0</ele><time>2026-03-28T13:30:13.575Z</time></trkpt><trkpt lat="45.5869879" lon="10.7120471"><ele>206.0</ele><time>2026-03-28T13:30:14.579Z</time></trkpt><trkpt lat="45.5870654" lon="10.712179"><ele>205.0</ele><time>2026-03-28T13:30:15.594Z</time></trkpt><trkpt lat="45.5871233" lon="10.712305"><ele>211.0</ele><time>2026-03-28T13:30:16.572Z</time></trkpt><trkpt lat="45.5871688" lon="10.7124186"><ele>217.0</ele><time>2026-03-28T13:30:17.578Z</time></trkpt><trkpt lat="45.5872203" lon="10.7125515"><ele>223.0</ele><time>2026-03-28T13:30:18.573Z</time></trkpt><trkpt lat="45.5872771" lon="10.7126943"><ele>229.0</ele><time>2026-03-28T13:30:19.576Z</time></trkpt><trkpt lat="45.5873318" lon="10.7128749"><ele>229.0</ele><time>2026-03-28T13:30:20.569Z</time></trkpt><trkpt lat="45.5873834" lon="10.7130636"><ele>229.0</ele><time>2026-03-28T13:30:21.574Z</time></trkpt><trkpt lat="45.5874505" lon="10.7132545"><ele>229.0</ele><time>2026-03-28T13:30:22.578Z</time></trkpt><trkpt lat="45.5875077" lon="10.7134294"><ele>229.0</ele><time>2026-03-28T13:30:23.574Z</time></trkpt><trkpt lat="45.5875473" lon="10.7135905"><ele>229.16666666666666</ele><time>2026-03-28T13:30:24.574Z</time></trkpt><trkpt lat="45.587584" lon="10.7137285"><ele>229.33333333333331</ele><time>2026-03-28T13:30:25.57Z</time></trkpt><trkpt lat="45.5876061" lon="10.7138512"><ele>229.5</ele><time>2026-03-28T13:30:26.577Z</time></trkpt><trkpt lat="45.5876298" lon="10.7139725"><ele>229.66666666666669</ele><time>2026-03-28T13:30:27.578Z</time></trkpt><trkpt lat="45.5876499" lon="10.7140877"><ele>229.83333333333334</ele><time>2026-03-28T13:30:28.581Z</time></trkpt><trkpt lat="45.5876898" lon="10.7141784"><ele>230.0</ele><time>2026-03-28T13:30:29.581Z</time></trkpt><trkpt lat="45.5877346" lon="10.7142528"><ele>230.0</ele><time>2026-03-28T13:30:30.582Z</time></trkpt><trkpt lat="45.5877863" lon="10.7143481"><ele>230.0</ele><time>2026-03-28T13:30:31.582Z</time></trkpt><trkpt lat="45.5878313" lon="10.7144665"><ele>230.0</ele><time>2026-03-28T13:30:32.579Z</time></trkpt><trkpt lat="45.5878734" lon="10.7146029"><ele>230.0</ele><time>2026-03-28T13:30:33.587Z</time></trkpt><trkpt lat="45.5879156" lon="10.7147392"><ele>230.0</ele><time>2026-03-28T13:30:34.58Z</time></trkpt><trkpt lat="45.5879762" lon="10.7148606"><ele>233.75</ele><time>2026-03-28T13:30:35.575Z</time></trkpt><trkpt lat="45.5880695" lon="10.7149701"><ele>237.5</ele><time>2026-03-28T13:30:36.581Z</time></trkpt><trkpt lat="45.5881659" lon="10.7150744"><ele>241.25</ele><time>2026-03-28T13:30:37.582Z</time></trkpt><trkpt lat="45.5882622" lon="10.7151783"><ele>245.0</ele><time>2026-03-28T13:30:38.582Z</time></trkpt><trkpt lat="45.5883399" lon="10.7153229"><ele>245.0</ele><time>2026-03-28T13:30:39.577Z</time></trkpt><trkpt lat="45.5883994" lon="10.715477"><ele>245.0</ele><time>2026-03-28T13:30:40.576Z</time></trkpt><trkpt lat="45.5884341" lon="10.7156438"><ele>245.0</ele><time>2026-03-28T13:30:41.576Z</time></trkpt><trkpt lat="45.5884765" lon="10.7158077"><ele>245.0</ele><time>2026-03-28T13:30:42.578Z</time></trkpt><trkpt lat="45.5885223" lon="10.7159555"><ele>244.2</ele><time>2026-03-28T13:30:43.575Z</time></trkpt><trkpt lat="45.5885644" lon="10.7160975"><ele>243.4</ele><time>2026-03-28T13:30:44.575Z</time></trkpt><trkpt lat="45.5885947" lon="10.7162205"><ele>242.60000000000002</ele><time>2026-03-28T13:30:45.579Z</time></trkpt><trkpt lat="45.5886208" lon="10.7163518"><ele>241.8</ele><time>2026-03-28T13:30:46.595Z</time></trkpt><trkpt lat="45.5886618" lon="10.7164653"><ele>241.0</ele><time>2026-03-28T13:30:47.578Z</time></trkpt><trkpt lat="45.5887144" lon="10.7165454"><ele>242.8</ele><time>2026-03-28T13:30:48.573Z</time></trkpt><trkpt lat="45.5887734" lon="10.7166073"><ele>244.60000000000002</ele><time>2026-03-28T13:30:49.592Z</time></trkpt><trkpt lat="45.5888506" lon="10.7167271"><ele>246.4</ele><time>2026-03-28T13:30:51.583Z</time></trkpt><trkpt lat="45.5888884" lon="10.716803"><ele>248.2</ele><time>2026-03-28T13:30:52.585Z</time></trkpt><trkpt lat="45.5889276" lon="10.7169258"><ele>250.0</ele><time>2026-03-28T13:30:53.576Z</time></trkpt><trkpt lat="45.5889682" lon="10.717084"><ele>250.0</ele><time>2026-03-28T13:30:54.578Z</time></trkpt><trkpt lat="45.5890109" lon="10.7172527"><ele>250.0</ele><time>2026-03-28T13:30:55.582Z</time></trkpt><trkpt lat="45.5890584" lon="10.7173991"><ele>250.0</ele><time>2026-03-28T13:30:56.585Z</time></trkpt><trkpt lat="45.5891047" lon="10.7175187"><ele>250.0</ele><time>2026-03-28T13:30:57.576Z</time></trkpt><trkpt lat="45.5891564" lon="10.7176118"><ele>250.0</ele><time>2026-03-28T13:30:58.579Z</time></trkpt><trkpt lat="45.5892106" lon="10.7176746"><ele>250.0</ele><time>2026-03-28T13:30:59.585Z</time></trkpt><trkpt lat="45.5892836" lon="10.7177152"><ele>250.0</ele><time>2026-03-28T13:31:00.585Z</time></trkpt><trkpt lat="45.589373" lon="10.7177374"><ele>250.0</ele><time>2026-03-28T13:31:01.584Z</time></trkpt><trkpt lat="45.5894801" lon="10.7177426"><ele>250.0</ele><time>2026-03-28T13:31:02.583Z</time></trkpt><trkpt lat="45.5895946" lon="10.7177185"><ele>250.0</ele><time>2026-03-28T13:31:03.585Z</time></trkpt><trkpt lat="45.5897056" lon="10.717696"><ele>251.71428571428572</ele><time>2026-03-28T13:31:04.582Z</time></trkpt><trkpt lat="45.5897922" lon="10.7176689"><ele>253.42857142857144</ele><time>2026-03-28T13:31:05.583Z</time></trkpt><trkpt lat="45.5898665" lon="10.717643"><ele>255.14285714285717</ele><time>2026-03-28T13:31:06.584Z</time></trkpt><trkpt lat="45.5899288" lon="10.7176173"><ele>256.8571428571429</ele><time>2026-03-28T13:31:07.595Z</time></trkpt><trkpt lat="45.5899929" lon="10.7175962"><ele>258.5714285714286</ele><time>2026-03-28T13:31:08.59Z</time></trkpt><trkpt lat="45.590065" lon="10.7176095"><ele>260.2857142857143</ele><time>2026-03-28T13:31:09.579Z</time></trkpt><trkpt lat="45.5901424" lon="10.7176425"><ele>262.0</ele><time>2026-03-28T13:31:10.586Z</time></trkpt><trkpt lat="45.5902138" lon="10.7177311"><ele>262.2</ele><time>2026-03-28T13:31:11.579Z</time></trkpt><trkpt lat="45.5902781" lon="10.7178403"><ele>262.4</ele><time>2026-03-28T13:31:12.579Z</time></trkpt><trkpt lat="45.5903381" lon="10.7179879"><ele>262.6</ele><time>2026-03-28T13:31:13.583Z</time></trkpt><trkpt lat="45.5904026" lon="10.7181144"><ele>262.8</ele><time>2026-03-28T13:31:14.582Z</time></trkpt><trkpt lat="45.5904581" lon="10.7182271"><ele>263.0</ele><time>2026-03-28T13:31:15.586Z</time></trkpt><trkpt lat="45.5905107" lon="10.7183288"><ele>263.0</ele><time>2026-03-28T13:31:16.579Z</time></trkpt><trkpt lat="45.5905478" lon="10.7184349"><ele>263.0</ele><time>2026-03-28T13:31:17.602Z</time></trkpt><trkpt lat="45.5905823" lon="10.7185372"><ele>263.0</ele><time>2026-03-28T13:31:18.584Z</time></trkpt><trkpt lat="45.5906055" lon="10.7186359"><ele>263.0</ele><time>2026-03-28T13:31:19.592Z</time></trkpt><trkpt lat="45.5906496" lon="10.7187276"><ele>263.0</ele><time>2026-03-28T13:31:20.585Z</time></trkpt><trkpt lat="45.5907034" lon="10.7188213"><ele>263.0</ele><time>2026-03-28T13:31:21.577Z</time></trkpt><trkpt lat="45.5907637" lon="10.7189101"><ele>262.6</ele><time>2026-03-28T13:31:22.575Z</time></trkpt><trkpt lat="45.5908356" lon="10.7189893"><ele>262.20000000000005</ele><time>2026-03-28T13:31:23.576Z</time></trkpt><trkpt lat="45.5909057" lon="10.7190421"><ele>261.8</ele><time>2026-03-28T13:31:24.572Z</time></trkpt><trkpt lat="45.590988" lon="10.7190836"><ele>261.40000000000003</ele><time>2026-03-28T13:31:25.571Z</time></trkpt><trkpt lat="45.5910766" lon="10.7191461"><ele>261.0</ele><time>2026-03-28T13:31:26.571Z</time></trkpt><trkpt lat="45.5911756" lon="10.7192355"><ele>261.0</ele><time>2026-03-28T13:31:27.587Z</time></trkpt><trkpt lat="45.5912582" lon="10.719331"><ele>261.0</ele><time>2026-03-28T13:31:28.58Z</time></trkpt><trkpt lat="45.5913334" lon="10.7194279"><ele>261.0</ele><time>2026-03-28T13:31:29.58Z</time></trkpt><trkpt lat="45.5914067" lon="10.7195105"><ele>261.0</ele><time>2026-03-28T13:31:30.587Z</time></trkpt><trkpt lat="45.5914692" lon="10.719578"><ele>261.0</ele><time>2026-03-28T13:31:31.581Z</time></trkpt><trkpt lat="45.5915268" lon="10.7196312"><ele>261.0</ele><time>2026-03-28T13:31:32.588Z</time></trkpt><trkpt lat="45.5915766" lon="10.7196884"><ele>261.0</ele><time>2026-03-28T13:31:33.584Z</time></trkpt><trkpt lat="45.5916259" lon="10.7197582"><ele>261.0</ele><time>2026-03-28T13:31:34.584Z</time></trkpt><trkpt lat="45.5916706" lon="10.7198226"><ele>261.0</ele><time>2026-03-28T13:31:35.573Z</time></trkpt><trkpt lat="45.5917566" lon="10.7199474"><ele>261.0</ele><time>2026-03-28T13:31:37.579Z</time></trkpt><trkpt lat="45.5918388" lon="10.7200417"><ele>261.0</ele><time>2026-03-28T13:31:39.592Z</time></trkpt><trkpt lat="45.5919165" lon="10.7201607"><ele>261.40000000000003</ele><time>2026-03-28T13:31:41.595Z</time></trkpt><trkpt lat="45.592009" lon="10.7202702"><ele>261.8</ele><time>2026-03-28T13:31:43.588Z</time></trkpt><trkpt lat="45.5920694" lon="10.7203462"><ele>262.20000000000005</ele><time>2026-03-28T13:31:44.593Z</time></trkpt><trkpt lat="45.5921234" lon="10.7204105"><ele>262.6</ele><time>2026-03-28T13:31:45.595Z</time></trkpt><trkpt lat="45.592221" lon="10.7205317"><ele>263.0</ele><time>2026-03-28T13:31:47.586Z</time></trkpt><trkpt lat="45.5922957" lon="10.7206121"><ele>263.0</ele><time>2026-03-28T13:31:49.594Z</time></trkpt><trkpt lat="45.5923882" lon="10.720696"><ele>263.0</ele><time>2026-03-28T13:31:51.59Z</time></trkpt><trkpt lat="45.5924502" lon="10.7207465"><ele>263.0</ele><time>2026-03-28T13:31:52.592Z</time></trkpt><trkpt lat="45.5925143" lon="10.7207834"><ele>263.0</ele><time>2026-03-28T13:31:53.597Z</time></trkpt><trkpt lat="45.59258" lon="10.7208248"><ele>263.0</ele><time>2026-03-28T13:31:54.596Z</time></trkpt><trkpt lat="45.592643" lon="10.7208681"><ele>263.0</ele><time>2026-03-28T13:31:55.593Z</time></trkpt><trkpt lat="45.5927087" lon="10.7209072"><ele>263.0</ele><time>2026-03-28T13:31:56.597Z</time></trkpt><trkpt lat="45.5927656" lon="10.7209703"><ele>263.0</ele><time>2026-03-28T13:31:57.587Z</time></trkpt><trkpt lat="45.5928301" lon="10.7210502"><ele>263.0</ele><time>2026-03-28T13:31:58.591Z</time></trkpt><trkpt lat="45.5928991" lon="10.7211419"><ele>263.0</ele><time>2026-03-28T13:31:59.583Z</time></trkpt><trkpt lat="45.5929562" lon="10.7212451"><ele>263.0</ele><time>2026-03-28T13:32:00.583Z</time></trkpt><trkpt lat="45.5930062" lon="10.7213634"><ele>263.0</ele><time>2026-03-28T13:32:02.665Z</time></trkpt><trkpt lat="45.5930761" lon="10.721499"><ele>262.8</ele><time>2026-03-28T13:32:03.657Z</time></trkpt><trkpt lat="45.5931439" lon="10.7216289"><ele>262.6</ele><time>2026-03-28T13:32:04.648Z</time></trkpt><trkpt lat="45.5932106" lon="10.7217532"><ele>262.4</ele><time>2026-03-28T13:32:05.658Z</time></trkpt><trkpt lat="45.5932777" lon="10.7218711"><ele>262.2</ele><time>2026-03-28T13:32:06.66Z</time></trkpt><trkpt lat="45.5933406" lon="10.7219947"><ele>262.0</ele><time>2026-03-28T13:32:07.664Z</time></trkpt><trkpt lat="45.5934109" lon="10.7221427"><ele>262.0</ele><time>2026-03-28T13:32:08.665Z</time></trkpt><trkpt lat="45.5934679" lon="10.7222654"><ele>262.0</ele><time>2026-03-28T13:32:09.666Z</time></trkpt><trkpt lat="45.5935347" lon="10.7223972"><ele>262.0</ele><time>2026-03-28T13:32:10.667Z</time></trkpt><trkpt lat="45.5936146" lon="10.7225374"><ele>262.0</ele><time>2026-03-28T13:32:11.673Z</time></trkpt><trkpt lat="45.5936888" lon="10.7226665"><ele>261.0</ele><time>2026-03-28T13:32:12.667Z</time></trkpt><trkpt lat="45.5937553" lon="10.7228022"><ele>260.0</ele><time>2026-03-28T13:32:13.674Z</time></trkpt><trkpt lat="45.5938124" lon="10.7229327"><ele>259.0</ele><time>2026-03-28T13:32:14.678Z</time></trkpt><trkpt lat="45.5938818" lon="10.7230804"><ele>258.0</ele><time>2026-03-28T13:32:15.671Z</time></trkpt><trkpt lat="45.5939493" lon="10.7232139"><ele>258.0</ele><time>2026-03-28T13:32:16.673Z</time></trkpt><trkpt lat="45.5940191" lon="10.7233387"><ele>258.0</ele><time>2026-03-28T13:32:17.671Z</time></trkpt><trkpt lat="45.5941814" lon="10.7235688"><ele>258.0</ele><time>2026-03-28T13:32:18.601Z</time></trkpt><trkpt lat="45.5942623" lon="10.7236498"><ele>258.0</ele><time>2026-03-28T13:32:19.578Z</time></trkpt><trkpt lat="45.5943364" lon="10.7237083"><ele>258.0</ele><time>2026-03-28T13:32:20.58Z</time></trkpt><trkpt lat="45.5944137" lon="10.7237384"><ele>258.0</ele><time>2026-03-28T13:32:21.575Z</time></trkpt><trkpt lat="45.5944838" lon="10.7237525"><ele>258.0</ele><time>2026-03-28T13:32:22.575Z</time></trkpt><trkpt lat="45.5945952" lon="10.7237711"><ele>258.0</ele><time>2026-03-28T13:32:24.58Z</time></trkpt><trkpt lat="45.5946677" lon="10.7238418"><ele>258.0</ele><time>2026-03-28T13:32:26.58Z</time></trkpt><trkpt lat="45.5946935" lon="10.723963"><ele>258.0</ele><time>2026-03-28T13:32:28.581Z</time></trkpt><trkpt lat="45.5946908" lon="10.7240652"><ele>258.2</ele><time>2026-03-28T13:32:29.566Z</time></trkpt><trkpt lat="45.5946884" lon="10.7241927"><ele>258.4</ele><time>2026-03-28T13:32:30.572Z</time></trkpt><trkpt lat="45.5946908" lon="10.7243308"><ele>258.59999999999997</ele><time>2026-03-28T13:32:31.569Z</time></trkpt><trkpt lat="45.5947042" lon="10.7244882"><ele>258.8</ele><time>2026-03-28T13:32:32.569Z</time></trkpt><trkpt lat="45.5947189" lon="10.7246511"><ele>259.0</ele><time>2026-03-28T13:32:33.575Z</time></trkpt><trkpt lat="45.5947352" lon="10.7248301"><ele>258.2</ele><time>2026-03-28T13:32:34.573Z</time></trkpt><trkpt lat="45.5947556" lon="10.7249867"><ele>257.4</ele><time>2026-03-28T13:32:35.577Z</time></trkpt><trkpt lat="45.5947762" lon="10.7251346"><ele>256.6</ele><time>2026-03-28T13:32:36.579Z</time></trkpt><trkpt lat="45.5948006" lon="10.7252943"><ele>255.8</ele><time>2026-03-28T13:32:37.583Z</time></trkpt><trkpt lat="45.5948338" lon="10.7254389"><ele>255.0</ele><time>2026-03-28T13:32:38.576Z</time></trkpt><trkpt lat="45.5948558" lon="10.7255645"><ele>254.5</ele><time>2026-03-28T13:32:39.576Z</time></trkpt><trkpt lat="45.5948721" lon="10.7256808"><ele>254.0</ele><time>2026-03-28T13:32:40.582Z</time></trkpt><trkpt lat="45.594881" lon="10.7257849"><ele>253.5</ele><time>2026-03-28T13:32:41.583Z</time></trkpt><trkpt lat="45.5948963" lon="10.7258839"><ele>253.0</ele><time>2026-03-28T13:32:42.581Z</time></trkpt><trkpt lat="45.5949094" lon="10.7259978"><ele>252.5</ele><time>2026-03-28T13:32:43.582Z</time></trkpt><trkpt lat="45.5949275" lon="10.7261118"><ele>252.0</ele><time>2026-03-28T13:32:44.585Z</time></trkpt><trkpt lat="45.5949519" lon="10.7262265"><ele>251.8</ele><time>2026-03-28T13:32:45.585Z</time></trkpt><trkpt lat="45.5949763" lon="10.7263287"><ele>251.6</ele><time>2026-03-28T13:32:46.58Z</time></trkpt><trkpt lat="45.5950039" lon="10.7264246"><ele>251.40000000000003</ele><time>2026-03-28T13:32:47.581Z</time></trkpt><trkpt lat="45.5950522" lon="10.7265736"><ele>251.20000000000002</ele><time>2026-03-28T13:32:49.595Z</time></trkpt><trkpt lat="45.595089" lon="10.7266923"><ele>251.0</ele><time>2026-03-28T13:32:51.581Z</time></trkpt><trkpt lat="45.595112" lon="10.7268632"><ele>250.66666666666669</ele><time>2026-03-28T13:32:53.583Z</time></trkpt><trkpt lat="45.5951147" lon="10.7269703"><ele>250.33333333333334</ele><time>2026-03-28T13:32:54.573Z</time></trkpt><trkpt lat="45.5951202" lon="10.727093"><ele>250.0</ele><time>2026-03-28T13:32:55.574Z</time></trkpt><trkpt lat="45.5951453" lon="10.7272293"><ele>249.66666666666669</ele><time>2026-03-28T13:32:56.576Z</time></trkpt><trkpt lat="45.5951776" lon="10.727338"><ele>249.33333333333334</ele><time>2026-03-28T13:32:57.578Z</time></trkpt><trkpt lat="45.595224" lon="10.727437"><ele>249.0</ele><time>2026-03-28T13:32:58.58Z</time></trkpt><trkpt lat="45.5952705" lon="10.7275051"><ele>249.0</ele><time>2026-03-28T13:32:59.577Z</time></trkpt><trkpt lat="45.5953222" lon="10.72757"><ele>248.99999999999997</ele><time>2026-03-28T13:33:00.586Z</time></trkpt><trkpt lat="45.595369" lon="10.7276386"><ele>249.0</ele><time>2026-03-28T13:33:01.577Z</time></trkpt><trkpt lat="45.5954151" lon="10.7277047"><ele>249.0</ele><time>2026-03-28T13:33:02.584Z</time></trkpt><trkpt lat="45.5954527" lon="10.7277861"><ele>248.99999999999997</ele><time>2026-03-28T13:33:03.58Z</time></trkpt><trkpt lat="45.5954909" lon="10.7278642"><ele>249.0</ele><time>2026-03-28T13:33:04.579Z</time></trkpt><trkpt lat="45.5955256" lon="10.7279554"><ele>249.0</ele><time>2026-03-28T13:33:05.576Z</time></trkpt><trkpt lat="45.5955436" lon="10.7280608"><ele>249.66666666666666</ele><time>2026-03-28T13:33:06.579Z</time></trkpt><trkpt lat="45.595541" lon="10.7281743"><ele>250.33333333333331</ele><time>2026-03-28T13:33:07.575Z</time></trkpt><trkpt lat="45.5955362" lon="10.7282968"><ele>251.0</ele><time>2026-03-28T13:33:08.583Z</time></trkpt><trkpt lat="45.5955219" lon="10.7284192"><ele>251.66666666666666</ele><time>2026-03-28T13:33:09.584Z</time></trkpt><trkpt lat="45.5955156" lon="10.7285542"><ele>252.33333333333331</ele><time>2026-03-28T13:33:10.58Z</time></trkpt><trkpt lat="45.5955147" lon="10.7286948"><ele>253.0</ele><time>2026-03-28T13:33:11.588Z</time></trkpt><trkpt lat="45.5955214" lon="10.7288454"><ele>252.8</ele><time>2026-03-28T13:33:12.584Z</time></trkpt><trkpt lat="45.5955291" lon="10.7289927"><ele>252.60000000000002</ele><time>2026-03-28T13:33:13.583Z</time></trkpt><trkpt lat="45.5955285" lon="10.7291354"><ele>252.39999999999998</ele><time>2026-03-28T13:33:14.589Z</time></trkpt><trkpt lat="45.5955213" lon="10.729278"><ele>252.2</ele><time>2026-03-28T13:33:15.587Z</time></trkpt><trkpt lat="45.5955058" lon="10.7294234"><ele>252.0</ele><time>2026-03-28T13:33:16.586Z</time></trkpt><trkpt lat="45.5954835" lon="10.7295711"><ele>252.0</ele><time>2026-03-28T13:33:17.588Z</time></trkpt><trkpt lat="45.5954697" lon="10.729706"><ele>252.0</ele><time>2026-03-28T13:33:18.59Z</time></trkpt><trkpt lat="45.5954652" lon="10.7298385"><ele>252.0</ele><time>2026-03-28T13:33:19.581Z</time></trkpt><trkpt lat="45.5954646" lon="10.7299618"><ele>252.0</ele><time>2026-03-28T13:33:20.598Z</time></trkpt><trkpt lat="45.5954702" lon="10.7300653"><ele>252.0</ele><time>2026-03-28T13:33:21.581Z</time></trkpt><trkpt lat="45.5955016" lon="10.7302049"><ele>252.33333333333334</ele><time>2026-03-28T13:33:23.584Z</time></trkpt><trkpt lat="45.5955119" lon="10.7303299"><ele>252.66666666666669</ele><time>2026-03-28T13:33:25.586Z</time></trkpt><trkpt lat="45.5955342" lon="10.7304529"><ele>253.0</ele><time>2026-03-28T13:33:27.587Z</time></trkpt><trkpt lat="45.5955686" lon="10.730532"><ele>253.33333333333334</ele><time>2026-03-28T13:33:29.594Z</time></trkpt><trkpt lat="45.5956301" lon="10.7305548"><ele>253.66666666666669</ele><time>2026-03-28T13:33:31.583Z</time></trkpt><trkpt lat="45.5957022" lon="10.7305101"><ele>254.0</ele><time>2026-03-28T13:33:33.593Z</time></trkpt><trkpt lat="45.5957805" lon="10.7304161"><ele>254.0</ele><time>2026-03-28T13:33:35.595Z</time></trkpt><trkpt lat="45.5958869" lon="10.7303358"><ele>254.0</ele><time>2026-03-28T13:33:37.585Z</time></trkpt><trkpt lat="45.5959845" lon="10.7302951"><ele>254.0</ele><time>2026-03-28T13:33:39.579Z</time></trkpt><trkpt lat="45.5961059" lon="10.7302883"><ele>254.0</ele><time>2026-03-28T13:33:41.586Z</time></trkpt><trkpt lat="45.5962252" lon="10.7302819"><ele>255.33333333333334</ele><time>2026-03-28T13:33:43.573Z</time></trkpt><trkpt lat="45.5962969" lon="10.7302576"><ele>256.6666666666667</ele><time>2026-03-28T13:33:44.583Z</time></trkpt><trkpt lat="45.5963835" lon="10.7302216"><ele>258.0</ele><time>2026-03-28T13:33:45.587Z</time></trkpt><trkpt lat="45.5964663" lon="10.7301868"><ele>259.3333333333333</ele><time>2026-03-28T13:33:46.585Z</time></trkpt><trkpt lat="45.5965418" lon="10.7301537"><ele>260.66666666666663</ele><time>2026-03-28T13:33:47.589Z</time></trkpt><trkpt lat="45.5966189" lon="10.7301172"><ele>262.0</ele><time>2026-03-28T13:33:48.583Z</time></trkpt><trkpt lat="45.596693" lon="10.7300805"><ele>262.0</ele><time>2026-03-28T13:33:49.587Z</time></trkpt><trkpt lat="45.5967619" lon="10.7300461"><ele>262.0</ele><time>2026-03-28T13:33:50.583Z</time></trkpt><trkpt lat="45.5968829" lon="10.7300103"><ele>262.0</ele><time>2026-03-28T13:33:52.583Z</time></trkpt><trkpt lat="45.5969489" lon="10.7300128"><ele>262.0</ele><time>2026-03-28T13:33:53.582Z</time></trkpt><trkpt lat="45.5970234" lon="10.730031"><ele>262.0</ele><time>2026-03-28T13:33:54.584Z</time></trkpt><trkpt lat="45.5970973" lon="10.7300425"><ele>262.0</ele><time>2026-03-28T13:33:55.583Z</time></trkpt><trkpt lat="45.5971718" lon="10.7300441"><ele>263.3333333333333</ele><time>2026-03-28T13:33:56.574Z</time></trkpt><trkpt lat="45.5972482" lon="10.7300283"><ele>264.66666666666663</ele><time>2026-03-28T13:33:57.569Z</time></trkpt><trkpt lat="45.5973105" lon="10.7299784"><ele>266.0</ele><time>2026-03-28T13:33:58.578Z</time></trkpt><trkpt lat="45.5973743" lon="10.729935"><ele>267.3333333333333</ele><time>2026-03-28T13:33:59.576Z</time></trkpt><trkpt lat="45.5974691" lon="10.7299117"><ele>268.6666666666667</ele><time>2026-03-28T13:34:01.582Z</time></trkpt><trkpt lat="45.5975655" lon="10.7298696"><ele>270.0</ele><time>2026-03-28T13:34:03.573Z</time></trkpt><trkpt lat="45.5976313" lon="10.729764"><ele>270.0</ele><time>2026-03-28T13:34:05.576Z</time></trkpt><trkpt lat="45.5976964" lon="10.7296856"><ele>270.0</ele><time>2026-03-28T13:34:07.587Z</time></trkpt><trkpt lat="45.5977898" lon="10.7296458"><ele>270.0</ele><time>2026-03-28T13:34:09.572Z</time></trkpt><trkpt lat="45.5978772" lon="10.7296469"><ele>270.0</ele><time>2026-03-28T13:34:10.583Z</time></trkpt><trkpt lat="45.5979718" lon="10.7296443"><ele>270.0</ele><time>2026-03-28T13:34:11.583Z</time></trkpt><trkpt lat="45.5980516" lon="10.7296329"><ele>270.0</ele><time>2026-03-28T13:34:12.577Z</time></trkpt><trkpt lat="45.5981157" lon="10.7295966"><ele>270.5</ele><time>2026-03-28T13:34:13.578Z</time></trkpt><trkpt lat="45.5981876" lon="10.7295448"><ele>271.0</ele><time>2026-03-28T13:34:14.582Z</time></trkpt><trkpt lat="45.5982549" lon="10.7294717"><ele>271.5</ele><time>2026-03-28T13:34:15.583Z</time></trkpt><trkpt lat="45.5983118" lon="10.7294111"><ele>272.0</ele><time>2026-03-28T13:34:16.586Z</time></trkpt><trkpt lat="45.5983675" lon="10.729354"><ele>272.5</ele><time>2026-03-28T13:34:17.582Z</time></trkpt><trkpt lat="45.598435" lon="10.7292945"><ele>273.0</ele><time>2026-03-28T13:34:18.592Z</time></trkpt><trkpt lat="45.5984986" lon="10.7292517"><ele>273.4</ele><time>2026-03-28T13:34:19.579Z</time></trkpt><trkpt lat="45.5985756" lon="10.7291586"><ele>273.8</ele><time>2026-03-28T13:34:21.584Z</time></trkpt><trkpt lat="45.5986231" lon="10.7290103"><ele>274.2</ele><time>2026-03-28T13:34:23.578Z</time></trkpt><trkpt lat="45.5986391" lon="10.7288951"><ele>274.6</ele><time>2026-03-28T13:34:24.579Z</time></trkpt><trkpt lat="45.5986526" lon="10.7287507"><ele>275.0</ele><time>2026-03-28T13:34:25.582Z</time></trkpt><trkpt lat="45.5986591" lon="10.7286102"><ele>275.2</ele><time>2026-03-28T13:34:26.58Z</time></trkpt><trkpt lat="45.5986557" lon="10.7284978"><ele>275.4</ele><time>2026-03-28T13:34:27.576Z</time></trkpt><trkpt lat="45.5986562" lon="10.7283606"><ele>275.6</ele><time>2026-03-28T13:34:29.586Z</time></trkpt><trkpt lat="45.5986817" lon="10.728258"><ele>275.8</ele><time>2026-03-28T13:34:31.592Z</time></trkpt><trkpt lat="45.5987773" lon="10.7281314"><ele>276.0</ele><time>2026-03-28T13:34:33.58Z</time></trkpt><trkpt lat="45.5988447" lon="10.7280882"><ele>277.6</ele><time>2026-03-28T13:34:34.58Z</time></trkpt><trkpt lat="45.5989333" lon="10.7280445"><ele>279.20000000000005</ele><time>2026-03-28T13:34:36.584Z</time></trkpt><trkpt lat="45.5990056" lon="10.7280224"><ele>280.79999999999995</ele><time>2026-03-28T13:35:01.596Z</time></trkpt><trkpt lat="45.5990738" lon="10.7281263"><ele>282.4</ele><time>2026-03-28T13:35:05.58Z</time></trkpt><trkpt lat="45.5991197" lon="10.7283358"><ele>284.0</ele><time>2026-03-28T13:35:07.574Z</time></trkpt><trkpt lat="45.5991739" lon="10.7284727"><ele>284.2</ele><time>2026-03-28T13:35:08.572Z</time></trkpt><trkpt lat="45.5992381" lon="10.72862"><ele>284.4</ele><time>2026-03-28T13:35:09.579Z</time></trkpt><trkpt lat="45.5992927" lon="10.7287693"><ele>284.6</ele><time>2026-03-28T13:35:10.577Z</time></trkpt><trkpt lat="45.5993278" lon="10.7288942"><ele>284.8</ele><time>2026-03-28T13:35:11.578Z</time></trkpt><trkpt lat="45.5993634" lon="10.7290073"><ele>285.0</ele><time>2026-03-28T13:35:12.583Z</time></trkpt><trkpt lat="45.5994023" lon="10.7291163"><ele>285.0</ele><time>2026-03-28T13:35:13.58Z</time></trkpt><trkpt lat="45.5994439" lon="10.7292236"><ele>285.0</ele><time>2026-03-28T13:35:14.583Z</time></trkpt><trkpt lat="45.5994821" lon="10.7293455"><ele>285.0</ele><time>2026-03-28T13:35:15.58Z</time></trkpt><trkpt lat="45.5995063" lon="10.7294762"><ele>285.0</ele><time>2026-03-28T13:35:16.574Z</time></trkpt><trkpt lat="45.5995323" lon="10.7295925"><ele>285.0</ele><time>2026-03-28T13:35:17.576Z</time></trkpt><trkpt lat="45.5995518" lon="10.729736"><ele>286.1666666666667</ele><time>2026-03-28T13:35:19.568Z</time></trkpt><trkpt lat="45.5996499" lon="10.7297829"><ele>287.3333333333333</ele><time>2026-03-28T13:35:21.574Z</time></trkpt><trkpt lat="45.5997342" lon="10.729764"><ele>288.5</ele><time>2026-03-28T13:35:22.581Z</time></trkpt><trkpt lat="45.5997979" lon="10.7297341"><ele>289.66666666666663</ele><time>2026-03-28T13:35:23.584Z</time></trkpt><trkpt lat="45.5998777" lon="10.7297402"><ele>290.8333333333333</ele><time>2026-03-28T13:35:25.588Z</time></trkpt><trkpt lat="45.5999484" lon="10.7297341"><ele>292.0</ele><time>2026-03-28T13:35:27.588Z</time></trkpt><trkpt lat="45.6000888" lon="10.7296503"><ele>292.0</ele><time>2026-03-28T13:35:29.587Z</time></trkpt><trkpt lat="45.6002059" lon="10.729544"><ele>292.0</ele><time>2026-03-28T13:35:30.576Z</time></trkpt><trkpt lat="45.6003481" lon="10.7294519"><ele>292.0</ele><time>2026-03-28T13:35:31.576Z</time></trkpt><trkpt lat="45.6005078" lon="10.7293593"><ele>293.66666666666663</ele><time>2026-03-28T13:35:32.575Z</time></trkpt><trkpt lat="45.6006951" lon="10.7292655"><ele>295.3333333333333</ele><time>2026-03-28T13:35:33.579Z</time></trkpt><trkpt lat="45.6008723" lon="10.7291561"><ele>297.0</ele><time>2026-03-28T13:35:34.583Z</time></trkpt><trkpt lat="45.6010487" lon="10.7290442"><ele>300.3333333333333</ele><time>2026-03-28T13:35:35.581Z</time></trkpt><trkpt lat="45.6011989" lon="10.7289193"><ele>303.66666666666663</ele><time>2026-03-28T13:35:36.581Z</time></trkpt><trkpt lat="45.6013172" lon="10.7287812"><ele>307.0</ele><time>2026-03-28T13:35:37.574Z</time></trkpt><trkpt lat="45.6014083" lon="10.7286591"><ele>306.4</ele><time>2026-03-28T13:35:38.572Z</time></trkpt><trkpt lat="45.601479" lon="10.728559"><ele>305.79999999999995</ele><time>2026-03-28T13:35:39.58Z</time></trkpt><trkpt lat="45.6015277" lon="10.7284754"><ele>305.2</ele><time>2026-03-28T13:35:40.575Z</time></trkpt><trkpt lat="45.6016287" lon="10.728434"><ele>304.59999999999997</ele><time>2026-03-28T13:35:41.569Z</time></trkpt><trkpt lat="45.6017609" lon="10.7284048"><ele>304.0</ele><time>2026-03-28T13:35:42.57Z</time></trkpt><trkpt lat="45.6019257" lon="10.7283551"><ele>306.0</ele><time>2026-03-28T13:35:43.571Z</time></trkpt><trkpt lat="45.6020911" lon="10.7282928"><ele>308.0</ele><time>2026-03-28T13:35:44.572Z</time></trkpt><trkpt lat="45.6022542" lon="10.7282133"><ele>310.0</ele><time>2026-03-28T13:35:45.58Z</time></trkpt><trkpt lat="45.6024163" lon="10.7281418"><ele>310.0</ele><time>2026-03-28T13:35:46.575Z</time></trkpt><trkpt lat="45.6025705" lon="10.7280666"><ele>310.0</ele><time>2026-03-28T13:35:47.577Z</time></trkpt><trkpt lat="45.6027223" lon="10.7279845"><ele>310.0</ele><time>2026-03-28T13:35:48.585Z</time></trkpt><trkpt lat="45.6028688" lon="10.727893"><ele>309.66666666666663</ele><time>2026-03-28T13:35:49.583Z</time></trkpt><trkpt lat="45.6030269" lon="10.7278158"><ele>309.3333333333333</ele><time>2026-03-28T13:35:50.581Z</time></trkpt><trkpt lat="45.6031752" lon="10.7277359"><ele>309.0</ele><time>2026-03-28T13:35:51.578Z</time></trkpt><trkpt lat="45.6033181" lon="10.7276452"><ele>309.0</ele><time>2026-03-28T13:35:52.583Z</time></trkpt><trkpt lat="45.6034467" lon="10.7275754"><ele>309.0</ele><time>2026-03-28T13:35:53.585Z</time></trkpt><trkpt lat="45.6035783" lon="10.7275299"><ele>309.0</ele><time>2026-03-28T13:35:54.582Z</time></trkpt><trkpt lat="45.603713" lon="10.7274961"><ele>309.0</ele><time>2026-03-28T13:35:55.597Z</time></trkpt><trkpt lat="45.6038537" lon="10.7274592"><ele>310.6666666666667</ele><time>2026-03-28T13:35:56.579Z</time></trkpt><trkpt lat="45.6040102" lon="10.7274167"><ele>312.33333333333337</ele><time>2026-03-28T13:35:57.581Z</time></trkpt><trkpt lat="45.6041678" lon="10.7273578"><ele>314.0</ele><time>2026-03-28T13:35:58.581Z</time></trkpt><trkpt lat="45.6043087" lon="10.727319"><ele>314.0</ele><time>2026-03-28T13:35:59.58Z</time></trkpt><trkpt lat="45.6044203" lon="10.727264"><ele>314.0</ele><time>2026-03-28T13:36:00.582Z</time></trkpt><trkpt lat="45.6045509" lon="10.7272284"><ele>314.0</ele><time>2026-03-28T13:36:01.581Z</time></trkpt><trkpt lat="45.6046962" lon="10.727221"><ele>314.0</ele><time>2026-03-28T13:36:02.574Z</time></trkpt><trkpt lat="45.6048352" lon="10.727232"><ele>314.0</ele><time>2026-03-28T13:36:03.575Z</time></trkpt><trkpt lat="45.6049943" lon="10.7272531"><ele>314.0</ele><time>2026-03-28T13:36:04.574Z</time></trkpt><trkpt lat="45.6051547" lon="10.7272695"><ele>314.0</ele><time>2026-03-28T13:36:05.582Z</time></trkpt><trkpt lat="45.6052757" lon="10.727284"><ele>314.0</ele><time>2026-03-28T13:36:06.582Z</time></trkpt><trkpt lat="45.6054137" lon="10.7272964"><ele>313.8</ele><time>2026-03-28T13:36:07.575Z</time></trkpt><trkpt lat="45.6055311" lon="10.7273057"><ele>313.59999999999997</ele><time>2026-03-28T13:36:08.582Z</time></trkpt><trkpt lat="45.6056317" lon="10.7273236"><ele>313.4</ele><time>2026-03-28T13:36:09.586Z</time></trkpt><trkpt lat="45.6057483" lon="10.7273328"><ele>313.2</ele><time>2026-03-28T13:36:10.579Z</time></trkpt><trkpt lat="45.6058481" lon="10.7273189"><ele>313.0</ele><time>2026-03-28T13:36:11.579Z</time></trkpt><trkpt lat="45.6059455" lon="10.7272877"><ele>313.0</ele><time>2026-03-28T13:36:12.578Z</time></trkpt><trkpt lat="45.6060275" lon="10.727252"><ele>313.0</ele><time>2026-03-28T13:36:13.576Z</time></trkpt><trkpt lat="45.6061105" lon="10.7272172"><ele>313.0</ele><time>2026-03-28T13:36:14.579Z</time></trkpt><trkpt lat="45.6061922" lon="10.727165"><ele>313.0</ele><time>2026-03-28T13:36:15.571Z</time></trkpt><trkpt lat="45.6062814" lon="10.7271018"><ele>313.0</ele><time>2026-03-28T13:36:16.568Z</time></trkpt><trkpt lat="45.6063535" lon="10.7270393"><ele>313.0</ele><time>2026-03-28T13:36:17.564Z</time></trkpt><trkpt lat="45.6064146" lon="10.7269832"><ele>313.5</ele><time>2026-03-28T13:36:18.566Z</time></trkpt><trkpt lat="45.6064734" lon="10.7269387"><ele>314.0</ele><time>2026-03-28T13:36:19.561Z</time></trkpt><trkpt lat="45.6065491" lon="10.7268739"><ele>314.5</ele><time>2026-03-28T13:36:21.554Z</time></trkpt><trkpt lat="45.6066233" lon="10.7268871"><ele>315.0</ele><time>2026-03-28T13:36:25.577Z</time></trkpt><trkpt lat="45.6066781" lon="10.7269517"><ele>315.5</ele><time>2026-03-28T13:36:37.572Z</time></trkpt><trkpt lat="45.6066678" lon="10.7270824"><ele>316.0</ele><time>2026-03-28T13:36:39.57Z</time></trkpt><trkpt lat="45.6066566" lon="10.7272011"><ele>316.0</ele><time>2026-03-28T13:36:40.574Z</time></trkpt><trkpt lat="45.6066317" lon="10.7273421"><ele>316.0</ele><time>2026-03-28T13:36:41.559Z</time></trkpt><trkpt lat="45.6065907" lon="10.7275027"><ele>316.0</ele><time>2026-03-28T13:36:42.567Z</time></trkpt><trkpt lat="45.6065568" lon="10.7276512"><ele>316.0</ele><time>2026-03-28T13:36:43.567Z</time></trkpt><trkpt lat="45.6065174" lon="10.7278076"><ele>316.0</ele><time>2026-03-28T13:36:44.574Z</time></trkpt><trkpt lat="45.6064604" lon="10.7279377"><ele>314.8</ele><time>2026-03-28T13:36:45.574Z</time></trkpt><trkpt lat="45.6064116" lon="10.7280519"><ele>313.6</ele><time>2026-03-28T13:36:46.572Z</time></trkpt><trkpt lat="45.6063803" lon="10.7281624"><ele>312.4</ele><time>2026-03-28T13:36:47.572Z</time></trkpt><trkpt lat="45.6063586" lon="10.7282576"><ele>311.2</ele><time>2026-03-28T13:36:48.574Z</time></trkpt><trkpt lat="45.6063883" lon="10.7284558"><ele>310.0</ele><time>2026-03-28T13:36:50.563Z</time></trkpt><trkpt lat="45.6064392" lon="10.7285857"><ele>309.5</ele><time>2026-03-28T13:36:51.565Z</time></trkpt><trkpt lat="45.6065093" lon="10.7287218"><ele>309.0</ele><time>2026-03-28T13:36:52.571Z</time></trkpt><trkpt lat="45.6065705" lon="10.7288858"><ele>308.5</ele><time>2026-03-28T13:36:53.571Z</time></trkpt><trkpt lat="45.6066246" lon="10.7290513"><ele>308.0</ele><time>2026-03-28T13:36:54.575Z</time></trkpt><trkpt lat="45.6066852" lon="10.7291993"><ele>308.0</ele><time>2026-03-28T13:36:55.573Z</time></trkpt><trkpt lat="45.6067433" lon="10.7293576"><ele>308.0</ele><time>2026-03-28T13:36:56.591Z</time></trkpt><trkpt lat="45.6067805" lon="10.729523"><ele>308.0</ele><time>2026-03-28T13:36:57.571Z</time></trkpt><trkpt lat="45.6067919" lon="10.7296776"><ele>308.0</ele><time>2026-03-28T13:36:58.577Z</time></trkpt><trkpt lat="45.6067876" lon="10.729853"><ele>306.75</ele><time>2026-03-28T13:36:59.57Z</time></trkpt><trkpt lat="45.6067754" lon="10.7300503"><ele>305.5</ele><time>2026-03-28T13:37:00.568Z</time></trkpt><trkpt lat="45.6067726" lon="10.7302551"><ele>304.25</ele><time>2026-03-28T13:37:01.575Z</time></trkpt><trkpt lat="45.6067631" lon="10.7304662"><ele>303.0</ele><time>2026-03-28T13:37:02.572Z</time></trkpt><trkpt lat="45.6067664" lon="10.730657"><ele>301.75</ele><time>2026-03-28T13:37:03.574Z</time></trkpt><trkpt lat="45.6067695" lon="10.7308552"><ele>300.5</ele><time>2026-03-28T13:37:04.573Z</time></trkpt><trkpt lat="45.6067642" lon="10.7310539"><ele>299.25</ele><time>2026-03-28T13:37:05.572Z</time></trkpt><trkpt lat="45.6067707" lon="10.7312378"><ele>298.0</ele><time>2026-03-28T13:37:06.567Z</time></trkpt><trkpt lat="45.60677" lon="10.7314219"><ele>297.25</ele><time>2026-03-28T13:37:07.568Z</time></trkpt><trkpt lat="45.6067704" lon="10.7315878"><ele>296.5</ele><time>2026-03-28T13:37:08.569Z</time></trkpt><trkpt lat="45.6067737" lon="10.731769"><ele>295.75</ele><time>2026-03-28T13:37:09.569Z</time></trkpt><trkpt lat="45.6067637" lon="10.7319537"><ele>295.0</ele><time>2026-03-28T13:37:10.571Z</time></trkpt><trkpt lat="45.606754" lon="10.7321427"><ele>295.0</ele><time>2026-03-28T13:37:11.568Z</time></trkpt><trkpt lat="45.6067386" lon="10.7323236"><ele>295.0</ele><time>2026-03-28T13:37:12.57Z</time></trkpt><trkpt lat="45.6067076" lon="10.7324859"><ele>295.0</ele><time>2026-03-28T13:37:13.565Z</time></trkpt><trkpt lat="45.606677" lon="10.7326492"><ele>295.0</ele><time>2026-03-28T13:37:14.56Z</time></trkpt><trkpt lat="45.6066195" lon="10.73281"><ele>296.5</ele><time>2026-03-28T13:37:15.562Z</time></trkpt><trkpt lat="45.6065271" lon="10.7329506"><ele>298.0</ele><time>2026-03-28T13:37:16.565Z</time></trkpt><trkpt lat="45.6064346" lon="10.7330714"><ele>299.5</ele><time>2026-03-28T13:37:17.567Z</time></trkpt><trkpt lat="45.6063396" lon="10.7331664"><ele>301.0</ele><time>2026-03-28T13:37:18.577Z</time></trkpt><trkpt lat="45.6062482" lon="10.7332417"><ele>301.0</ele><time>2026-03-28T13:37:19.573Z</time></trkpt><trkpt lat="45.6061791" lon="10.7333079"><ele>301.0</ele><time>2026-03-28T13:37:20.572Z</time></trkpt><trkpt lat="45.6061173" lon="10.7333691"><ele>301.0</ele><time>2026-03-28T13:37:21.572Z</time></trkpt><trkpt lat="45.6060581" lon="10.7334252"><ele>301.0</ele><time>2026-03-28T13:37:22.574Z</time></trkpt><trkpt lat="45.6060018" lon="10.733473"><ele>301.0</ele><time>2026-03-28T13:37:23.573Z</time></trkpt><trkpt lat="45.6059095" lon="10.7335527"><ele>301.0</ele><time>2026-03-28T13:37:25.572Z</time></trkpt><trkpt lat="45.6058737" lon="10.7336293"><ele>300.2</ele><time>2026-03-28T13:37:27.597Z</time></trkpt><trkpt lat="45.6059062" lon="10.7337428"><ele>299.40000000000003</ele><time>2026-03-28T13:37:30.582Z</time></trkpt><trkpt lat="45.6059551" lon="10.7338075"><ele>298.6</ele><time>2026-03-28T13:37:32.586Z</time></trkpt><trkpt lat="45.6059661" lon="10.7339371"><ele>297.8</ele><time>2026-03-28T13:37:35.58Z</time></trkpt><trkpt lat="45.6058976" lon="10.7340904"><ele>297.0</ele><time>2026-03-28T13:37:37.578Z</time></trkpt><trkpt lat="45.6058409" lon="10.7341774"><ele>297.0</ele><time>2026-03-28T13:37:38.576Z</time></trkpt><trkpt lat="45.6057827" lon="10.7342528"><ele>297.0</ele><time>2026-03-28T13:37:39.573Z</time></trkpt><trkpt lat="45.6057062" lon="10.73438"><ele>297.0</ele><time>2026-03-28T13:37:41.571Z</time></trkpt><trkpt lat="45.6057712" lon="10.7344141"><ele>297.0</ele><time>2026-03-28T13:37:52.582Z</time></trkpt><trkpt lat="45.6058477" lon="10.7343909"><ele>297.0</ele><time>2026-03-28T13:37:54.577Z</time></trkpt><trkpt lat="45.6059945" lon="10.7343715"><ele>298.4</ele><time>2026-03-28T13:37:56.571Z</time></trkpt><trkpt lat="45.6061035" lon="10.734391"><ele>299.79999999999995</ele><time>2026-03-28T13:37:58.588Z</time></trkpt><trkpt lat="45.6062159" lon="10.7343485"><ele>301.2</ele><time>2026-03-28T13:38:00.574Z</time></trkpt><trkpt lat="45.6062481" lon="10.7342402"><ele>302.59999999999997</ele><time>2026-03-28T13:38:01.573Z</time></trkpt><trkpt lat="45.6062796" lon="10.7341105"><ele>304.0</ele><time>2026-03-28T13:38:02.57Z</time></trkpt><trkpt lat="45.6063266" lon="10.7340224"><ele>306.8</ele><time>2026-03-28T13:38:03.571Z</time></trkpt><trkpt lat="45.6063906" lon="10.7339501"><ele>309.59999999999997</ele><time>2026-03-28T13:38:04.552Z</time></trkpt><trkpt lat="45.6064747" lon="10.7339061"><ele>312.4</ele><time>2026-03-28T13:38:05.561Z</time></trkpt><trkpt lat="45.6065726" lon="10.7338627"><ele>315.2</ele><time>2026-03-28T13:38:06.568Z</time></trkpt><trkpt lat="45.6066739" lon="10.7338305"><ele>318.0</ele><time>2026-03-28T13:38:07.562Z</time></trkpt><trkpt lat="45.6067626" lon="10.733806"><ele>318.0</ele><time>2026-03-28T13:38:08.572Z</time></trkpt><trkpt lat="45.6068409" lon="10.7337904"><ele>318.0</ele><time>2026-03-28T13:38:09.568Z</time></trkpt><trkpt lat="45.6069125" lon="10.7337384"><ele>318.0</ele><time>2026-03-28T13:38:10.567Z</time></trkpt><trkpt lat="45.6069728" lon="10.7336396"><ele>318.0</ele><time>2026-03-28T13:38:11.566Z</time></trkpt><trkpt lat="45.6070224" lon="10.7335337"><ele>318.0</ele><time>2026-03-28T13:38:12.566Z</time></trkpt><trkpt lat="45.6070434" lon="10.7334106"><ele>318.0</ele><time>2026-03-28T13:38:13.569Z</time></trkpt><trkpt lat="45.607072" lon="10.7332951"><ele>318.1666666666667</ele><time>2026-03-28T13:38:14.565Z</time></trkpt><trkpt lat="45.6071082" lon="10.733191"><ele>318.3333333333333</ele><time>2026-03-28T13:38:15.56Z</time></trkpt><trkpt lat="45.6071572" lon="10.7330966"><ele>318.5</ele><time>2026-03-28T13:38:16.557Z</time></trkpt><trkpt lat="45.607228" lon="10.7330455"><ele>318.66666666666663</ele><time>2026-03-28T13:38:17.56Z</time></trkpt><trkpt lat="45.6073089" lon="10.7329714"><ele>318.8333333333333</ele><time>2026-03-28T13:38:19.57Z</time></trkpt><trkpt lat="45.6073734" lon="10.7329244"><ele>319.0</ele><time>2026-03-28T13:38:22.582Z</time></trkpt><trkpt lat="45.6074443" lon="10.7328581"><ele>319.0</ele><time>2026-03-28T13:38:24.583Z</time></trkpt><trkpt lat="45.6075142" lon="10.7327901"><ele>319.0</ele><time>2026-03-28T13:38:26.581Z</time></trkpt><trkpt lat="45.6075999" lon="10.7327338"><ele>319.0</ele><time>2026-03-28T13:38:28.574Z</time></trkpt><trkpt lat="45.6075254" lon="10.7327469"><ele>319.0</ele><time>2026-03-28T13:38:53.596Z</time></trkpt><trkpt lat="45.6074597" lon="10.7328218"><ele>319.0</ele><time>2026-03-28T13:38:54.584Z</time></trkpt><trkpt lat="45.6073956" lon="10.7328861"><ele>319.0</ele><time>2026-03-28T13:38:55.585Z</time></trkpt><trkpt lat="45.607345" lon="10.7329589"><ele>319.0</ele><time>2026-03-28T13:38:56.576Z</time></trkpt><trkpt lat="45.6072887" lon="10.7330518"><ele>319.0</ele><time>2026-03-28T13:38:58.581Z</time></trkpt><trkpt lat="45.6073591" lon="10.7331524"><ele>319.0</ele><time>2026-03-28T13:39:01.58Z</time></trkpt><trkpt lat="45.6074323" lon="10.73319"><ele>319.0</ele><time>2026-03-28T13:39:02.581Z</time></trkpt><trkpt lat="45.6074996" lon="10.7332255"><ele>319.0</ele><time>2026-03-28T13:39:03.591Z</time></trkpt><trkpt lat="45.6075831" lon="10.7332456"><ele>319.0</ele><time>2026-03-28T13:39:04.575Z</time></trkpt><trkpt lat="45.6076884" lon="10.7332472"><ele>319.0</ele><time>2026-03-28T13:39:05.566Z</time></trkpt><trkpt lat="45.6077623" lon="10.7332308"><ele>319.0</ele><time>2026-03-28T13:39:06.567Z</time></trkpt><trkpt lat="45.6078256" lon="10.7332201"><ele>319.0</ele><time>2026-03-28T13:39:07.579Z</time></trkpt><trkpt lat="45.6079063" lon="10.7332181"><ele>319.0</ele><time>2026-03-28T13:39:08.567Z</time></trkpt><trkpt lat="45.6079946" lon="10.7332723"><ele>319.0</ele><time>2026-03-28T13:39:10.578Z</time></trkpt><trkpt lat="45.6080228" lon="10.7333652"><ele>319.0</ele><time>2026-03-28T13:39:11.563Z</time></trkpt><trkpt lat="45.608042" lon="10.7334714"><ele>322.5</ele><time>2026-03-28T13:39:12.564Z</time></trkpt><trkpt lat="45.6080562" lon="10.7335751"><ele>326.0</ele><time>2026-03-28T13:39:13.564Z</time></trkpt><trkpt lat="45.6080544" lon="10.7336704"><ele>329.5</ele><time>2026-03-28T13:39:14.566Z</time></trkpt><trkpt lat="45.6080447" lon="10.7337634"><ele>333.0</ele><time>2026-03-28T13:39:15.56Z</time></trkpt><trkpt lat="45.6080123" lon="10.733847"><ele>336.5</ele><time>2026-03-28T13:39:16.567Z</time></trkpt><trkpt lat="45.6079373" lon="10.7339059"><ele>340.0</ele><time>2026-03-28T13:39:17.559Z</time></trkpt><trkpt lat="45.6078139" lon="10.7339521"><ele>340.0</ele><time>2026-03-28T13:39:18.56Z</time></trkpt><trkpt lat="45.6076794" lon="10.7339745"><ele>340.0</ele><time>2026-03-28T13:39:19.558Z</time></trkpt><trkpt lat="45.6075301" lon="10.7339723"><ele>340.0</ele><time>2026-03-28T13:39:20.563Z</time></trkpt><trkpt lat="45.6074044" lon="10.7339882"><ele>340.0</ele><time>2026-03-28T13:39:21.567Z</time></trkpt><trkpt lat="45.6073251" lon="10.7340044"><ele>340.0</ele><time>2026-03-28T13:39:22.574Z</time></trkpt><trkpt lat="45.6072501" lon="10.7340303"><ele>340.0</ele><time>2026-03-28T13:39:23.577Z</time></trkpt><trkpt lat="45.6071773" lon="10.7340884"><ele>340.0</ele><time>2026-03-28T13:39:24.59Z</time></trkpt><trkpt lat="45.6071239" lon="10.7341508"><ele>340.0</ele><time>2026-03-28T13:39:25.576Z</time></trkpt><trkpt lat="45.6070642" lon="10.734232"><ele>340.0</ele><time>2026-03-28T13:39:27.58Z</time></trkpt><trkpt lat="45.6070786" lon="10.7343228"><ele>340.0</ele><time>2026-03-28T13:39:29.596Z</time></trkpt><trkpt lat="45.6072173" lon="10.7343281"><ele>340.0</ele><time>2026-03-28T13:39:31.609Z</time></trkpt><trkpt lat="45.6073434" lon="10.7342905"><ele>340.0</ele><time>2026-03-28T13:39:32.569Z</time></trkpt><trkpt lat="45.6074659" lon="10.7342404"><ele>340.0</ele><time>2026-03-28T13:39:33.579Z</time></trkpt><trkpt lat="45.6075997" lon="10.7341819"><ele>340.0</ele><time>2026-03-28T13:39:34.586Z</time></trkpt><trkpt lat="45.6077378" lon="10.7341265"><ele>341.75</ele><time>2026-03-28T13:39:35.574Z</time></trkpt><trkpt lat="45.6078728" lon="10.7340724"><ele>343.5</ele><time>2026-03-28T13:39:36.574Z</time></trkpt><trkpt lat="45.6080008" lon="10.7340186"><ele>345.25</ele><time>2026-03-28T13:39:37.578Z</time></trkpt><trkpt lat="45.6081121" lon="10.7339771"><ele>347.0</ele><time>2026-03-28T13:39:38.573Z</time></trkpt><trkpt lat="45.6082051" lon="10.7339475"><ele>347.0</ele><time>2026-03-28T13:39:39.569Z</time></trkpt><trkpt lat="45.6083024" lon="10.7339481"><ele>347.0</ele><time>2026-03-28T13:39:40.571Z</time></trkpt><trkpt lat="45.6083962" lon="10.7339545"><ele>347.0</ele><time>2026-03-28T13:39:41.572Z</time></trkpt><trkpt lat="45.6084739" lon="10.7339798"><ele>347.0</ele><time>2026-03-28T13:39:42.571Z</time></trkpt><trkpt lat="45.6085424" lon="10.7339874"><ele>347.0</ele><time>2026-03-28T13:39:43.567Z</time></trkpt><trkpt lat="45.6086048" lon="10.7339654"><ele>347.0</ele><time>2026-03-28T13:39:44.584Z</time></trkpt><trkpt lat="45.6086659" lon="10.7338952"><ele>346.75</ele><time>2026-03-28T13:39:45.583Z</time></trkpt><trkpt lat="45.6087321" lon="10.7338147"><ele>346.5</ele><time>2026-03-28T13:39:46.567Z</time></trkpt><trkpt lat="45.6088005" lon="10.7336928"><ele>346.25</ele><time>2026-03-28T13:39:47.569Z</time></trkpt><trkpt lat="45.6088895" lon="10.7335611"><ele>346.0</ele><time>2026-03-28T13:39:48.578Z</time></trkpt><trkpt lat="45.6089888" lon="10.733399"><ele>346.0</ele><time>2026-03-28T13:39:49.57Z</time></trkpt><trkpt lat="45.6090747" lon="10.7331951"><ele>346.0</ele><time>2026-03-28T13:39:50.572Z</time></trkpt><trkpt lat="45.6091469" lon="10.7330602"><ele>346.0</ele><time>2026-03-28T13:39:51.567Z</time></trkpt><trkpt lat="45.6092308" lon="10.732933"><ele>346.0</ele><time>2026-03-28T13:39:52.567Z</time></trkpt><trkpt lat="45.6093366" lon="10.7328339"><ele>346.0</ele><time>2026-03-28T13:39:53.566Z</time></trkpt><trkpt lat="45.6094395" lon="10.7327318"><ele>346.0</ele><time>2026-03-28T13:39:54.579Z</time></trkpt><trkpt lat="45.6095619" lon="10.7326722"><ele>346.0</ele><time>2026-03-28T13:39:55.571Z</time></trkpt><trkpt lat="45.6096376" lon="10.7325782"><ele>346.0</ele><time>2026-03-28T13:39:56.568Z</time></trkpt><trkpt lat="45.6097269" lon="10.7325131"><ele>347.0</ele><time>2026-03-28T13:39:57.57Z</time></trkpt><trkpt lat="45.6098269" lon="10.7324723"><ele>348.0</ele><time>2026-03-28T13:39:58.577Z</time></trkpt><trkpt lat="45.6099206" lon="10.7324405"><ele>349.0</ele><time>2026-03-28T13:39:59.568Z</time></trkpt><trkpt lat="45.6100099" lon="10.7324268"><ele>350.0</ele><time>2026-03-28T13:40:00.571Z</time></trkpt><trkpt lat="45.6100972" lon="10.732416"><ele>351.0</ele><time>2026-03-28T13:40:01.577Z</time></trkpt><trkpt lat="45.6101966" lon="10.7324227"><ele>351.0</ele><time>2026-03-28T13:40:02.59Z</time></trkpt><trkpt lat="45.6102847" lon="10.7324202"><ele>351.0</ele><time>2026-03-28T13:40:03.574Z</time></trkpt><trkpt lat="45.6103653" lon="10.7324374"><ele>351.0</ele><time>2026-03-28T13:40:04.584Z</time></trkpt><trkpt lat="45.6104244" lon="10.7324745"><ele>351.0</ele><time>2026-03-28T13:40:05.569Z</time></trkpt><trkpt lat="45.6104783" lon="10.7325348"><ele>351.0</ele><time>2026-03-28T13:40:06.567Z</time></trkpt><trkpt lat="45.610539" lon="10.7326156"><ele>351.0</ele><time>2026-03-28T13:40:07.561Z</time></trkpt><trkpt lat="45.6106122" lon="10.7326618"><ele>353.5</ele><time>2026-03-28T13:40:08.563Z</time></trkpt><trkpt lat="45.6106894" lon="10.7326905"><ele>356.0</ele><time>2026-03-28T13:40:09.567Z</time></trkpt><trkpt lat="45.6107792" lon="10.7327025"><ele>358.5</ele><time>2026-03-28T13:40:10.565Z</time></trkpt><trkpt lat="45.6108697" lon="10.7327193"><ele>361.0</ele><time>2026-03-28T13:40:11.562Z</time></trkpt><trkpt lat="45.6109505" lon="10.7327483"><ele>363.5</ele><time>2026-03-28T13:40:12.562Z</time></trkpt><trkpt lat="45.6110192" lon="10.7327751"><ele>366.0</ele><time>2026-03-28T13:40:13.571Z</time></trkpt><trkpt lat="45.611091" lon="10.732859"><ele>368.1666666666667</ele><time>2026-03-28T13:40:15.581Z</time></trkpt><trkpt lat="45.6111174" lon="10.7329538"><ele>370.3333333333333</ele><time>2026-03-28T13:40:21.597Z</time></trkpt><trkpt lat="45.6111281" lon="10.7330553"><ele>372.5</ele><time>2026-03-28T13:40:50.604Z</time></trkpt><trkpt lat="45.6111264" lon="10.7332641"><ele>374.66666666666663</ele><time>2026-03-28T13:40:52.6Z</time></trkpt><trkpt lat="45.6111312" lon="10.7333771"><ele>376.8333333333333</ele><time>2026-03-28T13:40:53.579Z</time></trkpt><trkpt lat="45.6111296" lon="10.7334824"><ele>379.0</ele><time>2026-03-28T13:40:54.584Z</time></trkpt><trkpt lat="45.6111268" lon="10.7335878"><ele>381.8333333333333</ele><time>2026-03-28T13:40:55.594Z</time></trkpt><trkpt lat="45.6111298" lon="10.7336917"><ele>384.66666666666663</ele><time>2026-03-28T13:40:56.58Z</time></trkpt><trkpt lat="45.6111263" lon="10.7337833"><ele>387.5</ele><time>2026-03-28T13:40:57.582Z</time></trkpt><trkpt lat="45.6111404" lon="10.7338796"><ele>390.3333333333333</ele><time>2026-03-28T13:40:58.581Z</time></trkpt><trkpt lat="45.6111574" lon="10.7340382"><ele>393.1666666666667</ele><time>2026-03-28T13:41:00.58Z</time></trkpt><trkpt lat="45.6111466" lon="10.7341589"><ele>396.0</ele><time>2026-03-28T13:41:02.577Z</time></trkpt><trkpt lat="45.6111424" lon="10.7342598"><ele>396.0</ele><time>2026-03-28T13:41:04.618Z</time></trkpt><trkpt lat="45.6111474" lon="10.7343694"><ele>396.0</ele><time>2026-03-28T13:41:06.589Z</time></trkpt><trkpt lat="45.6111851" lon="10.7344847"><ele>396.0</ele><time>2026-03-28T13:41:08.589Z</time></trkpt><trkpt lat="45.6112746" lon="10.7345831"><ele>396.0</ele><time>2026-03-28T13:41:10.576Z</time></trkpt><trkpt lat="45.6113765" lon="10.7345958"><ele>396.0</ele><time>2026-03-28T13:41:12.578Z</time></trkpt><trkpt lat="45.6114414" lon="10.7346343"><ele>401.0</ele><time>2026-03-28T13:41:14.583Z</time></trkpt><trkpt lat="45.6115436" lon="10.7346398"><ele>406.0</ele><time>2026-03-28T13:41:16.588Z</time></trkpt><trkpt lat="45.6116112" lon="10.7346428"><ele>411.0</ele><time>2026-03-28T13:41:17.579Z</time></trkpt><trkpt lat="45.6116751" lon="10.7346665"><ele>416.0</ele><time>2026-03-28T13:41:18.578Z</time></trkpt><trkpt lat="45.6117907" lon="10.7347248"><ele>421.0</ele><time>2026-03-28T13:41:20.574Z</time></trkpt><trkpt lat="45.6118755" lon="10.7348198"><ele>421.0</ele><time>2026-03-28T13:41:22.582Z</time></trkpt><trkpt lat="45.6119443" lon="10.734913"><ele>421.0</ele><time>2026-03-28T13:41:24.574Z</time></trkpt><trkpt lat="45.612002" lon="10.7349557"><ele>421.0</ele><time>2026-03-28T13:41:26.576Z</time></trkpt><trkpt lat="45.6121299" lon="10.7348862"><ele>421.0</ele><time>2026-03-28T13:41:28.574Z</time></trkpt><trkpt lat="45.6122255" lon="10.7348315"><ele>421.0</ele><time>2026-03-28T13:41:29.572Z</time></trkpt><trkpt lat="45.6123127" lon="10.7347937"><ele>421.20000000000005</ele><time>2026-03-28T13:41:30.569Z</time></trkpt><trkpt lat="45.6124263" lon="10.7347465"><ele>421.40000000000003</ele><time>2026-03-28T13:41:32.571Z</time></trkpt><trkpt lat="45.6124938" lon="10.7347454"><ele>421.6</ele><time>2026-03-28T13:41:35.59Z</time></trkpt><trkpt lat="45.6125363" lon="10.734835"><ele>421.8</ele><time>2026-03-28T13:41:37.582Z</time></trkpt><trkpt lat="45.6126361" lon="10.7349125"><ele>422.0</ele><time>2026-03-28T13:41:39.563Z</time></trkpt><trkpt lat="45.6127116" lon="10.7349124"><ele>421.99999999999994</ele><time>2026-03-28T13:41:40.568Z</time></trkpt><trkpt lat="45.6127807" lon="10.7349136"><ele>422.0</ele><time>2026-03-28T13:41:41.571Z</time></trkpt><trkpt lat="45.6128995" lon="10.7349946"><ele>422.0</ele><time>2026-03-28T13:41:43.566Z</time></trkpt><trkpt lat="45.6129607" lon="10.7350634"><ele>422.0</ele><time>2026-03-28T13:41:44.567Z</time></trkpt><trkpt lat="45.6130165" lon="10.7351437"><ele>421.99999999999994</ele><time>2026-03-28T13:41:45.569Z</time></trkpt><trkpt lat="45.6130694" lon="10.7352457"><ele>422.0</ele><time>2026-03-28T13:41:46.582Z</time></trkpt><trkpt lat="45.613125" lon="10.7353395"><ele>425.99999999999994</ele><time>2026-03-28T13:41:47.57Z</time></trkpt><trkpt lat="45.6131895" lon="10.7354265"><ele>430.0</ele><time>2026-03-28T13:41:48.561Z</time></trkpt><trkpt lat="45.613248" lon="10.7355212"><ele>434.0</ele><time>2026-03-28T13:41:49.554Z</time></trkpt><trkpt lat="45.613299" lon="10.7356079"><ele>438.0</ele><time>2026-03-28T13:41:50.555Z</time></trkpt><trkpt lat="45.6133399" lon="10.7356933"><ele>441.99999999999994</ele><time>2026-03-28T13:41:51.556Z</time></trkpt><trkpt lat="45.6133848" lon="10.7357797"><ele>446.0</ele><time>2026-03-28T13:41:52.554Z</time></trkpt><trkpt lat="45.6134231" lon="10.7358595"><ele>445.99999999999994</ele><time>2026-03-28T13:41:53.559Z</time></trkpt><trkpt lat="45.6134651" lon="10.735935"><ele>446.0</ele><time>2026-03-28T13:41:54.557Z</time></trkpt><trkpt lat="45.6135189" lon="10.7359832"><ele>446.0</ele><time>2026-03-28T13:41:55.558Z</time></trkpt><trkpt lat="45.6135955" lon="10.7360124"><ele>446.0</ele><time>2026-03-28T13:41:56.557Z</time></trkpt><trkpt lat="45.6136658" lon="10.7360431"><ele>445.99999999999994</ele><time>2026-03-28T13:41:57.557Z</time></trkpt><trkpt lat="45.6137321" lon="10.7361039"><ele>446.0</ele><time>2026-03-28T13:41:58.555Z</time></trkpt><trkpt lat="45.6138337" lon="10.7362186"><ele>448.1428571428571</ele><time>2026-03-28T13:42:00.554Z</time></trkpt><trkpt lat="45.6138837" lon="10.7362736"><ele>450.2857142857143</ele><time>2026-03-28T13:42:01.557Z</time></trkpt><trkpt lat="45.6139433" lon="10.7363185"><ele>452.42857142857144</ele><time>2026-03-28T13:42:02.554Z</time></trkpt><trkpt lat="45.6140035" lon="10.7363558"><ele>454.57142857142856</ele><time>2026-03-28T13:42:03.555Z</time></trkpt><trkpt lat="45.6140656" lon="10.7363787"><ele>456.7142857142858</ele><time>2026-03-28T13:42:04.557Z</time></trkpt><trkpt lat="45.6141314" lon="10.736369"><ele>458.8571428571429</ele><time>2026-03-28T13:42:05.575Z</time></trkpt><trkpt lat="45.6142039" lon="10.7363807"><ele>461.0</ele><time>2026-03-28T13:42:07.565Z</time></trkpt><trkpt lat="45.6142531" lon="10.736451"><ele>461.0</ele><time>2026-03-28T13:42:09.575Z</time></trkpt><trkpt lat="45.6142708" lon="10.7366075"><ele>461.0</ele><time>2026-03-28T13:42:11.578Z</time></trkpt><trkpt lat="45.6142369" lon="10.7367469"><ele>461.0</ele><time>2026-03-28T13:42:13.568Z</time></trkpt><trkpt lat="45.6141906" lon="10.7368565"><ele>461.0</ele><time>2026-03-28T13:42:15.577Z</time></trkpt><trkpt lat="45.6142686" lon="10.7368186"><ele>461.0</ele><time>2026-03-28T13:42:40.586Z</time></trkpt><trkpt lat="45.6143317" lon="10.7368035"><ele>460.99999999999994</ele><time>2026-03-28T13:42:42.579Z</time></trkpt><trkpt lat="45.6144188" lon="10.736801"><ele>461.0</ele><time>2026-03-28T13:42:44.583Z</time></trkpt><trkpt lat="45.6144878" lon="10.7368219"><ele>461.0</ele><time>2026-03-28T13:42:46.58Z</time></trkpt><trkpt lat="45.6145558" lon="10.7368202"><ele>461.0</ele><time>2026-03-28T13:42:48.58Z</time></trkpt><trkpt lat="45.6146262" lon="10.7367751"><ele>460.99999999999994</ele><time>2026-03-28T13:42:52.566Z</time></trkpt><trkpt lat="45.6147171" lon="10.7366782"><ele>461.0</ele><time>2026-03-28T13:42:54.57Z</time></trkpt><trkpt lat="45.6148075" lon="10.7366068"><ele>458.8333333333333</ele><time>2026-03-28T13:42:56.568Z</time></trkpt><trkpt lat="45.6148794" lon="10.7365618"><ele>456.66666666666663</ele><time>2026-03-28T13:42:57.563Z</time></trkpt><trkpt lat="45.6149548" lon="10.7365188"><ele>454.5</ele><time>2026-03-28T13:42:58.57Z</time></trkpt><trkpt lat="45.6150137" lon="10.7364664"><ele>452.33333333333337</ele><time>2026-03-28T13:42:59.564Z</time></trkpt><trkpt lat="45.6151014" lon="10.7363778"><ele>450.1666666666667</ele><time>2026-03-28T13:43:01.56Z</time></trkpt><trkpt lat="45.6151759" lon="10.73627"><ele>448.0</ele><time>2026-03-28T13:43:03.556Z</time></trkpt><trkpt lat="45.6152406" lon="10.736179"><ele>448.00000000000006</ele><time>2026-03-28T13:43:05.559Z</time></trkpt><trkpt lat="45.6152943" lon="10.7360559"><ele>448.0</ele><time>2026-03-28T13:43:07.575Z</time></trkpt><trkpt lat="45.6153205" lon="10.735969"><ele>448.0</ele><time>2026-03-28T13:43:08.559Z</time></trkpt><trkpt lat="45.6153537" lon="10.7358121"><ele>448.0</ele><time>2026-03-28T13:43:10.556Z</time></trkpt><trkpt lat="45.6154177" lon="10.7357396"><ele>448.00000000000006</ele><time>2026-03-28T13:43:12.562Z</time></trkpt><trkpt lat="45.6154864" lon="10.735728"><ele>448.0</ele><time>2026-03-28T13:43:13.559Z</time></trkpt><trkpt lat="45.6155712" lon="10.7357126"><ele>444.33333333333337</ele><time>2026-03-28T13:43:14.558Z</time></trkpt><trkpt lat="45.6156311" lon="10.735677"><ele>440.6666666666667</ele><time>2026-03-28T13:43:15.555Z</time></trkpt><trkpt lat="45.6156939" lon="10.7356432"><ele>437.0</ele><time>2026-03-28T13:43:16.558Z</time></trkpt><trkpt lat="45.6157467" lon="10.7355907"><ele>433.33333333333337</ele><time>2026-03-28T13:43:17.556Z</time></trkpt><trkpt lat="45.615792" lon="10.7355188"><ele>429.6666666666667</ele><time>2026-03-28T13:43:18.564Z</time></trkpt><trkpt lat="45.61586" lon="10.7354383"><ele>426.0</ele><time>2026-03-28T13:43:19.564Z</time></trkpt><trkpt lat="45.6159249" lon="10.7353266"><ele>426.25</ele><time>2026-03-28T13:43:20.576Z</time></trkpt><trkpt lat="45.6159969" lon="10.7352015"><ele>426.5</ele><time>2026-03-28T13:43:21.585Z</time></trkpt><trkpt lat="45.6160695" lon="10.7350772"><ele>426.75</ele><time>2026-03-28T13:43:22.577Z</time></trkpt><trkpt lat="45.6161459" lon="10.7349607"><ele>427.0</ele><time>2026-03-28T13:43:23.579Z</time></trkpt><trkpt lat="45.6162173" lon="10.7348288"><ele>427.0</ele><time>2026-03-28T13:43:24.574Z</time></trkpt><trkpt lat="45.6162749" lon="10.7347042"><ele>427.00000000000006</ele><time>2026-03-28T13:43:25.575Z</time></trkpt><trkpt lat="45.6163485" lon="10.7346059"><ele>427.00000000000006</ele><time>2026-03-28T13:43:26.573Z</time></trkpt><trkpt lat="45.6164334" lon="10.7345286"><ele>427.0</ele><time>2026-03-28T13:43:27.574Z</time></trkpt><trkpt lat="45.6165092" lon="10.7344452"><ele>427.0</ele><time>2026-03-28T13:43:28.576Z</time></trkpt><trkpt lat="45.6165692" lon="10.7343352"><ele>428.0</ele><time>2026-03-28T13:43:29.575Z</time></trkpt><trkpt lat="45.6166093" lon="10.7342059"><ele>429.00000000000006</ele><time>2026-03-28T13:43:30.574Z</time></trkpt><trkpt lat="45.6166456" lon="10.7340547"><ele>430.00000000000006</ele><time>2026-03-28T13:43:31.572Z</time></trkpt><trkpt lat="45.6166757" lon="10.7339108"><ele>431.0</ele><time>2026-03-28T13:43:32.571Z</time></trkpt><trkpt lat="45.6167" lon="10.7337894"><ele>432.0</ele><time>2026-03-28T13:43:33.574Z</time></trkpt><trkpt lat="45.6167217" lon="10.7337013"><ele>432.0</ele><time>2026-03-28T13:43:34.573Z</time></trkpt><trkpt lat="45.6167619" lon="10.7335857"><ele>432.0</ele><time>2026-03-28T13:43:36.578Z</time></trkpt><trkpt lat="45.6168212" lon="10.7334082"><ele>432.0</ele><time>2026-03-28T13:43:38.586Z</time></trkpt><trkpt lat="45.6168499" lon="10.7333068"><ele>432.0</ele><time>2026-03-28T13:43:39.568Z</time></trkpt><trkpt lat="45.6168777" lon="10.7332196"><ele>432.0</ele><time>2026-03-28T13:43:40.571Z</time></trkpt><trkpt lat="45.6169031" lon="10.7331283"><ele>432.0</ele><time>2026-03-28T13:43:41.569Z</time></trkpt><trkpt lat="45.6169357" lon="10.7330395"><ele>431.85714285714283</ele><time>2026-03-28T13:43:42.568Z</time></trkpt><trkpt lat="45.6169675" lon="10.732932"><ele>431.71428571428567</ele><time>2026-03-28T13:43:43.56Z</time></trkpt><trkpt lat="45.6169953" lon="10.732815"><ele>431.57142857142856</ele><time>2026-03-28T13:43:44.558Z</time></trkpt><trkpt lat="45.6169944" lon="10.7327249"><ele>431.42857142857144</ele><time>2026-03-28T13:43:45.565Z</time></trkpt><trkpt lat="45.6169847" lon="10.7326357"><ele>431.2857142857143</ele><time>2026-03-28T13:43:46.559Z</time></trkpt><trkpt lat="45.6169725" lon="10.7325398"><ele>431.14285714285717</ele><time>2026-03-28T13:43:47.559Z</time></trkpt><trkpt lat="45.6169643" lon="10.732439"><ele>431.0</ele><time>2026-03-28T13:43:48.562Z</time></trkpt><trkpt lat="45.6169358" lon="10.7322585"><ele>429.66666666666663</ele><time>2026-03-28T13:43:50.562Z</time></trkpt><trkpt lat="45.6169137" lon="10.7321728"><ele>428.3333333333333</ele><time>2026-03-28T13:43:51.561Z</time></trkpt><trkpt lat="45.6168883" lon="10.7320755"><ele>427.0</ele><time>2026-03-28T13:43:52.557Z</time></trkpt><trkpt lat="45.6168375" lon="10.7318898"><ele>425.66666666666663</ele><time>2026-03-28T13:43:54.559Z</time></trkpt><trkpt lat="45.6167979" lon="10.7318037"><ele>424.3333333333333</ele><time>2026-03-28T13:43:55.56Z</time></trkpt><trkpt lat="45.6167467" lon="10.7317235"><ele>423.0</ele><time>2026-03-28T13:43:56.561Z</time></trkpt><trkpt lat="45.6167045" lon="10.7316395"><ele>420.57142857142856</ele><time>2026-03-28T13:43:57.562Z</time></trkpt><trkpt lat="45.616665" lon="10.7315514"><ele>418.14285714285717</ele><time>2026-03-28T13:43:58.562Z</time></trkpt><trkpt lat="45.6166372" lon="10.7314678"><ele>415.7142857142857</ele><time>2026-03-28T13:43:59.559Z</time></trkpt><trkpt lat="45.6166027" lon="10.7313815"><ele>413.2857142857143</ele><time>2026-03-28T13:44:00.565Z</time></trkpt><trkpt lat="45.6165607" lon="10.7313015"><ele>410.8571428571429</ele><time>2026-03-28T13:44:01.569Z</time></trkpt><trkpt lat="45.6165065" lon="10.7312304"><ele>408.42857142857144</ele><time>2026-03-28T13:44:02.57Z</time></trkpt><trkpt lat="45.6164436" lon="10.7311768"><ele>406.0</ele><time>2026-03-28T13:44:03.572Z</time></trkpt><trkpt lat="45.6163855" lon="10.7311258"><ele>404.00000000000006</ele><time>2026-03-28T13:44:04.568Z</time></trkpt><trkpt lat="45.6163192" lon="10.7310514"><ele>402.0</ele><time>2026-03-28T13:44:06.566Z</time></trkpt><trkpt lat="45.6162829" lon="10.7309713"><ele>400.0</ele><time>2026-03-28T13:44:07.567Z</time></trkpt><trkpt lat="45.6162666" lon="10.730802"><ele>398.0</ele><time>2026-03-28T13:44:09.581Z</time></trkpt><trkpt lat="45.6162684" lon="10.730705"><ele>396.00000000000006</ele><time>2026-03-28T13:44:10.566Z</time></trkpt><trkpt lat="45.6162916" lon="10.7306182"><ele>394.0</ele><time>2026-03-28T13:44:11.567Z</time></trkpt><trkpt lat="45.6162966" lon="10.7305153"><ele>394.0</ele><time>2026-03-28T13:44:12.572Z</time></trkpt><trkpt lat="45.6163025" lon="10.7304197"><ele>394.0</ele><time>2026-03-28T13:44:13.568Z</time></trkpt><trkpt lat="45.6163079" lon="10.7302491"><ele>394.0</ele><time>2026-03-28T13:44:15.57Z</time></trkpt><trkpt lat="45.6163151" lon="10.7300914"><ele>394.0</ele><time>2026-03-28T13:44:17.574Z</time></trkpt><trkpt lat="45.6162658" lon="10.7299678"><ele>394.0</ele><time>2026-03-28T13:44:19.573Z</time></trkpt><trkpt lat="45.6162024" lon="10.7298354"><ele>390.2</ele><time>2026-03-28T13:44:21.571Z</time></trkpt><trkpt lat="45.6161403" lon="10.7297254"><ele>386.4</ele><time>2026-03-28T13:44:23.573Z</time></trkpt><trkpt lat="45.6160275" lon="10.7296699"><ele>382.6</ele><time>2026-03-28T13:44:25.566Z</time></trkpt><trkpt lat="45.6159413" lon="10.7296438"><ele>378.8</ele><time>2026-03-28T13:44:26.569Z</time></trkpt><trkpt lat="45.6158511" lon="10.7296147"><ele>375.0</ele><time>2026-03-28T13:44:27.567Z</time></trkpt><trkpt lat="45.6157558" lon="10.7295795"><ele>375.0</ele><time>2026-03-28T13:44:28.577Z</time></trkpt><trkpt lat="45.6156697" lon="10.7295544"><ele>375.0</ele><time>2026-03-28T13:44:29.574Z</time></trkpt><trkpt lat="45.6155919" lon="10.72955"><ele>375.0</ele><time>2026-03-28T13:44:30.567Z</time></trkpt><trkpt lat="45.6155288" lon="10.7295694"><ele>375.0</ele><time>2026-03-28T13:44:31.569Z</time></trkpt><trkpt lat="45.6154293" lon="10.7296287"><ele>375.0</ele><time>2026-03-28T13:44:33.566Z</time></trkpt><trkpt lat="45.6153394" lon="10.7297576"><ele>376.3333333333333</ele><time>2026-03-28T13:44:35.564Z</time></trkpt><trkpt lat="45.6153089" lon="10.7298631"><ele>377.6666666666667</ele><time>2026-03-28T13:44:36.563Z</time></trkpt><trkpt lat="45.615308" lon="10.7299757"><ele>379.0</ele><time>2026-03-28T13:44:37.566Z</time></trkpt><trkpt lat="45.6153105" lon="10.7301003"><ele>380.33333333333337</ele><time>2026-03-28T13:44:38.568Z</time></trkpt><trkpt lat="45.6153179" lon="10.7302126"><ele>381.6666666666667</ele><time>2026-03-28T13:44:39.563Z</time></trkpt><trkpt lat="45.6153281" lon="10.7303768"><ele>383.0</ele><time>2026-03-28T13:44:41.561Z</time></trkpt><trkpt lat="45.6153304" lon="10.7305034"><ele>383.0</ele><time>2026-03-28T13:44:43.553Z</time></trkpt><trkpt lat="45.6153276" lon="10.73061"><ele>383.0</ele><time>2026-03-28T13:44:45.556Z</time></trkpt><trkpt lat="45.6152447" lon="10.7306173"><ele>383.0</ele><time>2026-03-28T13:44:49.569Z</time></trkpt><trkpt lat="45.6151789" lon="10.7304997"><ele>383.0</ele><time>2026-03-28T13:44:51.573Z</time></trkpt><trkpt lat="45.6151487" lon="10.7304034"><ele>383.0</ele><time>2026-03-28T13:44:52.556Z</time></trkpt><trkpt lat="45.6151185" lon="10.730306"><ele>383.0</ele><time>2026-03-28T13:44:53.562Z</time></trkpt><trkpt lat="45.6150898" lon="10.7302202"><ele>377.59999999999997</ele><time>2026-03-28T13:44:54.562Z</time></trkpt><trkpt lat="45.6150719" lon="10.7301259"><ele>372.2</ele><time>2026-03-28T13:44:55.567Z</time></trkpt><trkpt lat="45.614986" lon="10.7299911"><ele>366.8</ele><time>2026-03-28T13:44:57.564Z</time></trkpt><trkpt lat="45.6148975" lon="10.7299415"><ele>361.4</ele><time>2026-03-28T13:44:58.569Z</time></trkpt><trkpt lat="45.6148019" lon="10.7298858"><ele>356.0</ele><time>2026-03-28T13:44:59.568Z</time></trkpt><trkpt lat="45.6147021" lon="10.7298192"><ele>356.0</ele><time>2026-03-28T13:45:00.568Z</time></trkpt><trkpt lat="45.614598" lon="10.7297509"><ele>356.0</ele><time>2026-03-28T13:45:01.564Z</time></trkpt><trkpt lat="45.6144906" lon="10.7296659"><ele>356.0</ele><time>2026-03-28T13:45:02.566Z</time></trkpt><trkpt lat="45.6143858" lon="10.7295777"><ele>356.0</ele><time>2026-03-28T13:45:03.572Z</time></trkpt><trkpt lat="45.6142821" lon="10.7294901"><ele>354.4</ele><time>2026-03-28T13:45:04.571Z</time></trkpt><trkpt lat="45.6141779" lon="10.7293988"><ele>352.8</ele><time>2026-03-28T13:45:05.567Z</time></trkpt><trkpt lat="45.6140746" lon="10.7293095"><ele>351.2</ele><time>2026-03-28T13:45:06.567Z</time></trkpt><trkpt lat="45.6139804" lon="10.7292364"><ele>349.59999999999997</ele><time>2026-03-28T13:45:07.566Z</time></trkpt><trkpt lat="45.6138994" lon="10.7291732"><ele>348.0</ele><time>2026-03-28T13:45:08.568Z</time></trkpt><trkpt lat="45.6138382" lon="10.7291052"><ele>348.0</ele><time>2026-03-28T13:45:09.568Z</time></trkpt><trkpt lat="45.6137749" lon="10.7290269"><ele>348.0</ele><time>2026-03-28T13:45:10.568Z</time></trkpt><trkpt lat="45.6137208" lon="10.7289649"><ele>348.0</ele><time>2026-03-28T13:45:11.585Z</time></trkpt><trkpt lat="45.6136343" lon="10.7288971"><ele>348.0</ele><time>2026-03-28T13:45:13.56Z</time></trkpt><trkpt lat="45.6136184" lon="10.7287662"><ele>348.0</ele><time>2026-03-28T13:45:15.557Z</time></trkpt><trkpt lat="45.6136556" lon="10.7286722"><ele>348.0</ele><time>2026-03-28T13:45:16.555Z</time></trkpt><trkpt lat="45.6137129" lon="10.7285559"><ele>348.6666666666667</ele><time>2026-03-28T13:45:17.561Z</time></trkpt><trkpt lat="45.6137696" lon="10.7284555"><ele>349.3333333333333</ele><time>2026-03-28T13:45:18.563Z</time></trkpt><trkpt lat="45.613823" lon="10.7283736"><ele>350.0</ele><time>2026-03-28T13:45:19.564Z</time></trkpt><trkpt lat="45.6138815" lon="10.728287"><ele>350.66666666666663</ele><time>2026-03-28T13:45:20.563Z</time></trkpt><trkpt lat="45.6139283" lon="10.7281935"><ele>351.3333333333333</ele><time>2026-03-28T13:45:21.558Z</time></trkpt><trkpt lat="45.6139503" lon="10.7280984"><ele>352.0</ele><time>2026-03-28T13:45:22.558Z</time></trkpt><trkpt lat="45.6139583" lon="10.7279474"><ele>352.0</ele><time>2026-03-28T13:45:24.561Z</time></trkpt><trkpt lat="45.6139017" lon="10.7277529"><ele>352.0</ele><time>2026-03-28T13:45:26.564Z</time></trkpt><trkpt lat="45.6138431" lon="10.727657"><ele>352.0</ele><time>2026-03-28T13:45:27.571Z</time></trkpt><trkpt lat="45.6137789" lon="10.7275803"><ele>352.0</ele><time>2026-03-28T13:45:28.57Z</time></trkpt><trkpt lat="45.6137002" lon="10.7275189"><ele>352.0</ele><time>2026-03-28T13:45:29.564Z</time></trkpt><trkpt lat="45.613608" lon="10.7274932"><ele>352.6</ele><time>2026-03-28T13:45:30.563Z</time></trkpt><trkpt lat="45.6135047" lon="10.7274815"><ele>353.20000000000005</ele><time>2026-03-28T13:45:31.567Z</time></trkpt><trkpt lat="45.6133974" lon="10.7274969"><ele>353.8</ele><time>2026-03-28T13:45:32.556Z</time></trkpt><trkpt lat="45.6132839" lon="10.7275243"><ele>354.4</ele><time>2026-03-28T13:45:33.56Z</time></trkpt><trkpt lat="45.6131715" lon="10.7275378"><ele>355.0</ele><time>2026-03-28T13:45:34.561Z</time></trkpt><trkpt lat="45.6130638" lon="10.7275437"><ele>355.0</ele><time>2026-03-28T13:45:35.551Z</time></trkpt><trkpt lat="45.6129626" lon="10.7275254"><ele>355.0</ele><time>2026-03-28T13:45:36.549Z</time></trkpt><trkpt lat="45.6128641" lon="10.7274802"><ele>355.0</ele><time>2026-03-28T13:45:37.552Z</time></trkpt><trkpt lat="45.6127788" lon="10.7274007"><ele>355.0</ele><time>2026-03-28T13:45:38.552Z</time></trkpt><trkpt lat="45.6127077" lon="10.7273256"><ele>355.0</ele><time>2026-03-28T13:45:39.55Z</time></trkpt><trkpt lat="45.6126505" lon="10.727259"><ele>356.2</ele><time>2026-03-28T13:45:40.553Z</time></trkpt><trkpt lat="45.6126097" lon="10.7271669"><ele>357.4</ele><time>2026-03-28T13:45:41.56Z</time></trkpt><trkpt lat="45.6125879" lon="10.7270464"><ele>358.6</ele><time>2026-03-28T13:45:42.579Z</time></trkpt><trkpt lat="45.612544" lon="10.7269005"><ele>359.8</ele><time>2026-03-28T13:45:43.561Z</time></trkpt><trkpt lat="45.6124798" lon="10.7267615"><ele>361.0</ele><time>2026-03-28T13:45:44.566Z</time></trkpt><trkpt lat="45.6123971" lon="10.7266302"><ele>362.4</ele><time>2026-03-28T13:45:45.569Z</time></trkpt><trkpt lat="45.6123193" lon="10.726514"><ele>363.8</ele><time>2026-03-28T13:45:46.569Z</time></trkpt><trkpt lat="45.6122482" lon="10.7264066"><ele>365.2</ele><time>2026-03-28T13:45:47.567Z</time></trkpt><trkpt lat="45.6121932" lon="10.7263148"><ele>366.59999999999997</ele><time>2026-03-28T13:45:48.566Z</time></trkpt><trkpt lat="45.6121574" lon="10.7262333"><ele>368.0</ele><time>2026-03-28T13:45:49.569Z</time></trkpt><trkpt lat="45.6121145" lon="10.7260798"><ele>369.0</ele><time>2026-03-28T13:45:51.572Z</time></trkpt><trkpt lat="45.6121391" lon="10.7259107"><ele>370.0</ele><time>2026-03-28T13:45:53.565Z</time></trkpt><trkpt lat="45.6122404" lon="10.7257801"><ele>371.0</ele><time>2026-03-28T13:45:55.567Z</time></trkpt><trkpt lat="45.6123174" lon="10.7257169"><ele>372.0</ele><time>2026-03-28T13:45:56.564Z</time></trkpt><trkpt lat="45.6123891" lon="10.7256353"><ele>373.0</ele><time>2026-03-28T13:45:57.569Z</time></trkpt><trkpt lat="45.6124474" lon="10.7255458"><ele>373.0</ele><time>2026-03-28T13:45:58.578Z</time></trkpt><trkpt lat="45.6124876" lon="10.7254658"><ele>373.0</ele><time>2026-03-28T13:45:59.572Z</time></trkpt><trkpt lat="45.6125413" lon="10.7253976"><ele>373.0</ele><time>2026-03-28T13:46:00.564Z</time></trkpt><trkpt lat="45.6126106" lon="10.7253344"><ele>373.0</ele><time>2026-03-28T13:46:01.564Z</time></trkpt><trkpt lat="45.6126926" lon="10.7252566"><ele>373.0</ele><time>2026-03-28T13:46:02.571Z</time></trkpt><trkpt lat="45.6127642" lon="10.7251701"><ele>373.0</ele><time>2026-03-28T13:46:03.569Z</time></trkpt><trkpt lat="45.6128188" lon="10.7250806"><ele>372.0</ele><time>2026-03-28T13:46:04.567Z</time></trkpt><trkpt lat="45.6128658" lon="10.7249989"><ele>371.0</ele><time>2026-03-28T13:46:05.569Z</time></trkpt><trkpt lat="45.6129034" lon="10.7248603"><ele>370.0</ele><time>2026-03-28T13:46:07.568Z</time></trkpt><trkpt lat="45.6128274" lon="10.7247236"><ele>369.0</ele><time>2026-03-28T13:46:09.573Z</time></trkpt><trkpt lat="45.6127548" lon="10.7246917"><ele>368.0</ele><time>2026-03-28T13:46:10.569Z</time></trkpt><trkpt lat="45.6126667" lon="10.7246795"><ele>368.0</ele><time>2026-03-28T13:46:11.573Z</time></trkpt><trkpt lat="45.6125559" lon="10.7246692"><ele>368.0</ele><time>2026-03-28T13:46:12.567Z</time></trkpt><trkpt lat="45.6124234" lon="10.7246789"><ele>368.0</ele><time>2026-03-28T13:46:13.586Z</time></trkpt><trkpt lat="45.6123112" lon="10.7246882"><ele>368.0</ele><time>2026-03-28T13:46:14.572Z</time></trkpt><trkpt lat="45.6122005" lon="10.7246959"><ele>368.0</ele><time>2026-03-28T13:46:15.568Z</time></trkpt><trkpt lat="45.6121026" lon="10.7247096"><ele>368.0</ele><time>2026-03-28T13:46:16.563Z</time></trkpt><trkpt lat="45.6119928" lon="10.7247627"><ele>368.0</ele><time>2026-03-28T13:46:17.563Z</time></trkpt><trkpt lat="45.6118701" lon="10.7248415"><ele>368.0</ele><time>2026-03-28T13:46:18.567Z</time></trkpt><trkpt lat="45.6117519" lon="10.7248971"><ele>366.0</ele><time>2026-03-28T13:46:19.569Z</time></trkpt><trkpt lat="45.6116415" lon="10.7249642"><ele>364.0</ele><time>2026-03-28T13:46:20.566Z</time></trkpt><trkpt lat="45.6115489" lon="10.7250202"><ele>362.0</ele><time>2026-03-28T13:46:21.565Z</time></trkpt><trkpt lat="45.6114734" lon="10.7250598"><ele>360.0</ele><time>2026-03-28T13:46:22.563Z</time></trkpt><trkpt lat="45.6114079" lon="10.7250777"><ele>358.0</ele><time>2026-03-28T13:46:23.561Z</time></trkpt><trkpt lat="45.6113325" lon="10.7250805"><ele>356.0</ele><time>2026-03-28T13:46:25.563Z</time></trkpt><trkpt lat="45.6112363" lon="10.7250665"><ele>354.5</ele><time>2026-03-28T13:46:28.575Z</time></trkpt><trkpt lat="45.6111562" lon="10.7250954"><ele>353.0</ele><time>2026-03-28T13:46:29.569Z</time></trkpt><trkpt lat="45.6110566" lon="10.72515"><ele>351.5</ele><time>2026-03-28T13:46:30.558Z</time></trkpt><trkpt lat="45.6109372" lon="10.7251891"><ele>350.0</ele><time>2026-03-28T13:46:31.561Z</time></trkpt><trkpt lat="45.6107966" lon="10.7252311"><ele>350.0</ele><time>2026-03-28T13:46:32.553Z</time></trkpt><trkpt lat="45.6106567" lon="10.725246"><ele>350.0</ele><time>2026-03-28T13:46:33.566Z</time></trkpt><trkpt lat="45.6104852" lon="10.72522"><ele>350.0</ele><time>2026-03-28T13:46:34.563Z</time></trkpt><trkpt lat="45.6103128" lon="10.725168"><ele>347.6666666666667</ele><time>2026-03-28T13:46:35.567Z</time></trkpt><trkpt lat="45.6101441" lon="10.7251453"><ele>345.3333333333333</ele><time>2026-03-28T13:46:36.569Z</time></trkpt><trkpt lat="45.6099664" lon="10.725118"><ele>343.0</ele><time>2026-03-28T13:46:37.571Z</time></trkpt><trkpt lat="45.6097937" lon="10.7251164"><ele>343.0</ele><time>2026-03-28T13:46:38.566Z</time></trkpt><trkpt lat="45.6096214" lon="10.725125"><ele>343.0</ele><time>2026-03-28T13:46:39.565Z</time></trkpt><trkpt lat="45.6094745" lon="10.7251466"><ele>343.0</ele><time>2026-03-28T13:46:40.563Z</time></trkpt><trkpt lat="45.6093146" lon="10.7251769"><ele>341.5</ele><time>2026-03-28T13:46:41.572Z</time></trkpt><trkpt lat="45.6091625" lon="10.7251997"><ele>340.0</ele><time>2026-03-28T13:46:42.569Z</time></trkpt><trkpt lat="45.6090162" lon="10.725222"><ele>338.5</ele><time>2026-03-28T13:46:43.57Z</time></trkpt><trkpt lat="45.6088907" lon="10.7252317"><ele>337.0</ele><time>2026-03-28T13:46:44.589Z</time></trkpt><trkpt lat="45.6087647" lon="10.7252463"><ele>336.0</ele><time>2026-03-28T13:46:45.569Z</time></trkpt><trkpt lat="45.6086422" lon="10.7252609"><ele>335.0</ele><time>2026-03-28T13:46:46.568Z</time></trkpt><trkpt lat="45.6085601" lon="10.7252973"><ele>334.0</ele><time>2026-03-28T13:46:47.562Z</time></trkpt><trkpt lat="45.6084976" lon="10.7253632"><ele>333.0</ele><time>2026-03-28T13:46:48.574Z</time></trkpt><trkpt lat="45.6084534" lon="10.7254609"><ele>332.0</ele><time>2026-03-28T13:46:49.563Z</time></trkpt><trkpt lat="45.6084409" lon="10.7255729"><ele>331.0</ele><time>2026-03-28T13:46:50.562Z</time></trkpt><trkpt lat="45.6084571" lon="10.725698"><ele>331.0</ele><time>2026-03-28T13:46:51.564Z</time></trkpt><trkpt lat="45.6085084" lon="10.725813"><ele>331.0</ele><time>2026-03-28T13:46:52.571Z</time></trkpt><trkpt lat="45.6085695" lon="10.725897"><ele>331.0</ele><time>2026-03-28T13:46:53.567Z</time></trkpt><trkpt lat="45.6086466" lon="10.7259333"><ele>331.0</ele><time>2026-03-28T13:46:54.57Z</time></trkpt><trkpt lat="45.6087268" lon="10.7259095"><ele>331.0</ele><time>2026-03-28T13:46:55.57Z</time></trkpt><trkpt lat="45.6088025" lon="10.7258187"><ele>331.0</ele><time>2026-03-28T13:46:56.56Z</time></trkpt><trkpt lat="45.6088718" lon="10.725727"><ele>331.5</ele><time>2026-03-28T13:46:57.563Z</time></trkpt><trkpt lat="45.6089475" lon="10.725683"><ele>332.0</ele><time>2026-03-28T13:46:58.563Z</time></trkpt><trkpt lat="45.6090273" lon="10.725658"><ele>332.5</ele><time>2026-03-28T13:46:59.565Z</time></trkpt><trkpt lat="45.6090335" lon="10.7257548"><ele>333.0</ele><time>2026-03-28T13:47:01.564Z</time></trkpt><trkpt lat="45.6089667" lon="10.7258098"><ele>333.5</ele><time>2026-03-28T13:47:02.551Z</time></trkpt><trkpt lat="45.6088763" lon="10.7258836"><ele>334.0</ele><time>2026-03-28T13:47:03.552Z</time></trkpt><trkpt lat="45.608765" lon="10.725939"><ele>333.0</ele><time>2026-03-28T13:47:04.554Z</time></trkpt><trkpt lat="45.6086264" lon="10.7260233"><ele>332.0</ele><time>2026-03-28T13:47:05.55Z</time></trkpt><trkpt lat="45.6084548" lon="10.7261119"><ele>331.0</ele><time>2026-03-28T13:47:06.555Z</time></trkpt><trkpt lat="45.6082821" lon="10.7262074"><ele>328.3333333333333</ele><time>2026-03-28T13:47:07.561Z</time></trkpt><trkpt lat="45.6081146" lon="10.7262868"><ele>325.6666666666667</ele><time>2026-03-28T13:47:08.555Z</time></trkpt><trkpt lat="45.6079608" lon="10.7263219"><ele>323.0</ele><time>2026-03-28T13:47:09.555Z</time></trkpt><trkpt lat="45.6078014" lon="10.7263246"><ele>321.6666666666667</ele><time>2026-03-28T13:47:10.553Z</time></trkpt><trkpt lat="45.6076379" lon="10.7263492"><ele>320.3333333333333</ele><time>2026-03-28T13:47:11.561Z</time></trkpt><trkpt lat="45.6074828" lon="10.7263548"><ele>319.0</ele><time>2026-03-28T13:47:12.569Z</time></trkpt><trkpt lat="45.6073435" lon="10.726364"><ele>319.0</ele><time>2026-03-28T13:47:13.564Z</time></trkpt><trkpt lat="45.607223" lon="10.7263606"><ele>319.0</ele><time>2026-03-28T13:47:14.562Z</time></trkpt><trkpt lat="45.6071173" lon="10.7263854"><ele>319.0</ele><time>2026-03-28T13:47:15.582Z</time></trkpt><trkpt lat="45.6070395" lon="10.7264385"><ele>319.0</ele><time>2026-03-28T13:47:16.559Z</time></trkpt><trkpt lat="45.6086422" lon="10.7252609"><ele>321.0</ele><time>2026-03-28T13:46:46.568Z</time></trkpt><trkpt lat="45.6085601" lon="10.7252973"><ele>323.0</ele><time>2026-03-28T13:46:47.562Z</time></trkpt><trkpt lat="45.6084976" lon="10.7253632"><ele>325.0</ele><time>2026-03-28T13:46:48.574Z</time></trkpt><trkpt lat="45.6084534" lon="10.7254609"><ele>327.0</ele><time>2026-03-28T13:46:49.563Z</time></trkpt><trkpt lat="45.6084409" lon="10.7255729"><ele>329.0</ele><time>2026-03-28T13:46:50.562Z</time></trkpt><trkpt lat="45.6084571" lon="10.725698"><ele>331.0</ele><time>2026-03-28T13:46:51.564Z</time></trkpt><trkpt lat="45.6085084" lon="10.725813"><ele>331.0</ele><time>2026-03-28T13:46:52.571Z</time></trkpt><trkpt lat="45.6085695" lon="10.725897"><ele>331.0</ele><time>2026-03-28T13:46:53.567Z</time></trkpt><trkpt lat="45.6086466" lon="10.7259333"><ele>331.0</ele><time>2026-03-28T13:46:54.57Z</time></trkpt><trkpt lat="45.6087268" lon="10.7259095"><ele>331.0</ele><time>2026-03-28T13:46:55.57Z</time></trkpt><trkpt lat="45.6088025" lon="10.7258187"><ele>331.0</ele><time>2026-03-28T13:46:56.56Z</time></trkpt><trkpt lat="45.6088718" lon="10.725727"><ele>331.0</ele><time>2026-03-28T13:46:57.563Z</time></trkpt><trkpt lat="45.6089475" lon="10.725683"><ele>331.0</ele><time>2026-03-28T13:46:58.563Z</time></trkpt><trkpt lat="45.6090273" lon="10.725658"><ele>331.0</ele><time>2026-03-28T13:46:59.565Z</time></trkpt><trkpt lat="45.6090335" lon="10.7257548"><ele>331.0</ele><time>2026-03-28T13:47:01.564Z</time></trkpt><trkpt lat="45.6089667" lon="10.7258098"><ele>331.0</ele><time>2026-03-28T13:47:02.551Z</time></trkpt><trkpt lat="45.6088763" lon="10.7258836"><ele>331.0</ele><time>2026-03-28T13:47:03.552Z</time></trkpt><trkpt lat="45.608765" lon="10.725939"><ele>331.0</ele><time>2026-03-28T13:47:04.554Z</time></trkpt><trkpt lat="45.6086264" lon="10.7260233"><ele>328.3333333333333</ele><time>2026-03-28T13:47:05.55Z</time></trkpt><trkpt lat="45.6084548" lon="10.7261119"><ele>325.6666666666667</ele><time>2026-03-28T13:47:06.555Z</time></trkpt><trkpt lat="45.6082821" lon="10.7262074"><ele>323.0</ele><time>2026-03-28T13:47:07.561Z</time></trkpt><trkpt lat="45.6081146" lon="10.7262868"><ele>323.0</ele><time>2026-03-28T13:47:08.555Z</time></trkpt><trkpt lat="45.6079608" lon="10.7263219"><ele>323.0</ele><time>2026-03-28T13:47:09.555Z</time></trkpt><trkpt lat="45.6078014" lon="10.7263246"><ele>323.0</ele><time>2026-03-28T13:47:10.553Z</time></trkpt><trkpt lat="45.6076379" lon="10.7263492"><ele>322.0</ele><time>2026-03-28T13:47:11.561Z</time></trkpt><trkpt lat="45.6074828" lon="10.7263548"><ele>321.0</ele><time>2026-03-28T13:47:12.569Z</time></trkpt><trkpt lat="45.6073435" lon="10.726364"><ele>320.0</ele><time>2026-03-28T13:47:13.564Z</time></trkpt><trkpt lat="45.607223" lon="10.7263606"><ele>319.0</ele><time>2026-03-28T13:47:14.562Z</time></trkpt><trkpt lat="45.6071173" lon="10.7263854"><ele>319.0</ele><time>2026-03-28T13:47:15.582Z</time></trkpt><trkpt lat="45.6070395" lon="10.7264385"><ele>319.0</ele><time>2026-03-28T13:47:16.559Z</time></trkpt><trkpt lat="45.6069694" lon="10.7265117"><ele>319.0</ele><time>2026-03-28T13:47:17.553Z</time></trkpt><trkpt lat="45.606904" lon="10.7265748"><ele>319.0</ele><time>2026-03-28T13:47:18.549Z</time></trkpt><trkpt lat="45.6068297" lon="10.7266432"><ele>319.0</ele><time>2026-03-28T13:47:19.55Z</time></trkpt><trkpt lat="45.6067689" lon="10.7267086"><ele>319.0</ele><time>2026-03-28T13:47:20.553Z</time></trkpt><trkpt lat="45.6067123" lon="10.7267725"><ele>318.59999999999997</ele><time>2026-03-28T13:47:21.558Z</time></trkpt><trkpt lat="45.6066323" lon="10.7268315"><ele>318.2</ele><time>2026-03-28T13:47:23.558Z</time></trkpt><trkpt lat="45.6065825" lon="10.7267751"><ele>317.79999999999995</ele><time>2026-03-28T13:47:26.56Z</time></trkpt><trkpt lat="45.606569" lon="10.7266509"><ele>317.4</ele><time>2026-03-28T13:47:28.567Z</time></trkpt><trkpt lat="45.6065836" lon="10.7264788"><ele>317.0</ele><time>2026-03-28T13:47:30.559Z</time></trkpt><trkpt lat="45.6065715" lon="10.7263547"><ele>317.0</ele><time>2026-03-28T13:47:31.557Z</time></trkpt><trkpt lat="45.6065717" lon="10.7262244"><ele>317.0</ele><time>2026-03-28T13:47:32.554Z</time></trkpt><trkpt lat="45.6065352" lon="10.7260679"><ele>317.0</ele><time>2026-03-28T13:47:33.559Z</time></trkpt><trkpt lat="45.6065104" lon="10.7258905"><ele>317.0</ele><time>2026-03-28T13:47:34.555Z</time></trkpt><trkpt lat="45.6064888" lon="10.7256902"><ele>316.5</ele><time>2026-03-28T13:47:35.561Z</time></trkpt><trkpt lat="45.6064798" lon="10.7254851"><ele>316.0</ele><time>2026-03-28T13:47:36.558Z</time></trkpt><trkpt lat="45.6064922" lon="10.7252951"><ele>315.5</ele><time>2026-03-28T13:47:37.56Z</time></trkpt><trkpt lat="45.6065109" lon="10.7251293"><ele>315.0</ele><time>2026-03-28T13:47:38.561Z</time></trkpt><trkpt lat="45.6065369" lon="10.724983"><ele>313.75</ele><time>2026-03-28T13:47:39.559Z</time></trkpt><trkpt lat="45.6065815" lon="10.7248416"><ele>312.5</ele><time>2026-03-28T13:47:40.557Z</time></trkpt><trkpt lat="45.6066476" lon="10.7246905"><ele>311.25</ele><time>2026-03-28T13:47:41.558Z</time></trkpt><trkpt lat="45.6067112" lon="10.724515"><ele>310.0</ele><time>2026-03-28T13:47:42.561Z</time></trkpt><trkpt lat="45.6067979" lon="10.7243488"><ele>308.8333333333333</ele><time>2026-03-28T13:47:43.583Z</time></trkpt><trkpt lat="45.6068787" lon="10.7242166"><ele>307.66666666666663</ele><time>2026-03-28T13:47:44.573Z</time></trkpt><trkpt lat="45.6069308" lon="10.7241243"><ele>306.5</ele><time>2026-03-28T13:47:45.576Z</time></trkpt><trkpt lat="45.6069527" lon="10.7240073"><ele>305.3333333333333</ele><time>2026-03-28T13:47:46.59Z</time></trkpt><trkpt lat="45.6069443" lon="10.7238891"><ele>304.1666666666667</ele><time>2026-03-28T13:47:47.571Z</time></trkpt><trkpt lat="45.606935" lon="10.7237912"><ele>303.0</ele><time>2026-03-28T13:47:48.57Z</time></trkpt><trkpt lat="45.606896" lon="10.7236019"><ele>302.8333333333333</ele><time>2026-03-28T13:47:50.577Z</time></trkpt><trkpt lat="45.6068677" lon="10.7234952"><ele>302.6666666666667</ele><time>2026-03-28T13:47:51.576Z</time></trkpt><trkpt lat="45.6068297" lon="10.7233725"><ele>302.5</ele><time>2026-03-28T13:47:52.573Z</time></trkpt><trkpt lat="45.6067767" lon="10.7232762"><ele>302.33333333333337</ele><time>2026-03-28T13:47:53.571Z</time></trkpt><trkpt lat="45.6067052" lon="10.7232035"><ele>302.1666666666667</ele><time>2026-03-28T13:47:54.57Z</time></trkpt><trkpt lat="45.6066122" lon="10.7231521"><ele>302.0</ele><time>2026-03-28T13:47:55.576Z</time></trkpt><trkpt lat="45.6065146" lon="10.7230804"><ele>302.0</ele><time>2026-03-28T13:47:56.57Z</time></trkpt><trkpt lat="45.6064158" lon="10.7229791"><ele>302.0</ele><time>2026-03-28T13:47:57.577Z</time></trkpt><trkpt lat="45.6063206" lon="10.7228885"><ele>302.0</ele><time>2026-03-28T13:47:58.573Z</time></trkpt><trkpt lat="45.6062399" lon="10.7228067"><ele>302.0</ele><time>2026-03-28T13:47:59.57Z</time></trkpt><trkpt lat="45.6061624" lon="10.7227668"><ele>302.0</ele><time>2026-03-28T13:48:00.575Z</time></trkpt><trkpt lat="45.6060916" lon="10.7227327"><ele>304.1666666666667</ele><time>2026-03-28T13:48:01.575Z</time></trkpt><trkpt lat="45.6060032" lon="10.7226982"><ele>306.33333333333337</ele><time>2026-03-28T13:48:02.579Z</time></trkpt><trkpt lat="45.6059137" lon="10.7226866"><ele>308.5</ele><time>2026-03-28T13:48:03.58Z</time></trkpt><trkpt lat="45.6058328" lon="10.7226765"><ele>310.6666666666667</ele><time>2026-03-28T13:48:04.579Z</time></trkpt><trkpt lat="45.605763" lon="10.7226679"><ele>312.8333333333333</ele><time>2026-03-28T13:48:05.575Z</time></trkpt><trkpt lat="45.6056874" lon="10.7226823"><ele>315.0</ele><time>2026-03-28T13:48:06.567Z</time></trkpt><trkpt lat="45.6056204" lon="10.7227003"><ele>311.6</ele><time>2026-03-28T13:48:07.567Z</time></trkpt><trkpt lat="45.6055037" lon="10.7227449"><ele>308.2</ele><time>2026-03-28T13:48:09.57Z</time></trkpt><trkpt lat="45.6054081" lon="10.7228095"><ele>304.8</ele><time>2026-03-28T13:48:11.57Z</time></trkpt><trkpt lat="45.6053168" lon="10.7228487"><ele>301.4</ele><time>2026-03-28T13:48:13.579Z</time></trkpt><trkpt lat="45.6052134" lon="10.7229189"><ele>298.0</ele><time>2026-03-28T13:48:15.569Z</time></trkpt><trkpt lat="45.6051329" lon="10.7229457"><ele>297.2</ele><time>2026-03-28T13:48:16.567Z</time></trkpt><trkpt lat="45.605044" lon="10.7229868"><ele>296.4</ele><time>2026-03-28T13:48:17.582Z</time></trkpt><trkpt lat="45.6049391" lon="10.7230231"><ele>295.59999999999997</ele><time>2026-03-28T13:48:18.567Z</time></trkpt><trkpt lat="45.6048244" lon="10.7230458"><ele>294.8</ele><time>2026-03-28T13:48:19.565Z</time></trkpt><trkpt lat="45.604717" lon="10.7230635"><ele>294.0</ele><time>2026-03-28T13:48:20.564Z</time></trkpt><trkpt lat="45.6046227" lon="10.7230676"><ele>294.0</ele><time>2026-03-28T13:48:21.569Z</time></trkpt><trkpt lat="45.6045373" lon="10.7230646"><ele>294.0</ele><time>2026-03-28T13:48:22.565Z</time></trkpt><trkpt lat="45.60446" lon="10.7230298"><ele>294.0</ele><time>2026-03-28T13:48:23.572Z</time></trkpt><trkpt lat="45.6043908" lon="10.7230148"><ele>294.0</ele><time>2026-03-28T13:48:24.569Z</time></trkpt><trkpt lat="45.6042601" lon="10.7229886"><ele>294.0</ele><time>2026-03-28T13:48:26.564Z</time></trkpt><trkpt lat="45.6041693" lon="10.7229513"><ele>293.0</ele><time>2026-03-28T13:48:27.572Z</time></trkpt><trkpt lat="45.6040523" lon="10.7229138"><ele>292.0</ele><time>2026-03-28T13:48:28.579Z</time></trkpt><trkpt lat="45.6039046" lon="10.7228803"><ele>291.0</ele><time>2026-03-28T13:48:29.573Z</time></trkpt><trkpt lat="45.6037452" lon="10.7228331"><ele>290.0</ele><time>2026-03-28T13:48:30.574Z</time></trkpt><trkpt lat="45.603577" lon="10.7227848"><ele>289.5</ele><time>2026-03-28T13:48:31.575Z</time></trkpt><trkpt lat="45.6034393" lon="10.7227352"><ele>289.0</ele><time>2026-03-28T13:48:32.575Z</time></trkpt><trkpt lat="45.6033266" lon="10.7226649"><ele>288.5</ele><time>2026-03-28T13:48:33.576Z</time></trkpt><trkpt lat="45.6032118" lon="10.7226012"><ele>288.0</ele><time>2026-03-28T13:48:34.582Z</time></trkpt><trkpt lat="45.6030771" lon="10.7225876"><ele>288.6</ele><time>2026-03-28T13:48:36.656Z</time></trkpt><trkpt lat="45.6029504" lon="10.7225793"><ele>289.20000000000005</ele><time>2026-03-28T13:48:37.655Z</time></trkpt><trkpt lat="45.6028401" lon="10.7225761"><ele>289.8</ele><time>2026-03-28T13:48:38.657Z</time></trkpt><trkpt lat="45.602737" lon="10.722575"><ele>290.40000000000003</ele><time>2026-03-28T13:48:39.652Z</time></trkpt><trkpt lat="45.6026444" lon="10.7225624"><ele>291.0</ele><time>2026-03-28T13:48:40.656Z</time></trkpt><trkpt lat="45.6025545" lon="10.7225265"><ele>291.0</ele><time>2026-03-28T13:48:41.656Z</time></trkpt><trkpt lat="45.602473" lon="10.7224713"><ele>291.0</ele><time>2026-03-28T13:48:42.645Z</time></trkpt><trkpt lat="45.6023981" lon="10.7224056"><ele>291.0</ele><time>2026-03-28T13:48:43.643Z</time></trkpt><trkpt lat="45.6023281" lon="10.7223563"><ele>291.0</ele><time>2026-03-28T13:48:44.64Z</time></trkpt><trkpt lat="45.60226" lon="10.7223409"><ele>291.0</ele><time>2026-03-28T13:48:45.637Z</time></trkpt><trkpt lat="45.6021994" lon="10.7223676"><ele>291.0</ele><time>2026-03-28T13:48:46.648Z</time></trkpt><trkpt lat="45.6021327" lon="10.7224125"><ele>291.0</ele><time>2026-03-28T13:48:47.662Z</time></trkpt><trkpt lat="45.6020871" lon="10.7225838"><ele>291.0</ele><time>2026-03-28T13:48:48.569Z</time></trkpt><trkpt lat="45.6021477" lon="10.7226704"><ele>291.0</ele><time>2026-03-28T13:48:49.553Z</time></trkpt><trkpt lat="45.6022343" lon="10.7227273"><ele>291.0</ele><time>2026-03-28T13:48:50.55Z</time></trkpt><trkpt lat="45.6023562" lon="10.7227288"><ele>291.0</ele><time>2026-03-28T13:48:51.553Z</time></trkpt><trkpt lat="45.6024621" lon="10.722673"><ele>291.0</ele><time>2026-03-28T13:48:52.566Z</time></trkpt><trkpt lat="45.6025788" lon="10.7226213"><ele>291.0</ele><time>2026-03-28T13:48:53.566Z</time></trkpt><trkpt lat="45.6027161" lon="10.7225826"><ele>291.0</ele><time>2026-03-28T13:48:54.568Z</time></trkpt><trkpt lat="45.6028679" lon="10.7225572"><ele>291.0</ele><time>2026-03-28T13:48:55.556Z</time></trkpt><trkpt lat="45.6030677" lon="10.7225269"><ele>292.6666666666667</ele><time>2026-03-28T13:48:56.565Z</time></trkpt><trkpt lat="45.6032452" lon="10.7225629"><ele>294.33333333333337</ele><time>2026-03-28T13:48:57.563Z</time></trkpt><trkpt lat="45.6034205" lon="10.7226294"><ele>296.0</ele><time>2026-03-28T13:48:58.57Z</time></trkpt><trkpt lat="45.6036073" lon="10.7227072"><ele>294.0</ele><time>2026-03-28T13:48:59.573Z</time></trkpt><trkpt lat="45.6037868" lon="10.7227711"><ele>292.0</ele><time>2026-03-28T13:49:00.571Z</time></trkpt><trkpt lat="45.603958" lon="10.7228229"><ele>290.0</ele><time>2026-03-28T13:49:01.571Z</time></trkpt><trkpt lat="45.604135" lon="10.7228686"><ele>290.0</ele><time>2026-03-28T13:49:02.567Z</time></trkpt><trkpt lat="45.6043104" lon="10.7229217"><ele>290.0</ele><time>2026-03-28T13:49:03.561Z</time></trkpt><trkpt lat="45.6044879" lon="10.7229508"><ele>290.0</ele><time>2026-03-28T13:49:04.568Z</time></trkpt><trkpt lat="45.6046631" lon="10.7229925"><ele>291.33333333333337</ele><time>2026-03-28T13:49:05.567Z</time></trkpt><trkpt lat="45.6048452" lon="10.723029"><ele>292.6666666666667</ele><time>2026-03-28T13:49:06.562Z</time></trkpt><trkpt lat="45.6050041" lon="10.7230001"><ele>294.0</ele><time>2026-03-28T13:49:07.56Z</time></trkpt><trkpt lat="45.6052126" lon="10.7229476"><ele>295.3333333333333</ele><time>2026-03-28T13:49:08.556Z</time></trkpt><trkpt lat="45.6053529" lon="10.7228218"><ele>296.66666666666663</ele><time>2026-03-28T13:49:09.562Z</time></trkpt><trkpt lat="45.6055004" lon="10.7227744"><ele>298.0</ele><time>2026-03-28T13:49:10.559Z</time></trkpt><trkpt lat="45.6056439" lon="10.7227562"><ele>298.0</ele><time>2026-03-28T13:49:11.557Z</time></trkpt><trkpt lat="45.6057684" lon="10.7227522"><ele>298.0</ele><time>2026-03-28T13:49:12.559Z</time></trkpt><trkpt lat="45.6058637" lon="10.7227386"><ele>298.0</ele><time>2026-03-28T13:49:13.558Z</time></trkpt><trkpt lat="45.6059552" lon="10.7227337"><ele>298.0</ele><time>2026-03-28T13:49:14.566Z</time></trkpt><trkpt lat="45.6060558" lon="10.7227885"><ele>298.0</ele><time>2026-03-28T13:49:16.566Z</time></trkpt><trkpt lat="45.6061403" lon="10.72282"><ele>298.8</ele><time>2026-03-28T13:49:17.569Z</time></trkpt><trkpt lat="45.6062106" lon="10.7228594"><ele>299.6</ele><time>2026-03-28T13:49:18.572Z</time></trkpt><trkpt lat="45.6063017" lon="10.7229259"><ele>300.4</ele><time>2026-03-28T13:49:19.585Z</time></trkpt><trkpt lat="45.6063856" lon="10.7230005"><ele>301.2</ele><time>2026-03-28T13:49:20.567Z</time></trkpt><trkpt lat="45.6064602" lon="10.7231012"><ele>302.0</ele><time>2026-03-28T13:49:21.563Z</time></trkpt><trkpt lat="45.6065145" lon="10.7231892"><ele>302.00000000000006</ele><time>2026-03-28T13:49:22.567Z</time></trkpt><trkpt lat="45.6065563" lon="10.7232719"><ele>302.0</ele><time>2026-03-28T13:49:23.567Z</time></trkpt><trkpt lat="45.6065973" lon="10.7233692"><ele>302.0</ele><time>2026-03-28T13:49:24.569Z</time></trkpt><trkpt lat="45.6066237" lon="10.7234796"><ele>302.0</ele><time>2026-03-28T13:49:25.57Z</time></trkpt><trkpt lat="45.6066548" lon="10.7235701"><ele>302.0</ele><time>2026-03-28T13:49:26.561Z</time></trkpt><trkpt lat="45.6067098" lon="10.7236186"><ele>302.00000000000006</ele><time>2026-03-28T13:49:27.562Z</time></trkpt><trkpt lat="45.6067723" lon="10.7236422"><ele>302.0</ele><time>2026-03-28T13:49:28.577Z</time></trkpt><trkpt lat="45.606838" lon="10.7235953"><ele>302.0</ele><time>2026-03-28T13:49:29.559Z</time></trkpt><trkpt lat="45.6068952" lon="10.7235176"><ele>302.0</ele><time>2026-03-28T13:49:30.563Z</time></trkpt><trkpt lat="45.606922" lon="10.7234245"><ele>302.0</ele><time>2026-03-28T13:49:31.565Z</time></trkpt><trkpt lat="45.6069145" lon="10.7233141"><ele>302.0</ele><time>2026-03-28T13:49:32.563Z</time></trkpt><trkpt lat="45.6069033" lon="10.7232251"><ele>302.0</ele><time>2026-03-28T13:49:33.563Z</time></trkpt><trkpt lat="45.6068906" lon="10.7231253"><ele>302.0</ele><time>2026-03-28T13:49:47.589Z</time></trkpt><trkpt lat="45.6068666" lon="10.7230011"><ele>302.0</ele><time>2026-03-28T13:49:50.596Z</time></trkpt><trkpt lat="45.6068339" lon="10.7229128"><ele>302.0</ele><time>2026-03-28T13:49:51.566Z</time></trkpt><trkpt lat="45.6067648" lon="10.7228268"><ele>302.0</ele><time>2026-03-28T13:49:52.571Z</time></trkpt><trkpt lat="45.6066868" lon="10.7227732"><ele>302.0</ele><time>2026-03-28T13:49:53.57Z</time></trkpt><trkpt lat="45.606622" lon="10.7227206"><ele>302.0</ele><time>2026-03-28T13:49:54.56Z</time></trkpt><trkpt lat="45.6065266" lon="10.7226425"><ele>302.0</ele><time>2026-03-28T13:49:56.561Z</time></trkpt><trkpt lat="45.6064472" lon="10.7226089"><ele>307.0</ele><time>2026-03-28T13:50:20.567Z</time></trkpt><trkpt lat="45.6063183" lon="10.7225644"><ele>312.0</ele><time>2026-03-28T13:50:22.562Z</time></trkpt><trkpt lat="45.6027161" lon="10.7225826"><ele>306.6666666666667</ele><time>2026-03-28T13:48:54.568Z</time></trkpt><trkpt lat="45.6028679" lon="10.7225572"><ele>301.33333333333337</ele><time>2026-03-28T13:48:55.556Z</time></trkpt><trkpt lat="45.6030677" lon="10.7225269"><ele>296.0</ele><time>2026-03-28T13:48:56.565Z</time></trkpt><trkpt lat="45.6032452" lon="10.7225629"><ele>296.0</ele><time>2026-03-28T13:48:57.563Z</time></trkpt><trkpt lat="45.6034205" lon="10.7226294"><ele>296.0</ele><time>2026-03-28T13:48:58.57Z</time></trkpt><trkpt lat="45.6036073" lon="10.7227072"><ele>296.0</ele><time>2026-03-28T13:48:59.573Z</time></trkpt><trkpt lat="45.6037868" lon="10.7227711"><ele>294.0</ele><time>2026-03-28T13:49:00.571Z</time></trkpt><trkpt lat="45.603958" lon="10.7228229"><ele>292.0</ele><time>2026-03-28T13:49:01.571Z</time></trkpt><trkpt lat="45.604135" lon="10.7228686"><ele>290.0</ele><time>2026-03-28T13:49:02.567Z</time></trkpt><trkpt lat="45.6043104" lon="10.7229217"><ele>290.0</ele><time>2026-03-28T13:49:03.561Z</time></trkpt><trkpt lat="45.6044879" lon="10.7229508"><ele>290.0</ele><time>2026-03-28T13:49:04.568Z</time></trkpt><trkpt lat="45.6046631" lon="10.7229925"><ele>290.0</ele><time>2026-03-28T13:49:05.567Z</time></trkpt><trkpt lat="45.6048452" lon="10.723029"><ele>291.33333333333337</ele><time>2026-03-28T13:49:06.562Z</time></trkpt><trkpt lat="45.6050041" lon="10.7230001"><ele>292.6666666666667</ele><time>2026-03-28T13:49:07.56Z</time></trkpt><trkpt lat="45.6052126" lon="10.7229476"><ele>294.0</ele><time>2026-03-28T13:49:08.556Z</time></trkpt><trkpt lat="45.6053529" lon="10.7228218"><ele>295.0</ele><time>2026-03-28T13:49:09.562Z</time></trkpt><trkpt lat="45.6055004" lon="10.7227744"><ele>296.0</ele><time>2026-03-28T13:49:10.559Z</time></trkpt><trkpt lat="45.6056439" lon="10.7227562"><ele>297.0</ele><time>2026-03-28T13:49:11.557Z</time></trkpt><trkpt lat="45.6057684" lon="10.7227522"><ele>298.0</ele><time>2026-03-28T13:49:12.559Z</time></trkpt><trkpt lat="45.6058637" lon="10.7227386"><ele>298.0</ele><time>2026-03-28T13:49:13.558Z</time></trkpt><trkpt lat="45.6059552" lon="10.7227337"><ele>298.0</ele><time>2026-03-28T13:49:14.566Z</time></trkpt><trkpt lat="45.6060558" lon="10.7227885"><ele>298.0</ele><time>2026-03-28T13:49:16.566Z</time></trkpt><trkpt lat="45.6061403" lon="10.72282"><ele>298.0</ele><time>2026-03-28T13:49:17.569Z</time></trkpt><trkpt lat="45.6062106" lon="10.7228594"><ele>298.0</ele><time>2026-03-28T13:49:18.572Z</time></trkpt><trkpt lat="45.6063017" lon="10.7229259"><ele>298.66666666666663</ele><time>2026-03-28T13:49:19.585Z</time></trkpt><trkpt lat="45.6063856" lon="10.7230005"><ele>299.3333333333333</ele><time>2026-03-28T13:49:20.567Z</time></trkpt><trkpt lat="45.6064602" lon="10.7231012"><ele>300.0</ele><time>2026-03-28T13:49:21.563Z</time></trkpt><trkpt lat="45.6065145" lon="10.7231892"><ele>300.6666666666667</ele><time>2026-03-28T13:49:22.567Z</time></trkpt><trkpt lat="45.6065563" lon="10.7232719"><ele>301.33333333333337</ele><time>2026-03-28T13:49:23.567Z</time></trkpt><trkpt lat="45.6065973" lon="10.7233692"><ele>302.0</ele><time>2026-03-28T13:49:24.569Z</time></trkpt><trkpt lat="45.6066237" lon="10.7234796"><ele>302.00000000000006</ele><time>2026-03-28T13:49:25.57Z</time></trkpt><trkpt lat="45.6066548" lon="10.7235701"><ele>302.0</ele><time>2026-03-28T13:49:26.561Z</time></trkpt><trkpt lat="45.6067098" lon="10.7236186"><ele>302.0</ele><time>2026-03-28T13:49:27.562Z</time></trkpt><trkpt lat="45.6067723" lon="10.7236422"><ele>302.0</ele><time>2026-03-28T13:49:28.577Z</time></trkpt><trkpt lat="45.606838" lon="10.7235953"><ele>302.0</ele><time>2026-03-28T13:49:29.559Z</time></trkpt><trkpt lat="45.6068952" lon="10.7235176"><ele>302.00000000000006</ele><time>2026-03-28T13:49:30.563Z</time></trkpt><trkpt lat="45.606922" lon="10.7234245"><ele>302.0</ele><time>2026-03-28T13:49:31.565Z</time></trkpt><trkpt lat="45.6069145" lon="10.7233141"><ele>302.0</ele><time>2026-03-28T13:49:32.563Z</time></trkpt><trkpt lat="45.6069033" lon="10.7232251"><ele>302.0</ele><time>2026-03-28T13:49:33.563Z</time></trkpt><trkpt lat="45.6068906" lon="10.7231253"><ele>302.0</ele><time>2026-03-28T13:49:47.589Z</time></trkpt><trkpt lat="45.6068666" lon="10.7230011"><ele>302.0</ele><time>2026-03-28T13:49:50.596Z</time></trkpt><trkpt lat="45.6068339" lon="10.7229128"><ele>302.0</ele><time>2026-03-28T13:49:51.566Z</time></trkpt><trkpt lat="45.6067648" lon="10.7228268"><ele>302.0</ele><time>2026-03-28T13:49:52.571Z</time></trkpt><trkpt lat="45.6066868" lon="10.7227732"><ele>304.0</ele><time>2026-03-28T13:49:53.57Z</time></trkpt><trkpt lat="45.606622" lon="10.7227206"><ele>306.0</ele><time>2026-03-28T13:49:54.56Z</time></trkpt><trkpt lat="45.6065266" lon="10.7226425"><ele>308.0</ele><time>2026-03-28T13:49:56.561Z</time></trkpt><trkpt lat="45.6064472" lon="10.7226089"><ele>310.0</ele><time>2026-03-28T13:50:20.567Z</time></trkpt><trkpt lat="45.6063183" lon="10.7225644"><ele>312.0</ele><time>2026-03-28T13:50:22.562Z</time></trkpt><trkpt lat="45.6061786" lon="10.722527"><ele>313.0</ele><time>2026-03-28T13:50:23.55Z</time></trkpt><trkpt lat="45.60602" lon="10.7224868"><ele>314.0</ele><time>2026-03-28T13:50:24.558Z</time></trkpt><trkpt lat="45.6058611" lon="10.7224412"><ele>315.0</ele><time>2026-03-28T13:50:25.555Z</time></trkpt><trkpt lat="45.605699" lon="10.72242"><ele>315.0</ele><time>2026-03-28T13:50:26.552Z</time></trkpt><trkpt lat="45.6055718" lon="10.7223783"><ele>315.0</ele><time>2026-03-28T13:50:27.556Z</time></trkpt><trkpt lat="45.6054971" lon="10.7223522"><ele>315.0</ele><time>2026-03-28T13:50:28.556Z</time></trkpt><trkpt lat="45.6054272" lon="10.7223322"><ele>315.0</ele><time>2026-03-28T13:50:29.559Z</time></trkpt><trkpt lat="45.6053303" lon="10.7223115"><ele>315.0</ele><time>2026-03-28T13:50:31.563Z</time></trkpt><trkpt lat="45.6052808" lon="10.7221075"><ele>314.8333333333333</ele><time>2026-03-28T13:50:33.566Z</time></trkpt><trkpt lat="45.6052707" lon="10.7220118"><ele>314.6666666666667</ele><time>2026-03-28T13:50:34.563Z</time></trkpt><trkpt lat="45.6052838" lon="10.7218337"><ele>314.5</ele><time>2026-03-28T13:50:36.565Z</time></trkpt><trkpt lat="45.6053157" lon="10.7217434"><ele>314.33333333333337</ele><time>2026-03-28T13:50:37.568Z</time></trkpt><trkpt lat="45.6053726" lon="10.7216587"><ele>314.1666666666667</ele><time>2026-03-28T13:50:38.571Z</time></trkpt><trkpt lat="45.6054358" lon="10.7215635"><ele>314.0</ele><time>2026-03-28T13:50:39.576Z</time></trkpt><trkpt lat="45.6054887" lon="10.7214611"><ele>316.33333333333337</ele><time>2026-03-28T13:50:40.57Z</time></trkpt><trkpt lat="45.6055345" lon="10.7213818"><ele>318.6666666666667</ele><time>2026-03-28T13:50:41.566Z</time></trkpt><trkpt lat="45.605601" lon="10.7213376"><ele>321.0</ele><time>2026-03-28T13:50:42.566Z</time></trkpt><trkpt lat="45.6056837" lon="10.7213096"><ele>323.3333333333333</ele><time>2026-03-28T13:50:43.564Z</time></trkpt><trkpt lat="45.6057773" lon="10.7212762"><ele>325.66666666666663</ele><time>2026-03-28T13:50:44.575Z</time></trkpt><trkpt lat="45.6058794" lon="10.7212472"><ele>328.0</ele><time>2026-03-28T13:50:45.579Z</time></trkpt><trkpt lat="45.6059632" lon="10.7211994"><ele>328.0</ele><time>2026-03-28T13:50:46.572Z</time></trkpt><trkpt lat="45.6060304" lon="10.7211339"><ele>328.0</ele><time>2026-03-28T13:50:47.569Z</time></trkpt><trkpt lat="45.6060807" lon="10.7210615"><ele>328.0</ele><time>2026-03-28T13:50:48.576Z</time></trkpt><trkpt lat="45.6061061" lon="10.7209668"><ele>328.0</ele><time>2026-03-28T13:50:49.578Z</time></trkpt><trkpt lat="45.6061328" lon="10.7208543"><ele>328.0</ele><time>2026-03-28T13:50:50.575Z</time></trkpt><trkpt lat="45.6061528" lon="10.7207316"><ele>328.0</ele><time>2026-03-28T13:50:51.577Z</time></trkpt><trkpt lat="45.6061742" lon="10.7205961"><ele>329.59999999999997</ele><time>2026-03-28T13:50:52.612Z</time></trkpt><trkpt lat="45.6062056" lon="10.720462"><ele>331.2</ele><time>2026-03-28T13:50:53.57Z</time></trkpt><trkpt lat="45.6062561" lon="10.7203443"><ele>332.8</ele><time>2026-03-28T13:50:54.567Z</time></trkpt><trkpt lat="45.6063226" lon="10.7202515"><ele>334.4</ele><time>2026-03-28T13:50:55.57Z</time></trkpt><trkpt lat="45.6063999" lon="10.7201597"><ele>336.0</ele><time>2026-03-28T13:50:56.572Z</time></trkpt><trkpt lat="45.6064803" lon="10.720087"><ele>337.0</ele><time>2026-03-28T13:50:57.573Z</time></trkpt><trkpt lat="45.606558" lon="10.7200398"><ele>338.0</ele><time>2026-03-28T13:50:58.58Z</time></trkpt><trkpt lat="45.6066272" lon="10.7199767"><ele>339.0</ele><time>2026-03-28T13:50:59.578Z</time></trkpt><trkpt lat="45.6066948" lon="10.719919"><ele>340.0</ele><time>2026-03-28T13:51:00.571Z</time></trkpt><trkpt lat="45.6067599" lon="10.7198517"><ele>341.0</ele><time>2026-03-28T13:51:02.584Z</time></trkpt><trkpt lat="45.6067567" lon="10.719679"><ele>342.0</ele><time>2026-03-28T13:51:10.592Z</time></trkpt><trkpt lat="45.606727" lon="10.7195548"><ele>342.0</ele><time>2026-03-28T13:51:11.579Z</time></trkpt><trkpt lat="45.6066889" lon="10.719455"><ele>342.0</ele><time>2026-03-28T13:51:12.577Z</time></trkpt><trkpt lat="45.6066522" lon="10.7193022"><ele>342.0</ele><time>2026-03-28T13:51:14.579Z</time></trkpt><trkpt lat="45.606694" lon="10.7191448"><ele>342.0</ele><time>2026-03-28T13:51:16.573Z</time></trkpt><trkpt lat="45.6067457" lon="10.7190567"><ele>342.0</ele><time>2026-03-28T13:51:17.577Z</time></trkpt><trkpt lat="45.6068312" lon="10.7189761"><ele>343.0</ele><time>2026-03-28T13:51:18.574Z</time></trkpt><trkpt lat="45.6069293" lon="10.7188885"><ele>344.0</ele><time>2026-03-28T13:51:19.575Z</time></trkpt><trkpt lat="45.6070358" lon="10.7187861"><ele>345.0</ele><time>2026-03-28T13:51:20.58Z</time></trkpt><trkpt lat="45.6071318" lon="10.7187088"><ele>346.0</ele><time>2026-03-28T13:51:22.667Z</time></trkpt><trkpt lat="45.607219" lon="10.718639"><ele>349.4</ele><time>2026-03-28T13:51:23.651Z</time></trkpt><trkpt lat="45.6072977" lon="10.7185644"><ele>352.8</ele><time>2026-03-28T13:51:24.644Z</time></trkpt><trkpt lat="45.6073603" lon="10.7184924"><ele>356.2</ele><time>2026-03-28T13:51:25.639Z</time></trkpt><trkpt lat="45.6074117" lon="10.7183424"><ele>359.59999999999997</ele><time>2026-03-28T13:51:27.635Z</time></trkpt><trkpt lat="45.6074103" lon="10.7181858"><ele>363.0</ele><time>2026-03-28T13:51:29.633Z</time></trkpt><trkpt lat="45.6074027" lon="10.7180806"><ele>363.0</ele><time>2026-03-28T13:51:30.633Z</time></trkpt><trkpt lat="45.607388" lon="10.7179809"><ele>363.0</ele><time>2026-03-28T13:51:31.649Z</time></trkpt><trkpt lat="45.6073435" lon="10.7178632"><ele>363.0</ele><time>2026-03-28T13:51:33.639Z</time></trkpt><trkpt lat="45.6073211" lon="10.7177345"><ele>363.0</ele><time>2026-03-28T13:51:35.639Z</time></trkpt><trkpt lat="45.6073048" lon="10.7175012"><ele>363.0</ele><time>2026-03-28T13:51:37.572Z</time></trkpt><trkpt lat="45.6072798" lon="10.7173752"><ele>362.59999999999997</ele><time>2026-03-28T13:51:39.572Z</time></trkpt><trkpt lat="45.6072595" lon="10.7172571"><ele>362.2</ele><time>2026-03-28T13:51:41.571Z</time></trkpt><trkpt lat="45.6072709" lon="10.7171453"><ele>361.8</ele><time>2026-03-28T13:51:43.578Z</time></trkpt><trkpt lat="45.6073287" lon="10.7170745"><ele>361.4</ele><time>2026-03-28T13:51:46.578Z</time></trkpt><trkpt lat="45.6074228" lon="10.7171095"><ele>361.0</ele><time>2026-03-28T13:51:58.582Z</time></trkpt><trkpt lat="45.6075371" lon="10.717123"><ele>361.0</ele><time>2026-03-28T13:52:00.568Z</time></trkpt><trkpt lat="45.6076176" lon="10.7171318"><ele>361.0</ele><time>2026-03-28T13:52:01.57Z</time></trkpt><trkpt lat="45.6076984" lon="10.7171234"><ele>361.0</ele><time>2026-03-28T13:52:02.569Z</time></trkpt><trkpt lat="45.6077961" lon="10.7171321"><ele>361.0</ele><time>2026-03-28T13:52:03.572Z</time></trkpt><trkpt lat="45.6078812" lon="10.7171403"><ele>361.0</ele><time>2026-03-28T13:52:04.563Z</time></trkpt><trkpt lat="45.6079671" lon="10.7171451"><ele>361.0</ele><time>2026-03-28T13:52:05.57Z</time></trkpt><trkpt lat="45.6080494" lon="10.717153"><ele>363.3333333333333</ele><time>2026-03-28T13:52:06.571Z</time></trkpt><trkpt lat="45.6081312" lon="10.7171532"><ele>365.66666666666663</ele><time>2026-03-28T13:52:07.572Z</time></trkpt><trkpt lat="45.6082154" lon="10.7171537"><ele>368.0</ele><time>2026-03-28T13:52:08.565Z</time></trkpt><trkpt lat="45.6083048" lon="10.7171588"><ele>370.3333333333333</ele><time>2026-03-28T13:52:09.57Z</time></trkpt><trkpt lat="45.6083725" lon="10.717157"><ele>372.6666666666667</ele><time>2026-03-28T13:52:10.566Z</time></trkpt><trkpt lat="45.6084858" lon="10.7171812"><ele>375.0</ele><time>2026-03-28T13:52:12.564Z</time></trkpt><trkpt lat="45.6086032" lon="10.717211"><ele>376.0</ele><time>2026-03-28T13:52:14.567Z</time></trkpt><trkpt lat="45.6086784" lon="10.7171881"><ele>377.0</ele><time>2026-03-28T13:52:15.557Z</time></trkpt><trkpt lat="45.6087587" lon="10.7171263"><ele>378.0</ele><time>2026-03-28T13:52:16.558Z</time></trkpt><trkpt lat="45.6088384" lon="10.7170599"><ele>379.0</ele><time>2026-03-28T13:52:17.56Z</time></trkpt><trkpt lat="45.6089211" lon="10.7169677"><ele>380.0</ele><time>2026-03-28T13:52:18.569Z</time></trkpt><trkpt lat="45.6090172" lon="10.7168994"><ele>380.0</ele><time>2026-03-28T13:52:19.57Z</time></trkpt><trkpt lat="45.6091104" lon="10.7168486"><ele>380.0</ele><time>2026-03-28T13:52:20.565Z</time></trkpt><trkpt lat="45.6091984" lon="10.7168228"><ele>380.0</ele><time>2026-03-28T13:52:21.569Z</time></trkpt><trkpt lat="45.6092862" lon="10.716795"><ele>380.0</ele><time>2026-03-28T13:52:22.566Z</time></trkpt><trkpt lat="45.6093993" lon="10.7167723"><ele>380.0</ele><time>2026-03-28T13:52:23.563Z</time></trkpt><trkpt lat="45.6094982" lon="10.7167277"><ele>384.25</ele><time>2026-03-28T13:52:24.575Z</time></trkpt><trkpt lat="45.6096186" lon="10.7166807"><ele>388.5</ele><time>2026-03-28T13:52:25.562Z</time></trkpt><trkpt lat="45.6097505" lon="10.716639"><ele>392.75</ele><time>2026-03-28T13:52:26.557Z</time></trkpt><trkpt lat="45.6098752" lon="10.7165921"><ele>397.0</ele><time>2026-03-28T13:52:27.565Z</time></trkpt><trkpt lat="45.6100023" lon="10.716578"><ele>397.0</ele><time>2026-03-28T13:52:28.568Z</time></trkpt><trkpt lat="45.6101275" lon="10.7165396"><ele>397.0</ele><time>2026-03-28T13:52:29.562Z</time></trkpt><trkpt lat="45.610238" lon="10.7164877"><ele>397.0</ele><time>2026-03-28T13:52:30.561Z</time></trkpt><trkpt lat="45.6103438" lon="10.7164345"><ele>397.0</ele><time>2026-03-28T13:52:31.562Z</time></trkpt><trkpt lat="45.6075371" lon="10.717123"><ele>393.33333333333337</ele><time>2026-03-28T13:52:00.568Z</time></trkpt><trkpt lat="45.6076176" lon="10.7171318"><ele>389.6666666666667</ele><time>2026-03-28T13:52:01.57Z</time></trkpt><trkpt lat="45.6076984" lon="10.7171234"><ele>386.0</ele><time>2026-03-28T13:52:02.569Z</time></trkpt><trkpt lat="45.6077961" lon="10.7171321"><ele>382.33333333333337</ele><time>2026-03-28T13:52:03.572Z</time></trkpt><trkpt lat="45.6078812" lon="10.7171403"><ele>378.6666666666667</ele><time>2026-03-28T13:52:04.563Z</time></trkpt><trkpt lat="45.6079671" lon="10.7171451"><ele>375.0</ele><time>2026-03-28T13:52:05.57Z</time></trkpt><trkpt lat="45.6080494" lon="10.717153"><ele>375.0</ele><time>2026-03-28T13:52:06.571Z</time></trkpt><trkpt lat="45.6081312" lon="10.7171532"><ele>375.0</ele><time>2026-03-28T13:52:07.572Z</time></trkpt><trkpt lat="45.6082154" lon="10.7171537"><ele>375.0</ele><time>2026-03-28T13:52:08.565Z</time></trkpt><trkpt lat="45.6083048" lon="10.7171588"><ele>375.0</ele><time>2026-03-28T13:52:09.57Z</time></trkpt><trkpt lat="45.6083725" lon="10.717157"><ele>375.0</ele><time>2026-03-28T13:52:10.566Z</time></trkpt><trkpt lat="45.6084858" lon="10.7171812"><ele>375.0</ele><time>2026-03-28T13:52:12.564Z</time></trkpt><trkpt lat="45.6086032" lon="10.717211"><ele>376.0</ele><time>2026-03-28T13:52:14.567Z</time></trkpt><trkpt lat="45.6086784" lon="10.7171881"><ele>377.0</ele><time>2026-03-28T13:52:15.557Z</time></trkpt><trkpt lat="45.6087587" lon="10.7171263"><ele>378.0</ele><time>2026-03-28T13:52:16.558Z</time></trkpt><trkpt lat="45.6088384" lon="10.7170599"><ele>379.0</ele><time>2026-03-28T13:52:17.56Z</time></trkpt><trkpt lat="45.6089211" lon="10.7169677"><ele>380.0</ele><time>2026-03-28T13:52:18.569Z</time></trkpt><trkpt lat="45.6090172" lon="10.7168994"><ele>380.0</ele><time>2026-03-28T13:52:19.57Z</time></trkpt><trkpt lat="45.6091104" lon="10.7168486"><ele>380.0</ele><time>2026-03-28T13:52:20.565Z</time></trkpt><trkpt lat="45.6091984" lon="10.7168228"><ele>380.0</ele><time>2026-03-28T13:52:21.569Z</time></trkpt><trkpt lat="45.6092862" lon="10.716795"><ele>380.0</ele><time>2026-03-28T13:52:22.566Z</time></trkpt><trkpt lat="45.6093993" lon="10.7167723"><ele>380.0</ele><time>2026-03-28T13:52:23.563Z</time></trkpt><trkpt lat="45.6094982" lon="10.7167277"><ele>384.25</ele><time>2026-03-28T13:52:24.575Z</time></trkpt><trkpt lat="45.6096186" lon="10.7166807"><ele>388.5</ele><time>2026-03-28T13:52:25.562Z</time></trkpt><trkpt lat="45.6097505" lon="10.716639"><ele>392.75</ele><time>2026-03-28T13:52:26.557Z</time></trkpt><trkpt lat="45.6098752" lon="10.7165921"><ele>397.0</ele><time>2026-03-28T13:52:27.565Z</time></trkpt><trkpt lat="45.6100023" lon="10.716578"><ele>397.0</ele><time>2026-03-28T13:52:28.568Z</time></trkpt><trkpt lat="45.6101275" lon="10.7165396"><ele>397.0</ele><time>2026-03-28T13:52:29.562Z</time></trkpt><trkpt lat="45.610238" lon="10.7164877"><ele>397.0</ele><time>2026-03-28T13:52:30.561Z</time></trkpt><trkpt lat="45.6103438" lon="10.7164345"><ele>397.0</ele><time>2026-03-28T13:52:31.562Z</time></trkpt><trkpt lat="45.6104474" lon="10.7163895"><ele>399.5</ele><time>2026-03-28T13:52:32.558Z</time></trkpt><trkpt lat="45.6105561" lon="10.716339"><ele>402.0</ele><time>2026-03-28T13:52:33.56Z</time></trkpt><trkpt lat="45.6106674" lon="10.7162825"><ele>404.5</ele><time>2026-03-28T13:52:34.563Z</time></trkpt><trkpt lat="45.6108013" lon="10.7162333"><ele>407.0</ele><time>2026-03-28T13:52:35.561Z</time></trkpt><trkpt lat="45.610925" lon="10.7161986"><ele>407.0</ele><time>2026-03-28T13:52:36.561Z</time></trkpt><trkpt lat="45.6110469" lon="10.7161683"><ele>407.0</ele><time>2026-03-28T13:52:37.561Z</time></trkpt><trkpt lat="45.6111674" lon="10.716138"><ele>407.0</ele><time>2026-03-28T13:52:38.558Z</time></trkpt><trkpt lat="45.6112753" lon="10.7160983"><ele>407.0</ele><time>2026-03-28T13:52:39.56Z</time></trkpt><trkpt lat="45.6113736" lon="10.7160493"><ele>404.8</ele><time>2026-03-28T13:52:40.562Z</time></trkpt><trkpt lat="45.6114748" lon="10.7160155"><ele>402.6</ele><time>2026-03-28T13:52:41.562Z</time></trkpt><trkpt lat="45.6115719" lon="10.7159792"><ele>400.40000000000003</ele><time>2026-03-28T13:52:42.556Z</time></trkpt><trkpt lat="45.6116612" lon="10.715947"><ele>398.20000000000005</ele><time>2026-03-28T13:52:43.562Z</time></trkpt><trkpt lat="45.6117517" lon="10.7159135"><ele>396.0</ele><time>2026-03-28T13:52:44.562Z</time></trkpt><trkpt lat="45.6118466" lon="10.7158928"><ele>396.0</ele><time>2026-03-28T13:52:45.559Z</time></trkpt><trkpt lat="45.6119382" lon="10.7158716"><ele>396.0</ele><time>2026-03-28T13:52:46.559Z</time></trkpt><trkpt lat="45.6120125" lon="10.7158473"><ele>396.0</ele><time>2026-03-28T13:52:47.56Z</time></trkpt><trkpt lat="45.6120798" lon="10.7158313"><ele>396.0</ele><time>2026-03-28T13:52:48.56Z</time></trkpt><trkpt lat="45.612142" lon="10.7158082"><ele>396.0</ele><time>2026-03-28T13:52:49.557Z</time></trkpt><trkpt lat="45.6122185" lon="10.7158206"><ele>396.0</ele><time>2026-03-28T13:52:50.555Z</time></trkpt><trkpt lat="45.6122843" lon="10.715866"><ele>395.6</ele><time>2026-03-28T13:52:51.549Z</time></trkpt><trkpt lat="45.6123772" lon="10.7159279"><ele>395.20000000000005</ele><time>2026-03-28T13:52:52.549Z</time></trkpt><trkpt lat="45.6124787" lon="10.7159644"><ele>394.79999999999995</ele><time>2026-03-28T13:52:53.554Z</time></trkpt><trkpt lat="45.612564" lon="10.7159795"><ele>394.4</ele><time>2026-03-28T13:52:54.547Z</time></trkpt><trkpt lat="45.6126649" lon="10.7159817"><ele>394.0</ele><time>2026-03-28T13:52:55.568Z</time></trkpt><trkpt lat="45.612745" lon="10.7159548"><ele>394.0</ele><time>2026-03-28T13:52:56.552Z</time></trkpt><trkpt lat="45.6128124" lon="10.7159245"><ele>394.0</ele><time>2026-03-28T13:52:57.55Z</time></trkpt><trkpt lat="45.6128835" lon="10.7159392"><ele>394.0</ele><time>2026-03-28T13:52:58.56Z</time></trkpt><trkpt lat="45.6129776" lon="10.7160071"><ele>394.0</ele><time>2026-03-28T13:53:00.553Z</time></trkpt><trkpt lat="45.6130439" lon="10.7161348"><ele>394.0</ele><time>2026-03-28T13:53:02.554Z</time></trkpt><trkpt lat="45.61316" lon="10.7161885"><ele>393.2</ele><time>2026-03-28T13:53:04.559Z</time></trkpt><trkpt lat="45.6132511" lon="10.7161545"><ele>392.4</ele><time>2026-03-28T13:53:05.549Z</time></trkpt><trkpt lat="45.6133678" lon="10.7161044"><ele>391.6</ele><time>2026-03-28T13:53:06.55Z</time></trkpt><trkpt lat="45.6134472" lon="10.7160515"><ele>390.8</ele><time>2026-03-28T13:53:07.551Z</time></trkpt><trkpt lat="45.613514" lon="10.7159989"><ele>390.0</ele><time>2026-03-28T13:53:08.546Z</time></trkpt><trkpt lat="45.6136006" lon="10.7159773"><ele>390.4</ele><time>2026-03-28T13:53:09.547Z</time></trkpt><trkpt lat="45.613675" lon="10.715992"><ele>390.8</ele><time>2026-03-28T13:53:10.549Z</time></trkpt><trkpt lat="45.6137648" lon="10.7160126"><ele>391.20000000000005</ele><time>2026-03-28T13:53:11.547Z</time></trkpt><trkpt lat="45.613875" lon="10.7160342"><ele>391.6</ele><time>2026-03-28T13:53:12.547Z</time></trkpt><trkpt lat="45.6139749" lon="10.7160679"><ele>392.0</ele><time>2026-03-28T13:53:13.555Z</time></trkpt><trkpt lat="45.6140655" lon="10.7161132"><ele>391.8333333333333</ele><time>2026-03-28T13:53:14.555Z</time></trkpt><trkpt lat="45.6141493" lon="10.7161474"><ele>391.66666666666663</ele><time>2026-03-28T13:53:15.553Z</time></trkpt><trkpt lat="45.6142597" lon="10.7161886"><ele>391.5</ele><time>2026-03-28T13:53:17.561Z</time></trkpt><trkpt lat="45.6143242" lon="10.7161781"><ele>391.33333333333337</ele><time>2026-03-28T13:53:18.57Z</time></trkpt><trkpt lat="45.6144035" lon="10.7161545"><ele>391.1666666666667</ele><time>2026-03-28T13:53:19.57Z</time></trkpt><trkpt lat="45.6144972" lon="10.7161043"><ele>391.0</ele><time>2026-03-28T13:53:20.572Z</time></trkpt><trkpt lat="45.6146069" lon="10.7160563"><ele>391.0</ele><time>2026-03-28T13:53:21.576Z</time></trkpt><trkpt lat="45.6147053" lon="10.716015"><ele>391.0</ele><time>2026-03-28T13:53:22.577Z</time></trkpt><trkpt lat="45.6147991" lon="10.7159731"><ele>391.0</ele><time>2026-03-28T13:53:23.575Z</time></trkpt><trkpt lat="45.6148976" lon="10.7159098"><ele>391.0</ele><time>2026-03-28T13:53:24.57Z</time></trkpt><trkpt lat="45.6149841" lon="10.7158135"><ele>391.0</ele><time>2026-03-28T13:53:25.576Z</time></trkpt><trkpt lat="45.6150446" lon="10.7157109"><ele>391.00000000000006</ele><time>2026-03-28T13:53:26.587Z</time></trkpt><trkpt lat="45.6151215" lon="10.7156387"><ele>391.0</ele><time>2026-03-28T13:53:27.572Z</time></trkpt><trkpt lat="45.6151789" lon="10.7155787"><ele>391.0</ele><time>2026-03-28T13:53:28.574Z</time></trkpt><trkpt lat="45.6152558" lon="10.7155337"><ele>391.0</ele><time>2026-03-28T13:53:29.57Z</time></trkpt><trkpt lat="45.6153543" lon="10.7154906"><ele>391.00000000000006</ele><time>2026-03-28T13:53:30.577Z</time></trkpt><trkpt lat="45.6154416" lon="10.7154582"><ele>391.0</ele><time>2026-03-28T13:53:31.572Z</time></trkpt><trkpt lat="45.6155106" lon="10.7154179"><ele>392.20000000000005</ele><time>2026-03-28T13:53:32.568Z</time></trkpt><trkpt lat="45.6155555" lon="10.7153542"><ele>393.40000000000003</ele><time>2026-03-28T13:56:25.593Z</time></trkpt><trkpt lat="45.6156672" lon="10.7152282"><ele>394.6</ele><time>2026-03-28T13:56:27.588Z</time></trkpt><trkpt lat="45.6157061" lon="10.7151013"><ele>395.8</ele><time>2026-03-28T13:56:28.586Z</time></trkpt><trkpt lat="45.6157441" lon="10.7149791"><ele>397.0</ele><time>2026-03-28T13:56:29.587Z</time></trkpt><trkpt lat="45.6157904" lon="10.7148791"><ele>397.50000000000006</ele><time>2026-03-28T13:56:30.578Z</time></trkpt><trkpt lat="45.615834" lon="10.7147957"><ele>398.0</ele><time>2026-03-28T13:56:31.597Z</time></trkpt><trkpt lat="45.615883" lon="10.7147073"><ele>398.5</ele><time>2026-03-28T13:56:33.586Z</time></trkpt><trkpt lat="45.6158813" lon="10.7148531"><ele>399.0</ele><time>2026-03-28T13:58:44.578Z</time></trkpt><trkpt lat="45.6158285" lon="10.7147495"><ele>399.50000000000006</ele><time>2026-03-28T13:58:48.575Z</time></trkpt><trkpt lat="45.6158455" lon="10.7146086"><ele>400.0</ele><time>2026-03-28T13:58:51.575Z</time></trkpt><trkpt lat="45.6158417" lon="10.7147398"><ele>400.00000000000006</ele><time>2026-03-28T13:58:59.569Z</time></trkpt><trkpt lat="45.6158399" lon="10.7148339"><ele>400.0</ele><time>2026-03-28T13:59:08.591Z</time></trkpt><trkpt lat="45.6157947" lon="10.714935"><ele>400.0</ele><time>2026-03-28T13:59:14.598Z</time></trkpt><trkpt lat="45.6157589" lon="10.715011"><ele>400.0</ele><time>2026-03-28T13:59:16.584Z</time></trkpt><trkpt lat="45.6157132" lon="10.7151198"><ele>400.00000000000006</ele><time>2026-03-28T13:59:18.589Z</time></trkpt><trkpt lat="45.6156808" lon="10.7151975"><ele>400.0</ele><time>2026-03-28T13:59:20.582Z</time></trkpt><trkpt lat="45.6156287" lon="10.7152921"><ele>399.4</ele><time>2026-03-28T13:59:22.606Z</time></trkpt><trkpt lat="45.6155322" lon="10.7153804"><ele>398.8</ele><time>2026-03-28T13:59:24.591Z</time></trkpt><trkpt lat="45.6154304" lon="10.7154726"><ele>398.20000000000005</ele><time>2026-03-28T13:59:26.586Z</time></trkpt><trkpt lat="45.6153364" lon="10.7155379"><ele>397.6</ele><time>2026-03-28T13:59:28.585Z</time></trkpt><trkpt lat="45.6153132" lon="10.7156347"><ele>397.0</ele><time>2026-03-28T13:59:31.592Z</time></trkpt><trkpt lat="45.6153837" lon="10.7156372"><ele>397.0</ele><time>2026-03-28T13:59:34.597Z</time></trkpt><trkpt lat="45.615366" lon="10.715549"><ele>397.0</ele><time>2026-03-28T13:59:38.598Z</time></trkpt><trkpt lat="45.6154215" lon="10.715474"><ele>397.0</ele><time>2026-03-28T13:59:42.585Z</time></trkpt><trkpt lat="45.6155478" lon="10.7153723"><ele>397.0</ele><time>2026-03-28T13:59:44.572Z</time></trkpt><trkpt lat="45.6156219" lon="10.7152839"><ele>397.0</ele><time>2026-03-28T13:59:45.582Z</time></trkpt><trkpt lat="45.6156929" lon="10.715173"><ele>397.50000000000006</ele><time>2026-03-28T13:59:46.572Z</time></trkpt><trkpt lat="45.6157494" lon="10.7150795"><ele>398.0</ele><time>2026-03-28T13:59:47.573Z</time></trkpt><trkpt lat="45.6157945" lon="10.7149651"><ele>398.5</ele><time>2026-03-28T13:59:48.579Z</time></trkpt><trkpt lat="45.6158471" lon="10.714865"><ele>399.0</ele><time>2026-03-28T13:59:49.585Z</time></trkpt><trkpt lat="45.6158986" lon="10.7147839"><ele>399.50000000000006</ele><time>2026-03-28T13:59:50.579Z</time></trkpt><trkpt lat="45.6159522" lon="10.7147068"><ele>400.0</ele><time>2026-03-28T13:59:51.58Z</time></trkpt><trkpt lat="45.6160061" lon="10.7146353"><ele>400.0</ele><time>2026-03-28T13:59:52.578Z</time></trkpt><trkpt lat="45.6160691" lon="10.7145875"><ele>400.0</ele><time>2026-03-28T13:59:53.579Z</time></trkpt><trkpt lat="45.6161843" lon="10.7145385"><ele>400.0</ele><time>2026-03-28T13:59:55.582Z</time></trkpt><trkpt lat="45.6162467" lon="10.7145062"><ele>400.0</ele><time>2026-03-28T13:59:56.547Z</time></trkpt><trkpt lat="45.6163464" lon="10.7144481"><ele>400.0</ele><time>2026-03-28T13:59:58.55Z</time></trkpt><trkpt lat="45.6164563" lon="10.7143737"><ele>401.50000000000006</ele><time>2026-03-28T14:00:00.55Z</time></trkpt><trkpt lat="45.6165695" lon="10.7143605"><ele>403.0</ele><time>2026-03-28T14:00:02.545Z</time></trkpt><trkpt lat="45.6166359" lon="10.7143817"><ele>404.5</ele><time>2026-03-28T14:00:03.545Z</time></trkpt><trkpt lat="45.6167078" lon="10.7144186"><ele>406.0</ele><time>2026-03-28T14:00:04.551Z</time></trkpt><trkpt lat="45.6167777" lon="10.7144495"><ele>407.50000000000006</ele><time>2026-03-28T14:00:05.547Z</time></trkpt><trkpt lat="45.6168779" lon="10.7145023"><ele>409.0</ele><time>2026-03-28T14:00:07.539Z</time></trkpt><trkpt lat="45.6169538" lon="10.7145008"><ele>411.2</ele><time>2026-03-28T14:00:50.569Z</time></trkpt><trkpt lat="45.6170425" lon="10.7144622"><ele>413.4</ele><time>2026-03-28T14:01:32.567Z</time></trkpt><trkpt lat="45.6171056" lon="10.7144474"><ele>415.6</ele><time>2026-03-28T14:01:33.555Z</time></trkpt><trkpt lat="45.6171964" lon="10.714413"><ele>417.8</ele><time>2026-03-28T14:01:34.551Z</time></trkpt><trkpt lat="45.6173013" lon="10.7143992"><ele>420.0</ele><time>2026-03-28T14:01:35.555Z</time></trkpt><trkpt lat="45.6173952" lon="10.714393"><ele>420.0</ele><time>2026-03-28T14:01:36.555Z</time></trkpt><trkpt lat="45.6174846" lon="10.7143893"><ele>420.0</ele><time>2026-03-28T14:01:37.551Z</time></trkpt><trkpt lat="45.6175708" lon="10.7143918"><ele>420.0</ele><time>2026-03-28T14:01:38.554Z</time></trkpt><trkpt lat="45.6176506" lon="10.7143974"><ele>420.0</ele><time>2026-03-28T14:01:39.559Z</time></trkpt><trkpt lat="45.6177306" lon="10.7144159"><ele>420.0</ele><time>2026-03-28T14:01:40.565Z</time></trkpt><trkpt lat="45.6178132" lon="10.7144381"><ele>420.0</ele><time>2026-03-28T14:01:41.555Z</time></trkpt><trkpt lat="45.617896" lon="10.7144501"><ele>421.8333333333333</ele><time>2026-03-28T14:01:42.542Z</time></trkpt><trkpt lat="45.6179753" lon="10.7144487"><ele>423.66666666666663</ele><time>2026-03-28T14:01:43.553Z</time></trkpt><trkpt lat="45.6180541" lon="10.7144182"><ele>425.5</ele><time>2026-03-28T14:01:44.547Z</time></trkpt><trkpt lat="45.6181243" lon="10.7143856"><ele>427.3333333333333</ele><time>2026-03-28T14:01:45.549Z</time></trkpt><trkpt lat="45.6182097" lon="10.7143264"><ele>429.16666666666663</ele><time>2026-03-28T14:01:47.548Z</time></trkpt><trkpt lat="45.6182253" lon="10.7141907"><ele>431.0</ele><time>2026-03-28T14:01:49.561Z</time></trkpt><trkpt lat="45.6181814" lon="10.7140667"><ele>431.0</ele><time>2026-03-28T14:01:51.555Z</time></trkpt><trkpt lat="45.6181488" lon="10.7139884"><ele>431.0</ele><time>2026-03-28T14:01:52.542Z</time></trkpt><trkpt lat="45.6181286" lon="10.713832"><ele>431.0</ele><time>2026-03-28T14:01:54.56Z</time></trkpt><trkpt lat="45.6181454" lon="10.713672"><ele>431.0</ele><time>2026-03-28T14:01:56.552Z</time></trkpt><trkpt lat="45.618168" lon="10.7135129"><ele>431.0</ele><time>2026-03-28T14:01:58.554Z</time></trkpt><trkpt lat="45.6181895" lon="10.7133836"><ele>428.8</ele><time>2026-03-28T14:02:00.565Z</time></trkpt><trkpt lat="45.6181941" lon="10.7132884"><ele>426.6</ele><time>2026-03-28T14:02:11.571Z</time></trkpt><trkpt lat="45.6182936" lon="10.7132445"><ele>424.4</ele><time>2026-03-28T14:02:14.563Z</time></trkpt><trkpt lat="45.6184079" lon="10.7132435"><ele>422.2</ele><time>2026-03-28T14:02:16.55Z</time></trkpt><trkpt lat="45.6184742" lon="10.7132242"><ele>420.0</ele><time>2026-03-28T14:02:32.565Z</time></trkpt><trkpt lat="45.6185955" lon="10.7131668"><ele>422.4</ele><time>2026-03-28T14:02:34.546Z</time></trkpt><trkpt lat="45.6187096" lon="10.7131334"><ele>424.8</ele><time>2026-03-28T14:02:35.554Z</time></trkpt><trkpt lat="45.6188044" lon="10.7131098"><ele>427.20000000000005</ele><time>2026-03-28T14:02:36.555Z</time></trkpt><trkpt lat="45.6188834" lon="10.7131029"><ele>429.6</ele><time>2026-03-28T14:02:37.554Z</time></trkpt><trkpt lat="45.6189797" lon="10.713123"><ele>432.0</ele><time>2026-03-28T14:02:39.55Z</time></trkpt><trkpt lat="45.6189995" lon="10.7132139"><ele>432.0</ele><time>2026-03-28T14:02:41.564Z</time></trkpt><trkpt lat="45.618886" lon="10.7132719"><ele>432.00000000000006</ele><time>2026-03-28T14:02:43.547Z</time></trkpt><trkpt lat="45.6188015" lon="10.7132945"><ele>432.00000000000006</ele><time>2026-03-28T14:02:44.548Z</time></trkpt><trkpt lat="45.6186902" lon="10.7133456"><ele>432.0</ele><time>2026-03-28T14:02:45.55Z</time></trkpt><trkpt lat="45.6185928" lon="10.7134213"><ele>432.0</ele><time>2026-03-28T14:02:46.547Z</time></trkpt><trkpt lat="45.6184963" lon="10.7135346"><ele>431.75</ele><time>2026-03-28T14:02:47.548Z</time></trkpt><trkpt lat="45.6184037" lon="10.7136599"><ele>431.5</ele><time>2026-03-28T14:02:48.546Z</time></trkpt><trkpt lat="45.6183474" lon="10.7138166"><ele>431.25</ele><time>2026-03-28T14:02:49.54Z</time></trkpt><trkpt lat="45.6182997" lon="10.713985"><ele>431.0</ele><time>2026-03-28T14:02:50.542Z</time></trkpt><trkpt lat="45.6182687" lon="10.7141629"><ele>431.0</ele><time>2026-03-28T14:02:51.553Z</time></trkpt><trkpt lat="45.618239" lon="10.7143478"><ele>431.0</ele><time>2026-03-28T14:02:52.554Z</time></trkpt><trkpt lat="45.6182078" lon="10.7145405"><ele>431.0</ele><time>2026-03-28T14:02:53.549Z</time></trkpt><trkpt lat="45.6181806" lon="10.7147171"><ele>431.0</ele><time>2026-03-28T14:02:54.55Z</time></trkpt><trkpt lat="45.6181443" lon="10.7148887"><ele>433.5</ele><time>2026-03-28T14:02:55.544Z</time></trkpt><trkpt lat="45.6181129" lon="10.7150698"><ele>436.0</ele><time>2026-03-28T14:02:56.548Z</time></trkpt><trkpt lat="45.6180841" lon="10.7152651"><ele>438.5</ele><time>2026-03-28T14:02:57.558Z</time></trkpt><trkpt lat="45.6180481" lon="10.7154647"><ele>441.0</ele><time>2026-03-28T14:02:58.555Z</time></trkpt><trkpt lat="45.6180146" lon="10.7156567"><ele>443.0</ele><time>2026-03-28T14:02:59.551Z</time></trkpt><trkpt lat="45.6179658" lon="10.7158082"><ele>445.0</ele><time>2026-03-28T14:03:00.554Z</time></trkpt><trkpt lat="45.6178987" lon="10.7159422"><ele>447.0</ele><time>2026-03-28T14:03:01.552Z</time></trkpt><trkpt lat="45.6178846" lon="10.7160773"><ele>449.0</ele><time>2026-03-28T14:03:02.543Z</time></trkpt><trkpt lat="45.617881" lon="10.7162157"><ele>451.0</ele><time>2026-03-28T14:03:03.546Z</time></trkpt><trkpt lat="45.617879" lon="10.71633"><ele>452.1666666666667</ele><time>2026-03-28T14:03:04.539Z</time></trkpt><trkpt lat="45.6178315" lon="10.7164161"><ele>453.33333333333337</ele><time>2026-03-28T14:03:05.542Z</time></trkpt><trkpt lat="45.6177765" lon="10.7165517"><ele>454.5</ele><time>2026-03-28T14:03:07.546Z</time></trkpt><trkpt lat="45.6177625" lon="10.7166605"><ele>455.66666666666663</ele><time>2026-03-28T14:03:09.562Z</time></trkpt><trkpt lat="45.6177763" lon="10.7167553"><ele>456.8333333333333</ele><time>2026-03-28T14:03:12.564Z</time></trkpt><trkpt lat="45.6178601" lon="10.7167368"><ele>458.0</ele><time>2026-03-28T14:03:22.568Z</time></trkpt><trkpt lat="45.6179576" lon="10.7165473"><ele>458.0</ele><time>2026-03-28T14:03:24.563Z</time></trkpt><trkpt lat="45.6180199" lon="10.7164092"><ele>458.0</ele><time>2026-03-28T14:03:25.547Z</time></trkpt><trkpt lat="45.6180937" lon="10.7162437"><ele>458.0</ele><time>2026-03-28T14:03:26.555Z</time></trkpt><trkpt lat="45.6181825" lon="10.7160713"><ele>458.0</ele><time>2026-03-28T14:03:27.552Z</time></trkpt><trkpt lat="45.6182878" lon="10.7159095"><ele>455.66666666666663</ele><time>2026-03-28T14:03:28.558Z</time></trkpt><trkpt lat="45.6184032" lon="10.7157324"><ele>453.33333333333337</ele><time>2026-03-28T14:03:29.555Z</time></trkpt><trkpt lat="45.6185223" lon="10.715564"><ele>451.0</ele><time>2026-03-28T14:03:30.557Z</time></trkpt><trkpt lat="45.6186128" lon="10.7154195"><ele>452.0</ele><time>2026-03-28T14:03:31.544Z</time></trkpt><trkpt lat="45.6186847" lon="10.7152853"><ele>453.0</ele><time>2026-03-28T14:03:32.548Z</time></trkpt><trkpt lat="45.6187733" lon="10.7151576"><ele>454.0</ele><time>2026-03-28T14:03:33.556Z</time></trkpt><trkpt lat="45.6188761" lon="10.7150573"><ele>455.0</ele><time>2026-03-28T14:03:34.552Z</time></trkpt><trkpt lat="45.6189962" lon="10.7149924"><ele>455.0</ele><time>2026-03-28T14:03:35.553Z</time></trkpt><trkpt lat="45.6191409" lon="10.7149377"><ele>455.0</ele><time>2026-03-28T14:03:36.55Z</time></trkpt><trkpt lat="45.6193025" lon="10.7149124"><ele>455.0</ele><time>2026-03-28T14:03:37.544Z</time></trkpt><trkpt lat="45.619454" lon="10.7148846"><ele>457.66666666666663</ele><time>2026-03-28T14:03:38.551Z</time></trkpt><trkpt lat="45.6196142" lon="10.7148608"><ele>460.33333333333337</ele><time>2026-03-28T14:03:39.55Z</time></trkpt><trkpt lat="45.6197767" lon="10.714829"><ele>463.0</ele><time>2026-03-28T14:03:40.555Z</time></trkpt><trkpt lat="45.619923" lon="10.7147946"><ele>463.0</ele><time>2026-03-28T14:03:41.554Z</time></trkpt><trkpt lat="45.6200883" lon="10.7147788"><ele>463.0</ele><time>2026-03-28T14:03:42.555Z</time></trkpt><trkpt lat="45.6202413" lon="10.7147508"><ele>463.0</ele><time>2026-03-28T14:03:43.547Z</time></trkpt><trkpt lat="45.6204066" lon="10.714729"><ele>465.5</ele><time>2026-03-28T14:03:44.556Z</time></trkpt><trkpt lat="45.6205589" lon="10.7147396"><ele>468.0</ele><time>2026-03-28T14:03:45.558Z</time></trkpt><trkpt lat="45.6206974" lon="10.7147356"><ele>470.5</ele><time>2026-03-28T14:03:46.552Z</time></trkpt><trkpt lat="45.6208261" lon="10.7147292"><ele>473.0</ele><time>2026-03-28T14:03:47.553Z</time></trkpt><trkpt lat="45.6209322" lon="10.7147065"><ele>472.99999999999994</ele><time>2026-03-28T14:03:48.553Z</time></trkpt><trkpt lat="45.6210327" lon="10.7146799"><ele>473.0</ele><time>2026-03-28T14:03:49.549Z</time></trkpt><trkpt lat="45.6211173" lon="10.7146714"><ele>473.0</ele><time>2026-03-28T14:03:50.552Z</time></trkpt><trkpt lat="45.6211815" lon="10.7146591"><ele>473.0</ele><time>2026-03-28T14:03:51.548Z</time></trkpt><trkpt lat="45.6213026" lon="10.7146995"><ele>472.99999999999994</ele><time>2026-03-28T14:03:53.544Z</time></trkpt><trkpt lat="45.6213524" lon="10.7147578"><ele>473.0</ele><time>2026-03-28T14:03:54.571Z</time></trkpt><trkpt lat="45.6213761" lon="10.7148527"><ele>473.0</ele><time>2026-03-28T14:03:55.546Z</time></trkpt><trkpt lat="45.6213572" lon="10.7149501"><ele>472.99999999999994</ele><time>2026-03-28T14:03:56.553Z</time></trkpt><trkpt lat="45.6213021" lon="10.7150112"><ele>472.99999999999994</ele><time>2026-03-28T14:03:57.544Z</time></trkpt><trkpt lat="45.621228" lon="10.7150665"><ele>473.0</ele><time>2026-03-28T14:03:58.551Z</time></trkpt><trkpt lat="45.6211162" lon="10.7151286"><ele>473.0</ele><time>2026-03-28T14:03:59.531Z</time></trkpt><trkpt lat="45.6209696" lon="10.7151971"><ele>478.0</ele><time>2026-03-28T14:04:00.529Z</time></trkpt><trkpt lat="45.6208072" lon="10.715272"><ele>483.0</ele><time>2026-03-28T14:04:01.537Z</time></trkpt><trkpt lat="45.6206169" lon="10.7153774"><ele>488.0</ele><time>2026-03-28T14:04:02.541Z</time></trkpt><trkpt lat="45.620394" lon="10.7154675"><ele>484.66666666666663</ele><time>2026-03-28T14:04:03.537Z</time></trkpt><trkpt lat="45.6202354" lon="10.7155451"><ele>481.33333333333337</ele><time>2026-03-28T14:04:04.553Z</time></trkpt><trkpt lat="45.6200975" lon="10.7156145"><ele>478.0</ele><time>2026-03-28T14:04:05.538Z</time></trkpt><trkpt lat="45.6199633" lon="10.7156917"><ele>478.0</ele><time>2026-03-28T14:04:06.538Z</time></trkpt><trkpt lat="45.619847" lon="10.7157446"><ele>478.0</ele><time>2026-03-28T14:04:07.542Z</time></trkpt><trkpt lat="45.6197259" lon="10.715797"><ele>478.0</ele><time>2026-03-28T14:04:08.555Z</time></trkpt><trkpt lat="45.6196237" lon="10.7158501"><ele>478.0</ele><time>2026-03-28T14:04:09.556Z</time></trkpt><trkpt lat="45.6195344" lon="10.7159079"><ele>478.59999999999997</ele><time>2026-03-28T14:04:10.565Z</time></trkpt><trkpt lat="45.6194373" lon="10.7159508"><ele>479.19999999999993</ele><time>2026-03-28T14:04:11.555Z</time></trkpt><trkpt lat="45.6193535" lon="10.7160046"><ele>479.8</ele><time>2026-03-28T14:04:12.549Z</time></trkpt><trkpt lat="45.6192846" lon="10.7160539"><ele>480.4</ele><time>2026-03-28T14:04:13.55Z</time></trkpt><trkpt lat="45.6192371" lon="10.7161237"><ele>481.0</ele><time>2026-03-28T14:04:14.563Z</time></trkpt><trkpt lat="45.6192462" lon="10.716291"><ele>481.0</ele><time>2026-03-28T14:04:16.55Z</time></trkpt><trkpt lat="45.6193161" lon="10.7163504"><ele>481.0</ele><time>2026-03-28T14:04:17.549Z</time></trkpt><trkpt lat="45.6194036" lon="10.7163514"><ele>481.0</ele><time>2026-03-28T14:04:18.549Z</time></trkpt><trkpt lat="45.6195205" lon="10.7163212"><ele>481.0</ele><time>2026-03-28T14:04:19.549Z</time></trkpt><trkpt lat="45.6196521" lon="10.716286"><ele>481.0</ele><time>2026-03-28T14:04:20.544Z</time></trkpt><trkpt lat="45.6197997" lon="10.716247"><ele>485.0</ele><time>2026-03-28T14:04:21.544Z</time></trkpt><trkpt lat="45.6199574" lon="10.7162176"><ele>489.0</ele><time>2026-03-28T14:04:22.552Z</time></trkpt><trkpt lat="45.6201554" lon="10.7161852"><ele>493.0</ele><time>2026-03-28T14:04:23.548Z</time></trkpt><trkpt lat="45.6203237" lon="10.7161616"><ele>497.0</ele><time>2026-03-28T14:04:24.557Z</time></trkpt><trkpt lat="45.6204811" lon="10.7161198"><ele>501.0</ele><time>2026-03-28T14:04:25.553Z</time></trkpt><trkpt lat="45.6206595" lon="10.7161289"><ele>505.0</ele><time>2026-03-28T14:04:26.551Z</time></trkpt><trkpt lat="45.6208308" lon="10.7161246"><ele>505.0</ele><time>2026-03-28T14:04:27.548Z</time></trkpt><trkpt lat="45.620993" lon="10.7161152"><ele>505.0</ele><time>2026-03-28T14:04:28.553Z</time></trkpt><trkpt lat="45.6211977" lon="10.7161204"><ele>505.0</ele><time>2026-03-28T14:04:29.54Z</time></trkpt><trkpt lat="45.621368" lon="10.7160989"><ele>502.0</ele><time>2026-03-28T14:04:30.55Z</time></trkpt><trkpt lat="45.6215571" lon="10.7160747"><ele>499.0</ele><time>2026-03-28T14:04:31.543Z</time></trkpt><trkpt lat="45.6217126" lon="10.716036"><ele>496.0</ele><time>2026-03-28T14:04:32.546Z</time></trkpt><trkpt lat="45.6218662" lon="10.7160239"><ele>497.33333333333337</ele><time>2026-03-28T14:04:33.546Z</time></trkpt><trkpt lat="45.6220265" lon="10.7160036"><ele>498.66666666666663</ele><time>2026-03-28T14:04:34.558Z</time></trkpt><trkpt lat="45.6221997" lon="10.7160097"><ele>500.0</ele><time>2026-03-28T14:04:35.541Z</time></trkpt><trkpt lat="45.6223947" lon="10.7160369"><ele>507.3333333333333</ele><time>2026-03-28T14:04:36.543Z</time></trkpt><trkpt lat="45.6225707" lon="10.7160816"><ele>514.6666666666666</ele><time>2026-03-28T14:04:37.563Z</time></trkpt><trkpt lat="45.6227563" lon="10.7161179"><ele>522.0</ele><time>2026-03-28T14:04:39.626Z</time></trkpt><trkpt lat="45.6229217" lon="10.7161535"><ele>522.3333333333334</ele><time>2026-03-28T14:04:40.626Z</time></trkpt><trkpt lat="45.6230691" lon="10.7161851"><ele>522.6666666666667</ele><time>2026-03-28T14:04:41.626Z</time></trkpt><trkpt lat="45.6232239" lon="10.7162194"><ele>523.0</ele><time>2026-03-28T14:04:42.625Z</time></trkpt><trkpt lat="45.6233811" lon="10.7162513"><ele>523.0</ele><time>2026-03-28T14:04:43.62Z</time></trkpt><trkpt lat="45.6235411" lon="10.7162807"><ele>523.0</ele><time>2026-03-28T14:04:44.634Z</time></trkpt><trkpt lat="45.6237134" lon="10.7163167"><ele>523.0</ele><time>2026-03-28T14:04:45.624Z</time></trkpt><trkpt lat="45.6238705" lon="10.7163512"><ele>523.0</ele><time>2026-03-28T14:04:46.64Z</time></trkpt><trkpt lat="45.6240291" lon="10.7163902"><ele>523.0</ele><time>2026-03-28T14:04:47.621Z</time></trkpt><trkpt lat="45.624192" lon="10.7164421"><ele>523.0</ele><time>2026-03-28T14:04:48.619Z</time></trkpt><trkpt lat="45.6243576" lon="10.7165071"><ele>521.3333333333334</ele><time>2026-03-28T14:04:49.623Z</time></trkpt><trkpt lat="45.6245081" lon="10.7165633"><ele>519.6666666666666</ele><time>2026-03-28T14:04:50.624Z</time></trkpt><trkpt lat="45.6246703" lon="10.7166487"><ele>518.0</ele><time>2026-03-28T14:04:51.622Z</time></trkpt><trkpt lat="45.6248319" lon="10.7167357"><ele>518.0</ele><time>2026-03-28T14:04:52.624Z</time></trkpt><trkpt lat="45.6249936" lon="10.7168231"><ele>518.0</ele><time>2026-03-28T14:04:53.623Z</time></trkpt><trkpt lat="45.6251583" lon="10.7169051"><ele>518.0</ele><time>2026-03-28T14:04:54.632Z</time></trkpt><trkpt lat="45.6253287" lon="10.716983"><ele>523.6666666666666</ele><time>2026-03-28T14:04:55.626Z</time></trkpt><trkpt lat="45.6254941" lon="10.7170596"><ele>529.3333333333334</ele><time>2026-03-28T14:04:56.626Z</time></trkpt><trkpt lat="45.6256605" lon="10.7171382"><ele>535.0</ele><time>2026-03-28T14:04:57.628Z</time></trkpt><trkpt lat="45.6258296" lon="10.7172219"><ele>535.0</ele><time>2026-03-28T14:04:58.627Z</time></trkpt><trkpt lat="45.6259965" lon="10.7173095"><ele>535.0</ele><time>2026-03-28T14:04:59.625Z</time></trkpt><trkpt lat="45.626163" lon="10.7174024"><ele>535.0</ele><time>2026-03-28T14:05:00.624Z</time></trkpt><trkpt lat="45.62633" lon="10.7175022"><ele>533.3333333333334</ele><time>2026-03-28T14:05:01.628Z</time></trkpt><trkpt lat="45.626496" lon="10.7176084"><ele>531.6666666666666</ele><time>2026-03-28T14:05:02.624Z</time></trkpt><trkpt lat="45.6266595" lon="10.7177174"><ele>530.0</ele><time>2026-03-28T14:05:03.625Z</time></trkpt><trkpt lat="45.6268186" lon="10.7178311"><ele>533.6666666666666</ele><time>2026-03-28T14:05:04.64Z</time></trkpt><trkpt lat="45.6269639" lon="10.7179411"><ele>537.3333333333334</ele><time>2026-03-28T14:05:05.626Z</time></trkpt><trkpt lat="45.627103" lon="10.7180457"><ele>541.0</ele><time>2026-03-28T14:05:06.625Z</time></trkpt><trkpt lat="45.6272374" lon="10.7181455"><ele>541.0</ele><time>2026-03-28T14:05:07.623Z</time></trkpt><trkpt lat="45.6273531" lon="10.7182297"><ele>541.0</ele><time>2026-03-28T14:05:08.626Z</time></trkpt><trkpt lat="45.6274594" lon="10.7183133"><ele>541.0</ele><time>2026-03-28T14:05:09.62Z</time></trkpt><trkpt lat="45.6275725" lon="10.7184128"><ele>541.0</ele><time>2026-03-28T14:05:10.619Z</time></trkpt><trkpt lat="45.6276819" lon="10.7185355"><ele>543.0</ele><time>2026-03-28T14:05:11.618Z</time></trkpt><trkpt lat="45.6277897" lon="10.7186805"><ele>545.0</ele><time>2026-03-28T14:05:12.609Z</time></trkpt><trkpt lat="45.6279016" lon="10.7188447"><ele>547.0</ele><time>2026-03-28T14:05:13.613Z</time></trkpt><trkpt lat="45.6280087" lon="10.7190027"><ele>547.0</ele><time>2026-03-28T14:05:14.617Z</time></trkpt><trkpt lat="45.6281155" lon="10.7191642"><ele>547.0</ele><time>2026-03-28T14:05:15.606Z</time></trkpt><trkpt lat="45.6282161" lon="10.7193137"><ele>547.0</ele><time>2026-03-28T14:05:16.624Z</time></trkpt><trkpt lat="45.6283012" lon="10.7194491"><ele>547.0</ele><time>2026-03-28T14:05:17.622Z</time></trkpt><trkpt lat="45.6283816" lon="10.719568"><ele>550.4</ele><time>2026-03-28T14:05:18.628Z</time></trkpt><trkpt lat="45.6284525" lon="10.71967"><ele>553.8000000000001</ele><time>2026-03-28T14:05:19.623Z</time></trkpt><trkpt lat="45.6285082" lon="10.7197551"><ele>557.2</ele><time>2026-03-28T14:05:20.614Z</time></trkpt><trkpt lat="45.6285163" lon="10.7199531"><ele>560.6</ele><time>2026-03-28T14:05:22.528Z</time></trkpt><trkpt lat="45.6284161" lon="10.7199633"><ele>564.0</ele><time>2026-03-28T14:05:23.524Z</time></trkpt><trkpt lat="45.6283388" lon="10.7199104"><ele>564.0</ele><time>2026-03-28T14:05:24.524Z</time></trkpt><trkpt lat="45.6282363" lon="10.7197956"><ele>564.0</ele><time>2026-03-28T14:05:25.527Z</time></trkpt><trkpt lat="45.6281352" lon="10.719704"><ele>564.0</ele><time>2026-03-28T14:05:26.538Z</time></trkpt><trkpt lat="45.628025" lon="10.7196157"><ele>564.0</ele><time>2026-03-28T14:05:27.538Z</time></trkpt><trkpt lat="45.6279294" lon="10.7195158"><ele>564.0</ele><time>2026-03-28T14:05:28.542Z</time></trkpt><trkpt lat="45.6278243" lon="10.719418"><ele>564.0</ele><time>2026-03-28T14:05:29.541Z</time></trkpt><trkpt lat="45.6277329" lon="10.7193516"><ele>564.0</ele><time>2026-03-28T14:05:30.538Z</time></trkpt><trkpt lat="45.6276581" lon="10.7192987"><ele>564.0</ele><time>2026-03-28T14:05:31.537Z</time></trkpt><trkpt lat="45.6275656" lon="10.7193599"><ele>564.0</ele><time>2026-03-28T14:05:33.535Z</time></trkpt><trkpt lat="45.6275482" lon="10.7194527"><ele>564.0</ele><time>2026-03-28T14:05:34.521Z</time></trkpt><trkpt lat="45.6275774" lon="10.7195327"><ele>564.0</ele><time>2026-03-28T14:05:35.524Z</time></trkpt><trkpt lat="45.6276302" lon="10.7196172"><ele>564.0</ele><time>2026-03-28T14:05:36.519Z</time></trkpt><trkpt lat="45.6277161" lon="10.7196884"><ele>564.0</ele><time>2026-03-28T14:05:37.521Z</time></trkpt><trkpt lat="45.6278287" lon="10.7197692"><ele>564.0</ele><time>2026-03-28T14:05:38.52Z</time></trkpt><trkpt lat="45.6279417" lon="10.719882"><ele>564.0</ele><time>2026-03-28T14:05:39.517Z</time></trkpt><trkpt lat="45.6280696" lon="10.7200071"><ele>564.0</ele><time>2026-03-28T14:05:40.521Z</time></trkpt><trkpt lat="45.6282268" lon="10.7201393"><ele>564.0</ele><time>2026-03-28T14:05:41.523Z</time></trkpt><trkpt lat="45.6284235" lon="10.7203093"><ele>565.6666666666666</ele><time>2026-03-28T14:05:42.531Z</time></trkpt><trkpt lat="45.6286269" lon="10.7204488"><ele>567.3333333333333</ele><time>2026-03-28T14:05:43.538Z</time></trkpt><trkpt lat="45.6287874" lon="10.7205746"><ele>569.0</ele><time>2026-03-28T14:05:44.536Z</time></trkpt><trkpt lat="45.628922" lon="10.7207133"><ele>569.0</ele><time>2026-03-28T14:05:45.537Z</time></trkpt><trkpt lat="45.6290524" lon="10.7208277"><ele>569.0</ele><time>2026-03-28T14:05:46.537Z</time></trkpt><trkpt lat="45.6291657" lon="10.720912"><ele>569.0</ele><time>2026-03-28T14:05:47.544Z</time></trkpt><trkpt lat="45.6292926" lon="10.721028"><ele>569.0</ele><time>2026-03-28T14:05:48.54Z</time></trkpt><trkpt lat="45.6294185" lon="10.7211471"><ele>570.25</ele><time>2026-03-28T14:05:49.539Z</time></trkpt><trkpt lat="45.6295384" lon="10.7212478"><ele>571.5</ele><time>2026-03-28T14:05:50.536Z</time></trkpt><trkpt lat="45.6296032" lon="10.7213708"><ele>572.75</ele><time>2026-03-28T14:05:51.533Z</time></trkpt><trkpt lat="45.6296464" lon="10.7215018"><ele>574.0</ele><time>2026-03-28T14:05:52.533Z</time></trkpt><trkpt lat="45.6297601" lon="10.7216612"><ele>574.0</ele><time>2026-03-28T14:05:53.533Z</time></trkpt><trkpt lat="45.6298296" lon="10.7217958"><ele>574.0</ele><time>2026-03-28T14:05:54.531Z</time></trkpt><trkpt lat="45.62991" lon="10.7218788"><ele>574.0</ele><time>2026-03-28T14:05:55.54Z</time></trkpt><trkpt lat="45.6300338" lon="10.7219399"><ele>574.0</ele><time>2026-03-28T14:05:56.546Z</time></trkpt><trkpt lat="45.6301422" lon="10.7219996"><ele>575.0</ele><time>2026-03-28T14:05:57.549Z</time></trkpt><trkpt lat="45.6302495" lon="10.7220598"><ele>576.0</ele><time>2026-03-28T14:05:58.548Z</time></trkpt><trkpt lat="45.6303391" lon="10.7221357"><ele>577.0</ele><time>2026-03-28T14:05:59.539Z</time></trkpt><trkpt lat="45.6304146" lon="10.7222189"><ele>578.0</ele><time>2026-03-28T14:06:00.537Z</time></trkpt><trkpt lat="45.630481" lon="10.722322"><ele>579.0</ele><time>2026-03-28T14:06:01.534Z</time></trkpt><trkpt lat="45.6305346" lon="10.7224296"><ele>579.0</ele><time>2026-03-28T14:06:02.533Z</time></trkpt><trkpt lat="45.6305792" lon="10.7225324"><ele>579.0</ele><time>2026-03-28T14:06:03.539Z</time></trkpt><trkpt lat="45.6306287" lon="10.7226286"><ele>579.0</ele><time>2026-03-28T14:06:04.536Z</time></trkpt><trkpt lat="45.6306968" lon="10.7227031"><ele>579.0</ele><time>2026-03-28T14:06:05.539Z</time></trkpt><trkpt lat="45.6307766" lon="10.7227644"><ele>579.0</ele><time>2026-03-28T14:06:06.54Z</time></trkpt><trkpt lat="45.63087" lon="10.7227964"><ele>579.0</ele><time>2026-03-28T14:06:07.545Z</time></trkpt><trkpt lat="45.6309474" lon="10.7228468"><ele>580.4</ele><time>2026-03-28T14:06:08.543Z</time></trkpt><trkpt lat="45.6309991" lon="10.7229196"><ele>581.8</ele><time>2026-03-28T14:06:09.546Z</time></trkpt><trkpt lat="45.6310503" lon="10.7230266"><ele>583.2</ele><time>2026-03-28T14:06:10.545Z</time></trkpt><trkpt lat="45.6311145" lon="10.7231365"><ele>584.6</ele><time>2026-03-28T14:06:11.539Z</time></trkpt><trkpt lat="45.6311502" lon="10.7232709"><ele>586.0</ele><time>2026-03-28T14:06:12.531Z</time></trkpt><trkpt lat="45.6311512" lon="10.7234251"><ele>583.0</ele><time>2026-03-28T14:06:13.533Z</time></trkpt><trkpt lat="45.6311513" lon="10.7236024"><ele>580.0</ele><time>2026-03-28T14:06:14.535Z</time></trkpt><trkpt lat="45.631149" lon="10.7237926"><ele>577.0</ele><time>2026-03-28T14:06:15.538Z</time></trkpt><trkpt lat="45.6311475" lon="10.7239714"><ele>574.0</ele><time>2026-03-28T14:06:16.545Z</time></trkpt><trkpt lat="45.6311661" lon="10.724142"><ele>574.0</ele><time>2026-03-28T14:06:17.543Z</time></trkpt><trkpt lat="45.6311977" lon="10.7243162"><ele>574.0</ele><time>2026-03-28T14:06:18.55Z</time></trkpt><trkpt lat="45.6312446" lon="10.7244769"><ele>574.0</ele><time>2026-03-28T14:06:19.544Z</time></trkpt><trkpt lat="45.6312973" lon="10.7246172"><ele>574.0</ele><time>2026-03-28T14:06:20.542Z</time></trkpt><trkpt lat="45.6313469" lon="10.7247529"><ele>574.8</ele><time>2026-03-28T14:06:21.535Z</time></trkpt><trkpt lat="45.6313965" lon="10.7248658"><ele>575.5999999999999</ele><time>2026-03-28T14:06:22.536Z</time></trkpt><trkpt lat="45.6314346" lon="10.7249795"><ele>576.4</ele><time>2026-03-28T14:06:23.536Z</time></trkpt><trkpt lat="45.6314675" lon="10.725104"><ele>577.1999999999999</ele><time>2026-03-28T14:06:24.539Z</time></trkpt><trkpt lat="45.6314957" lon="10.7252193"><ele>578.0</ele><time>2026-03-28T14:06:25.542Z</time></trkpt><trkpt lat="45.6315237" lon="10.7253505"><ele>579.1999999999999</ele><time>2026-03-28T14:06:26.539Z</time></trkpt><trkpt lat="45.6315479" lon="10.7254826"><ele>580.4</ele><time>2026-03-28T14:06:27.541Z</time></trkpt><trkpt lat="45.6315844" lon="10.7256078"><ele>581.5999999999999</ele><time>2026-03-28T14:06:28.539Z</time></trkpt><trkpt lat="45.6316127" lon="10.7257361"><ele>582.8</ele><time>2026-03-28T14:06:29.54Z</time></trkpt><trkpt lat="45.6316454" lon="10.7258678"><ele>584.0</ele><time>2026-03-28T14:06:30.544Z</time></trkpt><trkpt lat="45.6316685" lon="10.7260108"><ele>584.0</ele><time>2026-03-28T14:06:31.553Z</time></trkpt><trkpt lat="45.6317037" lon="10.7261418"><ele>584.0</ele><time>2026-03-28T14:06:32.543Z</time></trkpt><trkpt lat="45.6317448" lon="10.7262674"><ele>584.0</ele><time>2026-03-28T14:06:33.546Z</time></trkpt><trkpt lat="45.6317922" lon="10.7263858"><ele>584.0</ele><time>2026-03-28T14:06:34.555Z</time></trkpt><trkpt lat="45.6318364" lon="10.7264844"><ele>584.0</ele><time>2026-03-28T14:06:35.548Z</time></trkpt><trkpt lat="45.631877" lon="10.7265955"><ele>584.0</ele><time>2026-03-28T14:06:36.545Z</time></trkpt><trkpt lat="45.6319247" lon="10.7267024"><ele>584.0</ele><time>2026-03-28T14:06:37.544Z</time></trkpt><trkpt lat="45.6319699" lon="10.7267971"><ele>584.0</ele><time>2026-03-28T14:06:38.546Z</time></trkpt><trkpt lat="45.6320143" lon="10.7268763"><ele>584.0</ele><time>2026-03-28T14:06:39.544Z</time></trkpt><trkpt lat="45.6320621" lon="10.7269745"><ele>584.0</ele><time>2026-03-28T14:06:40.547Z</time></trkpt><trkpt lat="45.6321107" lon="10.7270568"><ele>584.0</ele><time>2026-03-28T14:06:41.543Z</time></trkpt><trkpt lat="45.63216" lon="10.7271373"><ele>584.4</ele><time>2026-03-28T14:06:42.541Z</time></trkpt><trkpt lat="45.6322317" lon="10.7272756"><ele>584.8</ele><time>2026-03-28T14:06:44.542Z</time></trkpt><trkpt lat="45.6322878" lon="10.7274204"><ele>585.2</ele><time>2026-03-28T14:06:46.545Z</time></trkpt><trkpt lat="45.6323479" lon="10.7275793"><ele>585.6</ele><time>2026-03-28T14:06:48.543Z</time></trkpt><trkpt lat="45.6323904" lon="10.7276801"><ele>586.0</ele><time>2026-03-28T14:06:49.575Z</time></trkpt><trkpt lat="45.6324365" lon="10.7277801"><ele>586.3333333333334</ele><time>2026-03-28T14:06:50.559Z</time></trkpt><trkpt lat="45.6325041" lon="10.7279319"><ele>586.6666666666667</ele><time>2026-03-28T14:06:52.562Z</time></trkpt><trkpt lat="45.6325536" lon="10.7280113"><ele>587.0</ele><time>2026-03-28T14:06:54.566Z</time></trkpt><trkpt lat="45.6326412" lon="10.7279317"><ele>587.3333333333334</ele><time>2026-03-28T14:06:58.57Z</time></trkpt><trkpt lat="45.6326949" lon="10.7278825"><ele>587.6666666666666</ele><time>2026-03-28T14:06:59.56Z</time></trkpt><trkpt lat="45.6327593" lon="10.7278335"><ele>588.0</ele><time>2026-03-28T14:07:00.548Z</time></trkpt><trkpt lat="45.6328314" lon="10.7277834"><ele>587.8333333333334</ele><time>2026-03-28T14:07:01.551Z</time></trkpt><trkpt lat="45.6329054" lon="10.7277233"><ele>587.6666666666666</ele><time>2026-03-28T14:07:02.546Z</time></trkpt><trkpt lat="45.6329875" lon="10.7276635"><ele>587.5</ele><time>2026-03-28T14:07:03.559Z</time></trkpt><trkpt lat="45.6330565" lon="10.72761"><ele>587.3333333333333</ele><time>2026-03-28T14:07:04.562Z</time></trkpt><trkpt lat="45.63312" lon="10.7275446"><ele>587.1666666666666</ele><time>2026-03-28T14:07:05.562Z</time></trkpt><trkpt lat="45.6331776" lon="10.7274903"><ele>587.0</ele><time>2026-03-28T14:07:06.553Z</time></trkpt><trkpt lat="45.6332422" lon="10.7274303"><ele>587.0</ele><time>2026-03-28T14:07:07.556Z</time></trkpt><trkpt lat="45.633304" lon="10.727389"><ele>587.0</ele><time>2026-03-28T14:07:08.55Z</time></trkpt><trkpt lat="45.6333606" lon="10.7273446"><ele>587.0</ele><time>2026-03-28T14:07:09.554Z</time></trkpt><trkpt lat="45.6334589" lon="10.7272744"><ele>587.0</ele><time>2026-03-28T14:07:11.553Z</time></trkpt><trkpt lat="45.6335688" lon="10.7272535"><ele>587.0</ele><time>2026-03-28T14:07:13.556Z</time></trkpt><trkpt lat="45.6336655" lon="10.7273128"><ele>585.6666666666666</ele><time>2026-03-28T14:07:15.544Z</time></trkpt><trkpt lat="45.6337092" lon="10.7273964"><ele>584.3333333333333</ele><time>2026-03-28T14:07:16.547Z</time></trkpt><trkpt lat="45.6337508" lon="10.7274912"><ele>583.0</ele><time>2026-03-28T14:07:17.551Z</time></trkpt><trkpt lat="45.6337883" lon="10.7275811"><ele>581.6666666666666</ele><time>2026-03-28T14:07:18.545Z</time></trkpt><trkpt lat="45.6338308" lon="10.7276699"><ele>580.3333333333334</ele><time>2026-03-28T14:07:19.55Z</time></trkpt><trkpt lat="45.63389" lon="10.7277611"><ele>579.0</ele><time>2026-03-28T14:07:20.556Z</time></trkpt><trkpt lat="45.6339646" lon="10.7278263"><ele>579.0</ele><time>2026-03-28T14:07:21.552Z</time></trkpt><trkpt lat="45.6340436" lon="10.7278621"><ele>579.0</ele><time>2026-03-28T14:07:22.552Z</time></trkpt><trkpt lat="45.634126" lon="10.7278757"><ele>579.0</ele><time>2026-03-28T14:07:23.558Z</time></trkpt><trkpt lat="45.6342139" lon="10.727873"><ele>579.0</ele><time>2026-03-28T14:07:24.556Z</time></trkpt><trkpt lat="45.6343063" lon="10.7278303"><ele>579.0</ele><time>2026-03-28T14:07:25.555Z</time></trkpt><trkpt lat="45.6343824" lon="10.7277655"><ele>579.0</ele><time>2026-03-28T14:07:26.56Z</time></trkpt><trkpt lat="45.6344527" lon="10.727685"><ele>574.4</ele><time>2026-03-28T14:07:27.556Z</time></trkpt><trkpt lat="45.6345144" lon="10.7275861"><ele>569.8</ele><time>2026-03-28T14:07:28.555Z</time></trkpt><trkpt lat="45.6345565" lon="10.7274633"><ele>565.2</ele><time>2026-03-28T14:07:29.553Z</time></trkpt><trkpt lat="45.6346095" lon="10.7273481"><ele>560.6</ele><time>2026-03-28T14:07:30.551Z</time></trkpt><trkpt lat="45.6346709" lon="10.7272579"><ele>556.0</ele><time>2026-03-28T14:07:31.555Z</time></trkpt><trkpt lat="45.6347342" lon="10.7271763"><ele>556.0</ele><time>2026-03-28T14:07:32.552Z</time></trkpt><trkpt lat="45.6347973" lon="10.7271033"><ele>556.0</ele><time>2026-03-28T14:07:33.549Z</time></trkpt><trkpt lat="45.6348637" lon="10.7270261"><ele>556.0</ele><time>2026-03-28T14:07:34.546Z</time></trkpt><trkpt lat="45.634935" lon="10.7269722"><ele>556.0</ele><time>2026-03-28T14:07:35.541Z</time></trkpt><trkpt lat="45.6350024" lon="10.7269283"><ele>556.0</ele><time>2026-03-28T14:07:36.546Z</time></trkpt><trkpt lat="45.6351065" lon="10.7268703"><ele>556.0</ele><time>2026-03-28T14:07:38.546Z</time></trkpt><trkpt lat="45.6352289" lon="10.7268104"><ele>551.25</ele><time>2026-03-28T14:07:40.547Z</time></trkpt><trkpt lat="45.6353202" lon="10.7267368"><ele>546.5</ele><time>2026-03-28T14:07:41.545Z</time></trkpt><trkpt lat="45.6354233" lon="10.726627"><ele>541.75</ele><time>2026-03-28T14:07:42.548Z</time></trkpt><trkpt lat="45.6355071" lon="10.7265211"><ele>537.0</ele><time>2026-03-28T14:07:43.551Z</time></trkpt><trkpt lat="45.635586" lon="10.7264139"><ele>537.0</ele><time>2026-03-28T14:07:44.554Z</time></trkpt><trkpt lat="45.6356576" lon="10.7263107"><ele>537.0</ele><time>2026-03-28T14:07:45.55Z</time></trkpt><trkpt lat="45.6357172" lon="10.7262152"><ele>537.0</ele><time>2026-03-28T14:07:46.542Z</time></trkpt><trkpt lat="45.6357649" lon="10.7261265"><ele>537.0</ele><time>2026-03-28T14:07:47.548Z</time></trkpt><trkpt lat="45.6358226" lon="10.7260695"><ele>537.0</ele><time>2026-03-28T14:07:48.553Z</time></trkpt><trkpt lat="45.6359219" lon="10.7259754"><ele>535.8000000000001</ele><time>2026-03-28T14:07:50.56Z</time></trkpt><trkpt lat="45.635984" lon="10.7258464"><ele>534.6</ele><time>2026-03-28T14:07:52.557Z</time></trkpt><trkpt lat="45.635976" lon="10.7256781"><ele>533.4000000000001</ele><time>2026-03-28T14:07:54.56Z</time></trkpt><trkpt lat="45.6359586" lon="10.7255794"><ele>532.2</ele><time>2026-03-28T14:07:55.556Z</time></trkpt><trkpt lat="45.6359306" lon="10.7254613"><ele>531.0</ele><time>2026-03-28T14:07:56.553Z</time></trkpt><trkpt lat="45.6358889" lon="10.7253367"><ele>528.25</ele><time>2026-03-28T14:07:57.558Z</time></trkpt><trkpt lat="45.6358192" lon="10.725211"><ele>525.5</ele><time>2026-03-28T14:07:58.556Z</time></trkpt><trkpt lat="45.6357502" lon="10.7250788"><ele>522.75</ele><time>2026-03-28T14:07:59.556Z</time></trkpt><trkpt lat="45.6356703" lon="10.7249455"><ele>520.0</ele><time>2026-03-28T14:08:00.556Z</time></trkpt><trkpt lat="45.6355881" lon="10.7248038"><ele>520.0</ele><time>2026-03-28T14:08:01.554Z</time></trkpt><trkpt lat="45.6355143" lon="10.7246539"><ele>520.0</ele><time>2026-03-28T14:08:02.553Z</time></trkpt><trkpt lat="45.6354287" lon="10.7245439"><ele>520.0</ele><time>2026-03-28T14:08:03.548Z</time></trkpt><trkpt lat="45.6353328" lon="10.7244485"><ele>520.0</ele><time>2026-03-28T14:08:04.553Z</time></trkpt><trkpt lat="45.6352433" lon="10.7243718"><ele>518.6</ele><time>2026-03-28T14:08:05.556Z</time></trkpt><trkpt lat="45.6351365" lon="10.7242965"><ele>517.2</ele><time>2026-03-28T14:08:06.557Z</time></trkpt><trkpt lat="45.6350458" lon="10.7242363"><ele>515.8</ele><time>2026-03-28T14:08:07.557Z</time></trkpt><trkpt lat="45.6349696" lon="10.7241916"><ele>514.4</ele><time>2026-03-28T14:08:08.556Z</time></trkpt><trkpt lat="45.6348966" lon="10.7241399"><ele>513.0</ele><time>2026-03-28T14:08:09.558Z</time></trkpt><trkpt lat="45.6348401" lon="10.724085"><ele>513.0</ele><time>2026-03-28T14:08:10.553Z</time></trkpt><trkpt lat="45.6347953" lon="10.7240135"><ele>513.0</ele><time>2026-03-28T14:08:11.555Z</time></trkpt><trkpt lat="45.6347666" lon="10.7239236"><ele>513.0</ele><time>2026-03-28T14:08:12.547Z</time></trkpt><trkpt lat="45.6347611" lon="10.7238132"><ele>513.0</ele><time>2026-03-28T14:08:13.546Z</time></trkpt><trkpt lat="45.6347574" lon="10.723661"><ele>513.0</ele><time>2026-03-28T14:08:14.542Z</time></trkpt><trkpt lat="45.6347458" lon="10.7234834"><ele>513.0</ele><time>2026-03-28T14:08:15.549Z</time></trkpt><trkpt lat="45.6347162" lon="10.7232919"><ele>509.79999999999995</ele><time>2026-03-28T14:08:16.542Z</time></trkpt><trkpt lat="45.63469" lon="10.7231291"><ele>506.59999999999997</ele><time>2026-03-28T14:08:17.538Z</time></trkpt><trkpt lat="45.6346748" lon="10.7229849"><ele>503.40000000000003</ele><time>2026-03-28T14:08:18.555Z</time></trkpt><trkpt lat="45.6346533" lon="10.7228446"><ele>500.20000000000005</ele><time>2026-03-28T14:08:19.554Z</time></trkpt><trkpt lat="45.6346539" lon="10.7227134"><ele>497.0</ele><time>2026-03-28T14:08:20.548Z</time></trkpt><trkpt lat="45.634666" lon="10.7225724"><ele>495.20000000000005</ele><time>2026-03-28T14:08:21.551Z</time></trkpt><trkpt lat="45.6346704" lon="10.7224357"><ele>493.40000000000003</ele><time>2026-03-28T14:08:22.558Z</time></trkpt><trkpt lat="45.6346708" lon="10.7222741"><ele>491.59999999999997</ele><time>2026-03-28T14:08:23.558Z</time></trkpt><trkpt lat="45.6346765" lon="10.7221018"><ele>489.79999999999995</ele><time>2026-03-28T14:08:24.548Z</time></trkpt><trkpt lat="45.6346805" lon="10.7219609"><ele>488.0</ele><time>2026-03-28T14:08:25.55Z</time></trkpt><trkpt lat="45.6346892" lon="10.7218444"><ele>486.99999999999994</ele><time>2026-03-28T14:08:26.549Z</time></trkpt><trkpt lat="45.6346912" lon="10.7217402"><ele>486.0</ele><time>2026-03-28T14:08:27.555Z</time></trkpt><trkpt lat="45.6346979" lon="10.7216486"><ele>485.0</ele><time>2026-03-28T14:08:28.552Z</time></trkpt><trkpt lat="45.6347311" lon="10.7215175"><ele>484.0</ele><time>2026-03-28T14:08:30.547Z</time></trkpt><trkpt lat="45.6348133" lon="10.721428"><ele>482.99999999999994</ele><time>2026-03-28T14:08:32.541Z</time></trkpt><trkpt lat="45.6348847" lon="10.7213419"><ele>482.0</ele><time>2026-03-28T14:08:33.546Z</time></trkpt><trkpt lat="45.6349648" lon="10.7212593"><ele>481.99999999999994</ele><time>2026-03-28T14:08:34.548Z</time></trkpt><trkpt lat="45.6350398" lon="10.7211897"><ele>482.0</ele><time>2026-03-28T14:08:35.548Z</time></trkpt><trkpt lat="45.6351009" lon="10.7211018"><ele>482.0</ele><time>2026-03-28T14:08:36.545Z</time></trkpt><trkpt lat="45.6351426" lon="10.721029"><ele>482.0</ele><time>2026-03-28T14:08:37.547Z</time></trkpt><trkpt lat="45.6351657" lon="10.7209431"><ele>481.99999999999994</ele><time>2026-03-28T14:08:38.555Z</time></trkpt><trkpt lat="45.6351765" lon="10.7208216"><ele>482.0</ele><time>2026-03-28T14:08:40.555Z</time></trkpt><trkpt lat="45.6352404" lon="10.7207875"><ele>482.0</ele><time>2026-03-28T14:08:48.567Z</time></trkpt><trkpt lat="45.635303" lon="10.7208137"><ele>482.00000000000006</ele><time>2026-03-28T14:08:50.565Z</time></trkpt><trkpt lat="45.6352298" lon="10.7208875"><ele>482.00000000000006</ele><time>2026-03-28T14:09:26.561Z</time></trkpt><trkpt lat="45.6351564" lon="10.7210603"><ele>482.0</ele><time>2026-03-28T14:09:28.555Z</time></trkpt><trkpt lat="45.6351189" lon="10.7211747"><ele>482.0</ele><time>2026-03-28T14:09:29.549Z</time></trkpt><trkpt lat="45.6350672" lon="10.7212911"><ele>481.99999999999994</ele><time>2026-03-28T14:09:30.548Z</time></trkpt><trkpt lat="45.635011" lon="10.7213935"><ele>482.0</ele><time>2026-03-28T14:09:31.55Z</time></trkpt><trkpt lat="45.634941" lon="10.7214848"><ele>482.0</ele><time>2026-03-28T14:09:32.548Z</time></trkpt><trkpt lat="45.6348757" lon="10.7215367"><ele>482.0</ele><time>2026-03-28T14:09:33.538Z</time></trkpt><trkpt lat="45.6347915" lon="10.72159"><ele>481.99999999999994</ele><time>2026-03-28T14:09:35.547Z</time></trkpt><trkpt lat="45.6347265" lon="10.7216104"><ele>482.0</ele><time>2026-03-28T14:09:50.557Z</time></trkpt><trkpt lat="45.6346572" lon="10.7216497"><ele>481.99999999999994</ele><time>2026-03-28T14:10:33.551Z</time></trkpt><trkpt lat="45.6346056" lon="10.7215759"><ele>482.0</ele><time>2026-03-28T14:10:35.545Z</time></trkpt><trkpt lat="45.6345613" lon="10.7214818"><ele>482.0</ele><time>2026-03-28T14:10:36.543Z</time></trkpt><trkpt lat="45.6345024" lon="10.7213851"><ele>482.0</ele><time>2026-03-28T14:10:37.548Z</time></trkpt><trkpt lat="45.6344353" lon="10.7213138"><ele>481.99999999999994</ele><time>2026-03-28T14:10:38.533Z</time></trkpt><trkpt lat="45.6343785" lon="10.7212406"><ele>482.0</ele><time>2026-03-28T14:10:40.542Z</time></trkpt><trkpt lat="45.634414" lon="10.7211335"><ele>482.8</ele><time>2026-03-28T14:10:50.551Z</time></trkpt><trkpt lat="45.6344297" lon="10.7210339"><ele>483.6</ele><time>2026-03-28T14:10:52.553Z</time></trkpt><trkpt lat="45.6344743" lon="10.7209019"><ele>484.40000000000003</ele><time>2026-03-28T14:10:54.548Z</time></trkpt><trkpt lat="45.6345094" lon="10.7207651"><ele>485.20000000000005</ele><time>2026-03-28T14:10:56.549Z</time></trkpt><trkpt lat="45.6345011" lon="10.7206494"><ele>486.0</ele><time>2026-03-28T14:10:58.55Z</time></trkpt><trkpt lat="45.6344739" lon="10.7205156"><ele>486.0</ele><time>2026-03-28T14:11:00.552Z</time></trkpt><trkpt lat="45.6344325" lon="10.7203991"><ele>486.0</ele><time>2026-03-28T14:11:02.532Z</time></trkpt><trkpt lat="45.634374" lon="10.7202994"><ele>486.0</ele><time>2026-03-28T14:11:04.527Z</time></trkpt><trkpt lat="45.6343378" lon="10.7201601"><ele>486.0</ele><time>2026-03-28T14:11:06.526Z</time></trkpt><trkpt lat="45.634304" lon="10.7200403"><ele>486.0</ele><time>2026-03-28T14:11:08.527Z</time></trkpt><trkpt lat="45.6342472" lon="10.7199555"><ele>484.0</ele><time>2026-03-28T14:11:10.531Z</time></trkpt><trkpt lat="45.6342362" lon="10.7198553"><ele>482.0</ele><time>2026-03-28T14:11:13.544Z</time></trkpt><trkpt lat="45.6342102" lon="10.7197683"><ele>480.0</ele><time>2026-03-28T14:17:52.549Z</time></trkpt><trkpt lat="45.634213" lon="10.7196671"><ele>478.0</ele><time>2026-03-28T14:17:58.551Z</time></trkpt><trkpt lat="45.6341848" lon="10.7195814"><ele>476.0</ele><time>2026-03-28T14:18:03.537Z</time></trkpt><trkpt lat="45.6341515" lon="10.7194995"><ele>474.0</ele><time>2026-03-28T14:18:07.549Z</time></trkpt><trkpt lat="45.6340965" lon="10.7194235"><ele>472.0</ele><time>2026-03-28T14:18:11.537Z</time></trkpt><trkpt lat="45.6340703" lon="10.7193329"><ele>469.1666666666667</ele><time>2026-03-28T14:18:15.54Z</time></trkpt><trkpt lat="45.6340232" lon="10.7192449"><ele>466.33333333333337</ele><time>2026-03-28T14:18:18.54Z</time></trkpt><trkpt lat="45.6339926" lon="10.7191624"><ele>463.5</ele><time>2026-03-28T14:18:23.539Z</time></trkpt><trkpt lat="45.6339444" lon="10.7190817"><ele>460.66666666666663</ele><time>2026-03-28T14:18:27.553Z</time></trkpt><trkpt lat="45.6339047" lon="10.7189806"><ele>457.8333333333333</ele><time>2026-03-28T14:18:30.543Z</time></trkpt><trkpt lat="45.6338807" lon="10.7188791"><ele>455.0</ele><time>2026-03-28T14:18:32.537Z</time></trkpt><trkpt lat="45.6338788" lon="10.7187189"><ele>455.0</ele><time>2026-03-28T14:18:34.532Z</time></trkpt><trkpt lat="45.6338761" lon="10.7185716"><ele>455.0</ele><time>2026-03-28T14:18:36.539Z</time></trkpt><trkpt lat="45.633876" lon="10.7184257"><ele>455.0</ele><time>2026-03-28T14:18:38.541Z</time></trkpt><trkpt lat="45.63384" lon="10.7182667"><ele>455.0</ele><time>2026-03-28T14:18:40.533Z</time></trkpt><trkpt lat="45.6337946" lon="10.7181869"><ele>455.0</ele><time>2026-03-28T14:18:41.539Z</time></trkpt><trkpt lat="45.6337195" lon="10.7180533"><ele>455.16666666666663</ele><time>2026-03-28T14:18:43.533Z</time></trkpt><trkpt lat="45.6336539" lon="10.7179423"><ele>455.3333333333333</ele><time>2026-03-28T14:18:45.544Z</time></trkpt><trkpt lat="45.6336032" lon="10.7178461"><ele>455.5</ele><time>2026-03-28T14:18:47.535Z</time></trkpt><trkpt lat="45.633538" lon="10.7177823"><ele>455.66666666666663</ele><time>2026-03-28T14:18:50.539Z</time></trkpt><trkpt lat="45.6334881" lon="10.7177245"><ele>455.8333333333333</ele><time>2026-03-28T14:18:59.538Z</time></trkpt><trkpt lat="45.6334425" lon="10.7176329"><ele>456.0</ele><time>2026-03-28T14:19:01.53Z</time></trkpt><trkpt lat="45.6333646" lon="10.7175537"><ele>452.0</ele><time>2026-03-28T14:19:02.532Z</time></trkpt><trkpt lat="45.6332604" lon="10.7174473"><ele>448.0</ele><time>2026-03-28T14:19:03.527Z</time></trkpt><trkpt lat="45.6331641" lon="10.7173387"><ele>444.0</ele><time>2026-03-28T14:19:04.533Z</time></trkpt><trkpt lat="45.633068" lon="10.7172293"><ele>440.0</ele><time>2026-03-28T14:19:05.529Z</time></trkpt><trkpt lat="45.6329601" lon="10.717136"><ele>440.0</ele><time>2026-03-28T14:19:06.529Z</time></trkpt><trkpt lat="45.6328724" lon="10.7170429"><ele>440.0</ele><time>2026-03-28T14:19:07.528Z</time></trkpt><trkpt lat="45.6327806" lon="10.7169532"><ele>440.0</ele><time>2026-03-28T14:19:08.53Z</time></trkpt><trkpt lat="45.6326962" lon="10.7168847"><ele>440.0</ele><time>2026-03-28T14:19:09.527Z</time></trkpt><trkpt lat="45.632617" lon="10.7168372"><ele>440.0</ele><time>2026-03-28T14:19:10.532Z</time></trkpt><trkpt lat="45.6325339" lon="10.7168068"><ele>438.99999999999994</ele><time>2026-03-28T14:19:11.533Z</time></trkpt><trkpt lat="45.6324467" lon="10.7167822"><ele>438.0</ele><time>2026-03-28T14:19:12.538Z</time></trkpt><trkpt lat="45.6323705" lon="10.7167603"><ele>437.0</ele><time>2026-03-28T14:19:13.522Z</time></trkpt><trkpt lat="45.6322909" lon="10.7167407"><ele>436.0</ele><time>2026-03-28T14:19:14.531Z</time></trkpt><trkpt lat="45.6322105" lon="10.7167429"><ele>434.99999999999994</ele><time>2026-03-28T14:19:15.538Z</time></trkpt><trkpt lat="45.6321319" lon="10.7167588"><ele>434.0</ele><time>2026-03-28T14:19:16.532Z</time></trkpt><trkpt lat="45.6320528" lon="10.7167458"><ele>433.99999999999994</ele><time>2026-03-28T14:19:17.535Z</time></trkpt><trkpt lat="45.6319875" lon="10.7167165"><ele>434.0</ele><time>2026-03-28T14:19:18.54Z</time></trkpt><trkpt lat="45.6319218" lon="10.716675"><ele>434.0</ele><time>2026-03-28T14:19:19.541Z</time></trkpt><trkpt lat="45.6318235" lon="10.7166003"><ele>434.0</ele><time>2026-03-28T14:19:21.532Z</time></trkpt><trkpt lat="45.6317488" lon="10.7165536"><ele>433.99999999999994</ele><time>2026-03-28T14:19:23.54Z</time></trkpt><trkpt lat="45.6316698" lon="10.7165692"><ele>434.0</ele><time>2026-03-28T14:19:26.539Z</time></trkpt><trkpt lat="45.6315748" lon="10.7165985"><ele>435.99999999999994</ele><time>2026-03-28T14:19:36.545Z</time></trkpt><trkpt lat="45.6314981" lon="10.7165687"><ele>438.0</ele><time>2026-03-28T14:19:38.543Z</time></trkpt><trkpt lat="45.6314351" lon="10.7165803"><ele>440.0</ele><time>2026-03-28T14:19:46.545Z</time></trkpt><trkpt lat="45.6313991" lon="10.7165042"><ele>442.0</ele><time>2026-03-28T14:19:59.546Z</time></trkpt><trkpt lat="45.6313651" lon="10.7163824"><ele>443.99999999999994</ele><time>2026-03-28T14:20:01.535Z</time></trkpt><trkpt lat="45.6312756" lon="10.7162757"><ele>446.0</ele><time>2026-03-28T14:20:03.542Z</time></trkpt><trkpt lat="45.6312098" lon="10.7162341"><ele>444.6</ele><time>2026-03-28T14:20:04.546Z</time></trkpt><trkpt lat="45.6311219" lon="10.7161567"><ele>443.20000000000005</ele><time>2026-03-28T14:20:06.548Z</time></trkpt><trkpt lat="45.6310456" lon="10.7160704"><ele>441.79999999999995</ele><time>2026-03-28T14:20:08.547Z</time></trkpt><trkpt lat="45.6309537" lon="10.7159816"><ele>440.4</ele><time>2026-03-28T14:20:10.549Z</time></trkpt><trkpt lat="45.6308953" lon="10.7159332"><ele>439.0</ele><time>2026-03-28T14:20:11.541Z</time></trkpt><trkpt lat="45.6307902" lon="10.7158435"><ele>439.00000000000006</ele><time>2026-03-28T14:20:13.546Z</time></trkpt><trkpt lat="45.6307338" lon="10.7157889"><ele>439.0</ele><time>2026-03-28T14:20:14.544Z</time></trkpt><trkpt lat="45.6306672" lon="10.7157239"><ele>439.0</ele><time>2026-03-28T14:20:15.546Z</time></trkpt><trkpt lat="45.6306013" lon="10.715666"><ele>439.0</ele><time>2026-03-28T14:20:16.54Z</time></trkpt><trkpt lat="45.630523" lon="10.7156224"><ele>439.00000000000006</ele><time>2026-03-28T14:20:17.546Z</time></trkpt><trkpt lat="45.6304441" lon="10.7155708"><ele>439.0</ele><time>2026-03-28T14:20:18.543Z</time></trkpt><trkpt lat="45.6303705" lon="10.715505"><ele>437.0</ele><time>2026-03-28T14:20:19.542Z</time></trkpt><trkpt lat="45.6302985" lon="10.7154278"><ele>435.0</ele><time>2026-03-28T14:20:20.54Z</time></trkpt><trkpt lat="45.6302169" lon="10.7153321"><ele>433.0</ele><time>2026-03-28T14:20:21.545Z</time></trkpt><trkpt lat="45.6301281" lon="10.7152482"><ele>431.0</ele><time>2026-03-28T14:20:22.542Z</time></trkpt><trkpt lat="45.6300427" lon="10.7151781"><ele>429.0</ele><time>2026-03-28T14:20:23.539Z</time></trkpt><trkpt lat="45.6299522" lon="10.7151031"><ele>429.0</ele><time>2026-03-28T14:20:24.545Z</time></trkpt><trkpt lat="45.6298684" lon="10.7150263"><ele>429.0</ele><time>2026-03-28T14:20:25.548Z</time></trkpt><trkpt lat="45.6297862" lon="10.7149511"><ele>429.0</ele><time>2026-03-28T14:20:26.543Z</time></trkpt><trkpt lat="45.6297141" lon="10.7148975"><ele>429.0</ele><time>2026-03-28T14:20:27.54Z</time></trkpt><trkpt lat="45.6296347" lon="10.714846"><ele>429.0</ele><time>2026-03-28T14:20:28.542Z</time></trkpt><trkpt lat="45.6295292" lon="10.7148232"><ele>430.6666666666667</ele><time>2026-03-28T14:20:29.543Z</time></trkpt><trkpt lat="45.6294327" lon="10.7148027"><ele>432.33333333333337</ele><time>2026-03-28T14:20:30.539Z</time></trkpt><trkpt lat="45.6293457" lon="10.7148003"><ele>434.0</ele><time>2026-03-28T14:20:31.54Z</time></trkpt><trkpt lat="45.6292672" lon="10.7148043"><ele>435.6666666666667</ele><time>2026-03-28T14:20:32.538Z</time></trkpt><trkpt lat="45.6291891" lon="10.7148196"><ele>437.33333333333337</ele><time>2026-03-28T14:20:33.538Z</time></trkpt><trkpt lat="45.6291032" lon="10.7148184"><ele>439.0</ele><time>2026-03-28T14:20:34.536Z</time></trkpt><trkpt lat="45.6289865" lon="10.7147405"><ele>439.00000000000006</ele><time>2026-03-28T14:20:36.544Z</time></trkpt><trkpt lat="45.6289252" lon="10.7146701"><ele>439.0</ele><time>2026-03-28T14:20:37.542Z</time></trkpt><trkpt lat="45.6288403" lon="10.7145673"><ele>439.0</ele><time>2026-03-28T14:20:38.535Z</time></trkpt><trkpt lat="45.6287623" lon="10.7144754"><ele>439.0</ele><time>2026-03-28T14:20:39.542Z</time></trkpt><trkpt lat="45.6286926" lon="10.7144191"><ele>439.00000000000006</ele><time>2026-03-28T14:20:40.535Z</time></trkpt><trkpt lat="45.6286185" lon="10.7143827"><ele>439.0</ele><time>2026-03-28T14:20:41.53Z</time></trkpt><trkpt lat="45.6285087" lon="10.7143483"><ele>437.2</ele><time>2026-03-28T14:20:42.537Z</time></trkpt><trkpt lat="45.6283916" lon="10.7143169"><ele>435.4</ele><time>2026-03-28T14:20:43.542Z</time></trkpt><trkpt lat="45.6282931" lon="10.714272"><ele>433.6</ele><time>2026-03-28T14:20:44.544Z</time></trkpt><trkpt lat="45.6281931" lon="10.714231"><ele>431.8</ele><time>2026-03-28T14:20:45.545Z</time></trkpt><trkpt lat="45.6281011" lon="10.7142048"><ele>430.0</ele><time>2026-03-28T14:20:46.54Z</time></trkpt><trkpt lat="45.6280044" lon="10.7141611"><ele>430.00000000000006</ele><time>2026-03-28T14:20:47.545Z</time></trkpt><trkpt lat="45.6279309" lon="10.7140818"><ele>430.0</ele><time>2026-03-28T14:20:48.548Z</time></trkpt><trkpt lat="45.6278612" lon="10.7139946"><ele>430.0</ele><time>2026-03-28T14:20:49.543Z</time></trkpt><trkpt lat="45.6277883" lon="10.7139252"><ele>430.0</ele><time>2026-03-28T14:20:50.549Z</time></trkpt><trkpt lat="45.6277227" lon="10.7138721"><ele>430.00000000000006</ele><time>2026-03-28T14:20:51.544Z</time></trkpt><trkpt lat="45.6276453" lon="10.7138472"><ele>430.0</ele><time>2026-03-28T14:20:52.542Z</time></trkpt><trkpt lat="45.627561" lon="10.7138531"><ele>431.8</ele><time>2026-03-28T14:20:53.538Z</time></trkpt><trkpt lat="45.6274647" lon="10.7138512"><ele>433.6</ele><time>2026-03-28T14:20:54.539Z</time></trkpt><trkpt lat="45.6273684" lon="10.7138529"><ele>435.4</ele><time>2026-03-28T14:20:55.546Z</time></trkpt><trkpt lat="45.6272816" lon="10.7138505"><ele>437.2</ele><time>2026-03-28T14:20:56.531Z</time></trkpt><trkpt lat="45.6272174" lon="10.7138157"><ele>439.0</ele><time>2026-03-28T14:20:57.545Z</time></trkpt><trkpt lat="45.6271275" lon="10.7137095"><ele>439.00000000000006</ele><time>2026-03-28T14:20:59.546Z</time></trkpt><trkpt lat="45.6270567" lon="10.7135774"><ele>439.0</ele><time>2026-03-28T14:21:01.547Z</time></trkpt><trkpt lat="45.6270054" lon="10.7135213"><ele>439.0</ele><time>2026-03-28T14:21:02.546Z</time></trkpt><trkpt lat="45.6269529" lon="10.7134419"><ele>439.0</ele><time>2026-03-28T14:21:03.549Z</time></trkpt><trkpt lat="45.6269039" lon="10.7133748"><ele>439.00000000000006</ele><time>2026-03-28T14:21:04.549Z</time></trkpt><trkpt lat="45.6268336" lon="10.7132944"><ele>439.0</ele><time>2026-03-28T14:21:05.55Z</time></trkpt><trkpt lat="45.6267561" lon="10.7132238"><ele>437.0</ele><time>2026-03-28T14:21:06.549Z</time></trkpt><trkpt lat="45.6266864" lon="10.7131513"><ele>435.0</ele><time>2026-03-28T14:21:07.549Z</time></trkpt><trkpt lat="45.6266137" lon="10.713063"><ele>433.0</ele><time>2026-03-28T14:21:08.549Z</time></trkpt><trkpt lat="45.6265422" lon="10.7129812"><ele>431.0</ele><time>2026-03-28T14:21:09.545Z</time></trkpt><trkpt lat="45.6264736" lon="10.7128817"><ele>429.0</ele><time>2026-03-28T14:21:10.552Z</time></trkpt><trkpt lat="45.6264105" lon="10.7127982"><ele>426.6</ele><time>2026-03-28T14:21:11.546Z</time></trkpt><trkpt lat="45.6263637" lon="10.7127263"><ele>424.2</ele><time>2026-03-28T14:21:12.541Z</time></trkpt><trkpt lat="45.6262894" lon="10.7125929"><ele>421.8</ele><time>2026-03-28T14:21:14.541Z</time></trkpt><trkpt lat="45.6261573" lon="10.7124952"><ele>419.40000000000003</ele><time>2026-03-28T14:21:16.533Z</time></trkpt><trkpt lat="45.6260691" lon="10.7124243"><ele>417.0</ele><time>2026-03-28T14:21:17.537Z</time></trkpt><trkpt lat="45.6259916" lon="10.7123453"><ele>417.0</ele><time>2026-03-28T14:21:18.532Z</time></trkpt><trkpt lat="45.6259255" lon="10.7122905"><ele>417.0</ele><time>2026-03-28T14:21:19.529Z</time></trkpt><trkpt lat="45.6258281" lon="10.712269"><ele>417.0</ele><time>2026-03-28T14:21:21.526Z</time></trkpt><trkpt lat="45.6257607" lon="10.7122864"><ele>417.0</ele><time>2026-03-28T14:21:22.53Z</time></trkpt><trkpt lat="45.6256937" lon="10.7123281"><ele>417.0</ele><time>2026-03-28T14:21:23.54Z</time></trkpt><trkpt lat="45.6256336" lon="10.7123804"><ele>417.0</ele><time>2026-03-28T14:21:24.535Z</time></trkpt><trkpt lat="45.6255819" lon="10.7124466"><ele>417.0</ele><time>2026-03-28T14:21:25.537Z</time></trkpt><trkpt lat="45.6255054" lon="10.7125416"><ele>417.0</ele><time>2026-03-28T14:21:27.538Z</time></trkpt><trkpt lat="45.6254633" lon="10.7124284"><ele>417.0</ele><time>2026-03-28T14:23:40.525Z</time></trkpt><trkpt lat="45.625343" lon="10.7123198"><ele>417.0</ele><time>2026-03-28T14:23:42.527Z</time></trkpt><trkpt lat="45.6252132" lon="10.7122814"><ele>417.6</ele><time>2026-03-28T14:23:43.535Z</time></trkpt><trkpt lat="45.625099" lon="10.7122352"><ele>418.20000000000005</ele><time>2026-03-28T14:23:44.53Z</time></trkpt><trkpt lat="45.6249945" lon="10.7121581"><ele>418.8</ele><time>2026-03-28T14:23:45.53Z</time></trkpt><trkpt lat="45.6249264" lon="10.7120833"><ele>419.4</ele><time>2026-03-28T14:23:46.526Z</time></trkpt><trkpt lat="45.6248606" lon="10.711998"><ele>420.0</ele><time>2026-03-28T14:23:47.528Z</time></trkpt><trkpt lat="45.6247929" lon="10.7118852"><ele>417.0</ele><time>2026-03-28T14:23:48.53Z</time></trkpt><trkpt lat="45.6247197" lon="10.7117638"><ele>414.0</ele><time>2026-03-28T14:23:49.529Z</time></trkpt><trkpt lat="45.6246197" lon="10.7116337"><ele>411.0</ele><time>2026-03-28T14:23:50.534Z</time></trkpt><trkpt lat="45.6245022" lon="10.7115191"><ele>408.0</ele><time>2026-03-28T14:23:51.526Z</time></trkpt><trkpt lat="45.6243566" lon="10.7114086"><ele>408.0</ele><time>2026-03-28T14:23:52.526Z</time></trkpt><trkpt lat="45.6242062" lon="10.7113192"><ele>408.0</ele><time>2026-03-28T14:23:53.529Z</time></trkpt><trkpt lat="45.6240582" lon="10.7112385"><ele>408.0</ele><time>2026-03-28T14:23:54.532Z</time></trkpt><trkpt lat="45.6239326" lon="10.7111787"><ele>408.0</ele><time>2026-03-28T14:23:55.532Z</time></trkpt><trkpt lat="45.6238317" lon="10.7111303"><ele>408.0</ele><time>2026-03-28T14:23:56.529Z</time></trkpt><trkpt lat="45.6237334" lon="10.7110913"><ele>408.0</ele><time>2026-03-28T14:23:57.538Z</time></trkpt><trkpt lat="45.6236409" lon="10.7110456"><ele>408.0</ele><time>2026-03-28T14:23:58.534Z</time></trkpt><trkpt lat="45.6235483" lon="10.7110168"><ele>408.0</ele><time>2026-03-28T14:23:59.534Z</time></trkpt><trkpt lat="45.6234652" lon="10.7110135"><ele>406.6666666666667</ele><time>2026-03-28T14:24:00.532Z</time></trkpt><trkpt lat="45.6233799" lon="10.7110273"><ele>405.33333333333337</ele><time>2026-03-28T14:24:01.532Z</time></trkpt><trkpt lat="45.6233031" lon="10.7110275"><ele>404.0</ele><time>2026-03-28T14:24:02.528Z</time></trkpt><trkpt lat="45.623181" lon="10.7110132"><ele>402.6666666666667</ele><time>2026-03-28T14:24:04.529Z</time></trkpt><trkpt lat="45.6231166" lon="10.7109497"><ele>401.33333333333337</ele><time>2026-03-28T14:24:05.528Z</time></trkpt><trkpt lat="45.6230628" lon="10.7108635"><ele>400.0</ele><time>2026-03-28T14:24:06.533Z</time></trkpt><trkpt lat="45.6230152" lon="10.7107803"><ele>400.0</ele><time>2026-03-28T14:24:07.539Z</time></trkpt><trkpt lat="45.6229616" lon="10.7107024"><ele>400.0</ele><time>2026-03-28T14:24:08.531Z</time></trkpt><trkpt lat="45.6228929" lon="10.7106385"><ele>400.0</ele><time>2026-03-28T14:24:09.533Z</time></trkpt><trkpt lat="45.6228051" lon="10.7106076"><ele>400.0</ele><time>2026-03-28T14:24:10.533Z</time></trkpt><trkpt lat="45.6226838" lon="10.710636"><ele>400.0</ele><time>2026-03-28T14:24:11.53Z</time></trkpt><trkpt lat="45.6225472" lon="10.7106698"><ele>400.0</ele><time>2026-03-28T14:24:12.528Z</time></trkpt><trkpt lat="45.6224114" lon="10.7106705"><ele>400.0</ele><time>2026-03-28T14:24:13.53Z</time></trkpt><trkpt lat="45.6222828" lon="10.7106455"><ele>400.0</ele><time>2026-03-28T14:24:14.535Z</time></trkpt><trkpt lat="45.6221591" lon="10.7106052"><ele>400.0</ele><time>2026-03-28T14:24:15.537Z</time></trkpt><trkpt lat="45.62205" lon="10.7105392"><ele>400.25</ele><time>2026-03-28T14:24:16.529Z</time></trkpt><trkpt lat="45.6219549" lon="10.7104536"><ele>400.5</ele><time>2026-03-28T14:24:17.536Z</time></trkpt><trkpt lat="45.6218525" lon="10.7103801"><ele>400.75</ele><time>2026-03-28T14:24:18.535Z</time></trkpt><trkpt lat="45.6217364" lon="10.7103242"><ele>401.0</ele><time>2026-03-28T14:24:19.531Z</time></trkpt><trkpt lat="45.6216156" lon="10.7102848"><ele>401.0</ele><time>2026-03-28T14:24:20.539Z</time></trkpt><trkpt lat="45.6215062" lon="10.7102493"><ele>401.0</ele><time>2026-03-28T14:24:21.535Z</time></trkpt><trkpt lat="45.6214083" lon="10.710212"><ele>401.0</ele><time>2026-03-28T14:24:22.536Z</time></trkpt><trkpt lat="45.6213118" lon="10.7101612"><ele>401.0</ele><time>2026-03-28T14:24:23.533Z</time></trkpt><trkpt lat="45.621207" lon="10.7101064"><ele>401.0</ele><time>2026-03-28T14:24:24.533Z</time></trkpt><trkpt lat="45.6210972" lon="10.710033"><ele>399.25</ele><time>2026-03-28T14:24:25.536Z</time></trkpt><trkpt lat="45.6209891" lon="10.7099404"><ele>397.5</ele><time>2026-03-28T14:24:26.535Z</time></trkpt><trkpt lat="45.6208828" lon="10.709846"><ele>395.75</ele><time>2026-03-28T14:24:27.537Z</time></trkpt><trkpt lat="45.6207849" lon="10.7097316"><ele>394.0</ele><time>2026-03-28T14:24:28.54Z</time></trkpt><trkpt lat="45.6206839" lon="10.7096207"><ele>394.0</ele><time>2026-03-28T14:24:29.539Z</time></trkpt><trkpt lat="45.620581" lon="10.7095082"><ele>394.0</ele><time>2026-03-28T14:24:30.535Z</time></trkpt><trkpt lat="45.6204921" lon="10.7093935"><ele>394.0</ele><time>2026-03-28T14:24:31.535Z</time></trkpt><trkpt lat="45.620403" lon="10.7093018"><ele>394.0</ele><time>2026-03-28T14:24:32.532Z</time></trkpt><trkpt lat="45.6203067" lon="10.7092444"><ele>391.5</ele><time>2026-03-28T14:24:33.525Z</time></trkpt><trkpt lat="45.6201994" lon="10.7092214"><ele>389.0</ele><time>2026-03-28T14:24:34.526Z</time></trkpt><trkpt lat="45.6200845" lon="10.70923"><ele>386.5</ele><time>2026-03-28T14:24:35.528Z</time></trkpt><trkpt lat="45.619958" lon="10.7092844"><ele>384.0</ele><time>2026-03-28T14:24:36.528Z</time></trkpt><trkpt lat="45.6198188" lon="10.7093348"><ele>384.0</ele><time>2026-03-28T14:24:37.552Z</time></trkpt><trkpt lat="45.6196812" lon="10.7093715"><ele>384.0</ele><time>2026-03-28T14:24:38.545Z</time></trkpt><trkpt lat="45.6195522" lon="10.7093931"><ele>384.0</ele><time>2026-03-28T14:24:39.547Z</time></trkpt><trkpt lat="45.6194334" lon="10.7094044"><ele>384.0</ele><time>2026-03-28T14:24:40.549Z</time></trkpt><trkpt lat="45.6193197" lon="10.7094152"><ele>384.5</ele><time>2026-03-28T14:24:41.55Z</time></trkpt><trkpt lat="45.6192293" lon="10.7094218"><ele>385.0</ele><time>2026-03-28T14:24:42.549Z</time></trkpt><trkpt lat="45.6191485" lon="10.7094338"><ele>385.5</ele><time>2026-03-28T14:24:43.548Z</time></trkpt><trkpt lat="45.6190792" lon="10.7094511"><ele>386.0</ele><time>2026-03-28T14:24:44.548Z</time></trkpt><trkpt lat="45.6189963" lon="10.7094535"><ele>386.5</ele><time>2026-03-28T14:24:46.543Z</time></trkpt><trkpt lat="45.6189292" lon="10.7093785"><ele>387.0</ele><time>2026-03-28T14:24:50.547Z</time></trkpt><trkpt lat="45.618873" lon="10.7092246"><ele>385.8</ele><time>2026-03-28T14:24:52.535Z</time></trkpt><trkpt lat="45.6188164" lon="10.7091114"><ele>384.6</ele><time>2026-03-28T14:24:53.535Z</time></trkpt><trkpt lat="45.618759" lon="10.7089768"><ele>383.40000000000003</ele><time>2026-03-28T14:24:54.545Z</time></trkpt><trkpt lat="45.6187013" lon="10.7088348"><ele>382.20000000000005</ele><time>2026-03-28T14:24:55.548Z</time></trkpt><trkpt lat="45.6186488" lon="10.7086917"><ele>381.0</ele><time>2026-03-28T14:24:56.541Z</time></trkpt><trkpt lat="45.6185834" lon="10.7085185"><ele>381.0</ele><time>2026-03-28T14:24:57.545Z</time></trkpt><trkpt lat="45.6185167" lon="10.7083551"><ele>381.0</ele><time>2026-03-28T14:24:58.543Z</time></trkpt><trkpt lat="45.6184668" lon="10.7081999"><ele>381.0</ele><time>2026-03-28T14:24:59.544Z</time></trkpt><trkpt lat="45.6184364" lon="10.7080517"><ele>381.0</ele><time>2026-03-28T14:25:00.541Z</time></trkpt><trkpt lat="45.6184101" lon="10.7079198"><ele>381.0</ele><time>2026-03-28T14:25:01.541Z</time></trkpt><trkpt lat="45.6183986" lon="10.7077786"><ele>381.0</ele><time>2026-03-28T14:25:02.54Z</time></trkpt><trkpt lat="45.6183903" lon="10.7076503"><ele>381.0</ele><time>2026-03-28T14:25:03.539Z</time></trkpt><trkpt lat="45.6183818" lon="10.7075394"><ele>381.0</ele><time>2026-03-28T14:25:04.536Z</time></trkpt><trkpt lat="45.6183648" lon="10.7073856"><ele>381.0</ele><time>2026-03-28T14:25:06.534Z</time></trkpt><trkpt lat="45.6184268" lon="10.7073369"><ele>381.0</ele><time>2026-03-28T14:25:08.541Z</time></trkpt><trkpt lat="45.6184995" lon="10.7074002"><ele>381.0</ele><time>2026-03-28T14:25:10.539Z</time></trkpt><trkpt lat="45.6185422" lon="10.7075924"><ele>381.0</ele><time>2026-03-28T14:25:12.544Z</time></trkpt><trkpt lat="45.6185624" lon="10.707727"><ele>381.0</ele><time>2026-03-28T14:25:13.539Z</time></trkpt><trkpt lat="45.6185906" lon="10.7078591"><ele>381.0</ele><time>2026-03-28T14:25:14.539Z</time></trkpt><trkpt lat="45.618625" lon="10.7079963"><ele>381.0</ele><time>2026-03-28T14:25:15.535Z</time></trkpt><trkpt lat="45.6186761" lon="10.70814"><ele>378.0</ele><time>2026-03-28T14:25:16.531Z</time></trkpt><trkpt lat="45.6187501" lon="10.7082618"><ele>375.0</ele><time>2026-03-28T14:25:17.529Z</time></trkpt><trkpt lat="45.6188465" lon="10.7083664"><ele>372.0</ele><time>2026-03-28T14:25:18.531Z</time></trkpt><trkpt lat="45.6189576" lon="10.7084569"><ele>369.0</ele><time>2026-03-28T14:25:19.531Z</time></trkpt><trkpt lat="45.6190757" lon="10.7085168"><ele>369.0</ele><time>2026-03-28T14:25:20.529Z</time></trkpt><trkpt lat="45.6192014" lon="10.7085532"><ele>369.0</ele><time>2026-03-28T14:25:21.532Z</time></trkpt><trkpt lat="45.6193226" lon="10.7085768"><ele>369.0</ele><time>2026-03-28T14:25:22.537Z</time></trkpt><trkpt lat="45.6194336" lon="10.7085765"><ele>369.0</ele><time>2026-03-28T14:25:23.531Z</time></trkpt><trkpt lat="45.6195381" lon="10.7085415"><ele>368.75</ele><time>2026-03-28T14:25:24.532Z</time></trkpt><trkpt lat="45.6196643" lon="10.7084725"><ele>368.5</ele><time>2026-03-28T14:25:25.536Z</time></trkpt><trkpt lat="45.6197861" lon="10.7084251"><ele>368.25</ele><time>2026-03-28T14:25:26.532Z</time></trkpt><trkpt lat="45.6199287" lon="10.7083815"><ele>368.0</ele><time>2026-03-28T14:25:27.534Z</time></trkpt><trkpt lat="45.620059" lon="10.7083417"><ele>368.0</ele><time>2026-03-28T14:25:28.541Z</time></trkpt><trkpt lat="45.6201729" lon="10.7083"><ele>368.0</ele><time>2026-03-28T14:25:29.537Z</time></trkpt><trkpt lat="45.620282" lon="10.7082769"><ele>368.0</ele><time>2026-03-28T14:25:30.536Z</time></trkpt><trkpt lat="45.6203767" lon="10.7082618"><ele>368.0</ele><time>2026-03-28T14:25:31.535Z</time></trkpt><trkpt lat="45.6204573" lon="10.7082597"><ele>368.0</ele><time>2026-03-28T14:25:32.531Z</time></trkpt><trkpt lat="45.6205362" lon="10.7082864"><ele>367.33333333333337</ele><time>2026-03-28T14:25:33.531Z</time></trkpt><trkpt lat="45.6206007" lon="10.7083055"><ele>366.6666666666667</ele><time>2026-03-28T14:25:34.533Z</time></trkpt><trkpt lat="45.6206681" lon="10.7082495"><ele>366.0</ele><time>2026-03-28T14:25:36.541Z</time></trkpt><trkpt lat="45.6206499" lon="10.7081399"><ele>365.3333333333333</ele><time>2026-03-28T14:25:38.535Z</time></trkpt><trkpt lat="45.620531" lon="10.7080855"><ele>364.66666666666663</ele><time>2026-03-28T14:25:40.536Z</time></trkpt><trkpt lat="45.6204343" lon="10.708063"><ele>364.0</ele><time>2026-03-28T14:25:41.528Z</time></trkpt><trkpt lat="45.6203205" lon="10.7080201"><ele>365.0</ele><time>2026-03-28T14:25:42.531Z</time></trkpt><trkpt lat="45.620199" lon="10.707988"><ele>366.0</ele><time>2026-03-28T14:25:43.539Z</time></trkpt><trkpt lat="45.6200783" lon="10.7079439"><ele>367.0</ele><time>2026-03-28T14:25:44.541Z</time></trkpt><trkpt lat="45.6199456" lon="10.7079039"><ele>368.0</ele><time>2026-03-28T14:25:45.542Z</time></trkpt><trkpt lat="45.6198225" lon="10.7078826"><ele>368.0</ele><time>2026-03-28T14:25:46.542Z</time></trkpt><trkpt lat="45.6197098" lon="10.7078613"><ele>368.0</ele><time>2026-03-28T14:25:47.543Z</time></trkpt><trkpt lat="45.6196136" lon="10.707823"><ele>368.0</ele><time>2026-03-28T14:25:48.546Z</time></trkpt><trkpt lat="45.6195332" lon="10.7077638"><ele>368.0</ele><time>2026-03-28T14:25:49.545Z</time></trkpt><trkpt lat="45.6194662" lon="10.7076667"><ele>368.0</ele><time>2026-03-28T14:25:50.545Z</time></trkpt><trkpt lat="45.6194143" lon="10.7075613"><ele>365.59999999999997</ele><time>2026-03-28T14:25:51.534Z</time></trkpt><trkpt lat="45.6193871" lon="10.70744"><ele>363.2</ele><time>2026-03-28T14:25:52.538Z</time></trkpt><trkpt lat="45.6193914" lon="10.707297"><ele>360.8</ele><time>2026-03-28T14:25:53.542Z</time></trkpt><trkpt lat="45.619404" lon="10.707153"><ele>358.4</ele><time>2026-03-28T14:25:54.545Z</time></trkpt><trkpt lat="45.6194016" lon="10.7070024"><ele>356.0</ele><time>2026-03-28T14:25:55.544Z</time></trkpt><trkpt lat="45.6193682" lon="10.7068462"><ele>354.6</ele><time>2026-03-28T14:25:56.54Z</time></trkpt><trkpt lat="45.6193193" lon="10.7067114"><ele>353.20000000000005</ele><time>2026-03-28T14:25:57.543Z</time></trkpt><trkpt lat="45.6192686" lon="10.7065893"><ele>351.79999999999995</ele><time>2026-03-28T14:25:58.547Z</time></trkpt><trkpt lat="45.6191965" lon="10.7064777"><ele>350.4</ele><time>2026-03-28T14:25:59.541Z</time></trkpt><trkpt lat="45.6191126" lon="10.7063696"><ele>349.0</ele><time>2026-03-28T14:26:00.542Z</time></trkpt><trkpt lat="45.619019" lon="10.7062663"><ele>349.0</ele><time>2026-03-28T14:26:01.544Z</time></trkpt><trkpt lat="45.6189317" lon="10.7061712"><ele>349.0</ele><time>2026-03-28T14:26:02.544Z</time></trkpt><trkpt lat="45.6188417" lon="10.7060759"><ele>349.0</ele><time>2026-03-28T14:26:03.543Z</time></trkpt><trkpt lat="45.6187505" lon="10.7059777"><ele>349.0</ele><time>2026-03-28T14:26:04.544Z</time></trkpt><trkpt lat="45.6186575" lon="10.705875"><ele>348.25</ele><time>2026-03-28T14:26:05.543Z</time></trkpt><trkpt lat="45.6185674" lon="10.7057752"><ele>347.5</ele><time>2026-03-28T14:26:06.545Z</time></trkpt><trkpt lat="45.6184708" lon="10.7056751"><ele>346.75</ele><time>2026-03-28T14:26:07.547Z</time></trkpt><trkpt lat="45.6183666" lon="10.7055712"><ele>346.0</ele><time>2026-03-28T14:26:08.547Z</time></trkpt><trkpt lat="45.6182633" lon="10.7054688"><ele>346.0</ele><time>2026-03-28T14:26:09.552Z</time></trkpt><trkpt lat="45.6181614" lon="10.705376"><ele>346.0</ele><time>2026-03-28T14:26:10.552Z</time></trkpt><trkpt lat="45.6180664" lon="10.7052777"><ele>346.0</ele><time>2026-03-28T14:26:11.552Z</time></trkpt><trkpt lat="45.6179781" lon="10.705183"><ele>346.0</ele><time>2026-03-28T14:26:12.551Z</time></trkpt><trkpt lat="45.617895" lon="10.7050905"><ele>344.20000000000005</ele><time>2026-03-28T14:26:13.551Z</time></trkpt><trkpt lat="45.6178105" lon="10.7050014"><ele>342.40000000000003</ele><time>2026-03-28T14:26:14.554Z</time></trkpt><trkpt lat="45.6177269" lon="10.7049117"><ele>340.6</ele><time>2026-03-28T14:26:16.623Z</time></trkpt><trkpt lat="45.6176534" lon="10.7048338"><ele>338.8</ele><time>2026-03-28T14:26:17.621Z</time></trkpt><trkpt lat="45.6175813" lon="10.7047869"><ele>337.0</ele><time>2026-03-28T14:26:18.621Z</time></trkpt><trkpt lat="45.6174994" lon="10.7047691"><ele>337.0</ele><time>2026-03-28T14:26:19.603Z</time></trkpt><trkpt lat="45.6174118" lon="10.7047635"><ele>337.0</ele><time>2026-03-28T14:26:20.605Z</time></trkpt><trkpt lat="45.617296" lon="10.7047715"><ele>337.0</ele><time>2026-03-28T14:26:21.61Z</time></trkpt><trkpt lat="45.6171738" lon="10.7047829"><ele>337.0</ele><time>2026-03-28T14:26:22.612Z</time></trkpt><trkpt lat="45.6170489" lon="10.7047984"><ele>336.5</ele><time>2026-03-28T14:26:23.626Z</time></trkpt><trkpt lat="45.6169181" lon="10.704812"><ele>336.0</ele><time>2026-03-28T14:26:24.632Z</time></trkpt><trkpt lat="45.6167965" lon="10.7048208"><ele>335.5</ele><time>2026-03-28T14:26:25.628Z</time></trkpt><trkpt lat="45.6166848" lon="10.7048339"><ele>335.0</ele><time>2026-03-28T14:26:26.625Z</time></trkpt><trkpt lat="45.6165837" lon="10.7048626"><ele>335.0</ele><time>2026-03-28T14:26:27.625Z</time></trkpt><trkpt lat="45.6164878" lon="10.704878"><ele>335.0</ele><time>2026-03-28T14:26:28.631Z</time></trkpt><trkpt lat="45.6163968" lon="10.704855"><ele>335.0</ele><time>2026-03-28T14:26:29.618Z</time></trkpt><trkpt lat="45.6163086" lon="10.7047997"><ele>335.0</ele><time>2026-03-28T14:26:30.611Z</time></trkpt><trkpt lat="45.6162255" lon="10.7047078"><ele>335.0</ele><time>2026-03-28T14:26:31.609Z</time></trkpt><trkpt lat="45.6161312" lon="10.7045962"><ele>335.5</ele><time>2026-03-28T14:26:32.62Z</time></trkpt><trkpt lat="45.6160322" lon="10.7045403"><ele>336.0</ele><time>2026-03-28T14:26:33.622Z</time></trkpt><trkpt lat="45.6159291" lon="10.7044251"><ele>336.5</ele><time>2026-03-28T14:26:34.633Z</time></trkpt><trkpt lat="45.6158185" lon="10.7043043"><ele>337.0</ele><time>2026-03-28T14:26:35.629Z</time></trkpt><trkpt lat="45.6157169" lon="10.7041855"><ele>333.25</ele><time>2026-03-28T14:26:36.631Z</time></trkpt><trkpt lat="45.6156265" lon="10.7040833"><ele>329.5</ele><time>2026-03-28T14:26:37.629Z</time></trkpt><trkpt lat="45.6155283" lon="10.7039738"><ele>325.75</ele><time>2026-03-28T14:26:38.628Z</time></trkpt><trkpt lat="45.6154372" lon="10.7038713"><ele>322.0</ele><time>2026-03-28T14:26:39.632Z</time></trkpt><trkpt lat="45.6153522" lon="10.7037818"><ele>322.40000000000003</ele><time>2026-03-28T14:26:40.629Z</time></trkpt><trkpt lat="45.6152653" lon="10.7036967"><ele>322.8</ele><time>2026-03-28T14:26:41.628Z</time></trkpt><trkpt lat="45.6151777" lon="10.7036098"><ele>323.2</ele><time>2026-03-28T14:26:42.632Z</time></trkpt><trkpt lat="45.6150847" lon="10.7035109"><ele>323.6</ele><time>2026-03-28T14:26:43.632Z</time></trkpt><trkpt lat="45.6149922" lon="10.7034171"><ele>324.0</ele><time>2026-03-28T14:26:44.631Z</time></trkpt><trkpt lat="45.6149029" lon="10.7033272"><ele>322.59999999999997</ele><time>2026-03-28T14:26:45.631Z</time></trkpt><trkpt lat="45.6148197" lon="10.7032391"><ele>321.2</ele><time>2026-03-28T14:26:46.63Z</time></trkpt><trkpt lat="45.6147399" lon="10.7031564"><ele>319.79999999999995</ele><time>2026-03-28T14:26:47.625Z</time></trkpt><trkpt lat="45.6146522" lon="10.7030848"><ele>318.4</ele><time>2026-03-28T14:26:48.623Z</time></trkpt><trkpt lat="45.6145531" lon="10.7030264"><ele>317.0</ele><time>2026-03-28T14:26:49.619Z</time></trkpt><trkpt lat="45.6144449" lon="10.7029782"><ele>316.2</ele><time>2026-03-28T14:26:50.621Z</time></trkpt><trkpt lat="45.6143454" lon="10.7029343"><ele>315.4</ele><time>2026-03-28T14:26:51.621Z</time></trkpt><trkpt lat="45.6142563" lon="10.7028976"><ele>314.6</ele><time>2026-03-28T14:26:52.615Z</time></trkpt><trkpt lat="45.6141766" lon="10.7028638"><ele>313.8</ele><time>2026-03-28T14:26:53.63Z</time></trkpt><trkpt lat="45.6140961" lon="10.7028316"><ele>313.0</ele><time>2026-03-28T14:26:54.625Z</time></trkpt><trkpt lat="45.6140081" lon="10.702796"><ele>313.0</ele><time>2026-03-28T14:26:55.628Z</time></trkpt><trkpt lat="45.6139258" lon="10.7027626"><ele>313.0</ele><time>2026-03-28T14:26:56.622Z</time></trkpt><trkpt lat="45.613852" lon="10.702734"><ele>313.0</ele><time>2026-03-28T14:26:57.628Z</time></trkpt><trkpt lat="45.6137843" lon="10.7027099"><ele>313.0</ele><time>2026-03-28T14:26:58.615Z</time></trkpt><trkpt lat="45.6136656" lon="10.7026692"><ele>313.0</ele><time>2026-03-28T14:27:00.621Z</time></trkpt><trkpt lat="45.6135884" lon="10.7026397"><ele>313.0</ele><time>2026-03-28T14:27:01.626Z</time></trkpt><trkpt lat="45.6134979" lon="10.7026093"><ele>312.42857142857144</ele><time>2026-03-28T14:27:02.618Z</time></trkpt><trkpt lat="45.6134193" lon="10.7025843"><ele>311.8571428571429</ele><time>2026-03-28T14:27:03.616Z</time></trkpt><trkpt lat="45.6133479" lon="10.7025641"><ele>311.28571428571433</ele><time>2026-03-28T14:27:04.62Z</time></trkpt><trkpt lat="45.6132829" lon="10.7025497"><ele>310.7142857142857</ele><time>2026-03-28T14:27:05.617Z</time></trkpt><trkpt lat="45.6132161" lon="10.7025296"><ele>310.14285714285717</ele><time>2026-03-28T14:27:06.622Z</time></trkpt><trkpt lat="45.6131544" lon="10.7025036"><ele>309.5714285714286</ele><time>2026-03-28T14:27:07.627Z</time></trkpt><trkpt lat="45.6130655" lon="10.7024708"><ele>309.0</ele><time>2026-03-28T14:27:09.62Z</time></trkpt><trkpt lat="45.6129933" lon="10.7024461"><ele>309.0</ele><time>2026-03-28T14:27:12.63Z</time></trkpt><trkpt lat="45.6129012" lon="10.7024221"><ele>309.0</ele><time>2026-03-28T14:27:15.622Z</time></trkpt><trkpt lat="45.6128194" lon="10.7023972"><ele>309.0</ele><time>2026-03-28T14:27:17.615Z</time></trkpt><trkpt lat="45.6127547" lon="10.7023804"><ele>309.0</ele><time>2026-03-28T14:27:19.617Z</time></trkpt><trkpt lat="45.6126517" lon="10.7023425"><ele>309.0</ele><time>2026-03-28T14:27:21.618Z</time></trkpt><trkpt lat="45.6125545" lon="10.7023015"><ele>309.0</ele><time>2026-03-28T14:27:23.61Z</time></trkpt><trkpt lat="45.6124332" lon="10.7022557"><ele>309.0</ele><time>2026-03-28T14:27:25.61Z</time></trkpt><trkpt lat="45.612363" lon="10.7022322"><ele>309.0</ele><time>2026-03-28T14:27:26.614Z</time></trkpt><trkpt lat="45.6122931" lon="10.7022067"><ele>309.0</ele><time>2026-03-28T14:27:27.607Z</time></trkpt><trkpt lat="45.61223" lon="10.7021783"><ele>309.0</ele><time>2026-03-28T14:27:28.6Z</time></trkpt><trkpt lat="45.6121661" lon="10.7021538"><ele>309.0</ele><time>2026-03-28T14:27:29.597Z</time></trkpt><trkpt lat="45.6120626" lon="10.7021284"><ele>309.0</ele><time>2026-03-28T14:27:31.594Z</time></trkpt><trkpt lat="45.6119574" lon="10.7021248"><ele>309.0</ele><time>2026-03-28T14:27:33.603Z</time></trkpt><trkpt lat="45.6118903" lon="10.7021627"><ele>309.0</ele><time>2026-03-28T14:27:35.605Z</time></trkpt><trkpt lat="45.6117149" lon="10.7022952"><ele>309.0</ele><time>2026-03-28T14:27:36.516Z</time></trkpt><trkpt lat="45.6116464" lon="10.7023131"><ele>309.0</ele><time>2026-03-28T14:27:38.528Z</time></trkpt><trkpt lat="45.6115678" lon="10.7022663"><ele>309.0</ele><time>2026-03-28T14:27:41.543Z</time></trkpt><trkpt lat="45.6115335" lon="10.7021751"><ele>309.0</ele><time>2026-03-28T14:27:43.543Z</time></trkpt><trkpt lat="45.611473" lon="10.702079"><ele>309.0</ele><time>2026-03-28T14:27:45.548Z</time></trkpt><trkpt lat="45.6113765" lon="10.7020245"><ele>309.0</ele><time>2026-03-28T14:27:47.548Z</time></trkpt><trkpt lat="45.6112645" lon="10.7020139"><ele>309.0</ele><time>2026-03-28T14:27:49.551Z</time></trkpt><trkpt lat="45.6111744" lon="10.7019983"><ele>308.59999999999997</ele><time>2026-03-28T14:27:51.55Z</time></trkpt><trkpt lat="45.6110521" lon="10.7020145"><ele>308.2</ele><time>2026-03-28T14:27:53.527Z</time></trkpt><trkpt lat="45.6109183" lon="10.7020232"><ele>307.79999999999995</ele><time>2026-03-28T14:27:55.536Z</time></trkpt><trkpt lat="45.6108369" lon="10.7020018"><ele>307.4</ele><time>2026-03-28T14:27:56.532Z</time></trkpt><trkpt lat="45.6107657" lon="10.7019785"><ele>307.0</ele><time>2026-03-28T14:27:57.537Z</time></trkpt><trkpt lat="45.6106865" lon="10.7019511"><ele>307.0</ele><time>2026-03-28T14:27:58.544Z</time></trkpt><trkpt lat="45.6106009" lon="10.7019245"><ele>307.0</ele><time>2026-03-28T14:27:59.538Z</time></trkpt><trkpt lat="45.6105344" lon="10.7018805"><ele>307.0</ele><time>2026-03-28T14:28:00.535Z</time></trkpt><trkpt lat="45.6104607" lon="10.7018325"><ele>307.0</ele><time>2026-03-28T14:28:01.53Z</time></trkpt><trkpt lat="45.6103974" lon="10.7017931"><ele>307.0</ele><time>2026-03-28T14:28:02.534Z</time></trkpt><trkpt lat="45.6102993" lon="10.701737"><ele>307.0</ele><time>2026-03-28T14:28:04.537Z</time></trkpt><trkpt lat="45.6101809" lon="10.7016603"><ele>306.6</ele><time>2026-03-28T14:28:06.529Z</time></trkpt><trkpt lat="45.6100981" lon="10.7016233"><ele>306.2</ele><time>2026-03-28T14:28:07.533Z</time></trkpt><trkpt lat="45.6099933" lon="10.7015769"><ele>305.8</ele><time>2026-03-28T14:28:08.535Z</time></trkpt><trkpt lat="45.6098895" lon="10.7014966"><ele>305.4</ele><time>2026-03-28T14:28:09.538Z</time></trkpt><trkpt lat="45.6097806" lon="10.701401"><ele>305.0</ele><time>2026-03-28T14:28:10.549Z</time></trkpt><trkpt lat="45.6096598" lon="10.7013065"><ele>305.0</ele><time>2026-03-28T14:28:11.531Z</time></trkpt><trkpt lat="45.6095229" lon="10.7012361"><ele>305.0</ele><time>2026-03-28T14:28:12.533Z</time></trkpt><trkpt lat="45.6093779" lon="10.701181"><ele>305.0</ele><time>2026-03-28T14:28:13.536Z</time></trkpt><trkpt lat="45.6092253" lon="10.7011417"><ele>305.25</ele><time>2026-03-28T14:28:14.544Z</time></trkpt><trkpt lat="45.6090956" lon="10.7011066"><ele>305.5</ele><time>2026-03-28T14:28:15.536Z</time></trkpt><trkpt lat="45.6089757" lon="10.701095"><ele>305.75</ele><time>2026-03-28T14:28:16.539Z</time></trkpt><trkpt lat="45.6088492" lon="10.7010515"><ele>306.0</ele><time>2026-03-28T14:28:17.537Z</time></trkpt><trkpt lat="45.6087424" lon="10.7010128"><ele>304.75</ele><time>2026-03-28T14:28:18.532Z</time></trkpt><trkpt lat="45.6086101" lon="10.7009965"><ele>303.5</ele><time>2026-03-28T14:28:19.537Z</time></trkpt><trkpt lat="45.6085073" lon="10.7009576"><ele>302.25</ele><time>2026-03-28T14:28:20.535Z</time></trkpt><trkpt lat="45.608378" lon="10.7009014"><ele>301.0</ele><time>2026-03-28T14:28:21.531Z</time></trkpt><trkpt lat="45.6082486" lon="10.7008353"><ele>301.0</ele><time>2026-03-28T14:28:22.532Z</time></trkpt><trkpt lat="45.6081307" lon="10.7007645"><ele>301.0</ele><time>2026-03-28T14:28:23.532Z</time></trkpt><trkpt lat="45.6080152" lon="10.7007086"><ele>301.0</ele><time>2026-03-28T14:28:24.533Z</time></trkpt><trkpt lat="45.6079039" lon="10.7006594"><ele>301.0</ele><time>2026-03-28T14:28:25.531Z</time></trkpt><trkpt lat="45.6077932" lon="10.7006165"><ele>301.75</ele><time>2026-03-28T14:28:26.535Z</time></trkpt><trkpt lat="45.6076771" lon="10.7005828"><ele>302.5</ele><time>2026-03-28T14:28:27.53Z</time></trkpt><trkpt lat="45.6075675" lon="10.7005454"><ele>303.25</ele><time>2026-03-28T14:28:28.55Z</time></trkpt><trkpt lat="45.6074578" lon="10.7005261"><ele>304.0</ele><time>2026-03-28T14:28:29.53Z</time></trkpt><trkpt lat="45.6073386" lon="10.7005402"><ele>304.0</ele><time>2026-03-28T14:28:30.537Z</time></trkpt><trkpt lat="45.6072311" lon="10.7005696"><ele>304.0</ele><time>2026-03-28T14:28:31.533Z</time></trkpt><trkpt lat="45.6071191" lon="10.7005866"><ele>304.0</ele><time>2026-03-28T14:28:32.532Z</time></trkpt><trkpt lat="45.6070261" lon="10.7005928"><ele>304.0</ele><time>2026-03-28T14:28:33.529Z</time></trkpt><trkpt lat="45.6069492" lon="10.700592"><ele>304.0</ele><time>2026-03-28T14:28:34.528Z</time></trkpt><trkpt lat="45.6068832" lon="10.7005852"><ele>303.8333333333333</ele><time>2026-03-28T14:28:35.527Z</time></trkpt><trkpt lat="45.6068102" lon="10.7005492"><ele>303.66666666666663</ele><time>2026-03-28T14:28:37.535Z</time></trkpt><trkpt lat="45.6067862" lon="10.7004206"><ele>303.5</ele><time>2026-03-28T14:28:39.534Z</time></trkpt><trkpt lat="45.6068315" lon="10.7002552"><ele>303.3333333333333</ele><time>2026-03-28T14:28:41.527Z</time></trkpt><trkpt lat="45.6068922" lon="10.700206"><ele>303.1666666666667</ele><time>2026-03-28T14:28:42.531Z</time></trkpt><trkpt lat="45.6069613" lon="10.7001657"><ele>303.0</ele><time>2026-03-28T14:28:43.529Z</time></trkpt><trkpt lat="45.6070497" lon="10.7001441"><ele>300.0</ele><time>2026-03-28T14:28:44.535Z</time></trkpt><trkpt lat="45.6071651" lon="10.7001334"><ele>297.0</ele><time>2026-03-28T14:28:45.538Z</time></trkpt><trkpt lat="45.6072967" lon="10.7001272"><ele>294.0</ele><time>2026-03-28T14:28:46.538Z</time></trkpt><trkpt lat="45.607431" lon="10.7001206"><ele>291.0</ele><time>2026-03-28T14:28:47.533Z</time></trkpt><trkpt lat="45.6075643" lon="10.7001106"><ele>291.0</ele><time>2026-03-28T14:28:48.536Z</time></trkpt><trkpt lat="45.6076732" lon="10.7000719"><ele>291.0</ele><time>2026-03-28T14:28:49.541Z</time></trkpt><trkpt lat="45.6077782" lon="10.7000212"><ele>291.0</ele><time>2026-03-28T14:28:50.54Z</time></trkpt><trkpt lat="45.6078683" lon="10.6999787"><ele>291.0</ele><time>2026-03-28T14:28:51.528Z</time></trkpt><trkpt lat="45.6079491" lon="10.6999419"><ele>291.0</ele><time>2026-03-28T14:28:52.536Z</time></trkpt><trkpt lat="45.6080222" lon="10.6999306"><ele>289.75</ele><time>2026-03-28T14:28:53.537Z</time></trkpt><trkpt lat="45.6081069" lon="10.6999525"><ele>288.5</ele><time>2026-03-28T14:28:54.524Z</time></trkpt><trkpt lat="45.6082147" lon="10.6999999"><ele>287.25</ele><time>2026-03-28T14:28:55.536Z</time></trkpt><trkpt lat="45.6083447" lon="10.7000596"><ele>286.0</ele><time>2026-03-28T14:28:56.532Z</time></trkpt><trkpt lat="45.6084733" lon="10.7001098"><ele>286.0</ele><time>2026-03-28T14:28:57.532Z</time></trkpt><trkpt lat="45.6085919" lon="10.7001531"><ele>286.0</ele><time>2026-03-28T14:28:58.542Z</time></trkpt><trkpt lat="45.608701" lon="10.700177"><ele>286.0</ele><time>2026-03-28T14:28:59.533Z</time></trkpt><trkpt lat="45.6088087" lon="10.7001892"><ele>286.0</ele><time>2026-03-28T14:29:00.534Z</time></trkpt><trkpt lat="45.6089106" lon="10.7001871"><ele>286.0</ele><time>2026-03-28T14:29:01.532Z</time></trkpt><trkpt lat="45.6090044" lon="10.7001872"><ele>284.0</ele><time>2026-03-28T14:29:02.536Z</time></trkpt><trkpt lat="45.609095" lon="10.7001942"><ele>282.0</ele><time>2026-03-28T14:29:03.533Z</time></trkpt><trkpt lat="45.6091723" lon="10.7002061"><ele>280.0</ele><time>2026-03-28T14:29:04.528Z</time></trkpt><trkpt lat="45.6092518" lon="10.7001755"><ele>278.0</ele><time>2026-03-28T14:29:06.526Z</time></trkpt><trkpt lat="45.6092645" lon="10.700064"><ele>276.0</ele><time>2026-03-28T14:29:08.533Z</time></trkpt><trkpt lat="45.6091948" lon="10.6999978"><ele>274.0</ele><time>2026-03-28T14:29:10.534Z</time></trkpt><trkpt lat="45.6091236" lon="10.6999629"><ele>274.0</ele><time>2026-03-28T14:29:11.526Z</time></trkpt><trkpt lat="45.6090131" lon="10.6999343"><ele>274.0</ele><time>2026-03-28T14:29:12.523Z</time></trkpt><trkpt lat="45.6088571" lon="10.6998935"><ele>274.0</ele><time>2026-03-28T14:29:13.523Z</time></trkpt><trkpt lat="45.608719" lon="10.6998462"><ele>274.0</ele><time>2026-03-28T14:29:14.529Z</time></trkpt><trkpt lat="45.608602" lon="10.6997819"><ele>277.0</ele><time>2026-03-28T14:29:15.525Z</time></trkpt><trkpt lat="45.6084919" lon="10.6997183"><ele>280.0</ele><time>2026-03-28T14:29:16.533Z</time></trkpt><trkpt lat="45.6083643" lon="10.6996547"><ele>283.0</ele><time>2026-03-28T14:29:17.533Z</time></trkpt><trkpt lat="45.60825" lon="10.699579"><ele>286.0</ele><time>2026-03-28T14:29:18.535Z</time></trkpt><trkpt lat="45.6081423" lon="10.6995062"><ele>286.0</ele><time>2026-03-28T14:29:19.529Z</time></trkpt><trkpt lat="45.6080373" lon="10.6994279"><ele>286.0</ele><time>2026-03-28T14:29:20.534Z</time></trkpt><trkpt lat="45.6079285" lon="10.6993876"><ele>286.0</ele><time>2026-03-28T14:29:21.531Z</time></trkpt><trkpt lat="45.6078233" lon="10.6993735"><ele>286.0</ele><time>2026-03-28T14:29:22.533Z</time></trkpt><trkpt lat="45.60771" lon="10.699351"><ele>282.25</ele><time>2026-03-28T14:29:23.532Z</time></trkpt><trkpt lat="45.6076058" lon="10.6993002"><ele>278.5</ele><time>2026-03-28T14:29:24.536Z</time></trkpt><trkpt lat="45.6075019" lon="10.6992309"><ele>274.75</ele><time>2026-03-28T14:29:25.536Z</time></trkpt><trkpt lat="45.6074071" lon="10.6991338"><ele>271.0</ele><time>2026-03-28T14:29:26.53Z</time></trkpt><trkpt lat="45.607322" lon="10.6990347"><ele>271.0</ele><time>2026-03-28T14:29:27.542Z</time></trkpt><trkpt lat="45.6072647" lon="10.6989096"><ele>271.0</ele><time>2026-03-28T14:29:28.535Z</time></trkpt><trkpt lat="45.6072207" lon="10.6987653"><ele>271.0</ele><time>2026-03-28T14:29:29.544Z</time></trkpt><trkpt lat="45.6071876" lon="10.6986112"><ele>271.0</ele><time>2026-03-28T14:29:30.538Z</time></trkpt><trkpt lat="45.6071503" lon="10.6984561"><ele>271.0</ele><time>2026-03-28T14:29:31.53Z</time></trkpt><trkpt lat="45.6071051" lon="10.6983059"><ele>270.0</ele><time>2026-03-28T14:29:32.551Z</time></trkpt><trkpt lat="45.6070318" lon="10.6981608"><ele>269.0</ele><time>2026-03-28T14:29:33.546Z</time></trkpt><trkpt lat="45.6069441" lon="10.6980407"><ele>268.0</ele><time>2026-03-28T14:29:34.543Z</time></trkpt><trkpt lat="45.6068655" lon="10.6979426"><ele>267.0</ele><time>2026-03-28T14:29:35.548Z</time></trkpt><trkpt lat="45.6067868" lon="10.6978494"><ele>265.3333333333333</ele><time>2026-03-28T14:29:36.548Z</time></trkpt><trkpt lat="45.6067199" lon="10.6977419"><ele>263.6666666666667</ele><time>2026-03-28T14:29:37.539Z</time></trkpt><trkpt lat="45.6066572" lon="10.69764"><ele>262.0</ele><time>2026-03-28T14:29:38.551Z</time></trkpt><trkpt lat="45.606593" lon="10.6975588"><ele>260.33333333333337</ele><time>2026-03-28T14:29:39.549Z</time></trkpt><trkpt lat="45.6065286" lon="10.6974722"><ele>258.6666666666667</ele><time>2026-03-28T14:29:40.547Z</time></trkpt><trkpt lat="45.6064797" lon="10.6973918"><ele>257.0</ele><time>2026-03-28T14:29:41.551Z</time></trkpt><trkpt lat="45.60644" lon="10.6973022"><ele>257.0</ele><time>2026-03-28T14:29:42.533Z</time></trkpt><trkpt lat="45.6064086" lon="10.6971971"><ele>257.0</ele><time>2026-03-28T14:29:43.528Z</time></trkpt><trkpt lat="45.6064041" lon="10.6970816"><ele>257.0</ele><time>2026-03-28T14:29:44.538Z</time></trkpt><trkpt lat="45.606413" lon="10.6969513"><ele>257.0</ele><time>2026-03-28T14:29:45.534Z</time></trkpt><trkpt lat="45.6064222" lon="10.696807"><ele>257.0</ele><time>2026-03-28T14:29:46.537Z</time></trkpt><trkpt lat="45.6064341" lon="10.6966685"><ele>255.50000000000003</ele><time>2026-03-28T14:29:47.531Z</time></trkpt><trkpt lat="45.6064662" lon="10.6965437"><ele>254.0</ele><time>2026-03-28T14:29:48.534Z</time></trkpt><trkpt lat="45.6064735" lon="10.696434"><ele>252.5</ele><time>2026-03-28T14:29:49.537Z</time></trkpt><trkpt lat="45.6064643" lon="10.6963325"><ele>251.0</ele><time>2026-03-28T14:29:50.529Z</time></trkpt><trkpt lat="45.6064337" lon="10.69625"><ele>249.50000000000003</ele><time>2026-03-28T14:29:51.536Z</time></trkpt><trkpt lat="45.6063736" lon="10.6961654"><ele>248.0</ele><time>2026-03-28T14:29:52.541Z</time></trkpt><trkpt lat="45.6062709" lon="10.6960889"><ele>247.75</ele><time>2026-03-28T14:29:53.535Z</time></trkpt><trkpt lat="45.6061498" lon="10.6959942"><ele>247.5</ele><time>2026-03-28T14:29:54.538Z</time></trkpt><trkpt lat="45.6060365" lon="10.6959001"><ele>247.25</ele><time>2026-03-28T14:29:55.543Z</time></trkpt><trkpt lat="45.6059341" lon="10.6958122"><ele>247.0</ele><time>2026-03-28T14:29:56.542Z</time></trkpt><trkpt lat="45.6058567" lon="10.6957157"><ele>246.99999999999997</ele><time>2026-03-28T14:29:57.544Z</time></trkpt><trkpt lat="45.6057804" lon="10.6956218"><ele>247.0</ele><time>2026-03-28T14:29:58.538Z</time></trkpt><trkpt lat="45.6057141" lon="10.695537"><ele>247.0</ele><time>2026-03-28T14:29:59.543Z</time></trkpt><trkpt lat="45.6056514" lon="10.6954607"><ele>247.0</ele><time>2026-03-28T14:30:00.538Z</time></trkpt><trkpt lat="45.6055995" lon="10.6954038"><ele>246.99999999999997</ele><time>2026-03-28T14:30:01.536Z</time></trkpt><trkpt lat="45.6055456" lon="10.6953572"><ele>247.0</ele><time>2026-03-28T14:30:02.53Z</time></trkpt><trkpt lat="45.6055213" lon="10.6952705"><ele>247.0</ele><time>2026-03-28T14:30:04.537Z</time></trkpt><trkpt lat="45.6055645" lon="10.6951848"><ele>247.0</ele><time>2026-03-28T14:30:06.537Z</time></trkpt><trkpt lat="45.6056672" lon="10.6952387"><ele>247.0</ele><time>2026-03-28T14:30:08.542Z</time></trkpt><trkpt lat="45.6057675" lon="10.6953315"><ele>247.0</ele><time>2026-03-28T14:30:09.533Z</time></trkpt><trkpt lat="45.6058925" lon="10.6954279"><ele>247.0</ele><time>2026-03-28T14:30:10.536Z</time></trkpt><trkpt lat="45.6060356" lon="10.6955235"><ele>242.33333333333331</ele><time>2026-03-28T14:30:11.538Z</time></trkpt><trkpt lat="45.6061871" lon="10.6956189"><ele>237.66666666666669</ele><time>2026-03-28T14:30:12.535Z</time></trkpt><trkpt lat="45.6063404" lon="10.6957022"><ele>233.0</ele><time>2026-03-28T14:30:13.538Z</time></trkpt><trkpt lat="45.6064707" lon="10.6957655"><ele>233.0</ele><time>2026-03-28T14:30:14.534Z</time></trkpt><trkpt lat="45.6065785" lon="10.6958221"><ele>233.0</ele><time>2026-03-28T14:30:15.535Z</time></trkpt><trkpt lat="45.606679" lon="10.6958616"><ele>233.0</ele><time>2026-03-28T14:30:16.534Z</time></trkpt><trkpt lat="45.6067817" lon="10.6959175"><ele>233.0</ele><time>2026-03-28T14:30:17.532Z</time></trkpt><trkpt lat="45.6068829" lon="10.69598"><ele>233.0</ele><time>2026-03-28T14:30:18.537Z</time></trkpt><trkpt lat="45.606982" lon="10.6960645"><ele>232.50000000000003</ele><time>2026-03-28T14:30:19.528Z</time></trkpt><trkpt lat="45.607075" lon="10.6961405"><ele>232.0</ele><time>2026-03-28T14:30:20.529Z</time></trkpt><trkpt lat="45.6071484" lon="10.6962008"><ele>231.5</ele><time>2026-03-28T14:30:21.529Z</time></trkpt><trkpt lat="45.6072037" lon="10.6962466"><ele>231.0</ele><time>2026-03-28T14:30:22.537Z</time></trkpt><trkpt lat="45.6072725" lon="10.6962353"><ele>230.50000000000003</ele><time>2026-03-28T14:30:25.539Z</time></trkpt><trkpt lat="45.6072543" lon="10.6960707"><ele>230.0</ele><time>2026-03-28T14:30:27.539Z</time></trkpt><trkpt lat="45.6072008" lon="10.6959952"><ele>230.75</ele><time>2026-03-28T14:30:28.541Z</time></trkpt><trkpt lat="45.6071182" lon="10.695895"><ele>231.5</ele><time>2026-03-28T14:30:29.545Z</time></trkpt><trkpt lat="45.6070125" lon="10.6957733"><ele>232.25</ele><time>2026-03-28T14:30:30.535Z</time></trkpt><trkpt lat="45.6069012" lon="10.6956257"><ele>233.0</ele><time>2026-03-28T14:30:31.543Z</time></trkpt><trkpt lat="45.6067638" lon="10.6954731"><ele>233.0</ele><time>2026-03-28T14:30:32.534Z</time></trkpt><trkpt lat="45.6066145" lon="10.6953265"><ele>233.0</ele><time>2026-03-28T14:30:33.537Z</time></trkpt><trkpt lat="45.6064988" lon="10.6952263"><ele>233.0</ele><time>2026-03-28T14:30:34.54Z</time></trkpt><trkpt lat="45.6063416" lon="10.6951165"><ele>232.0</ele><time>2026-03-28T14:30:35.537Z</time></trkpt><trkpt lat="45.6062234" lon="10.6950041"><ele>231.0</ele><time>2026-03-28T14:30:36.538Z</time></trkpt><trkpt lat="45.6061297" lon="10.6949103"><ele>230.0</ele><time>2026-03-28T14:30:37.542Z</time></trkpt><trkpt lat="45.6060439" lon="10.6947714"><ele>229.0</ele><time>2026-03-28T14:30:38.538Z</time></trkpt><trkpt lat="45.6059477" lon="10.694644"><ele>229.0</ele><time>2026-03-28T14:30:39.538Z</time></trkpt><trkpt lat="45.6058662" lon="10.6945172"><ele>229.0</ele><time>2026-03-28T14:30:40.542Z</time></trkpt><trkpt lat="45.6057812" lon="10.6943902"><ele>229.0</ele><time>2026-03-28T14:30:42.613Z</time></trkpt><trkpt lat="45.6056963" lon="10.6942697"><ele>229.0</ele><time>2026-03-28T14:30:43.615Z</time></trkpt><trkpt lat="45.605601" lon="10.6941515"><ele>227.25</ele><time>2026-03-28T14:30:44.616Z</time></trkpt><trkpt lat="45.6055" lon="10.6940316"><ele>225.5</ele><time>2026-03-28T14:30:45.614Z</time></trkpt><trkpt lat="45.6053982" lon="10.6939193"><ele>223.75</ele><time>2026-03-28T14:30:46.62Z</time></trkpt><trkpt lat="45.605295" lon="10.6938139"><ele>222.0</ele><time>2026-03-28T14:30:47.615Z</time></trkpt><trkpt lat="45.6051899" lon="10.6937122"><ele>222.0</ele><time>2026-03-28T14:30:48.621Z</time></trkpt><trkpt lat="45.6050822" lon="10.6936105"><ele>222.0</ele><time>2026-03-28T14:30:49.621Z</time></trkpt><trkpt lat="45.6049699" lon="10.6935061"><ele>222.0</ele><time>2026-03-28T14:30:50.624Z</time></trkpt><trkpt lat="45.6048631" lon="10.6934066"><ele>222.0</ele><time>2026-03-28T14:30:51.623Z</time></trkpt><trkpt lat="45.6047618" lon="10.6933161"><ele>220.5</ele><time>2026-03-28T14:30:52.621Z</time></trkpt><trkpt lat="45.6046388" lon="10.6932318"><ele>219.0</ele><time>2026-03-28T14:30:53.622Z</time></trkpt><trkpt lat="45.6045269" lon="10.6931316"><ele>217.5</ele><time>2026-03-28T14:30:54.62Z</time></trkpt><trkpt lat="45.6044161" lon="10.6930273"><ele>216.0</ele><time>2026-03-28T14:30:55.626Z</time></trkpt><trkpt lat="45.6043108" lon="10.6929258"><ele>216.0</ele><time>2026-03-28T14:30:56.619Z</time></trkpt><trkpt lat="45.6042141" lon="10.6928259"><ele>216.0</ele><time>2026-03-28T14:30:57.619Z</time></trkpt><trkpt lat="45.6041195" lon="10.6927167"><ele>216.0</ele><time>2026-03-28T14:30:58.615Z</time></trkpt><trkpt lat="45.6040288" lon="10.6926025"><ele>216.0</ele><time>2026-03-28T14:30:59.626Z</time></trkpt><trkpt lat="45.603943" lon="10.6924945"><ele>216.0</ele><time>2026-03-28T14:31:00.613Z</time></trkpt><trkpt lat="45.6038477" lon="10.6923938"><ele>216.0</ele><time>2026-03-28T14:31:01.613Z</time></trkpt><trkpt lat="45.6037466" lon="10.6923042"><ele>216.0</ele><time>2026-03-28T14:31:02.609Z</time></trkpt><trkpt lat="45.6036367" lon="10.6922188"><ele>216.0</ele><time>2026-03-28T14:31:03.606Z</time></trkpt><trkpt lat="45.6035296" lon="10.6921419"><ele>216.0</ele><time>2026-03-28T14:31:04.614Z</time></trkpt><trkpt lat="45.6034291" lon="10.6920675"><ele>216.0</ele><time>2026-03-28T14:31:05.608Z</time></trkpt><trkpt lat="45.6033287" lon="10.6920013"><ele>216.0</ele><time>2026-03-28T14:31:06.619Z</time></trkpt><trkpt lat="45.6032191" lon="10.6919216"><ele>216.0</ele><time>2026-03-28T14:31:07.624Z</time></trkpt><trkpt lat="45.6031108" lon="10.6918508"><ele>213.60000000000002</ele><time>2026-03-28T14:31:08.616Z</time></trkpt><trkpt lat="45.6030081" lon="10.6917806"><ele>211.20000000000002</ele><time>2026-03-28T14:31:09.614Z</time></trkpt><trkpt lat="45.6029033" lon="10.6916978"><ele>208.8</ele><time>2026-03-28T14:31:10.611Z</time></trkpt><trkpt lat="45.6028131" lon="10.6916124"><ele>206.39999999999998</ele><time>2026-03-28T14:31:11.612Z</time></trkpt><trkpt lat="45.6027303" lon="10.6915269"><ele>204.0</ele><time>2026-03-28T14:31:12.616Z</time></trkpt><trkpt lat="45.602652" lon="10.6914349"><ele>204.0</ele><time>2026-03-28T14:31:13.62Z</time></trkpt><trkpt lat="45.6025695" lon="10.6913352"><ele>204.0</ele><time>2026-03-28T14:31:14.612Z</time></trkpt><trkpt lat="45.6024765" lon="10.6912312"><ele>204.0</ele><time>2026-03-28T14:31:15.625Z</time></trkpt><trkpt lat="45.6023769" lon="10.691143"><ele>204.0</ele><time>2026-03-28T14:31:16.617Z</time></trkpt><trkpt lat="45.6022614" lon="10.6910612"><ele>200.0</ele><time>2026-03-28T14:31:17.605Z</time></trkpt><trkpt lat="45.6021253" lon="10.6909867"><ele>196.0</ele><time>2026-03-28T14:31:18.609Z</time></trkpt><trkpt lat="45.6019931" lon="10.6909152"><ele>192.0</ele><time>2026-03-28T14:31:19.612Z</time></trkpt><trkpt lat="45.6018691" lon="10.6908483"><ele>188.0</ele><time>2026-03-28T14:31:20.61Z</time></trkpt><trkpt lat="45.6017515" lon="10.6907901"><ele>188.0</ele><time>2026-03-28T14:31:21.616Z</time></trkpt><trkpt lat="45.6016371" lon="10.69074"><ele>188.0</ele><time>2026-03-28T14:31:22.623Z</time></trkpt><trkpt lat="45.6015264" lon="10.6906953"><ele>188.0</ele><time>2026-03-28T14:31:23.619Z</time></trkpt><trkpt lat="45.6014149" lon="10.6906556"><ele>188.0</ele><time>2026-03-28T14:31:24.623Z</time></trkpt><trkpt lat="45.6013186" lon="10.6906153"><ele>188.0</ele><time>2026-03-28T14:31:25.627Z</time></trkpt><trkpt lat="45.601242" lon="10.6905753"><ele>188.0</ele><time>2026-03-28T14:31:26.617Z</time></trkpt><trkpt lat="45.6011628" lon="10.6905192"><ele>188.0</ele><time>2026-03-28T14:31:27.62Z</time></trkpt><trkpt lat="45.6010722" lon="10.6904567"><ele>188.0</ele><time>2026-03-28T14:31:28.618Z</time></trkpt><trkpt lat="45.6009969" lon="10.6904159"><ele>188.0</ele><time>2026-03-28T14:31:29.613Z</time></trkpt><trkpt lat="45.6009236" lon="10.6903854"><ele>188.0</ele><time>2026-03-28T14:31:30.614Z</time></trkpt><trkpt lat="45.6008391" lon="10.690348"><ele>183.5</ele><time>2026-03-28T14:31:32.616Z</time></trkpt><trkpt lat="45.6007018" lon="10.6902205"><ele>179.0</ele><time>2026-03-28T14:31:34.538Z</time></trkpt><trkpt lat="45.6008386" lon="10.6901769"><ele>174.5</ele><time>2026-03-28T14:31:36.541Z</time></trkpt><trkpt lat="45.6009496" lon="10.6902074"><ele>170.0</ele><time>2026-03-28T14:31:37.519Z</time></trkpt><trkpt lat="45.6010788" lon="10.6902328"><ele>168.0</ele><time>2026-03-28T14:31:38.527Z</time></trkpt><trkpt lat="45.6012263" lon="10.6902514"><ele>166.0</ele><time>2026-03-28T14:31:39.52Z</time></trkpt><trkpt lat="45.6014013" lon="10.6902515"><ele>164.0</ele><time>2026-03-28T14:31:40.526Z</time></trkpt><trkpt lat="45.6015621" lon="10.6902499"><ele>164.0</ele><time>2026-03-28T14:31:41.524Z</time></trkpt><trkpt lat="45.6016966" lon="10.6902566"><ele>164.0</ele><time>2026-03-28T14:31:42.538Z</time></trkpt><trkpt lat="45.6018735" lon="10.6902616"><ele>164.0</ele><time>2026-03-28T14:31:43.534Z</time></trkpt><trkpt lat="45.6020428" lon="10.6902669"><ele>168.25</ele><time>2026-03-28T14:31:44.561Z</time></trkpt><trkpt lat="45.602178" lon="10.6902869"><ele>172.5</ele><time>2026-03-28T14:31:45.534Z</time></trkpt><trkpt lat="45.6023108" lon="10.6902818"><ele>176.75</ele><time>2026-03-28T14:31:46.538Z</time></trkpt><trkpt lat="45.6024321" lon="10.6902774"><ele>181.0</ele><time>2026-03-28T14:31:47.539Z</time></trkpt><trkpt lat="45.6025702" lon="10.6902935"><ele>181.0</ele><time>2026-03-28T14:31:48.539Z</time></trkpt><trkpt lat="45.6026953" lon="10.690322"><ele>181.0</ele><time>2026-03-28T14:31:49.538Z</time></trkpt><trkpt lat="45.6028646" lon="10.6903275"><ele>181.0</ele><time>2026-03-28T14:31:50.539Z</time></trkpt><trkpt lat="45.6030371" lon="10.6903243"><ele>178.75</ele><time>2026-03-28T14:31:51.538Z</time></trkpt><trkpt lat="45.603194" lon="10.6902926"><ele>176.5</ele><time>2026-03-28T14:31:52.546Z</time></trkpt><trkpt lat="45.6033211" lon="10.6902816"><ele>174.25</ele><time>2026-03-28T14:31:53.538Z</time></trkpt><trkpt lat="45.603462" lon="10.6902974"><ele>172.0</ele><time>2026-03-28T14:31:54.533Z</time></trkpt><trkpt lat="45.6036098" lon="10.6903148"><ele>170.25</ele><time>2026-03-28T14:31:55.539Z</time></trkpt><trkpt lat="45.6037473" lon="10.6903175"><ele>168.5</ele><time>2026-03-28T14:31:56.542Z</time></trkpt><trkpt lat="45.6038782" lon="10.6903123"><ele>166.75</ele><time>2026-03-28T14:31:57.544Z</time></trkpt><trkpt lat="45.6040101" lon="10.6903205"><ele>165.0</ele><time>2026-03-28T14:31:58.55Z</time></trkpt><trkpt lat="45.6041141" lon="10.690307"><ele>165.0</ele><time>2026-03-28T14:31:59.545Z</time></trkpt><trkpt lat="45.6042193" lon="10.6902979"><ele>165.0</ele><time>2026-03-28T14:32:00.543Z</time></trkpt><trkpt lat="45.6043339" lon="10.6903079"><ele>165.0</ele><time>2026-03-28T14:32:01.538Z</time></trkpt><trkpt lat="45.6044594" lon="10.6903351"><ele>165.0</ele><time>2026-03-28T14:32:02.524Z</time></trkpt><trkpt lat="45.6045812" lon="10.6903836"><ele>162.0</ele><time>2026-03-28T14:32:03.53Z</time></trkpt><trkpt lat="45.6047212" lon="10.6904465"><ele>159.0</ele><time>2026-03-28T14:32:04.534Z</time></trkpt><trkpt lat="45.6048432" lon="10.6904913"><ele>156.0</ele><time>2026-03-28T14:32:05.527Z</time></trkpt><trkpt lat="45.6049609" lon="10.6905253"><ele>153.0</ele><time>2026-03-28T14:32:06.525Z</time></trkpt><trkpt lat="45.6050747" lon="10.6905311"><ele>153.0</ele><time>2026-03-28T14:32:07.526Z</time></trkpt><trkpt lat="45.6051934" lon="10.6905265"><ele>153.0</ele><time>2026-03-28T14:32:08.527Z</time></trkpt><trkpt lat="45.6053017" lon="10.6905326"><ele>153.0</ele><time>2026-03-28T14:32:09.531Z</time></trkpt><trkpt lat="45.6054122" lon="10.6905752"><ele>153.0</ele><time>2026-03-28T14:32:10.528Z</time></trkpt><trkpt lat="45.6055135" lon="10.6906405"><ele>149.8</ele><time>2026-03-28T14:32:11.53Z</time></trkpt><trkpt lat="45.6056107" lon="10.6907002"><ele>146.60000000000002</ele><time>2026-03-28T14:32:12.531Z</time></trkpt><trkpt lat="45.6056957" lon="10.6907841"><ele>143.39999999999998</ele><time>2026-03-28T14:32:13.525Z</time></trkpt><trkpt lat="45.6057725" lon="10.6908779"><ele>140.2</ele><time>2026-03-28T14:32:14.519Z</time></trkpt><trkpt lat="45.6058379" lon="10.6909416"><ele>137.0</ele><time>2026-03-28T14:32:15.526Z</time></trkpt><trkpt lat="45.6059215" lon="10.6910366"><ele>137.0</ele><time>2026-03-28T14:32:17.532Z</time></trkpt><trkpt lat="45.605982" lon="10.6910041"><ele>137.0</ele><time>2026-03-28T14:32:19.546Z</time></trkpt><trkpt lat="45.6059282" lon="10.6908467"><ele>137.0</ele><time>2026-03-28T14:32:21.536Z</time></trkpt><trkpt lat="45.6058563" lon="10.6907596"><ele>137.0</ele><time>2026-03-28T14:32:22.533Z</time></trkpt><trkpt lat="45.6057718" lon="10.6906644"><ele>137.0</ele><time>2026-03-28T14:32:23.53Z</time></trkpt><trkpt lat="45.6056623" lon="10.690539"><ele>137.0</ele><time>2026-03-28T14:32:24.537Z</time></trkpt><trkpt lat="45.6055492" lon="10.6903994"><ele>137.0</ele><time>2026-03-28T14:32:25.533Z</time></trkpt><trkpt lat="45.605432" lon="10.6902592"><ele>137.0</ele><time>2026-03-28T14:32:26.537Z</time></trkpt><trkpt lat="45.6052804" lon="10.6901141"><ele>136.25</ele><time>2026-03-28T14:32:27.537Z</time></trkpt><trkpt lat="45.6051625" lon="10.6899976"><ele>135.5</ele><time>2026-03-28T14:32:28.54Z</time></trkpt><trkpt lat="45.6050451" lon="10.6899035"><ele>134.75</ele><time>2026-03-28T14:32:29.532Z</time></trkpt><trkpt lat="45.6049356" lon="10.6897751"><ele>134.0</ele><time>2026-03-28T14:32:30.536Z</time></trkpt><trkpt lat="45.6048082" lon="10.6897008"><ele>134.0</ele><time>2026-03-28T14:32:31.531Z</time></trkpt><trkpt lat="45.6047276" lon="10.6896551"><ele>134.0</ele><time>2026-03-28T14:32:32.537Z</time></trkpt><trkpt lat="45.6046269" lon="10.6896016"><ele>134.0</ele><time>2026-03-28T14:32:33.53Z</time></trkpt><trkpt lat="45.6045512" lon="10.6895252"><ele>134.0</ele><time>2026-03-28T14:32:34.535Z</time></trkpt><trkpt lat="45.6044758" lon="10.6894722"><ele>134.0</ele><time>2026-03-28T14:32:35.534Z</time></trkpt><trkpt lat="45.6044045" lon="10.6894148"><ele>132.6</ele><time>2026-03-28T14:32:36.529Z</time></trkpt><trkpt lat="45.6043515" lon="10.6893053"><ele>131.2</ele><time>2026-03-28T14:32:38.534Z</time></trkpt><trkpt lat="45.6043763" lon="10.6891937"><ele>129.79999999999998</ele><time>2026-03-28T14:32:40.533Z</time></trkpt><trkpt lat="45.6045102" lon="10.6891809"><ele>128.4</ele><time>2026-03-28T14:32:42.538Z</time></trkpt><trkpt lat="45.6046127" lon="10.6892146"><ele>127.0</ele><time>2026-03-28T14:32:43.537Z</time></trkpt><trkpt lat="45.6047448" lon="10.6892523"><ele>125.25</ele><time>2026-03-28T14:32:44.536Z</time></trkpt><trkpt lat="45.6048821" lon="10.6892926"><ele>123.5</ele><time>2026-03-28T14:32:45.531Z</time></trkpt><trkpt lat="45.6050262" lon="10.6893142"><ele>121.75</ele><time>2026-03-28T14:32:46.534Z</time></trkpt><trkpt lat="45.6051681" lon="10.6893597"><ele>120.0</ele><time>2026-03-28T14:32:47.538Z</time></trkpt><trkpt lat="45.6052831" lon="10.6894106"><ele>120.33333333333334</ele><time>2026-03-28T14:32:48.54Z</time></trkpt><trkpt lat="45.6054042" lon="10.6894785"><ele>120.66666666666667</ele><time>2026-03-28T14:32:49.541Z</time></trkpt><trkpt lat="45.6055588" lon="10.6895341"><ele>121.0</ele><time>2026-03-28T14:32:50.544Z</time></trkpt><trkpt lat="45.6057132" lon="10.6896113"><ele>121.0</ele><time>2026-03-28T14:32:51.536Z</time></trkpt><trkpt lat="45.6058278" lon="10.6896875"><ele>121.0</ele><time>2026-03-28T14:32:52.53Z</time></trkpt><trkpt lat="45.6059292" lon="10.6897444"><ele>121.0</ele><time>2026-03-28T14:32:53.533Z</time></trkpt><trkpt lat="45.6060192" lon="10.6898198"><ele>121.0</ele><time>2026-03-28T14:32:54.537Z</time></trkpt><trkpt lat="45.6060995" lon="10.6899085"><ele>121.0</ele><time>2026-03-28T14:32:55.538Z</time></trkpt><trkpt lat="45.6061762" lon="10.6900248"><ele>121.25</ele><time>2026-03-28T14:32:56.539Z</time></trkpt><trkpt lat="45.6062722" lon="10.6901404"><ele>121.5</ele><time>2026-03-28T14:32:57.531Z</time></trkpt><trkpt lat="45.6063693" lon="10.6902657"><ele>121.75</ele><time>2026-03-28T14:32:58.528Z</time></trkpt><trkpt lat="45.6064582" lon="10.6903761"><ele>122.0</ele><time>2026-03-28T14:32:59.529Z</time></trkpt><trkpt lat="45.6065505" lon="10.6904668"><ele>122.0</ele><time>2026-03-28T14:33:00.536Z</time></trkpt><trkpt lat="45.6066688" lon="10.6905506"><ele>122.0</ele><time>2026-03-28T14:33:01.527Z</time></trkpt><trkpt lat="45.6068087" lon="10.6906301"><ele>122.0</ele><time>2026-03-28T14:33:02.53Z</time></trkpt><trkpt lat="45.606973" lon="10.6906914"><ele>117.5</ele><time>2026-03-28T14:33:03.524Z</time></trkpt><trkpt lat="45.6071166" lon="10.6907473"><ele>113.0</ele><time>2026-03-28T14:33:04.533Z</time></trkpt><trkpt lat="45.6072489" lon="10.6908015"><ele>108.5</ele><time>2026-03-28T14:33:05.53Z</time></trkpt><trkpt lat="45.6073797" lon="10.6908553"><ele>104.0</ele><time>2026-03-28T14:33:06.537Z</time></trkpt><trkpt lat="45.6075105" lon="10.6909178"><ele>104.0</ele><time>2026-03-28T14:33:07.534Z</time></trkpt><trkpt lat="45.6076101" lon="10.6909606"><ele>104.0</ele><time>2026-03-28T14:33:08.538Z</time></trkpt><trkpt lat="45.6077051" lon="10.6910037"><ele>104.0</ele><time>2026-03-28T14:33:09.536Z</time></trkpt><trkpt lat="45.6078088" lon="10.6910631"><ele>104.0</ele><time>2026-03-28T14:33:10.532Z</time></trkpt><trkpt lat="45.6079157" lon="10.6911276"><ele>104.0</ele><time>2026-03-28T14:33:11.531Z</time></trkpt><trkpt lat="45.6080255" lon="10.6911991"><ele>105.25</ele><time>2026-03-28T14:33:12.529Z</time></trkpt><trkpt lat="45.6081437" lon="10.6912393"><ele>106.5</ele><time>2026-03-28T14:33:13.533Z</time></trkpt><trkpt lat="45.6082836" lon="10.6912382"><ele>107.75</ele><time>2026-03-28T14:33:14.531Z</time></trkpt><trkpt lat="45.6084315" lon="10.691219"><ele>109.0</ele><time>2026-03-28T14:33:15.528Z</time></trkpt><trkpt lat="45.608589" lon="10.6911963"><ele>106.5</ele><time>2026-03-28T14:33:16.532Z</time></trkpt><trkpt lat="45.6087588" lon="10.6911702"><ele>104.0</ele><time>2026-03-28T14:33:17.524Z</time></trkpt><trkpt lat="45.608894" lon="10.6911578"><ele>101.5</ele><time>2026-03-28T14:33:18.534Z</time></trkpt><trkpt lat="45.6090371" lon="10.691153"><ele>99.0</ele><time>2026-03-28T14:33:19.539Z</time></trkpt><trkpt lat="45.6091529" lon="10.6911711"><ele>99.0</ele><time>2026-03-28T14:33:20.543Z</time></trkpt><trkpt lat="45.609249" lon="10.6911905"><ele>99.0</ele><time>2026-03-28T14:33:21.553Z</time></trkpt><trkpt lat="45.6093698" lon="10.6912067"><ele>99.0</ele><time>2026-03-28T14:33:22.55Z</time></trkpt><trkpt lat="45.6094611" lon="10.6912158"><ele>99.0</ele><time>2026-03-28T14:33:23.542Z</time></trkpt><trkpt lat="45.6095734" lon="10.6912047"><ele>99.0</ele><time>2026-03-28T14:33:24.54Z</time></trkpt><trkpt lat="45.6096633" lon="10.6911806"><ele>98.6</ele><time>2026-03-28T14:33:25.54Z</time></trkpt><trkpt lat="45.609748" lon="10.6911389"><ele>98.2</ele><time>2026-03-28T14:33:26.538Z</time></trkpt><trkpt lat="45.6098193" lon="10.6910688"><ele>97.8</ele><time>2026-03-28T14:33:27.536Z</time></trkpt><trkpt lat="45.6098719" lon="10.6909652"><ele>97.39999999999999</ele><time>2026-03-28T14:33:28.542Z</time></trkpt><trkpt lat="45.6099126" lon="10.6908113"><ele>97.0</ele><time>2026-03-28T14:33:29.541Z</time></trkpt><trkpt lat="45.6099292" lon="10.6906162"><ele>95.0</ele><time>2026-03-28T14:33:30.538Z</time></trkpt><trkpt lat="45.6099203" lon="10.6904017"><ele>93.0</ele><time>2026-03-28T14:33:31.534Z</time></trkpt><trkpt lat="45.6099154" lon="10.6902187"><ele>91.0</ele><time>2026-03-28T14:33:32.542Z</time></trkpt><trkpt lat="45.6098883" lon="10.6900478"><ele>89.0</ele><time>2026-03-28T14:33:33.543Z</time></trkpt><trkpt lat="45.6098633" lon="10.6898749"><ele>87.80000000000001</ele><time>2026-03-28T14:33:34.543Z</time></trkpt><trkpt lat="45.609852" lon="10.6897227"><ele>86.60000000000001</ele><time>2026-03-28T14:33:35.539Z</time></trkpt><trkpt lat="45.6098497" lon="10.689582"><ele>85.4</ele><time>2026-03-28T14:33:36.544Z</time></trkpt><trkpt lat="45.6098552" lon="10.6894375"><ele>84.2</ele><time>2026-03-28T14:33:37.551Z</time></trkpt><trkpt lat="45.609882" lon="10.6893076"><ele>83.0</ele><time>2026-03-28T14:33:38.546Z</time></trkpt><trkpt lat="45.6099126" lon="10.6891894"><ele>82.0</ele><time>2026-03-28T14:33:39.542Z</time></trkpt><trkpt lat="45.6099387" lon="10.6890597"><ele>81.0</ele><time>2026-03-28T14:33:40.549Z</time></trkpt><trkpt lat="45.6099587" lon="10.6889454"><ele>80.0</ele><time>2026-03-28T14:33:41.547Z</time></trkpt><trkpt lat="45.6099867" lon="10.6888456"><ele>79.0</ele><time>2026-03-28T14:33:42.543Z</time></trkpt><trkpt lat="45.6100009" lon="10.688734"><ele>78.0</ele><time>2026-03-28T14:33:43.556Z</time></trkpt><trkpt lat="45.6100193" lon="10.6886172"><ele>77.0</ele><time>2026-03-28T14:33:44.543Z</time></trkpt><trkpt lat="45.6100318" lon="10.6885235"><ele>76.33333333333334</ele><time>2026-03-28T14:33:45.548Z</time></trkpt><trkpt lat="45.6100359" lon="10.6884315"><ele>75.66666666666667</ele><time>2026-03-28T14:33:46.551Z</time></trkpt><trkpt lat="45.6100399" lon="10.6883414"><ele>75.0</ele><time>2026-03-28T14:33:47.545Z</time></trkpt><trkpt lat="45.6100641" lon="10.6882086"><ele>74.33333333333333</ele><time>2026-03-28T14:33:49.538Z</time></trkpt><trkpt lat="45.6100867" lon="10.6881061"><ele>73.66666666666666</ele><time>2026-03-28T14:33:51.549Z</time></trkpt><trkpt lat="45.6100548" lon="10.688224"><ele>73.0</ele><time>2026-03-28T14:34:15.548Z</time></trkpt><trkpt lat="45.6100298" lon="10.688332"><ele>73.0</ele><time>2026-03-28T14:34:17.545Z</time></trkpt><trkpt lat="45.6099661" lon="10.6884035"><ele>73.0</ele><time>2026-03-28T14:34:20.54Z</time></trkpt><trkpt lat="45.6098383" lon="10.6884541"><ele>73.0</ele><time>2026-03-28T14:34:22.534Z</time></trkpt><trkpt lat="45.6097687" lon="10.6884796"><ele>73.0</ele><time>2026-03-28T14:34:23.522Z</time></trkpt><trkpt lat="45.6096436" lon="10.6884885"><ele>73.0</ele><time>2026-03-28T14:34:24.534Z</time></trkpt><trkpt lat="45.609522" lon="10.6885035"><ele>73.0</ele><time>2026-03-28T14:34:27.544Z</time></trkpt><trkpt lat="45.6094454" lon="10.6884699"><ele>73.0</ele><time>2026-03-28T14:34:28.535Z</time></trkpt><trkpt lat="45.6093535" lon="10.6884153"><ele>73.0</ele><time>2026-03-28T14:34:29.535Z</time></trkpt><trkpt lat="45.6092549" lon="10.6883323"><ele>73.0</ele><time>2026-03-28T14:34:30.532Z</time></trkpt><trkpt lat="45.6091708" lon="10.6882578"><ele>73.0</ele><time>2026-03-28T14:34:31.534Z</time></trkpt><trkpt lat="45.6090936" lon="10.6881915"><ele>73.0</ele><time>2026-03-28T14:34:32.538Z</time></trkpt><trkpt lat="45.6090135" lon="10.6881171"><ele>73.0</ele><time>2026-03-28T14:34:33.54Z</time></trkpt><trkpt lat="45.6089225" lon="10.6880426"><ele>73.0</ele><time>2026-03-28T14:34:34.542Z</time></trkpt><trkpt lat="45.6088258" lon="10.6879784"><ele>73.0</ele><time>2026-03-28T14:34:35.536Z</time></trkpt><trkpt lat="45.6087304" lon="10.6879328"><ele>73.0</ele><time>2026-03-28T14:34:36.529Z</time></trkpt><trkpt lat="45.6086307" lon="10.6878761"><ele>73.0</ele><time>2026-03-28T14:34:37.541Z</time></trkpt><trkpt lat="45.6085294" lon="10.6878151"><ele>73.0</ele><time>2026-03-28T14:34:38.534Z</time></trkpt><trkpt lat="45.6084294" lon="10.6877749"><ele>73.0</ele><time>2026-03-28T14:34:39.535Z</time></trkpt><trkpt lat="45.6083402" lon="10.6877324"><ele>73.0</ele><time>2026-03-28T14:34:40.535Z</time></trkpt><trkpt lat="45.6082557" lon="10.6877034"><ele>73.0</ele><time>2026-03-28T14:34:41.533Z</time></trkpt><trkpt lat="45.6081572" lon="10.6876746"><ele>73.0</ele><time>2026-03-28T14:34:42.539Z</time></trkpt><trkpt lat="45.6080652" lon="10.6876313"><ele>73.0</ele><time>2026-03-28T14:34:43.537Z</time></trkpt><trkpt lat="45.6079709" lon="10.6875909"><ele>73.0</ele><time>2026-03-28T14:34:44.536Z</time></trkpt><trkpt lat="45.6078674" lon="10.6875271"><ele>73.0</ele><time>2026-03-28T14:34:45.544Z</time></trkpt><trkpt lat="45.6077583" lon="10.6874558"><ele>73.0</ele><time>2026-03-28T14:34:46.541Z</time></trkpt><trkpt lat="45.6076493" lon="10.6873762"><ele>73.4</ele><time>2026-03-28T14:34:47.533Z</time></trkpt><trkpt lat="45.607541" lon="10.6872895"><ele>73.8</ele><time>2026-03-28T14:34:48.537Z</time></trkpt><trkpt lat="45.6074395" lon="10.6872321"><ele>74.2</ele><time>2026-03-28T14:34:49.535Z</time></trkpt><trkpt lat="45.6073377" lon="10.6871677"><ele>74.6</ele><time>2026-03-28T14:34:50.536Z</time></trkpt><trkpt lat="45.6072486" lon="10.6871052"><ele>75.0</ele><time>2026-03-28T14:34:51.533Z</time></trkpt><trkpt lat="45.6071593" lon="10.6870779"><ele>75.0</ele><time>2026-03-28T14:34:52.533Z</time></trkpt><trkpt lat="45.6070637" lon="10.6870787"><ele>75.0</ele><time>2026-03-28T14:34:53.544Z</time></trkpt><trkpt lat="45.606958" lon="10.6870874"><ele>75.0</ele><time>2026-03-28T14:34:54.533Z</time></trkpt><trkpt lat="45.6068405" lon="10.6870905"><ele>75.0</ele><time>2026-03-28T14:34:55.541Z</time></trkpt><trkpt lat="45.6067099" lon="10.6870884"><ele>75.2</ele><time>2026-03-28T14:34:56.533Z</time></trkpt><trkpt lat="45.6065847" lon="10.6870787"><ele>75.4</ele><time>2026-03-28T14:34:57.536Z</time></trkpt><trkpt lat="45.6064737" lon="10.6870842"><ele>75.6</ele><time>2026-03-28T14:34:58.542Z</time></trkpt><trkpt lat="45.6063795" lon="10.6870855"><ele>75.8</ele><time>2026-03-28T14:34:59.529Z</time></trkpt><trkpt lat="45.6062983" lon="10.6870879"><ele>76.0</ele><time>2026-03-28T14:35:00.532Z</time></trkpt><trkpt lat="45.6062184" lon="10.6870965"><ele>75.5</ele><time>2026-03-28T14:35:01.532Z</time></trkpt><trkpt lat="45.6061041" lon="10.6871112"><ele>75.0</ele><time>2026-03-28T14:35:03.532Z</time></trkpt><trkpt lat="45.6060319" lon="10.6871176"><ele>74.5</ele><time>2026-03-28T14:35:05.542Z</time></trkpt><trkpt lat="45.6059833" lon="10.6870561"><ele>74.0</ele><time>2026-03-28T14:35:07.542Z</time></trkpt><trkpt lat="45.6059756" lon="10.6869644"><ele>73.5</ele><time>2026-03-28T14:35:08.542Z</time></trkpt><trkpt lat="45.6059626" lon="10.6868287"><ele>73.0</ele><time>2026-03-28T14:35:09.534Z</time></trkpt><trkpt lat="45.6059564" lon="10.6866795"><ele>73.0</ele><time>2026-03-28T14:35:10.531Z</time></trkpt><trkpt lat="45.6059509" lon="10.6865447"><ele>73.0</ele><time>2026-03-28T14:35:11.535Z</time></trkpt><trkpt lat="45.6059426" lon="10.6864116"><ele>73.0</ele><time>2026-03-28T14:35:12.532Z</time></trkpt><trkpt lat="45.6059373" lon="10.6863096"><ele>73.0</ele><time>2026-03-28T14:35:13.533Z</time></trkpt><trkpt lat="45.605924" lon="10.6861709"><ele>73.0</ele><time>2026-03-28T14:35:15.54Z</time></trkpt><trkpt lat="45.6059099" lon="10.686074"><ele>73.0</ele><time>2026-03-28T14:35:35.566Z</time></trkpt><trkpt lat="45.6059018" lon="10.6859583"><ele>68.0</ele><time>2026-03-28T14:35:37.542Z</time></trkpt><trkpt lat="45.6058933" lon="10.6858532"><ele>68.0</ele><time>2026-03-28T14:35:38.538Z</time></trkpt><trkpt lat="45.6058748" lon="10.6857477"><ele>68.0</ele><time>2026-03-28T14:35:39.533Z</time></trkpt><trkpt lat="45.6058673" lon="10.685628"><ele>68.0</ele><time>2026-03-28T14:35:41.532Z</time></trkpt><trkpt lat="45.6058692" lon="10.6855218"><ele>68.0</ele><time>2026-03-28T14:35:48.558Z</time></trkpt></trkseg></trk></gpx>